﻿<?xml version="1.0" encoding="utf-8"?><gpx creator="Garmin Desktop App" version="1.1" xsi:schemaLocation="http://www.topografix.com/GPX/1/1 http://www.topografix.com/GPX/1/1/gpx.xsd http://www.garmin.com/xmlschemas/WaypointExtension/v1 http://www8.garmin.com/xmlschemas/WaypointExtensionv1.xsd http://www.garmin.com/xmlschemas/TrackPointExtension/v1 http://www.garmin.com/xmlschemas/TrackPointExtensionv1.xsd http://www.garmin.com/xmlschemas/GpxExtensions/v3 http://www8.garmin.com/xmlschemas/GpxExtensionsv3.xsd http://www.garmin.com/xmlschemas/ActivityExtension/v1 http://www8.garmin.com/xmlschemas/ActivityExtensionv1.xsd http://www.garmin.com/xmlschemas/AdventuresExtensions/v1 http://www8.garmin.com/xmlschemas/AdventuresExtensionv1.xsd http://www.garmin.com/xmlschemas/PressureExtension/v1 http://www.garmin.com/xmlschemas/PressureExtensionv1.xsd http://www.garmin.com/xmlschemas/TripExtensions/v1 http://www.garmin.com/xmlschemas/TripExtensionsv1.xsd http://www.garmin.com/xmlschemas/TripMetaDataExtensions/v1 http://www.garmin.com/xmlschemas/TripMetaDataExtensionsv1.xsd http://www.garmin.com/xmlschemas/ViaPointTransportationModeExtensions/v1 http://www.garmin.com/xmlschemas/ViaPointTransportationModeExtensionsv1.xsd http://www.garmin.com/xmlschemas/CreationTimeExtension/v1 http://www.garmin.com/xmlschemas/CreationTimeExtensionsv1.xsd http://www.garmin.com/xmlschemas/AccelerationExtension/v1 http://www.garmin.com/xmlschemas/AccelerationExtensionv1.xsd http://www.garmin.com/xmlschemas/PowerExtension/v1 http://www.garmin.com/xmlschemas/PowerExtensionv1.xsd http://www.garmin.com/xmlschemas/VideoExtension/v1 http://www.garmin.com/xmlschemas/VideoExtensionv1.xsd" xmlns="http://www.topografix.com/GPX/1/1" xmlns:xsi="http://www.w3.org/2001/XMLSchema-instance" xmlns:wptx1="http://www.garmin.com/xmlschemas/WaypointExtension/v1" xmlns:gpxtrx="http://www.garmin.com/xmlschemas/GpxExtensions/v3" xmlns:gpxtpx="http://www.garmin.com/xmlschemas/TrackPointExtension/v1" xmlns:gpxx="http://www.garmin.com/xmlschemas/GpxExtensions/v3" xmlns:trp="http://www.garmin.com/xmlschemas/TripExtensions/v1" xmlns:adv="http://www.garmin.com/xmlschemas/AdventuresExtensions/v1" xmlns:prs="http://www.garmin.com/xmlschemas/PressureExtension/v1" xmlns:tmd="http://www.garmin.com/xmlschemas/TripMetaDataExtensions/v1" xmlns:vptm="http://www.garmin.com/xmlschemas/ViaPointTransportationModeExtensions/v1" xmlns:ctx="http://www.garmin.com/xmlschemas/CreationTimeExtension/v1" xmlns:gpxacc="http://www.garmin.com/xmlschemas/AccelerationExtension/v1" xmlns:gpxpx="http://www.garmin.com/xmlschemas/PowerExtension/v1" xmlns:vidx1="http://www.garmin.com/xmlschemas/VideoExtension/v1">

  <metadata>
    <link href="http://www.garmin.com">
      <text>Garmin International</text>
    </link>
    <time>2023-07-23T21:15:11Z</time>
    <bounds maxlat="45.752565655857325" maxlon="7.933072540909052" minlat="45.729368403553963" minlon="7.843794040381908" />
  </metadata>

  <trk>
    <name>passo lazouney lago di suckie2023-07-23</name>
    <extensions>
      <gpxx:TrackExtension>
        <gpxx:DisplayColor>Yellow</gpxx:DisplayColor>
      </gpxx:TrackExtension>
    </extensions>
    <trkseg>
      <trkpt lat="45.748866470530629" lon="7.844019513577223">
        <ele>1321.1500000000001</ele>
        <time>2023-07-23T06:16:59Z</time>
      </trkpt>
      <trkpt lat="45.748902093619108" lon="7.844022614881396">
        <ele>1319.46</ele>
        <time>2023-07-23T06:17:21Z</time>
      </trkpt>
      <trkpt lat="45.748970070853829" lon="7.843948770314455">
        <ele>1318.8199999999999</ele>
        <time>2023-07-23T06:17:37Z</time>
      </trkpt>
      <trkpt lat="45.74897644110024" lon="7.843965450301766">
        <ele>1319.5899999999999</ele>
        <time>2023-07-23T06:18:03Z</time>
      </trkpt>
      <trkpt lat="45.749009130522609" lon="7.844056393951178">
        <ele>1319.0999999999999</ele>
        <time>2023-07-23T06:18:27Z</time>
      </trkpt>
      <trkpt lat="45.7490492798388" lon="7.844075337052345">
        <ele>1318.21</ele>
        <time>2023-07-23T06:18:52Z</time>
      </trkpt>
      <trkpt lat="45.749100660905242" lon="7.844105344265699">
        <ele>1318.02</ele>
        <time>2023-07-23T06:18:58Z</time>
      </trkpt>
      <trkpt lat="45.749124633148313" lon="7.84410635009408">
        <ele>1317.8699999999999</ele>
        <time>2023-07-23T06:19:00Z</time>
      </trkpt>
      <trkpt lat="45.749170398339629" lon="7.844101153314114">
        <ele>1317.5999999999999</ele>
        <time>2023-07-23T06:19:04Z</time>
      </trkpt>
      <trkpt lat="45.749301239848137" lon="7.8439895901829">
        <ele>1317.4400000000001</ele>
        <time>2023-07-23T06:19:19Z</time>
      </trkpt>
      <trkpt lat="45.749427722766995" lon="7.843938963487744">
        <ele>1317.8900000000001</ele>
        <time>2023-07-23T06:19:32Z</time>
      </trkpt>
      <trkpt lat="45.749501315876842" lon="7.843939466401935">
        <ele>1318.4300000000001</ele>
        <time>2023-07-23T06:19:39Z</time>
      </trkpt>
      <trkpt lat="45.749589744955301" lon="7.843920355662704">
        <ele>1320.6199999999999</ele>
        <time>2023-07-23T06:19:55Z</time>
      </trkpt>
      <trkpt lat="45.749580273404717" lon="7.84392848610878">
        <ele>1320.6400000000001</ele>
        <time>2023-07-23T06:20:10Z</time>
      </trkpt>
      <trkpt lat="45.749598378315568" lon="7.843951703980565">
        <ele>1319.4300000000001</ele>
        <time>2023-07-23T06:20:38Z</time>
      </trkpt>
      <trkpt lat="45.749586895108223" lon="7.843946758657694">
        <ele>1319.6199999999999</ele>
        <time>2023-07-23T06:21:00Z</time>
      </trkpt>
      <trkpt lat="45.74958429671824" lon="7.843943405896425">
        <ele>1319.8199999999999</ele>
        <time>2023-07-23T06:21:30Z</time>
      </trkpt>
      <trkpt lat="45.749583709985018" lon="7.843934940174222">
        <ele>1320.5599999999999</ele>
        <time>2023-07-23T06:22:09Z</time>
      </trkpt>
      <trkpt lat="45.749637186527252" lon="7.843995541334152">
        <ele>1320.6500000000001</ele>
        <time>2023-07-23T06:22:23Z</time>
      </trkpt>
      <trkpt lat="45.749642886221409" lon="7.844026638194919">
        <ele>1320.5599999999999</ele>
        <time>2023-07-23T06:22:25Z</time>
      </trkpt>
      <trkpt lat="45.749731566756964" lon="7.844311287626624">
        <ele>1321.1700000000001</ele>
        <time>2023-07-23T06:22:43Z</time>
      </trkpt>
      <trkpt lat="45.74979736469686" lon="7.844541789963841">
        <ele>1323.0599999999999</ele>
        <time>2023-07-23T06:22:59Z</time>
      </trkpt>
      <trkpt lat="45.749803315848112" lon="7.844567438587546">
        <ele>1323.4200000000001</ele>
        <time>2023-07-23T06:23:01Z</time>
      </trkpt>
      <trkpt lat="45.749810859560966" lon="7.844593925401568">
        <ele>1323.8</ele>
        <time>2023-07-23T06:23:03Z</time>
      </trkpt>
      <trkpt lat="45.749891074374318" lon="7.84478553570807">
        <ele>1326.5999999999999</ele>
        <time>2023-07-23T06:23:20Z</time>
      </trkpt>
      <trkpt lat="45.749873891472816" lon="7.844918305054307">
        <ele>1328.51</ele>
        <time>2023-07-23T06:23:33Z</time>
      </trkpt>
      <trkpt lat="45.749789737164974" lon="7.84506700001657">
        <ele>1331</ele>
        <time>2023-07-23T06:23:48Z</time>
      </trkpt>
      <trkpt lat="45.749734584242105" lon="7.84515542909503">
        <ele>1332.46</ele>
        <time>2023-07-23T06:23:57Z</time>
      </trkpt>
      <trkpt lat="45.749623104929924" lon="7.845251401886344">
        <ele>1334.9000000000001</ele>
        <time>2023-07-23T06:24:12Z</time>
      </trkpt>
      <trkpt lat="45.749528976157308" lon="7.845335472375155">
        <ele>1336.51</ele>
        <time>2023-07-23T06:24:27Z</time>
      </trkpt>
      <trkpt lat="45.749490251764655" lon="7.84536212682724">
        <ele>1336.45</ele>
        <time>2023-07-23T06:24:33Z</time>
      </trkpt>
      <trkpt lat="45.74944457039237" lon="7.845384506508708">
        <ele>1336.71</ele>
        <time>2023-07-23T06:24:38Z</time>
      </trkpt>
      <trkpt lat="45.749342981725931" lon="7.845448879525065">
        <ele>1336.76</ele>
        <time>2023-07-23T06:24:54Z</time>
      </trkpt>
      <trkpt lat="45.749311884865165" lon="7.84558055922389">
        <ele>1336.9400000000001</ele>
        <time>2023-07-23T06:25:15Z</time>
      </trkpt>
      <trkpt lat="45.74935563839972" lon="7.845684746280313">
        <ele>1337.0899999999999</ele>
        <time>2023-07-23T06:25:36Z</time>
      </trkpt>
      <trkpt lat="45.749414814636111" lon="7.845761189237237">
        <ele>1336.6400000000001</ele>
        <time>2023-07-23T06:25:52Z</time>
      </trkpt>
      <trkpt lat="45.74942353181541" lon="7.845768900588155">
        <ele>1336.5899999999999</ele>
        <time>2023-07-23T06:25:53Z</time>
      </trkpt>
      <trkpt lat="45.74944750405848" lon="7.845829669386149">
        <ele>1336.48</ele>
        <time>2023-07-23T06:25:58Z</time>
      </trkpt>
      <trkpt lat="45.74951296672225" lon="7.846046090126038">
        <ele>1336.0999999999999</ele>
        <time>2023-07-23T06:26:17Z</time>
      </trkpt>
      <trkpt lat="45.749567449092865" lon="7.846130160614848">
        <ele>1336.1900000000001</ele>
        <time>2023-07-23T06:26:26Z</time>
      </trkpt>
      <trkpt lat="45.749641377478838" lon="7.846220349892974">
        <ele>1337.46</ele>
        <time>2023-07-23T06:26:38Z</time>
      </trkpt>
      <trkpt lat="45.749665684998035" lon="7.846375918015838">
        <ele>1340.3900000000001</ele>
        <time>2023-07-23T06:26:54Z</time>
      </trkpt>
      <trkpt lat="45.749742295593023" lon="7.846475830301642">
        <ele>1343.6099999999999</ele>
        <time>2023-07-23T06:27:11Z</time>
      </trkpt>
      <trkpt lat="45.749852266162634" lon="7.846557134762406">
        <ele>1347.3299999999999</ele>
        <time>2023-07-23T06:27:25Z</time>
      </trkpt>
      <trkpt lat="45.749844890087843" lon="7.846656711772084">
        <ele>1348.6500000000001</ele>
        <time>2023-07-23T06:27:34Z</time>
      </trkpt>
      <trkpt lat="45.749767022207379" lon="7.84682217054069">
        <ele>1350.9400000000001</ele>
        <time>2023-07-23T06:27:49Z</time>
      </trkpt>
      <trkpt lat="45.749724693596363" lon="7.846919652074575">
        <ele>1351.6500000000001</ele>
        <time>2023-07-23T06:27:58Z</time>
      </trkpt>
      <trkpt lat="45.749702649191022" lon="7.846996681764722">
        <ele>1352.3800000000001</ele>
        <time>2023-07-23T06:28:05Z</time>
      </trkpt>
      <trkpt lat="45.7496795989573" lon="7.847058456391096">
        <ele>1352.77</ele>
        <time>2023-07-23T06:28:09Z</time>
      </trkpt>
      <trkpt lat="45.749626457691193" lon="7.847335729748011">
        <ele>1354.1199999999999</ele>
        <time>2023-07-23T06:28:27Z</time>
      </trkpt>
      <trkpt lat="45.749567029997706" lon="7.847496829926968">
        <ele>1355.8399999999999</ele>
        <time>2023-07-23T06:28:42Z</time>
      </trkpt>
      <trkpt lat="45.749560156837106" lon="7.847507055848837">
        <ele>1355.8800000000001</ele>
        <time>2023-07-23T06:28:43Z</time>
      </trkpt>
      <trkpt lat="45.749504752457142" lon="7.847623061388731">
        <ele>1356.9200000000001</ele>
        <time>2023-07-23T06:29:01Z</time>
      </trkpt>
      <trkpt lat="45.749580021947622" lon="7.847726996988058">
        <ele>1358.6099999999999</ele>
        <time>2023-07-23T06:29:18Z</time>
      </trkpt>
      <trkpt lat="45.749669373035431" lon="7.847800338640809">
        <ele>1360.9000000000001</ele>
        <time>2023-07-23T06:29:34Z</time>
      </trkpt>
      <trkpt lat="45.749701894819736" lon="7.84787024371326">
        <ele>1363.4100000000001</ele>
        <time>2023-07-23T06:29:47Z</time>
      </trkpt>
      <trkpt lat="45.74966736137867" lon="7.847966551780701">
        <ele>1365.79</ele>
        <time>2023-07-23T06:30:02Z</time>
      </trkpt>
      <trkpt lat="45.749635091051459" lon="7.848110217601061">
        <ele>1367.23</ele>
        <time>2023-07-23T06:30:20Z</time>
      </trkpt>
      <trkpt lat="45.749566024169326" lon="7.848247513175011">
        <ele>1368.27</ele>
        <time>2023-07-23T06:30:39Z</time>
      </trkpt>
      <trkpt lat="45.749493939802051" lon="7.848393190652132">
        <ele>1369.6900000000001</ele>
        <time>2023-07-23T06:30:58Z</time>
      </trkpt>
      <trkpt lat="45.749401822686195" lon="7.848605671897531">
        <ele>1371.8499999999999</ele>
        <time>2023-07-23T06:31:19Z</time>
      </trkpt>
      <trkpt lat="45.749338706955314" lon="7.848769789561629">
        <ele>1374.03</ele>
        <time>2023-07-23T06:31:40Z</time>
      </trkpt>
      <trkpt lat="45.749295121058822" lon="7.848938601091504">
        <ele>1376.03</ele>
        <time>2023-07-23T06:31:59Z</time>
      </trkpt>
      <trkpt lat="45.74923250824213" lon="7.849118644371629">
        <ele>1377.8900000000001</ele>
        <time>2023-07-23T06:32:19Z</time>
      </trkpt>
      <trkpt lat="45.749179869890213" lon="7.849287958815694">
        <ele>1379.98</ele>
        <time>2023-07-23T06:32:41Z</time>
      </trkpt>
      <trkpt lat="45.749123208224773" lon="7.849437156692147">
        <ele>1383.55</ele>
        <time>2023-07-23T06:33:04Z</time>
      </trkpt>
      <trkpt lat="45.749019607901573" lon="7.849628096446395">
        <ele>1386.47</ele>
        <time>2023-07-23T06:33:28Z</time>
      </trkpt>
      <trkpt lat="45.748963532969356" lon="7.849829429760575">
        <ele>1389.8800000000001</ele>
        <time>2023-07-23T06:33:48Z</time>
      </trkpt>
      <trkpt lat="45.74894467368722" lon="7.850004024803639">
        <ele>1392.1600000000001</ele>
        <time>2023-07-23T06:34:05Z</time>
      </trkpt>
      <trkpt lat="45.748918941244483" lon="7.850082563236356">
        <ele>1394.28</ele>
        <time>2023-07-23T06:34:24Z</time>
      </trkpt>
      <trkpt lat="45.748885497450829" lon="7.850082311779261">
        <ele>1397.01</ele>
        <time>2023-07-23T06:34:45Z</time>
      </trkpt>
      <trkpt lat="45.748863285407424" lon="7.850057333707809">
        <ele>1398.5799999999999</ele>
        <time>2023-07-23T06:35:07Z</time>
      </trkpt>
      <trkpt lat="45.748851969838142" lon="7.850078120827675">
        <ele>1399.21</ele>
        <time>2023-07-23T06:35:32Z</time>
      </trkpt>
      <trkpt lat="45.748821627348661" lon="7.850184990093112">
        <ele>1399.6600000000001</ele>
        <time>2023-07-23T06:35:44Z</time>
      </trkpt>
      <trkpt lat="45.748771503567696" lon="7.850333098322153">
        <ele>1402.4000000000001</ele>
        <time>2023-07-23T06:36:06Z</time>
      </trkpt>
      <trkpt lat="45.748666729778051" lon="7.85044583491981">
        <ele>1404.71</ele>
        <time>2023-07-23T06:36:26Z</time>
      </trkpt>
      <trkpt lat="45.74859531596303" lon="7.850583214312792">
        <ele>1406.26</ele>
        <time>2023-07-23T06:36:47Z</time>
      </trkpt>
      <trkpt lat="45.748586347326636" lon="7.850735262036324">
        <ele>1407.7</ele>
        <time>2023-07-23T06:37:06Z</time>
      </trkpt>
      <trkpt lat="45.748565476387739" lon="7.850851016119123">
        <ele>1410.24</ele>
        <time>2023-07-23T06:37:26Z</time>
      </trkpt>
      <trkpt lat="45.748503617942333" lon="7.850949252024293">
        <ele>1413.96</ele>
        <time>2023-07-23T06:37:44Z</time>
      </trkpt>
      <trkpt lat="45.748466905206442" lon="7.851061653345823">
        <ele>1417.3499999999999</ele>
        <time>2023-07-23T06:38:02Z</time>
      </trkpt>
      <trkpt lat="45.748386774212122" lon="7.851171037182212">
        <ele>1420.29</ele>
        <time>2023-07-23T06:38:20Z</time>
      </trkpt>
      <trkpt lat="45.748312845826149" lon="7.851334316655994">
        <ele>1424.6400000000001</ele>
        <time>2023-07-23T06:38:43Z</time>
      </trkpt>
      <trkpt lat="45.748230535537004" lon="7.851429283618927">
        <ele>1428.9200000000001</ele>
        <time>2023-07-23T06:39:03Z</time>
      </trkpt>
      <trkpt lat="45.748231122270226" lon="7.851535817608237">
        <ele>1432.1800000000001</ele>
        <time>2023-07-23T06:39:23Z</time>
      </trkpt>
      <trkpt lat="45.748147554695606" lon="7.851673951372504">
        <ele>1436.3099999999999</ele>
        <time>2023-07-23T06:39:42Z</time>
      </trkpt>
      <trkpt lat="45.748095083981752" lon="7.851738072931767">
        <ele>1439.97</ele>
        <time>2023-07-23T06:39:58Z</time>
      </trkpt>
      <trkpt lat="45.748059041798115" lon="7.851877128705382">
        <ele>1441.4400000000001</ele>
        <time>2023-07-23T06:40:14Z</time>
      </trkpt>
      <trkpt lat="45.748027022927999" lon="7.851965054869652">
        <ele>1443.29</ele>
        <time>2023-07-23T06:40:34Z</time>
      </trkpt>
      <trkpt lat="45.747967176139355" lon="7.852051556110382">
        <ele>1445.51</ele>
        <time>2023-07-23T06:40:49Z</time>
      </trkpt>
      <trkpt lat="45.747898109257221" lon="7.852163873612881">
        <ele>1448.3499999999999</ele>
        <time>2023-07-23T06:41:06Z</time>
      </trkpt>
      <trkpt lat="45.747808506712317" lon="7.852326901629567">
        <ele>1451.0699999999999</ele>
        <time>2023-07-23T06:41:27Z</time>
      </trkpt>
      <trkpt lat="45.747808758169413" lon="7.852424550801516">
        <ele>1452.1400000000001</ele>
        <time>2023-07-23T06:41:47Z</time>
      </trkpt>
      <trkpt lat="45.747694261372089" lon="7.852521277964115">
        <ele>1454.7</ele>
        <time>2023-07-23T06:42:08Z</time>
      </trkpt>
      <trkpt lat="45.747614968568087" lon="7.852620100602508">
        <ele>1456.8699999999999</ele>
        <time>2023-07-23T06:42:28Z</time>
      </trkpt>
      <trkpt lat="45.747533328831196" lon="7.852812130004168">
        <ele>1459.8299999999999</ele>
        <time>2023-07-23T06:42:50Z</time>
      </trkpt>
      <trkpt lat="45.747518911957741" lon="7.852952862158418">
        <ele>1462.54</ele>
        <time>2023-07-23T06:43:10Z</time>
      </trkpt>
      <trkpt lat="45.747494352981448" lon="7.853051936253905">
        <ele>1464.3199999999999</ele>
        <time>2023-07-23T06:43:25Z</time>
      </trkpt>
      <trkpt lat="45.747482199221849" lon="7.85320364870131">
        <ele>1467.48</ele>
        <time>2023-07-23T06:43:47Z</time>
      </trkpt>
      <trkpt lat="45.747445318847895" lon="7.853336166590452">
        <ele>1470.8</ele>
        <time>2023-07-23T06:44:09Z</time>
      </trkpt>
      <trkpt lat="45.747329816222191" lon="7.853449741378427">
        <ele>1473.45</ele>
        <time>2023-07-23T06:44:28Z</time>
      </trkpt>
      <trkpt lat="45.747204925864935" lon="7.853554179891944">
        <ele>1476.2</ele>
        <time>2023-07-23T06:44:46Z</time>
      </trkpt>
      <trkpt lat="45.747143905609846" lon="7.853683596476913">
        <ele>1478.99</ele>
        <time>2023-07-23T06:45:08Z</time>
      </trkpt>
      <trkpt lat="45.747067127376795" lon="7.85376213490963">
        <ele>1481.54</ele>
        <time>2023-07-23T06:45:29Z</time>
      </trkpt>
      <trkpt lat="45.746983392164111" lon="7.853791052475572">
        <ele>1484.1199999999999</ele>
        <time>2023-07-23T06:45:49Z</time>
      </trkpt>
      <trkpt lat="45.746946595609188" lon="7.853925162926316">
        <ele>1487.77</ele>
        <time>2023-07-23T06:46:08Z</time>
      </trkpt>
      <trkpt lat="45.746938548982143" lon="7.853950560092926">
        <ele>1488.05</ele>
        <time>2023-07-23T06:46:11Z</time>
      </trkpt>
      <trkpt lat="45.74684701859951" lon="7.854109648615122">
        <ele>1490.8499999999999</ele>
        <time>2023-07-23T06:46:31Z</time>
      </trkpt>
      <trkpt lat="45.746698742732406" lon="7.85418726503849">
        <ele>1494.22</ele>
        <time>2023-07-23T06:46:49Z</time>
      </trkpt>
      <trkpt lat="45.746614336967468" lon="7.854339145123959">
        <ele>1498.03</ele>
        <time>2023-07-23T06:47:08Z</time>
      </trkpt>
      <trkpt lat="45.746561950072646" lon="7.854467304423451">
        <ele>1500.3599999999999</ele>
        <time>2023-07-23T06:47:28Z</time>
      </trkpt>
      <trkpt lat="45.746547114104033" lon="7.854696717113257">
        <ele>1502.6099999999999</ele>
        <time>2023-07-23T06:47:49Z</time>
      </trkpt>
      <trkpt lat="45.746519370004535" lon="7.854854632169008">
        <ele>1506.6300000000001</ele>
        <time>2023-07-23T06:48:10Z</time>
      </trkpt>
      <trkpt lat="45.746449464932084" lon="7.854982707649469">
        <ele>1509.8800000000001</ele>
        <time>2023-07-23T06:48:29Z</time>
      </trkpt>
      <trkpt lat="45.746351899579167" lon="7.855037106201053">
        <ele>1513.5999999999999</ele>
        <time>2023-07-23T06:48:52Z</time>
      </trkpt>
      <trkpt lat="45.74633052572608" lon="7.85516350530088">
        <ele>1516.48</ele>
        <time>2023-07-23T06:49:13Z</time>
      </trkpt>
      <trkpt lat="45.74624209664762" lon="7.855265345424414">
        <ele>1518.9300000000001</ele>
        <time>2023-07-23T06:49:36Z</time>
      </trkpt>
      <trkpt lat="45.746134724467993" lon="7.85538487136364">
        <ele>1522.6600000000001</ele>
        <time>2023-07-23T06:49:56Z</time>
      </trkpt>
      <trkpt lat="45.74607789516449" lon="7.855539685115218">
        <ele>1525.1099999999999</ele>
        <time>2023-07-23T06:50:13Z</time>
      </trkpt>
      <trkpt lat="45.74602173641324" lon="7.855775216594338">
        <ele>1528.1300000000001</ele>
        <time>2023-07-23T06:50:32Z</time>
      </trkpt>
      <trkpt lat="45.746019640937448" lon="7.855949979275465">
        <ele>1528.6600000000001</ele>
        <time>2023-07-23T06:50:48Z</time>
      </trkpt>
      <trkpt lat="45.746124582365155" lon="7.856075372546911">
        <ele>1528.3499999999999</ele>
        <time>2023-07-23T06:51:08Z</time>
      </trkpt>
      <trkpt lat="45.7461844291538" lon="7.856178972870112">
        <ele>1527.46</ele>
        <time>2023-07-23T06:51:27Z</time>
      </trkpt>
      <trkpt lat="45.746114356443286" lon="7.856338396668434">
        <ele>1531.3900000000001</ele>
        <time>2023-07-23T06:51:44Z</time>
      </trkpt>
      <trkpt lat="45.74608719907701" lon="7.856391705572605">
        <ele>1533.8</ele>
        <time>2023-07-23T06:52:01Z</time>
      </trkpt>
      <trkpt lat="45.746105220168829" lon="7.856375779956579">
        <ele>1535.0599999999999</ele>
        <time>2023-07-23T06:52:21Z</time>
      </trkpt>
      <trkpt lat="45.746058532968163" lon="7.856436297297478">
        <ele>1535.96</ele>
        <time>2023-07-23T06:52:32Z</time>
      </trkpt>
      <trkpt lat="45.74588930234313" lon="7.85646328702569">
        <ele>1535.9300000000001</ele>
        <time>2023-07-23T06:52:52Z</time>
      </trkpt>
      <trkpt lat="45.745800957083702" lon="7.856453312560916">
        <ele>1537.9400000000001</ele>
        <time>2023-07-23T06:53:09Z</time>
      </trkpt>
      <trkpt lat="45.745773464441299" lon="7.856533778831363">
        <ele>1541.28</ele>
        <time>2023-07-23T06:53:29Z</time>
      </trkpt>
      <trkpt lat="45.745680173859" lon="7.856516176834703">
        <ele>1543.55</ele>
        <time>2023-07-23T06:53:46Z</time>
      </trkpt>
      <trkpt lat="45.745565593242645" lon="7.856557918712497">
        <ele>1546.9100000000001</ele>
        <time>2023-07-23T06:54:06Z</time>
      </trkpt>
      <trkpt lat="45.745520750060678" lon="7.856599073857069">
        <ele>1549.8199999999999</ele>
        <time>2023-07-23T06:54:24Z</time>
      </trkpt>
      <trkpt lat="45.745570538565516" lon="7.856734693050385">
        <ele>1551.75</ele>
        <time>2023-07-23T06:54:45Z</time>
      </trkpt>
      <trkpt lat="45.745631642639637" lon="7.856810633093119">
        <ele>1552.3299999999999</ele>
        <time>2023-07-23T06:54:58Z</time>
      </trkpt>
      <trkpt lat="45.745572969317436" lon="7.856843573972583">
        <ele>1555.6400000000001</ele>
        <time>2023-07-23T06:55:17Z</time>
      </trkpt>
      <trkpt lat="45.745493257418275" lon="7.856915155425668">
        <ele>1559.1099999999999</ele>
        <time>2023-07-23T06:55:37Z</time>
      </trkpt>
      <trkpt lat="45.745511781424284" lon="7.857013307511807">
        <ele>1561.5799999999999</ele>
        <time>2023-07-23T06:55:55Z</time>
      </trkpt>
      <trkpt lat="45.745597025379539" lon="7.85709016956389">
        <ele>1563.1700000000001</ele>
        <time>2023-07-23T06:56:16Z</time>
      </trkpt>
      <trkpt lat="45.745676318183541" lon="7.857188656926155">
        <ele>1564.47</ele>
        <time>2023-07-23T06:56:35Z</time>
      </trkpt>
      <trkpt lat="45.745695680379868" lon="7.857242301106453">
        <ele>1566.55</ele>
        <time>2023-07-23T06:56:54Z</time>
      </trkpt>
      <trkpt lat="45.745796347036958" lon="7.857260070741177">
        <ele>1568.6400000000001</ele>
        <time>2023-07-23T06:57:12Z</time>
      </trkpt>
      <trkpt lat="45.745867844671011" lon="7.857334166765213">
        <ele>1570.8599999999999</ele>
        <time>2023-07-23T06:57:36Z</time>
      </trkpt>
      <trkpt lat="45.745967840775847" lon="7.857444975525141">
        <ele>1571.8399999999999</ele>
        <time>2023-07-23T06:57:54Z</time>
      </trkpt>
      <trkpt lat="45.74602022767067" lon="7.857517646625638">
        <ele>1574.05</ele>
        <time>2023-07-23T06:58:11Z</time>
      </trkpt>
      <trkpt lat="45.74609063565731" lon="7.857576403766871">
        <ele>1577.04</ele>
        <time>2023-07-23T06:58:30Z</time>
      </trkpt>
      <trkpt lat="45.746139502152801" lon="7.857656702399254">
        <ele>1579.52</ele>
        <time>2023-07-23T06:58:48Z</time>
      </trkpt>
      <trkpt lat="45.746197169646621" lon="7.857729541137815">
        <ele>1583.49</ele>
        <time>2023-07-23T06:59:09Z</time>
      </trkpt>
      <trkpt lat="45.746278474107385" lon="7.857872620224953">
        <ele>1585.9100000000001</ele>
        <time>2023-07-23T06:59:31Z</time>
      </trkpt>
      <trkpt lat="45.746306385844946" lon="7.857886366546154">
        <ele>1586.1600000000001</ele>
        <time>2023-07-23T06:59:35Z</time>
      </trkpt>
      <trkpt lat="45.74634226039052" lon="7.857915032655001">
        <ele>1586.6500000000001</ele>
        <time>2023-07-23T06:59:39Z</time>
      </trkpt>
      <trkpt lat="45.746298925951123" lon="7.857960546389222">
        <ele>1591.48</ele>
        <time>2023-07-23T07:00:02Z</time>
      </trkpt>
      <trkpt lat="45.74634125456214" lon="7.858111169189215">
        <ele>1594.99</ele>
        <time>2023-07-23T07:00:23Z</time>
      </trkpt>
      <trkpt lat="45.746386935934424" lon="7.858211500570178">
        <ele>1597.0899999999999</ele>
        <time>2023-07-23T07:00:44Z</time>
      </trkpt>
      <trkpt lat="45.746441250666976" lon="7.858294313773513">
        <ele>1599.3499999999999</ele>
        <time>2023-07-23T07:01:03Z</time>
      </trkpt>
      <trkpt lat="45.746552394703031" lon="7.858371175825596">
        <ele>1602.3299999999999</ele>
        <time>2023-07-23T07:01:25Z</time>
      </trkpt>
      <trkpt lat="45.746623976156116" lon="7.858447367325425">
        <ele>1607.03</ele>
        <time>2023-07-23T07:01:47Z</time>
      </trkpt>
      <trkpt lat="45.746741825714707" lon="7.858526576310396">
        <ele>1610.3099999999999</ele>
        <time>2023-07-23T07:02:08Z</time>
      </trkpt>
      <trkpt lat="45.746788764372468" lon="7.858582399785519">
        <ele>1613.8199999999999</ele>
        <time>2023-07-23T07:02:28Z</time>
      </trkpt>
      <trkpt lat="45.746865207329392" lon="7.858630511909723">
        <ele>1615.6900000000001</ele>
        <time>2023-07-23T07:02:43Z</time>
      </trkpt>
      <trkpt lat="45.746917007490993" lon="7.858633948490024">
        <ele>1615.96</ele>
        <time>2023-07-23T07:02:47Z</time>
      </trkpt>
      <trkpt lat="45.746991690248251" lon="7.858739979565144">
        <ele>1618.9000000000001</ele>
        <time>2023-07-23T07:03:07Z</time>
      </trkpt>
      <trkpt lat="45.747015997767448" lon="7.858861600980163">
        <ele>1621.5999999999999</ele>
        <time>2023-07-23T07:03:24Z</time>
      </trkpt>
      <trkpt lat="45.747028570622206" lon="7.858910216018558">
        <ele>1624.0599999999999</ele>
        <time>2023-07-23T07:03:38Z</time>
      </trkpt>
      <trkpt lat="45.747085232287645" lon="7.858969056978822">
        <ele>1629.99</ele>
        <time>2023-07-23T07:03:54Z</time>
      </trkpt>
      <trkpt lat="45.747109623625875" lon="7.859008787199855">
        <ele>1633.75</ele>
        <time>2023-07-23T07:04:09Z</time>
      </trkpt>
      <trkpt lat="45.747136613354087" lon="7.859094114974141">
        <ele>1636.97</ele>
        <time>2023-07-23T07:04:26Z</time>
      </trkpt>
      <trkpt lat="45.747184893116355" lon="7.859150189906359">
        <ele>1640.5</ele>
        <time>2023-07-23T07:04:40Z</time>
      </trkpt>
      <trkpt lat="45.747228898108006" lon="7.859162176027894">
        <ele>1644.4400000000001</ele>
        <time>2023-07-23T07:04:55Z</time>
      </trkpt>
      <trkpt lat="45.747317159548402" lon="7.859124122187495">
        <ele>1647.4100000000001</ele>
        <time>2023-07-23T07:05:09Z</time>
      </trkpt>
      <trkpt lat="45.74740894138813" lon="7.859084811061621">
        <ele>1654.26</ele>
        <time>2023-07-23T07:05:24Z</time>
      </trkpt>
      <trkpt lat="45.747511452063918" lon="7.859050445258617">
        <ele>1661.1800000000001</ele>
        <time>2023-07-23T07:05:40Z</time>
      </trkpt>
      <trkpt lat="45.747570712119341" lon="7.859025970101357">
        <ele>1664.46</ele>
        <time>2023-07-23T07:05:57Z</time>
      </trkpt>
      <trkpt lat="45.747587895020843" lon="7.85902856849134">
        <ele>1666.4300000000001</ele>
        <time>2023-07-23T07:06:25Z</time>
      </trkpt>
      <trkpt lat="45.74758336879313" lon="7.859050109982491">
        <ele>1668.1099999999999</ele>
        <time>2023-07-23T07:06:50Z</time>
      </trkpt>
      <trkpt lat="45.747576160356402" lon="7.859043907374144">
        <ele>1671.74</ele>
        <time>2023-07-23T07:07:17Z</time>
      </trkpt>
      <trkpt lat="45.747603066265583" lon="7.859032424166799">
        <ele>1673.5</ele>
        <time>2023-07-23T07:07:42Z</time>
      </trkpt>
      <trkpt lat="45.747587727382779" lon="7.859039297327399">
        <ele>1676.3199999999999</ele>
        <time>2023-07-23T07:08:04Z</time>
      </trkpt>
      <trkpt lat="45.747595774009824" lon="7.859019683673978">
        <ele>1678.1800000000001</ele>
        <time>2023-07-23T07:08:30Z</time>
      </trkpt>
      <trkpt lat="45.747647993266582" lon="7.859020605683327">
        <ele>1679.8599999999999</ele>
        <time>2023-07-23T07:09:06Z</time>
      </trkpt>
      <trkpt lat="45.747615555301309" lon="7.859130576252937">
        <ele>1680.29</ele>
        <time>2023-07-23T07:09:21Z</time>
      </trkpt>
      <trkpt lat="45.747651597484946" lon="7.859189165756106">
        <ele>1681.1900000000001</ele>
        <time>2023-07-23T07:09:39Z</time>
      </trkpt>
      <trkpt lat="45.747639359906316" lon="7.859282875433564">
        <ele>1681.9200000000001</ele>
        <time>2023-07-23T07:09:57Z</time>
      </trkpt>
      <trkpt lat="45.747700799256563" lon="7.859322102740407">
        <ele>1682.97</ele>
        <time>2023-07-23T07:10:16Z</time>
      </trkpt>
      <trkpt lat="45.747651848942041" lon="7.859440036118031">
        <ele>1683.6500000000001</ele>
        <time>2023-07-23T07:10:33Z</time>
      </trkpt>
      <trkpt lat="45.74770943261683" lon="7.859447496011853">
        <ele>1686.4200000000001</ele>
        <time>2023-07-23T07:10:51Z</time>
      </trkpt>
      <trkpt lat="45.747795095667243" lon="7.859405754134059">
        <ele>1689.24</ele>
        <time>2023-07-23T07:11:12Z</time>
      </trkpt>
      <trkpt lat="45.747866341844201" lon="7.859393265098333">
        <ele>1690.1700000000001</ele>
        <time>2023-07-23T07:11:29Z</time>
      </trkpt>
      <trkpt lat="45.747934654355049" lon="7.859439700841904">
        <ele>1691.96</ele>
        <time>2023-07-23T07:11:48Z</time>
      </trkpt>
      <trkpt lat="45.748026939108968" lon="7.859372477978468">
        <ele>1694.27</ele>
        <time>2023-07-23T07:12:08Z</time>
      </trkpt>
      <trkpt lat="45.748118637129664" lon="7.859319504350424">
        <ele>1695.27</ele>
        <time>2023-07-23T07:12:27Z</time>
      </trkpt>
      <trkpt lat="45.74818049557507" lon="7.859409106895328">
        <ele>1696.5</ele>
        <time>2023-07-23T07:12:44Z</time>
      </trkpt>
      <trkpt lat="45.74824059382081" lon="7.859460739418864">
        <ele>1698.3399999999999</ele>
        <time>2023-07-23T07:13:01Z</time>
      </trkpt>
      <trkpt lat="45.748307565227151" lon="7.859426038339734">
        <ele>1700.1199999999999</ele>
        <time>2023-07-23T07:13:18Z</time>
      </trkpt>
      <trkpt lat="45.74838375672698" lon="7.85934180021286">
        <ele>1701.23</ele>
        <time>2023-07-23T07:13:38Z</time>
      </trkpt>
      <trkpt lat="45.748453577980399" lon="7.859256220981479">
        <ele>1702.6400000000001</ele>
        <time>2023-07-23T07:13:57Z</time>
      </trkpt>
      <trkpt lat="45.748533792793751" lon="7.859227554872632">
        <ele>1703.5899999999999</ele>
        <time>2023-07-23T07:14:11Z</time>
      </trkpt>
      <trkpt lat="45.748562542721629" lon="7.859326964244247">
        <ele>1706.4400000000001</ele>
        <time>2023-07-23T07:14:27Z</time>
      </trkpt>
      <trkpt lat="45.748501271009445" lon="7.859449675306678">
        <ele>1710.3099999999999</ele>
        <time>2023-07-23T07:14:41Z</time>
      </trkpt>
      <trkpt lat="45.748529518023133" lon="7.859470630064607">
        <ele>1714.3499999999999</ele>
        <time>2023-07-23T07:14:56Z</time>
      </trkpt>
      <trkpt lat="45.748603111132979" lon="7.859488902613521">
        <ele>1719.25</ele>
        <time>2023-07-23T07:15:12Z</time>
      </trkpt>
      <trkpt lat="45.748631358146667" lon="7.859456967562437">
        <ele>1721.6300000000001</ele>
        <time>2023-07-23T07:15:28Z</time>
      </trkpt>
      <trkpt lat="45.748654576018453" lon="7.859522933140397">
        <ele>1723.49</ele>
        <time>2023-07-23T07:15:45Z</time>
      </trkpt>
      <trkpt lat="45.748717188835144" lon="7.859419332817197">
        <ele>1725.72</ele>
        <time>2023-07-23T07:16:05Z</time>
      </trkpt>
      <trkpt lat="45.74870084412396" lon="7.859394773840904">
        <ele>1727.3299999999999</ele>
        <time>2023-07-23T07:16:20Z</time>
      </trkpt>
      <trkpt lat="45.748713836073875" lon="7.859405921772122">
        <ele>1728.76</ele>
        <time>2023-07-23T07:16:42Z</time>
      </trkpt>
      <trkpt lat="45.748711572960019" lon="7.859402652829886">
        <ele>1728.53</ele>
        <time>2023-07-23T07:17:17Z</time>
      </trkpt>
      <trkpt lat="45.748746860772371" lon="7.85946736112237">
        <ele>1729.6700000000001</ele>
        <time>2023-07-23T07:17:44Z</time>
      </trkpt>
      <trkpt lat="45.748820537701249" lon="7.859476245939732">
        <ele>1730.6900000000001</ele>
        <time>2023-07-23T07:18:03Z</time>
      </trkpt>
      <trkpt lat="45.748873427510262" lon="7.859520167112351">
        <ele>1732.4100000000001</ele>
        <time>2023-07-23T07:18:18Z</time>
      </trkpt>
      <trkpt lat="45.74890511110425" lon="7.859533242881298">
        <ele>1734.77</ele>
        <time>2023-07-23T07:18:34Z</time>
      </trkpt>
      <trkpt lat="45.748954061418772" lon="7.859451686963439">
        <ele>1736.23</ele>
        <time>2023-07-23T07:18:51Z</time>
      </trkpt>
      <trkpt lat="45.748973842710257" lon="7.8593794349581">
        <ele>1737.3699999999999</ele>
        <time>2023-07-23T07:19:07Z</time>
      </trkpt>
      <trkpt lat="45.74902631342411" lon="7.859371304512024">
        <ele>1739.49</ele>
        <time>2023-07-23T07:19:25Z</time>
      </trkpt>
      <trkpt lat="45.749136116355658" lon="7.859344985336065">
        <ele>1741.99</ele>
        <time>2023-07-23T07:19:47Z</time>
      </trkpt>
      <trkpt lat="45.749211888760328" lon="7.85939309746027">
        <ele>1743.28</ele>
        <time>2023-07-23T07:20:06Z</time>
      </trkpt>
      <trkpt lat="45.749302329495549" lon="7.859337357804179">
        <ele>1745.3</ele>
        <time>2023-07-23T07:20:23Z</time>
      </trkpt>
      <trkpt lat="45.749400984495878" lon="7.859304081648588">
        <ele>1747.8199999999999</ele>
        <time>2023-07-23T07:20:39Z</time>
      </trkpt>
      <trkpt lat="45.749407270923257" lon="7.859295196831226">
        <ele>1747.96</ele>
        <time>2023-07-23T07:20:40Z</time>
      </trkpt>
      <trkpt lat="45.74945772998035" lon="7.859306763857603">
        <ele>1750.23</ele>
        <time>2023-07-23T07:20:54Z</time>
      </trkpt>
      <trkpt lat="45.749488156288862" lon="7.859421093016863">
        <ele>1750.96</ele>
        <time>2023-07-23T07:21:08Z</time>
      </trkpt>
      <trkpt lat="45.749581195414066" lon="7.859533242881298">
        <ele>1750.72</ele>
        <time>2023-07-23T07:21:22Z</time>
      </trkpt>
      <trkpt lat="45.749554121866822" lon="7.859651511535049">
        <ele>1751.6600000000001</ele>
        <time>2023-07-23T07:21:41Z</time>
      </trkpt>
      <trkpt lat="45.749635426327586" lon="7.85963449627161">
        <ele>1752.8800000000001</ele>
        <time>2023-07-23T07:22:02Z</time>
      </trkpt>
      <trkpt lat="45.749651938676834" lon="7.859626030549407">
        <ele>1753.1500000000001</ele>
        <time>2023-07-23T07:22:04Z</time>
      </trkpt>
      <trkpt lat="45.74974799528718" lon="7.859690068289638">
        <ele>1755.28</ele>
        <time>2023-07-23T07:22:18Z</time>
      </trkpt>
      <trkpt lat="45.749828545376658" lon="7.859751423820853">
        <ele>1758.26</ele>
        <time>2023-07-23T07:22:30Z</time>
      </trkpt>
      <trkpt lat="45.749866096302867" lon="7.859794339165092">
        <ele>1759.9200000000001</ele>
        <time>2023-07-23T07:22:39Z</time>
      </trkpt>
      <trkpt lat="45.749881854280829" lon="7.859878828749061">
        <ele>1763.1500000000001</ele>
        <time>2023-07-23T07:22:53Z</time>
      </trkpt>
      <trkpt lat="45.749926026910543" lon="7.859948314726353">
        <ele>1766.28</ele>
        <time>2023-07-23T07:23:09Z</time>
      </trkpt>
      <trkpt lat="45.749927870929241" lon="7.860047053545713">
        <ele>1769.27</ele>
        <time>2023-07-23T07:23:24Z</time>
      </trkpt>
      <trkpt lat="45.749994842335582" lon="7.860107570886612">
        <ele>1771.3699999999999</ele>
        <time>2023-07-23T07:23:42Z</time>
      </trkpt>
      <trkpt lat="45.750050330534577" lon="7.86025064997375">
        <ele>1775.98</ele>
        <time>2023-07-23T07:23:58Z</time>
      </trkpt>
      <trkpt lat="45.750058460980654" lon="7.860402697697282">
        <ele>1780.77</ele>
        <time>2023-07-23T07:24:19Z</time>
      </trkpt>
      <trkpt lat="45.750094586983323" lon="7.860521469265223">
        <ele>1782.04</ele>
        <time>2023-07-23T07:24:32Z</time>
      </trkpt>
      <trkpt lat="45.750137167051435" lon="7.860624315217137">
        <ele>1782.98</ele>
        <time>2023-07-23T07:24:46Z</time>
      </trkpt>
      <trkpt lat="45.750176478177309" lon="7.860679719597101">
        <ele>1784.4100000000001</ele>
        <time>2023-07-23T07:24:54Z</time>
      </trkpt>
      <trkpt lat="45.750218136236072" lon="7.860829504206777">
        <ele>1787.1099999999999</ele>
        <time>2023-07-23T07:25:11Z</time>
      </trkpt>
      <trkpt lat="45.750282341614366" lon="7.860885076224804">
        <ele>1789.28</ele>
        <time>2023-07-23T07:25:30Z</time>
      </trkpt>
      <trkpt lat="45.75033338740468" lon="7.861019102856517">
        <ele>1792.1400000000001</ele>
        <time>2023-07-23T07:25:49Z</time>
      </trkpt>
      <trkpt lat="45.750377979129553" lon="7.861140137538314">
        <ele>1794.0599999999999</ele>
        <time>2023-07-23T07:26:03Z</time>
      </trkpt>
      <trkpt lat="45.750367753207684" lon="7.861246084794402">
        <ele>1796.0699999999999</ele>
        <time>2023-07-23T07:26:19Z</time>
      </trkpt>
      <trkpt lat="45.750427013263106" lon="7.861376171931624">
        <ele>1799.72</ele>
        <time>2023-07-23T07:26:39Z</time>
      </trkpt>
      <trkpt lat="45.750471772626042" lon="7.861496116966009">
        <ele>1800.77</ele>
        <time>2023-07-23T07:26:59Z</time>
      </trkpt>
      <trkpt lat="45.750499852001667" lon="7.861613966524601">
        <ele>1801.3499999999999</ele>
        <time>2023-07-23T07:27:14Z</time>
      </trkpt>
      <trkpt lat="45.750538241118193" lon="7.861758470535278">
        <ele>1802.02</ele>
        <time>2023-07-23T07:27:31Z</time>
      </trkpt>
      <trkpt lat="45.750585095956922" lon="7.861862322315574">
        <ele>1803.73</ele>
        <time>2023-07-23T07:27:48Z</time>
      </trkpt>
      <trkpt lat="45.750619964674115" lon="7.861937005072832">
        <ele>1805.5699999999999</ele>
        <time>2023-07-23T07:28:03Z</time>
      </trkpt>
      <trkpt lat="45.750647289678454" lon="7.861974639818072">
        <ele>1808.1800000000001</ele>
        <time>2023-07-23T07:28:18Z</time>
      </trkpt>
      <trkpt lat="45.750701688230038" lon="7.862028451636434">
        <ele>1810.76</ele>
        <time>2023-07-23T07:28:33Z</time>
      </trkpt>
      <trkpt lat="45.750754997134209" lon="7.862050328403711">
        <ele>1812.98</ele>
        <time>2023-07-23T07:28:44Z</time>
      </trkpt>
      <trkpt lat="45.750781651586294" lon="7.86205418407917">
        <ele>1813.54</ele>
        <time>2023-07-23T07:28:46Z</time>
      </trkpt>
      <trkpt lat="45.750880390405655" lon="7.862124843522906">
        <ele>1818.75</ele>
        <time>2023-07-23T07:29:00Z</time>
      </trkpt>
      <trkpt lat="45.75094660744071" lon="7.86219491623342">
        <ele>1822.03</ele>
        <time>2023-07-23T07:29:12Z</time>
      </trkpt>
      <trkpt lat="45.751050123944879" lon="7.86223984323442">
        <ele>1823.8599999999999</ele>
        <time>2023-07-23T07:29:28Z</time>
      </trkpt>
      <trkpt lat="45.751069989055395" lon="7.862250488251448">
        <ele>1824.22</ele>
        <time>2023-07-23T07:29:30Z</time>
      </trkpt>
      <trkpt lat="45.751103097572923" lon="7.862270521000028">
        <ele>1824.75</ele>
        <time>2023-07-23T07:29:33Z</time>
      </trkpt>
      <trkpt lat="45.7511181011796" lon="7.862289631739259">
        <ele>1825.4400000000001</ele>
        <time>2023-07-23T07:29:35Z</time>
      </trkpt>
      <trkpt lat="45.751253636553884" lon="7.862433800473809">
        <ele>1829.0899999999999</ele>
        <time>2023-07-23T07:29:51Z</time>
      </trkpt>
      <trkpt lat="45.751348687335849" lon="7.862541675567627">
        <ele>1831.72</ele>
        <time>2023-07-23T07:30:07Z</time>
      </trkpt>
      <trkpt lat="45.751412054523826" lon="7.862631864845753">
        <ele>1834.3699999999999</ele>
        <time>2023-07-23T07:30:21Z</time>
      </trkpt>
      <trkpt lat="45.751459831371903" lon="7.862732447683811">
        <ele>1836.8499999999999</ele>
        <time>2023-07-23T07:30:33Z</time>
      </trkpt>
      <trkpt lat="45.751509536057711" lon="7.862816769629717">
        <ele>1838.6700000000001</ele>
        <time>2023-07-23T07:30:44Z</time>
      </trkpt>
      <trkpt lat="45.751589331775904" lon="7.862862786278129">
        <ele>1841.3</ele>
        <time>2023-07-23T07:31:00Z</time>
      </trkpt>
      <trkpt lat="45.751591678708792" lon="7.862870581448078">
        <ele>1841.47</ele>
        <time>2023-07-23T07:31:01Z</time>
      </trkpt>
      <trkpt lat="45.751626128330827" lon="7.862955238670111">
        <ele>1841.79</ele>
        <time>2023-07-23T07:31:09Z</time>
      </trkpt>
      <trkpt lat="45.751642640680075" lon="7.863231422379613">
        <ele>1840.55</ele>
        <time>2023-07-23T07:31:28Z</time>
      </trkpt>
      <trkpt lat="45.751642975956202" lon="7.86323712207377">
        <ele>1840.71</ele>
        <time>2023-07-23T07:31:29Z</time>
      </trkpt>
      <trkpt lat="45.751629061996937" lon="7.863332591950893">
        <ele>1840.77</ele>
        <time>2023-07-23T07:31:36Z</time>
      </trkpt>
      <trkpt lat="45.751630403101444" lon="7.863502744585276">
        <ele>1842.75</ele>
        <time>2023-07-23T07:31:52Z</time>
      </trkpt>
      <trkpt lat="45.7516257930547" lon="7.863513054326177">
        <ele>1841.76</ele>
        <time>2023-07-23T07:32:01Z</time>
      </trkpt>
      <trkpt lat="45.751586565747857" lon="7.863676082342863">
        <ele>1843.76</ele>
        <time>2023-07-23T07:32:14Z</time>
      </trkpt>
      <trkpt lat="45.751590002328157" lon="7.863836847245693">
        <ele>1841.02</ele>
        <time>2023-07-23T07:32:32Z</time>
      </trkpt>
      <trkpt lat="45.751580027863383" lon="7.864081934094429">
        <ele>1844.99</ele>
        <time>2023-07-23T07:32:50Z</time>
      </trkpt>
      <trkpt lat="45.751582207158208" lon="7.86434973590076">
        <ele>1845.3599999999999</ele>
        <time>2023-07-23T07:33:09Z</time>
      </trkpt>
      <trkpt lat="45.751567790284753" lon="7.864563390612602">
        <ele>1847.53</ele>
        <time>2023-07-23T07:33:26Z</time>
      </trkpt>
      <trkpt lat="45.751547422260046" lon="7.864794814959168">
        <ele>1846.74</ele>
        <time>2023-07-23T07:33:42Z</time>
      </trkpt>
      <trkpt lat="45.751573406159878" lon="7.864973517134786">
        <ele>1841.6500000000001</ele>
        <time>2023-07-23T07:34:00Z</time>
      </trkpt>
      <trkpt lat="45.751633420586586" lon="7.864955328404903">
        <ele>1844.1099999999999</ele>
        <time>2023-07-23T07:34:08Z</time>
      </trkpt>
      <trkpt lat="45.751651860773563" lon="7.864960776641965">
        <ele>1844.52</ele>
        <time>2023-07-23T07:34:10Z</time>
      </trkpt>
      <trkpt lat="45.751713886857033" lon="7.865151800215244">
        <ele>1844.24</ele>
        <time>2023-07-23T07:34:25Z</time>
      </trkpt>
      <trkpt lat="45.751746911555529" lon="7.865232015028596">
        <ele>1844.7</ele>
        <time>2023-07-23T07:34:33Z</time>
      </trkpt>
      <trkpt lat="45.751810614019632" lon="7.865404598414898">
        <ele>1845.2</ele>
        <time>2023-07-23T07:34:51Z</time>
      </trkpt>
      <trkpt lat="45.751808183267713" lon="7.865462014451623">
        <ele>1847.26</ele>
        <time>2023-07-23T07:34:58Z</time>
      </trkpt>
      <trkpt lat="45.751795526593924" lon="7.865502834320068">
        <ele>1847.23</ele>
        <time>2023-07-23T07:35:01Z</time>
      </trkpt>
      <trkpt lat="45.751744313165545" lon="7.865739120170474">
        <ele>1850.01</ele>
        <time>2023-07-23T07:35:19Z</time>
      </trkpt>
      <trkpt lat="45.751679185777903" lon="7.865918911993504">
        <ele>1851.6300000000001</ele>
        <time>2023-07-23T07:35:37Z</time>
      </trkpt>
      <trkpt lat="45.751667199656367" lon="7.865934502333403">
        <ele>1851.8099999999999</ele>
        <time>2023-07-23T07:35:39Z</time>
      </trkpt>
      <trkpt lat="45.751564186066389" lon="7.866112869232893">
        <ele>1853.0599999999999</ele>
        <time>2023-07-23T07:35:56Z</time>
      </trkpt>
      <trkpt lat="45.75163945555687" lon="7.866164250299335">
        <ele>1856.03</ele>
        <time>2023-07-23T07:36:12Z</time>
      </trkpt>
      <trkpt lat="45.751718580722809" lon="7.866194760426879">
        <ele>1858.1700000000001</ele>
        <time>2023-07-23T07:36:26Z</time>
      </trkpt>
      <trkpt lat="45.751793347299099" lon="7.866225773468614">
        <ele>1859.9400000000001</ele>
        <time>2023-07-23T07:36:43Z</time>
      </trkpt>
      <trkpt lat="45.751817235723138" lon="7.866363907232881">
        <ele>1862.98</ele>
        <time>2023-07-23T07:36:57Z</time>
      </trkpt>
      <trkpt lat="45.751855205744505" lon="7.866535652428865">
        <ele>1863.5699999999999</ele>
        <time>2023-07-23T07:37:14Z</time>
      </trkpt>
      <trkpt lat="45.751853194087744" lon="7.866685772314668">
        <ele>1863.6300000000001</ele>
        <time>2023-07-23T07:37:28Z</time>
      </trkpt>
      <trkpt lat="45.751876831054687" lon="7.866850476711988">
        <ele>1866.0699999999999</ele>
        <time>2023-07-23T07:37:45Z</time>
      </trkpt>
      <trkpt lat="45.75194388628006" lon="7.866975786164403">
        <ele>1867.46</ele>
        <time>2023-07-23T07:37:59Z</time>
      </trkpt>
      <trkpt lat="45.752002727240324" lon="7.867060862481594">
        <ele>1867.51</ele>
        <time>2023-07-23T07:38:12Z</time>
      </trkpt>
      <trkpt lat="45.752053940668702" lon="7.867119703441858">
        <ele>1867.72</ele>
        <time>2023-07-23T07:38:20Z</time>
      </trkpt>
      <trkpt lat="45.752090569585562" lon="7.867284407839179">
        <ele>1868.3699999999999</ele>
        <time>2023-07-23T07:38:36Z</time>
      </trkpt>
      <trkpt lat="45.752102388069034" lon="7.867335956543684">
        <ele>1868.76</ele>
        <time>2023-07-23T07:38:40Z</time>
      </trkpt>
      <trkpt lat="45.752166341990232" lon="7.86751457490027">
        <ele>1869.3</ele>
        <time>2023-07-23T07:38:55Z</time>
      </trkpt>
      <trkpt lat="45.752248652279377" lon="7.86761624738574">
        <ele>1871.5899999999999</ele>
        <time>2023-07-23T07:39:10Z</time>
      </trkpt>
      <trkpt lat="45.752257788553834" lon="7.867629574611783">
        <ele>1871.8399999999999</ele>
        <time>2023-07-23T07:39:12Z</time>
      </trkpt>
      <trkpt lat="45.752257201820612" lon="7.867792686447501">
        <ele>1872.75</ele>
        <time>2023-07-23T07:39:28Z</time>
      </trkpt>
      <trkpt lat="45.752306906506419" lon="7.867967616766691">
        <ele>1874.7</ele>
        <time>2023-07-23T07:39:44Z</time>
      </trkpt>
      <trkpt lat="45.752372369170189" lon="7.868158640339971">
        <ele>1877.23</ele>
        <time>2023-07-23T07:40:00Z</time>
      </trkpt>
      <trkpt lat="45.752375219017267" lon="7.868170961737633">
        <ele>1877.4100000000001</ele>
        <time>2023-07-23T07:40:01Z</time>
      </trkpt>
      <trkpt lat="45.75243984349072" lon="7.868360560387373">
        <ele>1878.5799999999999</ele>
        <time>2023-07-23T07:40:17Z</time>
      </trkpt>
      <trkpt lat="45.752466162666678" lon="7.868388304486871">
        <ele>1878.49</ele>
        <time>2023-07-23T07:40:20Z</time>
      </trkpt>
      <trkpt lat="45.752544868737459" lon="7.868539430201054">
        <ele>1878.8499999999999</ele>
        <time>2023-07-23T07:40:36Z</time>
      </trkpt>
      <trkpt lat="45.752549562603235" lon="7.868551751598716">
        <ele>1878.8599999999999</ele>
        <time>2023-07-23T07:40:37Z</time>
      </trkpt>
      <trkpt lat="45.752564482390881" lon="7.868621489033103">
        <ele>1879.3199999999999</ele>
        <time>2023-07-23T07:40:42Z</time>
      </trkpt>
      <trkpt lat="45.752565655857325" lon="7.868875460699201">
        <ele>1880.3199999999999</ele>
        <time>2023-07-23T07:41:00Z</time>
      </trkpt>
      <trkpt lat="45.752527350559831" lon="7.869123900309205">
        <ele>1881.24</ele>
        <time>2023-07-23T07:41:17Z</time>
      </trkpt>
      <trkpt lat="45.752453925088048" lon="7.869268823415041">
        <ele>1880.72</ele>
        <time>2023-07-23T07:41:31Z</time>
      </trkpt>
      <trkpt lat="45.752415284514427" lon="7.869369741529226">
        <ele>1884.3900000000001</ele>
        <time>2023-07-23T07:41:40Z</time>
      </trkpt>
      <trkpt lat="45.75230598449707" lon="7.869489686563611">
        <ele>1885</ele>
        <time>2023-07-23T07:41:55Z</time>
      </trkpt>
      <trkpt lat="45.752200623974204" lon="7.869609966874123">
        <ele>1886.03</ele>
        <time>2023-07-23T07:42:10Z</time>
      </trkpt>
      <trkpt lat="45.752084031701088" lon="7.869769390672445">
        <ele>1887.79</ele>
        <time>2023-07-23T07:42:28Z</time>
      </trkpt>
      <trkpt lat="45.752023765817285" lon="7.869962090626359">
        <ele>1889.1700000000001</ele>
        <time>2023-07-23T07:42:45Z</time>
      </trkpt>
      <trkpt lat="45.751996105536819" lon="7.870057141408324">
        <ele>1889.4200000000001</ele>
        <time>2023-07-23T07:42:53Z</time>
      </trkpt>
      <trkpt lat="45.751942880451679" lon="7.870131991803646">
        <ele>1888.8800000000001</ele>
        <time>2023-07-23T07:43:03Z</time>
      </trkpt>
      <trkpt lat="45.751911783590913" lon="7.870163843035698">
        <ele>1888.45</ele>
        <time>2023-07-23T07:43:07Z</time>
      </trkpt>
      <trkpt lat="45.75179586187005" lon="7.870221510529518">
        <ele>1886.6099999999999</ele>
        <time>2023-07-23T07:43:25Z</time>
      </trkpt>
      <trkpt lat="45.751791251823306" lon="7.870229054242373">
        <ele>1886.3599999999999</ele>
        <time>2023-07-23T07:43:26Z</time>
      </trkpt>
      <trkpt lat="45.751776248216629" lon="7.870307508856058">
        <ele>1885.4200000000001</ele>
        <time>2023-07-23T07:43:32Z</time>
      </trkpt>
      <trkpt lat="45.751755712553859" lon="7.870409432798624">
        <ele>1884.6300000000001</ele>
        <time>2023-07-23T07:43:42Z</time>
      </trkpt>
      <trkpt lat="45.751595115289092" lon="7.870522923767567">
        <ele>1884.46</ele>
        <time>2023-07-23T07:43:59Z</time>
      </trkpt>
      <trkpt lat="45.751551780849695" lon="7.870542956516147">
        <ele>1883.99</ele>
        <time>2023-07-23T07:44:03Z</time>
      </trkpt>
      <trkpt lat="45.751497885212302" lon="7.870607916265726">
        <ele>1883.0799999999999</ele>
        <time>2023-07-23T07:44:10Z</time>
      </trkpt>
      <trkpt lat="45.751482378691435" lon="7.870637755841017">
        <ele>1883.1900000000001</ele>
        <time>2023-07-23T07:44:12Z</time>
      </trkpt>
      <trkpt lat="45.751372911036015" lon="7.870756192132831">
        <ele>1880.3099999999999</ele>
        <time>2023-07-23T07:44:28Z</time>
      </trkpt>
      <trkpt lat="45.751363607123494" lon="7.870769184082747">
        <ele>1880.0799999999999</ele>
        <time>2023-07-23T07:44:29Z</time>
      </trkpt>
      <trkpt lat="45.751320775598288" lon="7.870861385017633">
        <ele>1878.8099999999999</ele>
        <time>2023-07-23T07:44:36Z</time>
      </trkpt>
      <trkpt lat="45.75122706592083" lon="7.871038326993585">
        <ele>1877.9400000000001</ele>
        <time>2023-07-23T07:44:51Z</time>
      </trkpt>
      <trkpt lat="45.751180462539196" lon="7.871224656701088">
        <ele>1876.24</ele>
        <time>2023-07-23T07:45:06Z</time>
      </trkpt>
      <trkpt lat="45.751179372891784" lon="7.871365305036306">
        <ele>1875.0699999999999</ele>
        <time>2023-07-23T07:45:15Z</time>
      </trkpt>
      <trkpt lat="45.751183982938528" lon="7.871486507356167">
        <ele>1873.96</ele>
        <time>2023-07-23T07:45:24Z</time>
      </trkpt>
      <trkpt lat="45.751207619905472" lon="7.871636208146811">
        <ele>1876.46</ele>
        <time>2023-07-23T07:45:36Z</time>
      </trkpt>
      <trkpt lat="45.751216420903802" lon="7.871670741587877">
        <ele>1877.3199999999999</ele>
        <time>2023-07-23T07:45:39Z</time>
      </trkpt>
      <trkpt lat="45.751173924654722" lon="7.871830835938454">
        <ele>1878.3499999999999</ele>
        <time>2023-07-23T07:45:51Z</time>
      </trkpt>
      <trkpt lat="45.751116005703807" lon="7.87199386395514">
        <ele>1875.03</ele>
        <time>2023-07-23T07:46:06Z</time>
      </trkpt>
      <trkpt lat="45.751095553860068" lon="7.872153203934431">
        <ele>1871.9000000000001</ele>
        <time>2023-07-23T07:46:25Z</time>
      </trkpt>
      <trkpt lat="45.75109806843102" lon="7.872213134542108">
        <ele>1870.73</ele>
        <time>2023-07-23T07:46:32Z</time>
      </trkpt>
      <trkpt lat="45.751116760075092" lon="7.872314136475325">
        <ele>1869.0999999999999</ele>
        <time>2023-07-23T07:46:44Z</time>
      </trkpt>
      <trkpt lat="45.751133775338531" lon="7.87248395383358">
        <ele>1864.3399999999999</ele>
        <time>2023-07-23T07:47:00Z</time>
      </trkpt>
      <trkpt lat="45.751098738983274" lon="7.872617058455944">
        <ele>1859.3299999999999</ele>
        <time>2023-07-23T07:47:11Z</time>
      </trkpt>
      <trkpt lat="45.751094045117497" lon="7.872648825868964">
        <ele>1858.5899999999999</ele>
        <time>2023-07-23T07:47:13Z</time>
      </trkpt>
      <trkpt lat="45.751073341816664" lon="7.872728537768126">
        <ele>1857.0699999999999</ele>
        <time>2023-07-23T07:47:19Z</time>
      </trkpt>
      <trkpt lat="45.751078454777598" lon="7.872805735096335">
        <ele>1856.9200000000001</ele>
        <time>2023-07-23T07:47:24Z</time>
      </trkpt>
      <trkpt lat="45.751105779781938" lon="7.872986700385809">
        <ele>1859.3499999999999</ele>
        <time>2023-07-23T07:47:35Z</time>
      </trkpt>
      <trkpt lat="45.751103516668081" lon="7.873033890500665">
        <ele>1859.21</ele>
        <time>2023-07-23T07:47:38Z</time>
      </trkpt>
      <trkpt lat="45.751103265210986" lon="7.873086193576455">
        <ele>1859.21</ele>
        <time>2023-07-23T07:47:41Z</time>
      </trkpt>
      <trkpt lat="45.751089854165912" lon="7.87313824519515">
        <ele>1859.47</ele>
        <time>2023-07-23T07:47:45Z</time>
      </trkpt>
      <trkpt lat="45.751080550253391" lon="7.873237654566765">
        <ele>1858.3900000000001</ele>
        <time>2023-07-23T07:47:53Z</time>
      </trkpt>
      <trkpt lat="45.751022882759571" lon="7.873400263488293">
        <ele>1864.4000000000001</ele>
        <time>2023-07-23T07:48:05Z</time>
      </trkpt>
      <trkpt lat="45.750924982130527" lon="7.873508641496301">
        <ele>1868.6700000000001</ele>
        <time>2023-07-23T07:48:20Z</time>
      </trkpt>
      <trkpt lat="45.75088550336659" lon="7.873558346182108">
        <ele>1870.3099999999999</ele>
        <time>2023-07-23T07:48:26Z</time>
      </trkpt>
      <trkpt lat="45.750806042924523" lon="7.873679297044873">
        <ele>1874.25</ele>
        <time>2023-07-23T07:48:39Z</time>
      </trkpt>
      <trkpt lat="45.750765474513173" lon="7.873736377805471">
        <ele>1875.73</ele>
        <time>2023-07-23T07:48:46Z</time>
      </trkpt>
      <trkpt lat="45.750747621059418" lon="7.873769989237189">
        <ele>1876.6099999999999</ele>
        <time>2023-07-23T07:48:48Z</time>
      </trkpt>
      <trkpt lat="45.750738149508834" lon="7.873796476051211">
        <ele>1876.8099999999999</ele>
        <time>2023-07-23T07:48:50Z</time>
      </trkpt>
      <trkpt lat="45.7507105730474" lon="7.873856825754046">
        <ele>1877.1500000000001</ele>
        <time>2023-07-23T07:48:54Z</time>
      </trkpt>
      <trkpt lat="45.750703783705831" lon="7.873887084424496">
        <ele>1877.04</ele>
        <time>2023-07-23T07:48:56Z</time>
      </trkpt>
      <trkpt lat="45.750617617741227" lon="7.87405732087791">
        <ele>1880.55</ele>
        <time>2023-07-23T07:49:11Z</time>
      </trkpt>
      <trkpt lat="45.750594567507505" lon="7.874126555398107">
        <ele>1881.9200000000001</ele>
        <time>2023-07-23T07:49:20Z</time>
      </trkpt>
      <trkpt lat="45.750586353242397" lon="7.874217750504613">
        <ele>1883.4400000000001</ele>
        <time>2023-07-23T07:49:27Z</time>
      </trkpt>
      <trkpt lat="45.750595154240727" lon="7.874314729124308">
        <ele>1885.0699999999999</ele>
        <time>2023-07-23T07:49:33Z</time>
      </trkpt>
      <trkpt lat="45.750617617741227" lon="7.87437004968524">
        <ele>1886.6099999999999</ele>
        <time>2023-07-23T07:49:37Z</time>
      </trkpt>
      <trkpt lat="45.750616947188973" lon="7.874395865947008">
        <ele>1887.22</ele>
        <time>2023-07-23T07:49:39Z</time>
      </trkpt>
      <trkpt lat="45.750634213909507" lon="7.874437943100929">
        <ele>1888.5799999999999</ele>
        <time>2023-07-23T07:49:43Z</time>
      </trkpt>
      <trkpt lat="45.750599429011345" lon="7.874583452939987">
        <ele>1889.52</ele>
        <time>2023-07-23T07:49:54Z</time>
      </trkpt>
      <trkpt lat="45.750509407371283" lon="7.874775985255837">
        <ele>1889.77</ele>
        <time>2023-07-23T07:50:10Z</time>
      </trkpt>
      <trkpt lat="45.75046137906611" lon="7.874870197847486">
        <ele>1889.5999999999999</ele>
        <time>2023-07-23T07:50:20Z</time>
      </trkpt>
      <trkpt lat="45.75039641931653" lon="7.875053426250815">
        <ele>1891.5799999999999</ele>
        <time>2023-07-23T07:50:35Z</time>
      </trkpt>
      <trkpt lat="45.750396922230721" lon="7.875049319118261">
        <ele>1891.02</ele>
        <time>2023-07-23T07:50:39Z</time>
      </trkpt>
      <trkpt lat="45.750316036865115" lon="7.875129617750645">
        <ele>1892.0799999999999</ele>
        <time>2023-07-23T07:50:51Z</time>
      </trkpt>
      <trkpt lat="45.750299775972962" lon="7.875147303566337">
        <ele>1892.1099999999999</ele>
        <time>2023-07-23T07:50:53Z</time>
      </trkpt>
      <trkpt lat="45.750181591138244" lon="7.875261968001723">
        <ele>1892.3599999999999</ele>
        <time>2023-07-23T07:51:09Z</time>
      </trkpt>
      <trkpt lat="45.750118726864457" lon="7.875371435657144">
        <ele>1893.51</ele>
        <time>2023-07-23T07:51:22Z</time>
      </trkpt>
      <trkpt lat="45.750088384374976" lon="7.875427845865488">
        <ele>1894</ele>
        <time>2023-07-23T07:51:29Z</time>
      </trkpt>
      <trkpt lat="45.749990902841091" lon="7.87557695992291">
        <ele>1895.4200000000001</ele>
        <time>2023-07-23T07:51:47Z</time>
      </trkpt>
      <trkpt lat="45.749899707734585" lon="7.875594394281507">
        <ele>1897.5799999999999</ele>
        <time>2023-07-23T07:52:03Z</time>
      </trkpt>
      <trkpt lat="45.749886212870479" lon="7.875583078712225">
        <ele>1897.77</ele>
        <time>2023-07-23T07:52:05Z</time>
      </trkpt>
      <trkpt lat="45.749788731336594" lon="7.875691959634423">
        <ele>1898.5999999999999</ele>
        <time>2023-07-23T07:52:21Z</time>
      </trkpt>
      <trkpt lat="45.749746151268482" lon="7.875756667926908">
        <ele>1899.22</ele>
        <time>2023-07-23T07:52:28Z</time>
      </trkpt>
      <trkpt lat="45.749651351943612" lon="7.875921120867133">
        <ele>1899.8599999999999</ele>
        <time>2023-07-23T07:52:46Z</time>
      </trkpt>
      <trkpt lat="45.749549008905888" lon="7.876132680103183">
        <ele>1900.2</ele>
        <time>2023-07-23T07:53:04Z</time>
      </trkpt>
      <trkpt lat="45.749442977830768" lon="7.876290511339903">
        <ele>1901.8699999999999</ele>
        <time>2023-07-23T07:53:19Z</time>
      </trkpt>
      <trkpt lat="45.749365445226431" lon="7.876383131369948">
        <ele>1903.9000000000001</ele>
        <time>2023-07-23T07:53:31Z</time>
      </trkpt>
      <trkpt lat="45.74931506998837" lon="7.876431746408343">
        <ele>1904.6800000000001</ele>
        <time>2023-07-23T07:53:39Z</time>
      </trkpt>
      <trkpt lat="45.749202920123935" lon="7.876521684229374">
        <ele>1906.8299999999999</ele>
        <time>2023-07-23T07:53:55Z</time>
      </trkpt>
      <trkpt lat="45.749170733615756" lon="7.876567197963595">
        <ele>1907.8099999999999</ele>
        <time>2023-07-23T07:54:00Z</time>
      </trkpt>
      <trkpt lat="45.749096553772688" lon="7.876762663945556">
        <ele>1908.6199999999999</ele>
        <time>2023-07-23T07:54:16Z</time>
      </trkpt>
      <trkpt lat="45.749094123020768" lon="7.876767609268427">
        <ele>1909.22</ele>
        <time>2023-07-23T07:54:31Z</time>
      </trkpt>
      <trkpt lat="45.749085489660501" lon="7.876805746927857">
        <ele>1908.01</ele>
        <time>2023-07-23T07:54:36Z</time>
      </trkpt>
      <trkpt lat="45.749063277617097" lon="7.876858888193965">
        <ele>1907.8599999999999</ele>
        <time>2023-07-23T07:54:40Z</time>
      </trkpt>
      <trkpt lat="45.749060846865177" lon="7.876885207369924">
        <ele>1907.95</ele>
        <time>2023-07-23T07:54:42Z</time>
      </trkpt>
      <trkpt lat="45.749002005904913" lon="7.877063071355224">
        <ele>1907.23</ele>
        <time>2023-07-23T07:54:55Z</time>
      </trkpt>
      <trkpt lat="45.748937884345651" lon="7.877267505973578">
        <ele>1907.9000000000001</ele>
        <time>2023-07-23T07:55:10Z</time>
      </trkpt>
      <trkpt lat="45.748934866860509" lon="7.877282006666064">
        <ele>1907.9400000000001</ele>
        <time>2023-07-23T07:55:11Z</time>
      </trkpt>
      <trkpt lat="45.74892564676702" lon="7.877309834584594">
        <ele>1907.49</ele>
        <time>2023-07-23T07:55:13Z</time>
      </trkpt>
      <trkpt lat="45.748926652595401" lon="7.877352917566896">
        <ele>1907.8</ele>
        <time>2023-07-23T07:55:16Z</time>
      </trkpt>
      <trkpt lat="45.748938890174031" lon="7.877379236742854">
        <ele>1908.3</ele>
        <time>2023-07-23T07:55:18Z</time>
      </trkpt>
      <trkpt lat="45.748954396694899" lon="7.877435563132167">
        <ele>1908.3299999999999</ele>
        <time>2023-07-23T07:55:23Z</time>
      </trkpt>
      <trkpt lat="45.749000664800406" lon="7.877553412690759">
        <ele>1910.4000000000001</ele>
        <time>2023-07-23T07:55:34Z</time>
      </trkpt>
      <trkpt lat="45.74903218075633" lon="7.877603117376566">
        <ele>1911.4100000000001</ele>
        <time>2023-07-23T07:55:38Z</time>
      </trkpt>
      <trkpt lat="45.749041484668851" lon="7.877657096832991">
        <ele>1912.2</ele>
        <time>2023-07-23T07:55:42Z</time>
      </trkpt>
      <trkpt lat="45.749042071402073" lon="7.877775281667709">
        <ele>1913.5699999999999</ele>
        <time>2023-07-23T07:55:52Z</time>
      </trkpt>
      <trkpt lat="45.749046932905912" lon="7.877942081540823">
        <ele>1915.73</ele>
        <time>2023-07-23T07:56:07Z</time>
      </trkpt>
      <trkpt lat="45.749053806066513" lon="7.878076443448663">
        <ele>1917.23</ele>
        <time>2023-07-23T07:56:19Z</time>
      </trkpt>
      <trkpt lat="45.749068139120936" lon="7.878183396533132">
        <ele>1918.48</ele>
        <time>2023-07-23T07:56:31Z</time>
      </trkpt>
      <trkpt lat="45.749075012281537" lon="7.878200747072697">
        <ele>1918.55</ele>
        <time>2023-07-23T07:56:33Z</time>
      </trkpt>
      <trkpt lat="45.749070569872856" lon="7.878248943015933">
        <ele>1919.3800000000001</ele>
        <time>2023-07-23T07:56:38Z</time>
      </trkpt>
      <trkpt lat="45.749082807451487" lon="7.878329660743475">
        <ele>1922.05</ele>
        <time>2023-07-23T07:56:45Z</time>
      </trkpt>
      <trkpt lat="45.749072665348649" lon="7.878377940505743">
        <ele>1922.99</ele>
        <time>2023-07-23T07:56:49Z</time>
      </trkpt>
      <trkpt lat="45.749074593186378" lon="7.878461256623268">
        <ele>1925.1300000000001</ele>
        <time>2023-07-23T07:56:57Z</time>
      </trkpt>
      <trkpt lat="45.749076856300235" lon="7.878486653789878">
        <ele>1925.8599999999999</ele>
        <time>2023-07-23T07:56:59Z</time>
      </trkpt>
      <trkpt lat="45.749076018109918" lon="7.878609951585531">
        <ele>1927.3499999999999</ele>
        <time>2023-07-23T07:57:10Z</time>
      </trkpt>
      <trkpt lat="45.749066043645144" lon="7.878630654886365">
        <ele>1928.55</ele>
        <time>2023-07-23T07:57:12Z</time>
      </trkpt>
      <trkpt lat="45.749057745561004" lon="7.878642473369837">
        <ele>1928.9300000000001</ele>
        <time>2023-07-23T07:57:13Z</time>
      </trkpt>
      <trkpt lat="45.749020362272859" lon="7.878770213574171">
        <ele>1931.72</ele>
        <time>2023-07-23T07:57:24Z</time>
      </trkpt>
      <trkpt lat="45.749010303989053" lon="7.878852523863316">
        <ele>1933.3</ele>
        <time>2023-07-23T07:57:31Z</time>
      </trkpt>
      <trkpt lat="45.74900921434164" lon="7.878950256854296">
        <ele>1934.3</ele>
        <time>2023-07-23T07:57:39Z</time>
      </trkpt>
      <trkpt lat="45.748959509655833" lon="7.879061819985509">
        <ele>1933.75</ele>
        <time>2023-07-23T07:57:51Z</time>
      </trkpt>
      <trkpt lat="45.748912151902914" lon="7.879149159416556">
        <ele>1930.8599999999999</ele>
        <time>2023-07-23T07:58:01Z</time>
      </trkpt>
      <trkpt lat="45.748873930424452" lon="7.879214705899358">
        <ele>1932.23</ele>
        <time>2023-07-23T07:58:08Z</time>
      </trkpt>
      <trkpt lat="45.748872337862849" lon="7.879266757518053">
        <ele>1933.29</ele>
        <time>2023-07-23T07:58:12Z</time>
      </trkpt>
      <trkpt lat="45.74888507835567" lon="7.879434730857611">
        <ele>1935.29</ele>
        <time>2023-07-23T07:58:25Z</time>
      </trkpt>
      <trkpt lat="45.748881893232465" lon="7.879458954557777">
        <ele>1935.8499999999999</ele>
        <time>2023-07-23T07:58:27Z</time>
      </trkpt>
      <trkpt lat="45.748863033950329" lon="7.879573618993163">
        <ele>1937.8099999999999</ele>
        <time>2023-07-23T07:58:37Z</time>
      </trkpt>
      <trkpt lat="45.748865716159344" lon="7.879631370306015">
        <ele>1937.9200000000001</ele>
        <time>2023-07-23T07:58:42Z</time>
      </trkpt>
      <trkpt lat="45.748857920989394" lon="7.879713177680969">
        <ele>1939.1400000000001</ele>
        <time>2023-07-23T07:58:49Z</time>
      </trkpt>
      <trkpt lat="45.748856998980045" lon="7.879783669486642">
        <ele>1940.54</ele>
        <time>2023-07-23T07:58:55Z</time>
      </trkpt>
      <trkpt lat="45.748875606805086" lon="7.87986271083355">
        <ele>1941.1500000000001</ele>
        <time>2023-07-23T07:59:02Z</time>
      </trkpt>
      <trkpt lat="45.748857082799077" lon="7.879948792979121">
        <ele>1941.45</ele>
        <time>2023-07-23T07:59:12Z</time>
      </trkpt>
      <trkpt lat="45.748853059485555" lon="7.879968574270606">
        <ele>1941.47</ele>
        <time>2023-07-23T07:59:15Z</time>
      </trkpt>
      <trkpt lat="45.748846856877208" lon="7.880013165995479">
        <ele>1942.3800000000001</ele>
        <time>2023-07-23T07:59:21Z</time>
      </trkpt>
      <trkpt lat="45.74884157627821" lon="7.880048453807831">
        <ele>1941.8499999999999</ele>
        <time>2023-07-23T07:59:25Z</time>
      </trkpt>
      <trkpt lat="45.748834870755672" lon="7.880087429657579">
        <ele>1940.78</ele>
        <time>2023-07-23T07:59:28Z</time>
      </trkpt>
      <trkpt lat="45.748843336477876" lon="7.880130931735039">
        <ele>1939.6600000000001</ele>
        <time>2023-07-23T07:59:32Z</time>
      </trkpt>
      <trkpt lat="45.748845348134637" lon="7.880140990018845">
        <ele>1939.4100000000001</ele>
        <time>2023-07-23T07:59:33Z</time>
      </trkpt>
      <trkpt lat="45.748851131647825" lon="7.880270658060908">
        <ele>1940.1900000000001</ele>
        <time>2023-07-23T07:59:46Z</time>
      </trkpt>
      <trkpt lat="45.748842414468527" lon="7.880346681922674">
        <ele>1940.3299999999999</ele>
        <time>2023-07-23T07:59:53Z</time>
      </trkpt>
      <trkpt lat="45.748862363398075" lon="7.8805180080235">
        <ele>1937.51</ele>
        <time>2023-07-23T08:00:08Z</time>
      </trkpt>
      <trkpt lat="45.748861525207758" lon="7.88056000135839">
        <ele>1936.6900000000001</ele>
        <time>2023-07-23T08:00:12Z</time>
      </trkpt>
      <trkpt lat="45.748891197144985" lon="7.880633594468236">
        <ele>1935.28</ele>
        <time>2023-07-23T08:00:19Z</time>
      </trkpt>
      <trkpt lat="45.748900333419442" lon="7.880715737119317">
        <ele>1936.4000000000001</ele>
        <time>2023-07-23T08:00:28Z</time>
      </trkpt>
      <trkpt lat="45.748896645382047" lon="7.880814643576741">
        <ele>1939.7</ele>
        <time>2023-07-23T08:00:40Z</time>
      </trkpt>
      <trkpt lat="45.748886670917273" lon="7.880873987451196">
        <ele>1939.71</ele>
        <time>2023-07-23T08:00:47Z</time>
      </trkpt>
      <trkpt lat="45.748902345076203" lon="7.880927547812462">
        <ele>1940.1300000000001</ele>
        <time>2023-07-23T08:00:59Z</time>
      </trkpt>
      <trkpt lat="45.748889436945319" lon="7.881048582494259">
        <ele>1941.98</ele>
        <time>2023-07-23T08:01:17Z</time>
      </trkpt>
      <trkpt lat="45.748875439167023" lon="7.881250837817788">
        <ele>1943.6600000000001</ele>
        <time>2023-07-23T08:01:34Z</time>
      </trkpt>
      <trkpt lat="45.748882312327623" lon="7.88133205845952">
        <ele>1944.99</ele>
        <time>2023-07-23T08:01:41Z</time>
      </trkpt>
      <trkpt lat="45.748871918767691" lon="7.881400370970368">
        <ele>1945.52</ele>
        <time>2023-07-23T08:01:46Z</time>
      </trkpt>
      <trkpt lat="45.748869823291898" lon="7.881491901353002">
        <ele>1948</ele>
        <time>2023-07-23T08:01:55Z</time>
      </trkpt>
      <trkpt lat="45.74883914552629" lon="7.881677895784378">
        <ele>1952.72</ele>
        <time>2023-07-23T08:02:11Z</time>
      </trkpt>
      <trkpt lat="45.748819699510932" lon="7.88189004175365">
        <ele>1957.26</ele>
        <time>2023-07-23T08:02:29Z</time>
      </trkpt>
      <trkpt lat="45.74888801202178" lon="7.881980231031776">
        <ele>1961.29</ele>
        <time>2023-07-23T08:02:46Z</time>
      </trkpt>
      <trkpt lat="45.748924976214767" lon="7.882106881588697">
        <ele>1962.1900000000001</ele>
        <time>2023-07-23T08:03:04Z</time>
      </trkpt>
      <trkpt lat="45.748925479128957" lon="7.882120460271835">
        <ele>1962.26</ele>
        <time>2023-07-23T08:03:05Z</time>
      </trkpt>
      <trkpt lat="45.74891148135066" lon="7.882254486903548">
        <ele>1963.6300000000001</ele>
        <time>2023-07-23T08:03:17Z</time>
      </trkpt>
      <trkpt lat="45.748917935416102" lon="7.882274687290192">
        <ele>1963.6800000000001</ele>
        <time>2023-07-23T08:03:18Z</time>
      </trkpt>
      <trkpt lat="45.748921371996403" lon="7.882292624562979">
        <ele>1963.5999999999999</ele>
        <time>2023-07-23T08:03:19Z</time>
      </trkpt>
      <trkpt lat="45.748908715322614" lon="7.882348531857133">
        <ele>1963.8699999999999</ele>
        <time>2023-07-23T08:03:23Z</time>
      </trkpt>
      <trkpt lat="45.748878121376038" lon="7.882534442469478">
        <ele>1965.3699999999999</ele>
        <time>2023-07-23T08:03:37Z</time>
      </trkpt>
      <trkpt lat="45.748890023678541" lon="7.882732758298516">
        <ele>1969.55</ele>
        <time>2023-07-23T08:03:54Z</time>
      </trkpt>
      <trkpt lat="45.748883988708258" lon="7.882891427725554">
        <ele>1973</ele>
        <time>2023-07-23T08:04:12Z</time>
      </trkpt>
      <trkpt lat="45.748892789706588" lon="7.88295378908515">
        <ele>1974.6500000000001</ele>
        <time>2023-07-23T08:04:17Z</time>
      </trkpt>
      <trkpt lat="45.74890024960041" lon="7.882968038320541">
        <ele>1975.1099999999999</ele>
        <time>2023-07-23T08:04:18Z</time>
      </trkpt>
      <trkpt lat="45.74890754185617" lon="7.882994022220373">
        <ele>1975.6800000000001</ele>
        <time>2023-07-23T08:04:20Z</time>
      </trkpt>
      <trkpt lat="45.748935956507921" lon="7.883167024701834">
        <ele>1975.47</ele>
        <time>2023-07-23T08:04:35Z</time>
      </trkpt>
      <trkpt lat="45.748923383653164" lon="7.883255537599325">
        <ele>1974.9100000000001</ele>
        <time>2023-07-23T08:04:43Z</time>
      </trkpt>
      <trkpt lat="45.748893544077873" lon="7.883393000811338">
        <ele>1977.8399999999999</ele>
        <time>2023-07-23T08:04:56Z</time>
      </trkpt>
      <trkpt lat="45.748837720602751" lon="7.883510598912835">
        <ele>1978.73</ele>
        <time>2023-07-23T08:05:09Z</time>
      </trkpt>
      <trkpt lat="45.748771335929632" lon="7.883626772090793">
        <ele>1981.03</ele>
        <time>2023-07-23T08:05:24Z</time>
      </trkpt>
      <trkpt lat="45.748764462769032" lon="7.883638758212328">
        <ele>1981.27</ele>
        <time>2023-07-23T08:05:25Z</time>
      </trkpt>
      <trkpt lat="45.748721966519952" lon="7.883724169805646">
        <ele>1982.5999999999999</ele>
        <time>2023-07-23T08:05:38Z</time>
      </trkpt>
      <trkpt lat="45.748715260997415" lon="7.883744034916163">
        <ele>1982.6400000000001</ele>
        <time>2023-07-23T08:05:40Z</time>
      </trkpt>
      <trkpt lat="45.748710986226797" lon="7.883758451789618">
        <ele>1982.4000000000001</ele>
        <time>2023-07-23T08:05:41Z</time>
      </trkpt>
      <trkpt lat="45.748689947649837" lon="7.883783932775259">
        <ele>1982.8199999999999</ele>
        <time>2023-07-23T08:05:44Z</time>
      </trkpt>
      <trkpt lat="45.748683158308268" lon="7.883793907240033">
        <ele>1982.74</ele>
        <time>2023-07-23T08:05:45Z</time>
      </trkpt>
      <trkpt lat="45.748675027862191" lon="7.883802456781268">
        <ele>1982.77</ele>
        <time>2023-07-23T08:05:46Z</time>
      </trkpt>
      <trkpt lat="45.74866664595902" lon="7.883814694359899">
        <ele>1982.9400000000001</ele>
        <time>2023-07-23T08:05:47Z</time>
      </trkpt>
      <trkpt lat="45.748594226315618" lon="7.883967077359557">
        <ele>1984.24</ele>
        <time>2023-07-23T08:06:00Z</time>
      </trkpt>
      <trkpt lat="45.748567990958691" lon="7.884020134806633">
        <ele>1984.1800000000001</ele>
        <time>2023-07-23T08:06:05Z</time>
      </trkpt>
      <trkpt lat="45.748548125848174" lon="7.884177630767226">
        <ele>1986.47</ele>
        <time>2023-07-23T08:06:18Z</time>
      </trkpt>
      <trkpt lat="45.748544940724969" lon="7.884268993511796">
        <ele>1987.97</ele>
        <time>2023-07-23T08:06:25Z</time>
      </trkpt>
      <trkpt lat="45.74848735705018" lon="7.884458675980568">
        <ele>1987.4100000000001</ele>
        <time>2023-07-23T08:06:39Z</time>
      </trkpt>
      <trkpt lat="45.748469084501266" lon="7.88463469594717">
        <ele>1985.9400000000001</ele>
        <time>2023-07-23T08:06:53Z</time>
      </trkpt>
      <trkpt lat="45.748463133350015" lon="7.884649196639657">
        <ele>1985.8399999999999</ele>
        <time>2023-07-23T08:06:54Z</time>
      </trkpt>
      <trkpt lat="45.748426839709282" lon="7.88474558852613">
        <ele>1986.54</ele>
        <time>2023-07-23T08:07:01Z</time>
      </trkpt>
      <trkpt lat="45.748415105044842" lon="7.884801579639316">
        <ele>1986.97</ele>
        <time>2023-07-23T08:07:05Z</time>
      </trkpt>
      <trkpt lat="45.748412758111954" lon="7.884816415607929">
        <ele>1987.1600000000001</ele>
        <time>2023-07-23T08:07:06Z</time>
      </trkpt>
      <trkpt lat="45.748410662636161" lon="7.884858744218946">
        <ele>1987.45</ele>
        <time>2023-07-23T08:07:09Z</time>
      </trkpt>
      <trkpt lat="45.748382331803441" lon="7.885002074763179">
        <ele>1987.3499999999999</ele>
        <time>2023-07-23T08:07:20Z</time>
      </trkpt>
      <trkpt lat="45.748358108103275" lon="7.885044906288385">
        <ele>1988.8499999999999</ele>
        <time>2023-07-23T08:07:36Z</time>
      </trkpt>
      <trkpt lat="45.7483119238168" lon="7.885001320391893">
        <ele>1988.4200000000001</ele>
        <time>2023-07-23T08:07:55Z</time>
      </trkpt>
      <trkpt lat="45.748301697894931" lon="7.885020095854998">
        <ele>1990.8699999999999</ele>
        <time>2023-07-23T08:08:10Z</time>
      </trkpt>
      <trkpt lat="45.748338829725981" lon="7.885047253221273">
        <ele>1992.3299999999999</ele>
        <time>2023-07-23T08:08:33Z</time>
      </trkpt>
      <trkpt lat="45.748294070363045" lon="7.885040212422609">
        <ele>1992.4200000000001</ele>
        <time>2023-07-23T08:08:55Z</time>
      </trkpt>
      <trkpt lat="45.748324412852526" lon="7.885048007592559">
        <ele>1992.53</ele>
        <time>2023-07-23T08:09:10Z</time>
      </trkpt>
      <trkpt lat="45.748331286013126" lon="7.885106764733791">
        <ele>1994.22</ele>
        <time>2023-07-23T08:09:29Z</time>
      </trkpt>
      <trkpt lat="45.748344864696264" lon="7.885105507448316">
        <ele>1995.6700000000001</ele>
        <time>2023-07-23T08:09:53Z</time>
      </trkpt>
      <trkpt lat="45.748326843604445" lon="7.885092683136463">
        <ele>1994.3099999999999</ele>
        <time>2023-07-23T08:10:18Z</time>
      </trkpt>
      <trkpt lat="45.748330950737" lon="7.885099556297064">
        <ele>1994.49</ele>
        <time>2023-07-23T08:10:34Z</time>
      </trkpt>
      <trkpt lat="45.748342182487249" lon="7.885116906836629">
        <ele>1995.0799999999999</ele>
        <time>2023-07-23T08:10:56Z</time>
      </trkpt>
      <trkpt lat="45.748368920758367" lon="7.88513308390975">
        <ele>1994.03</ele>
        <time>2023-07-23T08:11:26Z</time>
      </trkpt>
      <trkpt lat="45.748391468077898" lon="7.885125288739801">
        <ele>1993.8199999999999</ele>
        <time>2023-07-23T08:11:51Z</time>
      </trkpt>
      <trkpt lat="45.74838912114501" lon="7.885122522711754">
        <ele>1992.29</ele>
        <time>2023-07-23T08:12:22Z</time>
      </trkpt>
      <trkpt lat="45.74838325381279" lon="7.885119840502739">
        <ele>1989.8499999999999</ele>
        <time>2023-07-23T08:12:42Z</time>
      </trkpt>
      <trkpt lat="45.748380152508616" lon="7.885159738361836">
        <ele>1987.8299999999999</ele>
        <time>2023-07-23T08:13:07Z</time>
      </trkpt>
      <trkpt lat="45.748360203579068" lon="7.885201899334788">
        <ele>1987.5899999999999</ele>
        <time>2023-07-23T08:13:27Z</time>
      </trkpt>
      <trkpt lat="45.748339248821139" lon="7.885202066972852">
        <ele>1988.52</ele>
        <time>2023-07-23T08:13:46Z</time>
      </trkpt>
      <trkpt lat="45.74835442006588" lon="7.885216483846307">
        <ele>1991.23</ele>
        <time>2023-07-23T08:14:20Z</time>
      </trkpt>
      <trkpt lat="45.748332375660539" lon="7.885193936526775">
        <ele>1991.96</ele>
        <time>2023-07-23T08:14:41Z</time>
      </trkpt>
      <trkpt lat="45.748330783098936" lon="7.88518144749105">
        <ele>1992.0799999999999</ele>
        <time>2023-07-23T08:14:57Z</time>
      </trkpt>
      <trkpt lat="45.748313684016466" lon="7.885109279304743">
        <ele>1992.5799999999999</ele>
        <time>2023-07-23T08:15:18Z</time>
      </trkpt>
      <trkpt lat="45.748364143073559" lon="7.885145908221602">
        <ele>1991.5899999999999</ele>
        <time>2023-07-23T08:15:53Z</time>
      </trkpt>
      <trkpt lat="45.748352659866214" lon="7.88533148355782">
        <ele>1989.4200000000001</ele>
        <time>2023-07-23T08:16:09Z</time>
      </trkpt>
      <trkpt lat="45.748311253264546" lon="7.885568691417575">
        <ele>1987.8399999999999</ele>
        <time>2023-07-23T08:16:26Z</time>
      </trkpt>
      <trkpt lat="45.748266661539674" lon="7.885733814910054">
        <ele>1988.29</ele>
        <time>2023-07-23T08:16:41Z</time>
      </trkpt>
      <trkpt lat="45.748272277414799" lon="7.885840348899365">
        <ele>1989.9100000000001</ele>
        <time>2023-07-23T08:16:51Z</time>
      </trkpt>
      <trkpt lat="45.748259788379073" lon="7.885932549834251">
        <ele>1989.8800000000001</ele>
        <time>2023-07-23T08:16:58Z</time>
      </trkpt>
      <trkpt lat="45.748235648497939" lon="7.886117957532406">
        <ele>1988.8699999999999</ele>
        <time>2023-07-23T08:17:13Z</time>
      </trkpt>
      <trkpt lat="45.748257022351027" lon="7.88618316873908">
        <ele>1988.3099999999999</ele>
        <time>2023-07-23T08:17:19Z</time>
      </trkpt>
      <trkpt lat="45.748280575498939" lon="7.886232705786824">
        <ele>1987.6800000000001</ele>
        <time>2023-07-23T08:17:23Z</time>
      </trkpt>
      <trkpt lat="45.748234391212463" lon="7.886362373828888">
        <ele>1990.1099999999999</ele>
        <time>2023-07-23T08:17:37Z</time>
      </trkpt>
      <trkpt lat="45.748215448111296" lon="7.886403277516365">
        <ele>1990.49</ele>
        <time>2023-07-23T08:17:41Z</time>
      </trkpt>
      <trkpt lat="45.748208742588758" lon="7.88645432330668">
        <ele>1991.05</ele>
        <time>2023-07-23T08:17:44Z</time>
      </trkpt>
      <trkpt lat="45.748157864436507" lon="7.886622212827206">
        <ele>1992.75</ele>
        <time>2023-07-23T08:17:56Z</time>
      </trkpt>
      <trkpt lat="45.748156858608127" lon="7.886711480095983">
        <ele>1992.52</ele>
        <time>2023-07-23T08:18:03Z</time>
      </trkpt>
      <trkpt lat="45.748165156692266" lon="7.886897725984454">
        <ele>1994.5</ele>
        <time>2023-07-23T08:18:18Z</time>
      </trkpt>
      <trkpt lat="45.748180914670229" lon="7.887083888053894">
        <ele>1997.95</ele>
        <time>2023-07-23T08:18:31Z</time>
      </trkpt>
      <trkpt lat="45.748179405927658" lon="7.887100400403142">
        <ele>1998.1800000000001</ele>
        <time>2023-07-23T08:18:32Z</time>
      </trkpt>
      <trkpt lat="45.7481633964926" lon="7.887223111465573">
        <ele>1999.28</ele>
        <time>2023-07-23T08:18:41Z</time>
      </trkpt>
      <trkpt lat="45.748173035681248" lon="7.887258650735021">
        <ele>1999.96</ele>
        <time>2023-07-23T08:18:44Z</time>
      </trkpt>
      <trkpt lat="45.748172365128994" lon="7.887372309342027">
        <ele>2003.8399999999999</ele>
        <time>2023-07-23T08:18:53Z</time>
      </trkpt>
      <trkpt lat="45.748171024024487" lon="7.88738664239645">
        <ele>2004.21</ele>
        <time>2023-07-23T08:18:54Z</time>
      </trkpt>
      <trkpt lat="45.748169766739011" lon="7.887401310727">
        <ele>2004.1099999999999</ele>
        <time>2023-07-23T08:18:55Z</time>
      </trkpt>
      <trkpt lat="45.748164234682918" lon="7.887430815026164">
        <ele>2004.55</ele>
        <time>2023-07-23T08:18:57Z</time>
      </trkpt>
      <trkpt lat="45.748158283531666" lon="7.887444477528334">
        <ele>2004.6900000000001</ele>
        <time>2023-07-23T08:18:58Z</time>
      </trkpt>
      <trkpt lat="45.748107405379415" lon="7.887534499168396">
        <ele>2006.45</ele>
        <time>2023-07-23T08:19:08Z</time>
      </trkpt>
      <trkpt lat="45.748083768412471" lon="7.887562746182084">
        <ele>2007.0799999999999</ele>
        <time>2023-07-23T08:19:11Z</time>
      </trkpt>
      <trkpt lat="45.748035907745361" lon="7.887713201344013">
        <ele>2009.6199999999999</ele>
        <time>2023-07-23T08:19:24Z</time>
      </trkpt>
      <trkpt lat="45.747990729287267" lon="7.887807581573725">
        <ele>2011.5999999999999</ele>
        <time>2023-07-23T08:19:33Z</time>
      </trkpt>
      <trkpt lat="45.747928703203797" lon="7.887958036735654">
        <ele>2015.8900000000001</ele>
        <time>2023-07-23T08:19:47Z</time>
      </trkpt>
      <trkpt lat="45.747941695153713" lon="7.888057446107268">
        <ele>2020.21</ele>
        <time>2023-07-23T08:19:57Z</time>
      </trkpt>
      <trkpt lat="45.748042529448867" lon="7.888116287067533">
        <ele>2024.1600000000001</ele>
        <time>2023-07-23T08:20:07Z</time>
      </trkpt>
      <trkpt lat="45.748108830302954" lon="7.888272777199745">
        <ele>2026.22</ele>
        <time>2023-07-23T08:20:20Z</time>
      </trkpt>
      <trkpt lat="45.748137328773737" lon="7.888325331732631">
        <ele>2027.1300000000001</ele>
        <time>2023-07-23T08:20:25Z</time>
      </trkpt>
      <trkpt lat="45.748146800324321" lon="7.888333294540644">
        <ele>2027.26</ele>
        <time>2023-07-23T08:20:26Z</time>
      </trkpt>
      <trkpt lat="45.748154427856207" lon="7.888345699757338">
        <ele>2027.3699999999999</ele>
        <time>2023-07-23T08:20:27Z</time>
      </trkpt>
      <trkpt lat="45.748205976560712" lon="7.88856815546751">
        <ele>2026.6300000000001</ele>
        <time>2023-07-23T08:20:41Z</time>
      </trkpt>
      <trkpt lat="45.748126935213804" lon="7.888725399971008">
        <ele>2026.27</ele>
        <time>2023-07-23T08:20:55Z</time>
      </trkpt>
      <trkpt lat="45.748052168637514" lon="7.888901587575674">
        <ele>2025.8399999999999</ele>
        <time>2023-07-23T08:21:08Z</time>
      </trkpt>
      <trkpt lat="45.747987125068903" lon="7.888951459899545">
        <ele>2026.3099999999999</ele>
        <time>2023-07-23T08:21:15Z</time>
      </trkpt>
      <trkpt lat="45.747887128964067" lon="7.889147680252791">
        <ele>2027.8800000000001</ele>
        <time>2023-07-23T08:21:30Z</time>
      </trkpt>
      <trkpt lat="45.747814876958728" lon="7.889378601685166">
        <ele>2028.28</ele>
        <time>2023-07-23T08:21:45Z</time>
      </trkpt>
      <trkpt lat="45.747757377102971" lon="7.889733910560608">
        <ele>2028.24</ele>
        <time>2023-07-23T08:22:06Z</time>
      </trkpt>
      <trkpt lat="45.747807500883937" lon="7.889987966045737">
        <ele>2027.8800000000001</ele>
        <time>2023-07-23T08:22:22Z</time>
      </trkpt>
      <trkpt lat="45.747816804796457" lon="7.890309663489461">
        <ele>2029.3800000000001</ele>
        <time>2023-07-23T08:22:40Z</time>
      </trkpt>
      <trkpt lat="45.747788809239864" lon="7.890430279076099">
        <ele>2030.97</ele>
        <time>2023-07-23T08:22:47Z</time>
      </trkpt>
      <trkpt lat="45.747787551954389" lon="7.890446875244379">
        <ele>2031.1900000000001</ele>
        <time>2023-07-23T08:22:48Z</time>
      </trkpt>
      <trkpt lat="45.747785875573754" lon="7.890463974326849">
        <ele>2031.46</ele>
        <time>2023-07-23T08:22:49Z</time>
      </trkpt>
      <trkpt lat="45.747764836996794" lon="7.890528347343206">
        <ele>2031.1500000000001</ele>
        <time>2023-07-23T08:22:54Z</time>
      </trkpt>
      <trkpt lat="45.747756119817495" lon="7.890538908541203">
        <ele>2031.3900000000001</ele>
        <time>2023-07-23T08:22:55Z</time>
      </trkpt>
      <trkpt lat="45.747746648266912" lon="7.89054905064404">
        <ele>2031.4100000000001</ele>
        <time>2023-07-23T08:22:56Z</time>
      </trkpt>
      <trkpt lat="45.747736589983106" lon="7.890562294051051">
        <ele>2031.4200000000001</ele>
        <time>2023-07-23T08:22:57Z</time>
      </trkpt>
      <trkpt lat="45.747728459537029" lon="7.890577549114823">
        <ele>2031.3399999999999</ele>
        <time>2023-07-23T08:22:58Z</time>
      </trkpt>
      <trkpt lat="45.747720580548048" lon="7.890593893826008">
        <ele>2031.3599999999999</ele>
        <time>2023-07-23T08:22:59Z</time>
      </trkpt>
      <trkpt lat="45.747712533921003" lon="7.89060864597559">
        <ele>2031.45</ele>
        <time>2023-07-23T08:23:00Z</time>
      </trkpt>
      <trkpt lat="45.74770599603653" lon="7.890621889382601">
        <ele>2031.3</ele>
        <time>2023-07-23T08:23:01Z</time>
      </trkpt>
      <trkpt lat="45.747690992429852" lon="7.890639826655388">
        <ele>2031.0699999999999</ele>
        <time>2023-07-23T08:23:03Z</time>
      </trkpt>
      <trkpt lat="45.747679760679603" lon="7.890641083940864">
        <ele>2031.1300000000001</ele>
        <time>2023-07-23T08:23:04Z</time>
      </trkpt>
      <trkpt lat="45.747668193653226" lon="7.890634378418326">
        <ele>2031.3</ele>
        <time>2023-07-23T08:23:05Z</time>
      </trkpt>
      <trkpt lat="45.747656626626849" lon="7.890623733401299">
        <ele>2031.1400000000001</ele>
        <time>2023-07-23T08:23:06Z</time>
      </trkpt>
      <trkpt lat="45.74764447286725" lon="7.890611244365573">
        <ele>2031.1900000000001</ele>
        <time>2023-07-23T08:23:07Z</time>
      </trkpt>
      <trkpt lat="45.747634582221508" lon="7.890599342063069">
        <ele>2030.97</ele>
        <time>2023-07-23T08:23:08Z</time>
      </trkpt>
      <trkpt lat="45.747551769018173" lon="7.8905632160604">
        <ele>2033.01</ele>
        <time>2023-07-23T08:23:25Z</time>
      </trkpt>
      <trkpt lat="45.747524863108993" lon="7.890582075342536">
        <ele>2033.77</ele>
        <time>2023-07-23T08:23:41Z</time>
      </trkpt>
      <trkpt lat="45.747487815096974" lon="7.890621135011315">
        <ele>2035.01</ele>
        <time>2023-07-23T08:24:01Z</time>
      </trkpt>
      <trkpt lat="45.747432662174106" lon="7.890732446685433">
        <ele>2035.79</ele>
        <time>2023-07-23T08:24:14Z</time>
      </trkpt>
      <trkpt lat="45.747419083490968" lon="7.890745606273413">
        <ele>2036.27</ele>
        <time>2023-07-23T08:24:16Z</time>
      </trkpt>
      <trkpt lat="45.747369043529034" lon="7.890809057280421">
        <ele>2038.3499999999999</ele>
        <time>2023-07-23T08:24:24Z</time>
      </trkpt>
      <trkpt lat="45.747347166761756" lon="7.890837136656046">
        <ele>2039.22</ele>
        <time>2023-07-23T08:24:27Z</time>
      </trkpt>
      <trkpt lat="45.747288409620523" lon="7.890931768342853">
        <ele>2042.51</ele>
        <time>2023-07-23T08:24:37Z</time>
      </trkpt>
      <trkpt lat="45.74724574573338" lon="7.890961356461048">
        <ele>2043.8699999999999</ele>
        <time>2023-07-23T08:24:42Z</time>
      </trkpt>
      <trkpt lat="45.747181959450245" lon="7.891125809401274">
        <ele>2044.96</ele>
        <time>2023-07-23T08:24:57Z</time>
      </trkpt>
      <trkpt lat="45.747152706608176" lon="7.891201162710786">
        <ele>2044.29</ele>
        <time>2023-07-23T08:25:02Z</time>
      </trkpt>
      <trkpt lat="45.747051117941737" lon="7.891287244856358">
        <ele>2044.0599999999999</ele>
        <time>2023-07-23T08:25:16Z</time>
      </trkpt>
      <trkpt lat="45.747044747695327" lon="7.891293279826641">
        <ele>2044.3399999999999</ele>
        <time>2023-07-23T08:25:17Z</time>
      </trkpt>
      <trkpt lat="45.746934777125716" lon="7.891369806602597">
        <ele>2047.54</ele>
        <time>2023-07-23T08:25:31Z</time>
      </trkpt>
      <trkpt lat="45.74689781293273" lon="7.891419678926468">
        <ele>2048.52</ele>
        <time>2023-07-23T08:25:38Z</time>
      </trkpt>
      <trkpt lat="45.746860848739743" lon="7.891455385833979">
        <ele>2048.7199999999998</ele>
        <time>2023-07-23T08:25:43Z</time>
      </trkpt>
      <trkpt lat="45.746809551492333" lon="7.891538115218282">
        <ele>2049.3099999999999</ele>
        <time>2023-07-23T08:25:51Z</time>
      </trkpt>
      <trkpt lat="45.746716763824224" lon="7.891635177657008">
        <ele>2051.4499999999998</ele>
        <time>2023-07-23T08:26:05Z</time>
      </trkpt>
      <trkpt lat="45.746637051925063" lon="7.891744477674365">
        <ele>2053.5599999999999</ele>
        <time>2023-07-23T08:26:20Z</time>
      </trkpt>
      <trkpt lat="45.746587179601192" lon="7.891814801841974">
        <ele>2054.3400000000001</ele>
        <time>2023-07-23T08:26:29Z</time>
      </trkpt>
      <trkpt lat="45.746569242328405" lon="7.891843635588884">
        <ele>2055.0900000000001</ele>
        <time>2023-07-23T08:26:32Z</time>
      </trkpt>
      <trkpt lat="45.746487015858293" lon="7.89193332195282">
        <ele>2058.1100000000001</ele>
        <time>2023-07-23T08:26:48Z</time>
      </trkpt>
      <trkpt lat="45.746413422748446" lon="7.892045052722096">
        <ele>2057.7199999999998</ele>
        <time>2023-07-23T08:27:03Z</time>
      </trkpt>
      <trkpt lat="45.746421385556459" lon="7.892344789579511">
        <ele>2054.04</ele>
        <time>2023-07-23T08:27:20Z</time>
      </trkpt>
      <trkpt lat="45.746446279808879" lon="7.892589122056961">
        <ele>2054.6399999999999</ele>
        <time>2023-07-23T08:27:34Z</time>
      </trkpt>
      <trkpt lat="45.746467653661966" lon="7.892654417082667">
        <ele>2056.3600000000001</ele>
        <time>2023-07-23T08:27:49Z</time>
      </trkpt>
      <trkpt lat="45.746460193768144" lon="7.892652153968811">
        <ele>2056.8499999999999</ele>
        <time>2023-07-23T08:28:15Z</time>
      </trkpt>
      <trkpt lat="45.746473604813218" lon="7.892725244164467">
        <ele>2056.4299999999998</ele>
        <time>2023-07-23T08:28:32Z</time>
      </trkpt>
      <trkpt lat="45.746460696682334" lon="7.892796825617552">
        <ele>2055.6199999999999</ele>
        <time>2023-07-23T08:28:46Z</time>
      </trkpt>
      <trkpt lat="45.746469497680664" lon="7.892824653536081">
        <ele>2057.0999999999999</ele>
        <time>2023-07-23T08:29:13Z</time>
      </trkpt>
      <trkpt lat="45.746462121605873" lon="7.89294526912272">
        <ele>2060.9899999999998</ele>
        <time>2023-07-23T08:29:29Z</time>
      </trkpt>
      <trkpt lat="45.746468659490347" lon="7.892953064292669">
        <ele>2061.1500000000001</ele>
        <time>2023-07-23T08:29:30Z</time>
      </trkpt>
      <trkpt lat="45.746564632281661" lon="7.893118942156434">
        <ele>2064.8600000000001</ele>
        <time>2023-07-23T08:29:46Z</time>
      </trkpt>
      <trkpt lat="45.746583743020892" lon="7.893156912177801">
        <ele>2065.1199999999999</ele>
        <time>2023-07-23T08:29:51Z</time>
      </trkpt>
      <trkpt lat="45.746616264805198" lon="7.89329613558948">
        <ele>2067.9299999999998</ele>
        <time>2023-07-23T08:30:05Z</time>
      </trkpt>
      <trkpt lat="45.746596734970808" lon="7.893371237441897">
        <ele>2068.5100000000002</ele>
        <time>2023-07-23T08:30:13Z</time>
      </trkpt>
      <trkpt lat="45.746615091338754" lon="7.893517250195146">
        <ele>2072.2600000000002</ele>
        <time>2023-07-23T08:30:30Z</time>
      </trkpt>
      <trkpt lat="45.746590113267303" lon="7.893631411716342">
        <ele>2072.8699999999999</ele>
        <time>2023-07-23T08:30:45Z</time>
      </trkpt>
      <trkpt lat="45.746520208194852" lon="7.893720176070929">
        <ele>2074.5300000000002</ele>
        <time>2023-07-23T08:30:59Z</time>
      </trkpt>
      <trkpt lat="45.74645415879786" lon="7.893846575170755">
        <ele>2076.1199999999999</ele>
        <time>2023-07-23T08:31:16Z</time>
      </trkpt>
      <trkpt lat="45.746367238461971" lon="7.893831068649888">
        <ele>2078.5999999999999</ele>
        <time>2023-07-23T08:31:31Z</time>
      </trkpt>
      <trkpt lat="45.746369166299701" lon="7.893841629847884">
        <ele>2078.6100000000001</ele>
        <time>2023-07-23T08:31:32Z</time>
      </trkpt>
      <trkpt lat="45.746364137157798" lon="7.893895357847214">
        <ele>2079.1799999999998</ele>
        <time>2023-07-23T08:31:36Z</time>
      </trkpt>
      <trkpt lat="45.74630219489336" lon="7.893975488841534">
        <ele>2078.8600000000001</ele>
        <time>2023-07-23T08:31:49Z</time>
      </trkpt>
      <trkpt lat="45.746273109689355" lon="7.894000131636858">
        <ele>2078.8200000000002</ele>
        <time>2023-07-23T08:31:53Z</time>
      </trkpt>
      <trkpt lat="45.746181327849627" lon="7.893972303718329">
        <ele>2080.9200000000001</ele>
        <time>2023-07-23T08:32:06Z</time>
      </trkpt>
      <trkpt lat="45.746109997853637" lon="7.893952690064907">
        <ele>2082.5900000000001</ele>
        <time>2023-07-23T08:32:19Z</time>
      </trkpt>
      <trkpt lat="45.746056102216244" lon="7.893880605697632">
        <ele>2084.1999999999998</ele>
        <time>2023-07-23T08:32:31Z</time>
      </trkpt>
      <trkpt lat="45.746031710878015" lon="7.893842803314328">
        <ele>2084.29</ele>
        <time>2023-07-23T08:32:35Z</time>
      </trkpt>
      <trkpt lat="45.745945041999221" lon="7.893596375361085">
        <ele>2084.77</ele>
        <time>2023-07-23T08:32:52Z</time>
      </trkpt>
      <trkpt lat="45.745893493294716" lon="7.89338355883956">
        <ele>2085.4699999999998</ele>
        <time>2023-07-23T08:33:09Z</time>
      </trkpt>
      <trkpt lat="45.745872957631946" lon="7.893340056762099">
        <ele>2085.1799999999998</ele>
        <time>2023-07-23T08:33:14Z</time>
      </trkpt>
      <trkpt lat="45.745773129165173" lon="7.893258584663272">
        <ele>2088</ele>
        <time>2023-07-23T08:33:30Z</time>
      </trkpt>
      <trkpt lat="45.745705990120769" lon="7.893208041787148">
        <ele>2091.5</ele>
        <time>2023-07-23T08:33:44Z</time>
      </trkpt>
      <trkpt lat="45.745666092261672" lon="7.893260596320033">
        <ele>2089.8600000000001</ele>
        <time>2023-07-23T08:33:57Z</time>
      </trkpt>
      <trkpt lat="45.745627032592893" lon="7.893311558291316">
        <ele>2090.3099999999999</ele>
        <time>2023-07-23T08:34:05Z</time>
      </trkpt>
      <trkpt lat="45.745605491101742" lon="7.893338715657592">
        <ele>2092.3600000000001</ele>
        <time>2023-07-23T08:34:20Z</time>
      </trkpt>
      <trkpt lat="45.745583027601242" lon="7.893342571333051">
        <ele>2092.7800000000002</ele>
        <time>2023-07-23T08:34:23Z</time>
      </trkpt>
      <trkpt lat="45.745448833331466" lon="7.893379116430879">
        <ele>2096.6500000000001</ele>
        <time>2023-07-23T08:34:38Z</time>
      </trkpt>
      <trkpt lat="45.745355458930135" lon="7.893472909927368">
        <ele>2097.5599999999999</ele>
        <time>2023-07-23T08:34:50Z</time>
      </trkpt>
      <trkpt lat="45.745330648496747" lon="7.893692515790463">
        <ele>2096.46</ele>
        <time>2023-07-23T08:35:05Z</time>
      </trkpt>
      <trkpt lat="45.745311873033643" lon="7.893829308450222">
        <ele>2096.9000000000001</ele>
        <time>2023-07-23T08:35:20Z</time>
      </trkpt>
      <trkpt lat="45.745276585221291" lon="7.893898962065578">
        <ele>2096.3699999999999</ele>
        <time>2023-07-23T08:35:27Z</time>
      </trkpt>
      <trkpt lat="45.74521891772747" lon="7.894087303429842">
        <ele>2092.3299999999999</ele>
        <time>2023-07-23T08:35:42Z</time>
      </trkpt>
      <trkpt lat="45.745221683755517" lon="7.894101636484265">
        <ele>2092.3099999999999</ele>
        <time>2023-07-23T08:35:43Z</time>
      </trkpt>
      <trkpt lat="45.745259486138821" lon="7.89426944218576">
        <ele>2094.1100000000001</ele>
        <time>2023-07-23T08:35:56Z</time>
      </trkpt>
      <trkpt lat="45.745249008759856" lon="7.894383352249861">
        <ele>2096.1199999999999</ele>
        <time>2023-07-23T08:36:09Z</time>
      </trkpt>
      <trkpt lat="45.745230400934815" lon="7.89445317350328">
        <ele>2097.4899999999998</ele>
        <time>2023-07-23T08:36:16Z</time>
      </trkpt>
      <trkpt lat="45.745205674320459" lon="7.89459491148591">
        <ele>2100.6799999999998</ele>
        <time>2023-07-23T08:36:29Z</time>
      </trkpt>
      <trkpt lat="45.74521841481328" lon="7.894712928682566">
        <ele>2102.29</ele>
        <time>2023-07-23T08:36:40Z</time>
      </trkpt>
      <trkpt lat="45.745199639350176" lon="7.894804961979389">
        <ele>2101.27</ele>
        <time>2023-07-23T08:36:49Z</time>
      </trkpt>
      <trkpt lat="45.74520081281662" lon="7.894879728555679">
        <ele>2100.6199999999999</ele>
        <time>2023-07-23T08:36:55Z</time>
      </trkpt>
      <trkpt lat="45.745195113122463" lon="7.894907305017114">
        <ele>2100.5799999999999</ele>
        <time>2023-07-23T08:36:57Z</time>
      </trkpt>
      <trkpt lat="45.745191760361195" lon="7.895083324983716">
        <ele>2101.4099999999999</ele>
        <time>2023-07-23T08:37:10Z</time>
      </trkpt>
      <trkpt lat="45.745176337659359" lon="7.895207377150655">
        <ele>2102.5300000000002</ele>
        <time>2023-07-23T08:37:20Z</time>
      </trkpt>
      <trkpt lat="45.74516418389976" lon="7.895348528400064">
        <ele>2104.0300000000002</ele>
        <time>2023-07-23T08:37:36Z</time>
      </trkpt>
      <trkpt lat="45.745182540267706" lon="7.895437628030777">
        <ele>2105.9499999999998</ele>
        <time>2023-07-23T08:37:47Z</time>
      </trkpt>
      <trkpt lat="45.74519201181829" lon="7.895572828128934">
        <ele>2108.1199999999999</ele>
        <time>2023-07-23T08:38:00Z</time>
      </trkpt>
      <trkpt lat="45.745243728160858" lon="7.895691767334938">
        <ele>2111.2199999999998</ele>
        <time>2023-07-23T08:38:17Z</time>
      </trkpt>
      <trkpt lat="45.745255379006267" lon="7.89579788222909">
        <ele>2113.73</ele>
        <time>2023-07-23T08:38:31Z</time>
      </trkpt>
      <trkpt lat="45.745267448946834" lon="7.895930986851454">
        <ele>2116.1799999999998</ele>
        <time>2023-07-23T08:38:49Z</time>
      </trkpt>
      <trkpt lat="45.745300557464361" lon="7.896038694307208">
        <ele>2118.1999999999998</ele>
        <time>2023-07-23T08:39:04Z</time>
      </trkpt>
      <trkpt lat="45.745310364291072" lon="7.896154867485166">
        <ele>2121.2199999999998</ele>
        <time>2023-07-23T08:39:17Z</time>
      </trkpt>
      <trkpt lat="45.745363337919116" lon="7.89625084027648">
        <ele>2122.5</ele>
        <time>2023-07-23T08:39:33Z</time>
      </trkpt>
      <trkpt lat="45.74537381529808" lon="7.896335832774639">
        <ele>2123.1199999999999</ele>
        <time>2023-07-23T08:39:41Z</time>
      </trkpt>
      <trkpt lat="45.745369624346495" lon="7.896363995969296">
        <ele>2123.2199999999998</ele>
        <time>2023-07-23T08:39:43Z</time>
      </trkpt>
      <trkpt lat="45.745334671810269" lon="7.896583769470453">
        <ele>2124.9000000000001</ele>
        <time>2023-07-23T08:39:58Z</time>
      </trkpt>
      <trkpt lat="45.745294103398919" lon="7.896697344258428">
        <ele>2124.3899999999999</ele>
        <time>2023-07-23T08:40:08Z</time>
      </trkpt>
      <trkpt lat="45.745281362906098" lon="7.896740427240729">
        <ele>2124.3600000000001</ele>
        <time>2023-07-23T08:40:12Z</time>
      </trkpt>
      <trkpt lat="45.745228724554181" lon="7.89691342972219">
        <ele>2124.6999999999998</ele>
        <time>2023-07-23T08:40:27Z</time>
      </trkpt>
      <trkpt lat="45.745208188891411" lon="7.897061705589294">
        <ele>2124.8400000000001</ele>
        <time>2023-07-23T08:40:41Z</time>
      </trkpt>
      <trkpt lat="45.745180863887072" lon="7.897113086655736">
        <ele>2124.2399999999998</ele>
        <time>2023-07-23T08:40:55Z</time>
      </trkpt>
      <trkpt lat="45.745169715955853" lon="7.897141836583614">
        <ele>2123.9299999999998</ele>
        <time>2023-07-23T08:41:07Z</time>
      </trkpt>
      <trkpt lat="45.745116407051682" lon="7.897271504625678">
        <ele>2124.5500000000002</ele>
        <time>2023-07-23T08:41:20Z</time>
      </trkpt>
      <trkpt lat="45.745055889710784" lon="7.897381223738194">
        <ele>2126.1900000000001</ele>
        <time>2023-07-23T08:41:32Z</time>
      </trkpt>
      <trkpt lat="45.744996545836329" lon="7.897497564554215">
        <ele>2129.5100000000002</ele>
        <time>2023-07-23T08:41:45Z</time>
      </trkpt>
      <trkpt lat="45.744947092607617" lon="7.897585825994611">
        <ele>2131.6199999999999</ele>
        <time>2023-07-23T08:41:56Z</time>
      </trkpt>
      <trkpt lat="45.744898142293096" lon="7.897696886211634">
        <ele>2133.23</ele>
        <time>2023-07-23T08:42:10Z</time>
      </trkpt>
      <trkpt lat="45.744855729863048" lon="7.897785315290093">
        <ele>2135.0300000000002</ele>
        <time>2023-07-23T08:42:21Z</time>
      </trkpt>
      <trkpt lat="45.744834439828992" lon="7.897817669436336">
        <ele>2135.6399999999999</ele>
        <time>2023-07-23T08:42:25Z</time>
      </trkpt>
      <trkpt lat="45.744812814518809" lon="7.897939877584577">
        <ele>2136.8000000000002</ele>
        <time>2023-07-23T08:42:39Z</time>
      </trkpt>
      <trkpt lat="45.744832931086421" lon="7.898064348846674">
        <ele>2137.9899999999998</ele>
        <time>2023-07-23T08:42:52Z</time>
      </trkpt>
      <trkpt lat="45.744821531698108" lon="7.898139115422964">
        <ele>2137.5799999999999</ele>
        <time>2023-07-23T08:43:00Z</time>
      </trkpt>
      <trkpt lat="45.744829410687089" lon="7.898274986073375">
        <ele>2140.1399999999999</ele>
        <time>2023-07-23T08:43:13Z</time>
      </trkpt>
      <trkpt lat="45.744873834773898" lon="7.898414628580213">
        <ele>2143.2399999999998</ele>
        <time>2023-07-23T08:43:26Z</time>
      </trkpt>
      <trkpt lat="45.744899651035666" lon="7.898540357127786">
        <ele>2145.6799999999998</ele>
        <time>2023-07-23T08:43:43Z</time>
      </trkpt>
      <trkpt lat="45.744895879179239" lon="7.898654099553824">
        <ele>2146.8099999999999</ele>
        <time>2023-07-23T08:43:57Z</time>
      </trkpt>
      <trkpt lat="45.744894286617637" lon="7.898695673793554">
        <ele>2147.25</ele>
        <time>2023-07-23T08:44:01Z</time>
      </trkpt>
      <trkpt lat="45.744888754561543" lon="7.89872182533145">
        <ele>2147.4299999999998</ele>
        <time>2023-07-23T08:44:03Z</time>
      </trkpt>
      <trkpt lat="45.744869140908122" lon="7.898824671283364">
        <ele>2149.2600000000002</ele>
        <time>2023-07-23T08:44:17Z</time>
      </trkpt>
      <trkpt lat="45.74485732242465" lon="7.89889776147902">
        <ele>2151.02</ele>
        <time>2023-07-23T08:44:27Z</time>
      </trkpt>
      <trkpt lat="45.744849443435669" lon="7.898993398994207">
        <ele>2152.7600000000002</ele>
        <time>2023-07-23T08:44:36Z</time>
      </trkpt>
      <trkpt lat="45.744825135916471" lon="7.899104123935103">
        <ele>2155.1300000000001</ele>
        <time>2023-07-23T08:44:49Z</time>
      </trkpt>
      <trkpt lat="45.744806863367558" lon="7.89915625937283">
        <ele>2155.7600000000002</ele>
        <time>2023-07-23T08:45:01Z</time>
      </trkpt>
      <trkpt lat="45.744807282462716" lon="7.899139327928424">
        <ele>2156.0900000000001</ele>
        <time>2023-07-23T08:45:35Z</time>
      </trkpt>
      <trkpt lat="45.744803678244352" lon="7.899144273251295">
        <ele>2156.1199999999999</ele>
        <time>2023-07-23T08:46:09Z</time>
      </trkpt>
      <trkpt lat="45.74477668851614" lon="7.899212669581175">
        <ele>2157.1300000000001</ele>
        <time>2023-07-23T08:46:24Z</time>
      </trkpt>
      <trkpt lat="45.744765205308795" lon="7.899336973205209">
        <ele>2157.3299999999999</ele>
        <time>2023-07-23T08:46:35Z</time>
      </trkpt>
      <trkpt lat="45.744750453159213" lon="7.899466892704368">
        <ele>2158</ele>
        <time>2023-07-23T08:46:47Z</time>
      </trkpt>
      <trkpt lat="45.744796805083752" lon="7.899576779454947">
        <ele>2161.1500000000001</ele>
        <time>2023-07-23T08:47:00Z</time>
      </trkpt>
      <trkpt lat="45.744802504777908" lon="7.899631261825562">
        <ele>2163.2800000000002</ele>
        <time>2023-07-23T08:47:14Z</time>
      </trkpt>
      <trkpt lat="45.7448167540133" lon="7.899743914604187">
        <ele>2164.6599999999999</ele>
        <time>2023-07-23T08:47:29Z</time>
      </trkpt>
      <trkpt lat="45.744818849489093" lon="7.89982907474041">
        <ele>2165.5999999999999</ele>
        <time>2023-07-23T08:47:45Z</time>
      </trkpt>
      <trkpt lat="45.744821950793266" lon="7.899934435263276">
        <ele>2166.1300000000001</ele>
        <time>2023-07-23T08:48:00Z</time>
      </trkpt>
      <trkpt lat="45.744818262755871" lon="7.900005010887981">
        <ele>2167.1100000000001</ele>
        <time>2023-07-23T08:48:13Z</time>
      </trkpt>
      <trkpt lat="45.744806528091431" lon="7.900107186287642">
        <ele>2169.1399999999999</ele>
        <time>2023-07-23T08:48:29Z</time>
      </trkpt>
      <trkpt lat="45.744804264977574" lon="7.900190250948072">
        <ele>2171.5799999999999</ele>
        <time>2023-07-23T08:48:41Z</time>
      </trkpt>
      <trkpt lat="45.744764618575573" lon="7.900323355570436">
        <ele>2175.6999999999998</ele>
        <time>2023-07-23T08:48:56Z</time>
      </trkpt>
      <trkpt lat="45.744728492572904" lon="7.900441540405154">
        <ele>2179.6199999999999</ele>
        <time>2023-07-23T08:49:09Z</time>
      </trkpt>
      <trkpt lat="45.744715332984924" lon="7.900459310039878">
        <ele>2179.9000000000001</ele>
        <time>2023-07-23T08:49:11Z</time>
      </trkpt>
      <trkpt lat="45.744644086807966" lon="7.900559725239873">
        <ele>2184.25</ele>
        <time>2023-07-23T08:49:25Z</time>
      </trkpt>
      <trkpt lat="45.744663113728166" lon="7.900646226480603">
        <ele>2189.1500000000001</ele>
        <time>2023-07-23T08:49:40Z</time>
      </trkpt>
      <trkpt lat="45.744658084586263" lon="7.90073599666357">
        <ele>2193.29</ele>
        <time>2023-07-23T08:49:55Z</time>
      </trkpt>
      <trkpt lat="45.744644170626998" lon="7.900785198435187">
        <ele>2195.1199999999999</ele>
        <time>2023-07-23T08:50:03Z</time>
      </trkpt>
      <trkpt lat="45.744616007432342" lon="7.9008380882442">
        <ele>2195.9400000000001</ele>
        <time>2023-07-23T08:50:09Z</time>
      </trkpt>
      <trkpt lat="45.744571164250374" lon="7.900919141247869">
        <ele>2196.21</ele>
        <time>2023-07-23T08:50:20Z</time>
      </trkpt>
      <trkpt lat="45.74453629553318" lon="7.900975802913308">
        <ele>2197.1900000000001</ele>
        <time>2023-07-23T08:50:31Z</time>
      </trkpt>
      <trkpt lat="45.744470749050379" lon="7.901074290275574">
        <ele>2200.4499999999998</ele>
        <time>2023-07-23T08:50:47Z</time>
      </trkpt>
      <trkpt lat="45.744388690218329" lon="7.901145033538342">
        <ele>2203.4899999999998</ele>
        <time>2023-07-23T08:51:02Z</time>
      </trkpt>
      <trkpt lat="45.744321048259735" lon="7.901228768751025">
        <ele>2205.1399999999999</ele>
        <time>2023-07-23T08:51:15Z</time>
      </trkpt>
      <trkpt lat="45.74426899664104" lon="7.901282412931323">
        <ele>2207.6900000000001</ele>
        <time>2023-07-23T08:51:29Z</time>
      </trkpt>
      <trkpt lat="45.744198421016335" lon="7.901341505348682">
        <ele>2209.4299999999998</ele>
        <time>2023-07-23T08:51:45Z</time>
      </trkpt>
      <trkpt lat="45.744187105447054" lon="7.901361873373389">
        <ele>2209.1399999999999</ele>
        <time>2023-07-23T08:51:47Z</time>
      </trkpt>
      <trkpt lat="45.744124408811331" lon="7.901450470089912">
        <ele>2209.75</ele>
        <time>2023-07-23T08:52:02Z</time>
      </trkpt>
      <trkpt lat="45.74406623840332" lon="7.901453655213118">
        <ele>2211.4200000000001</ele>
        <time>2023-07-23T08:52:10Z</time>
      </trkpt>
      <trkpt lat="45.743991136550903" lon="7.901473017409444">
        <ele>2213.2800000000002</ele>
        <time>2023-07-23T08:52:22Z</time>
      </trkpt>
      <trkpt lat="45.743946125730872" lon="7.901549460366368">
        <ele>2216.0799999999999</ele>
        <time>2023-07-23T08:52:35Z</time>
      </trkpt>
      <trkpt lat="45.74385073967278" lon="7.901562200859189">
        <ele>2217.21</ele>
        <time>2023-07-23T08:52:49Z</time>
      </trkpt>
      <trkpt lat="45.743761723861098" lon="7.901551555842161">
        <ele>2219.0799999999999</ele>
        <time>2023-07-23T08:53:02Z</time>
      </trkpt>
      <trkpt lat="45.743732806295156" lon="7.901624226942658">
        <ele>2221.79</ele>
        <time>2023-07-23T08:53:14Z</time>
      </trkpt>
      <trkpt lat="45.743677401915193" lon="7.90164920501411">
        <ele>2225.3400000000001</ele>
        <time>2023-07-23T08:53:25Z</time>
      </trkpt>
      <trkpt lat="45.743627948686481" lon="7.901651719585061">
        <ele>2226.2800000000002</ele>
        <time>2023-07-23T08:53:30Z</time>
      </trkpt>
      <trkpt lat="45.743561815470457" lon="7.90167267434299">
        <ele>2227.9400000000001</ele>
        <time>2023-07-23T08:53:37Z</time>
      </trkpt>
      <trkpt lat="45.743513284251094" lon="7.90175867266953">
        <ele>2230.7199999999998</ele>
        <time>2023-07-23T08:53:45Z</time>
      </trkpt>
      <trkpt lat="45.743493419140577" lon="7.901786165311933">
        <ele>2231.21</ele>
        <time>2023-07-23T08:53:48Z</time>
      </trkpt>
      <trkpt lat="45.743457963690162" lon="7.901847520843148">
        <ele>2231.0599999999999</ele>
        <time>2023-07-23T08:53:53Z</time>
      </trkpt>
      <trkpt lat="45.743433572351933" lon="7.901872247457504">
        <ele>2231.3600000000001</ele>
        <time>2023-07-23T08:53:56Z</time>
      </trkpt>
      <trkpt lat="45.743320332840085" lon="7.901967465877533">
        <ele>2232.1199999999999</ele>
        <time>2023-07-23T08:54:09Z</time>
      </trkpt>
      <trkpt lat="45.743197035044432" lon="7.902064612135291">
        <ele>2233.23</ele>
        <time>2023-07-23T08:54:22Z</time>
      </trkpt>
      <trkpt lat="45.74309972114861" lon="7.902144407853484">
        <ele>2234.3800000000001</ele>
        <time>2023-07-23T08:54:33Z</time>
      </trkpt>
      <trkpt lat="45.743009615689516" lon="7.902270639315248">
        <ele>2234.7399999999998</ele>
        <time>2023-07-23T08:54:45Z</time>
      </trkpt>
      <trkpt lat="45.742907272651792" lon="7.902421010658145">
        <ele>2234.4200000000001</ele>
        <time>2023-07-23T08:54:57Z</time>
      </trkpt>
      <trkpt lat="45.742865530773997" lon="7.902466859668493">
        <ele>2234</ele>
        <time>2023-07-23T08:55:11Z</time>
      </trkpt>
      <trkpt lat="45.742849102243781" lon="7.902502818033099">
        <ele>2234.2600000000002</ele>
        <time>2023-07-23T08:55:14Z</time>
      </trkpt>
      <trkpt lat="45.742754386737943" lon="7.902702810242772">
        <ele>2234.1799999999998</ele>
        <time>2023-07-23T08:55:29Z</time>
      </trkpt>
      <trkpt lat="45.742702335119247" lon="7.902848403900862">
        <ele>2235.3000000000002</ele>
        <time>2023-07-23T08:55:42Z</time>
      </trkpt>
      <trkpt lat="45.742631843313575" lon="7.903032135218382">
        <ele>2235.7199999999998</ele>
        <time>2023-07-23T08:55:58Z</time>
      </trkpt>
      <trkpt lat="45.742553723976016" lon="7.903191978111863">
        <ele>2236.6500000000001</ele>
        <time>2023-07-23T08:56:13Z</time>
      </trkpt>
      <trkpt lat="45.742512904107571" lon="7.903295243158937">
        <ele>2236.8800000000001</ele>
        <time>2023-07-23T08:56:24Z</time>
      </trkpt>
      <trkpt lat="45.74250846169889" lon="7.903314270079136">
        <ele>2237.3000000000002</ele>
        <time>2023-07-23T08:56:26Z</time>
      </trkpt>
      <trkpt lat="45.742495134472847" lon="7.903351988643408">
        <ele>2237.5799999999999</ele>
        <time>2023-07-23T08:56:29Z</time>
      </trkpt>
      <trkpt lat="45.742426738142967" lon="7.903491044417024">
        <ele>2236.5799999999999</ele>
        <time>2023-07-23T08:56:43Z</time>
      </trkpt>
      <trkpt lat="45.74239999987185" lon="7.903545442968607">
        <ele>2235.7199999999998</ele>
        <time>2023-07-23T08:56:49Z</time>
      </trkpt>
      <trkpt lat="45.742338728159666" lon="7.90365407243371">
        <ele>2236.6500000000001</ele>
        <time>2023-07-23T08:57:00Z</time>
      </trkpt>
      <trkpt lat="45.742306038737297" lon="7.903700591996312">
        <ele>2236.6599999999999</ele>
        <time>2023-07-23T08:57:06Z</time>
      </trkpt>
      <trkpt lat="45.742262955754995" lon="7.903829170390964">
        <ele>2237.6100000000001</ele>
        <time>2023-07-23T08:57:18Z</time>
      </trkpt>
      <trkpt lat="45.742231355980039" lon="7.903874767944217">
        <ele>2238.5999999999999</ele>
        <time>2023-07-23T08:57:23Z</time>
      </trkpt>
      <trkpt lat="45.742163211107254" lon="7.904013572260737">
        <ele>2238.8800000000001</ele>
        <time>2023-07-23T08:57:36Z</time>
      </trkpt>
      <trkpt lat="45.742097496986389" lon="7.904127733781934">
        <ele>2238.8200000000002</ele>
        <time>2023-07-23T08:57:51Z</time>
      </trkpt>
      <trkpt lat="45.742028933018446" lon="7.904178695753217">
        <ele>2239.23</ele>
        <time>2023-07-23T08:58:04Z</time>
      </trkpt>
      <trkpt lat="45.741956848651171" lon="7.904260084033012">
        <ele>2242.0999999999999</ele>
        <time>2023-07-23T08:58:18Z</time>
      </trkpt>
      <trkpt lat="45.741912927478552" lon="7.90439578704536">
        <ele>2244.3600000000001</ele>
        <time>2023-07-23T08:58:31Z</time>
      </trkpt>
      <trkpt lat="45.74189038015902" lon="7.904516234993935">
        <ele>2245.3600000000001</ele>
        <time>2023-07-23T08:58:42Z</time>
      </trkpt>
      <trkpt lat="45.741850901395082" lon="7.904666438698769">
        <ele>2247.0100000000002</ele>
        <time>2023-07-23T08:58:56Z</time>
      </trkpt>
      <trkpt lat="45.741765489801764" lon="7.904756460338831">
        <ele>2249.9299999999998</ele>
        <time>2023-07-23T08:59:08Z</time>
      </trkpt>
      <trkpt lat="45.74175258167088" lon="7.904836172237992">
        <ele>2251.8299999999999</ele>
        <time>2023-07-23T08:59:21Z</time>
      </trkpt>
      <trkpt lat="45.74174084700644" lon="7.904956871643663">
        <ele>2254.1999999999998</ele>
        <time>2023-07-23T08:59:34Z</time>
      </trkpt>
      <trkpt lat="45.741733806207776" lon="7.905040690675378">
        <ele>2256.9299999999998</ele>
        <time>2023-07-23T08:59:44Z</time>
      </trkpt>
      <trkpt lat="45.741739254444838" lon="7.905141105875373">
        <ele>2258.6100000000001</ele>
        <time>2023-07-23T08:59:56Z</time>
      </trkpt>
      <trkpt lat="45.741742523387074" lon="7.905197516083717">
        <ele>2261.9400000000001</ele>
        <time>2023-07-23T09:00:05Z</time>
      </trkpt>
      <trkpt lat="45.741717964410782" lon="7.905254261568189">
        <ele>2262.4099999999999</ele>
        <time>2023-07-23T09:00:11Z</time>
      </trkpt>
      <trkpt lat="45.741707822307944" lon="7.905372027307749">
        <ele>2263.5</ele>
        <time>2023-07-23T09:00:27Z</time>
      </trkpt>
      <trkpt lat="45.741695500910282" lon="7.905456852167845">
        <ele>2266.0999999999999</ele>
        <time>2023-07-23T09:00:38Z</time>
      </trkpt>
      <trkpt lat="45.741689885035157" lon="7.905580149963498">
        <ele>2268.75</ele>
        <time>2023-07-23T09:00:53Z</time>
      </trkpt>
      <trkpt lat="45.741690555587411" lon="7.905709901824594">
        <ele>2270.8600000000001</ele>
        <time>2023-07-23T09:01:06Z</time>
      </trkpt>
      <trkpt lat="45.741674210876226" lon="7.90581626817584">
        <ele>2271.1300000000001</ele>
        <time>2023-07-23T09:01:18Z</time>
      </trkpt>
      <trkpt lat="45.741678150370717" lon="7.905969489365816">
        <ele>2273.04</ele>
        <time>2023-07-23T09:01:32Z</time>
      </trkpt>
      <trkpt lat="45.741678737103939" lon="7.905992455780506">
        <ele>2273</ele>
        <time>2023-07-23T09:01:34Z</time>
      </trkpt>
      <trkpt lat="45.741698518395424" lon="7.906135115772486">
        <ele>2275.7399999999998</ele>
        <time>2023-07-23T09:01:50Z</time>
      </trkpt>
      <trkpt lat="45.74169248342514" lon="7.906156573444605">
        <ele>2276.0599999999999</ele>
        <time>2023-07-23T09:01:52Z</time>
      </trkpt>
      <trkpt lat="45.741688795387745" lon="7.906303089112043">
        <ele>2277</ele>
        <time>2023-07-23T09:02:06Z</time>
      </trkpt>
      <trkpt lat="45.741693405434489" lon="7.906361427158117">
        <ele>2277.9699999999998</ele>
        <time>2023-07-23T09:02:13Z</time>
      </trkpt>
      <trkpt lat="45.741687202826142" lon="7.906527724117041">
        <ele>2278.5100000000002</ele>
        <time>2023-07-23T09:02:27Z</time>
      </trkpt>
      <trkpt lat="45.741684352979064" lon="7.906696870923042">
        <ele>2280.0100000000002</ele>
        <time>2023-07-23T09:02:41Z</time>
      </trkpt>
      <trkpt lat="45.741709917783737" lon="7.906817654147744">
        <ele>2286.29</ele>
        <time>2023-07-23T09:02:55Z</time>
      </trkpt>
      <trkpt lat="45.741718718782067" lon="7.906881105154753">
        <ele>2287.2399999999998</ele>
        <time>2023-07-23T09:03:00Z</time>
      </trkpt>
      <trkpt lat="45.741730369627476" lon="7.906976323574781">
        <ele>2286.9000000000001</ele>
        <time>2023-07-23T09:03:13Z</time>
      </trkpt>
      <trkpt lat="45.741732129827142" lon="7.906988812610507">
        <ele>2286.79</ele>
        <time>2023-07-23T09:03:14Z</time>
      </trkpt>
      <trkpt lat="45.741733135655522" lon="7.907021502032876">
        <ele>2286.2800000000002</ele>
        <time>2023-07-23T09:03:16Z</time>
      </trkpt>
      <trkpt lat="45.74176867492497" lon="7.907206239178777">
        <ele>2283.5900000000001</ele>
        <time>2023-07-23T09:03:30Z</time>
      </trkpt>
      <trkpt lat="45.741810668259859" lon="7.907392987981439">
        <ele>2285.04</ele>
        <time>2023-07-23T09:03:45Z</time>
      </trkpt>
      <trkpt lat="45.741813266649842" lon="7.907427856698632">
        <ele>2285.2600000000002</ele>
        <time>2023-07-23T09:03:58Z</time>
      </trkpt>
      <trkpt lat="45.741819720715284" lon="7.907451409846544">
        <ele>2284.8600000000001</ele>
        <time>2023-07-23T09:04:17Z</time>
      </trkpt>
      <trkpt lat="45.741825923323631" lon="7.907464820891619">
        <ele>2284.77</ele>
        <time>2023-07-23T09:04:34Z</time>
      </trkpt>
      <trkpt lat="45.741841178387403" lon="7.907449901103973">
        <ele>2285.1199999999999</ele>
        <time>2023-07-23T09:04:55Z</time>
      </trkpt>
      <trkpt lat="45.7418327126652" lon="7.907461719587445">
        <ele>2284.8800000000001</ele>
        <time>2023-07-23T09:05:11Z</time>
      </trkpt>
      <trkpt lat="45.741830114275217" lon="7.907467419281602">
        <ele>2284.7199999999998</ele>
        <time>2023-07-23T09:05:25Z</time>
      </trkpt>
      <trkpt lat="45.741807650774717" lon="7.907514022663236">
        <ele>2284.27</ele>
        <time>2023-07-23T09:05:49Z</time>
      </trkpt>
      <trkpt lat="45.74181460775435" lon="7.907510921359062">
        <ele>2284.48</ele>
        <time>2023-07-23T09:06:04Z</time>
      </trkpt>
      <trkpt lat="45.741813853383064" lon="7.907501198351383">
        <ele>2284.1700000000001</ele>
        <time>2023-07-23T09:06:21Z</time>
      </trkpt>
      <trkpt lat="45.741817792877555" lon="7.907492481172085">
        <ele>2283.9000000000001</ele>
        <time>2023-07-23T09:06:41Z</time>
      </trkpt>
      <trkpt lat="45.741816954687238" lon="7.907488206401467">
        <ele>2284.4499999999998</ele>
        <time>2023-07-23T09:07:06Z</time>
      </trkpt>
      <trkpt lat="45.74184587225318" lon="7.907564984634519">
        <ele>2284.0300000000002</ele>
        <time>2023-07-23T09:07:19Z</time>
      </trkpt>
      <trkpt lat="45.741852410137653" lon="7.907575713470578">
        <ele>2283.1799999999998</ele>
        <time>2023-07-23T09:07:41Z</time>
      </trkpt>
      <trkpt lat="45.741881746798754" lon="7.907695155590773">
        <ele>2285.8699999999999</ele>
        <time>2023-07-23T09:07:53Z</time>
      </trkpt>
      <trkpt lat="45.741881746798754" lon="7.907842677086592">
        <ele>2288.1900000000001</ele>
        <time>2023-07-23T09:08:08Z</time>
      </trkpt>
      <trkpt lat="45.741883004084229" lon="7.907852735370398">
        <ele>2288.29</ele>
        <time>2023-07-23T09:08:09Z</time>
      </trkpt>
      <trkpt lat="45.741907730698586" lon="7.908025737851858">
        <ele>2291.54</ele>
        <time>2023-07-23T09:08:26Z</time>
      </trkpt>
      <trkpt lat="45.741931032389402" lon="7.908164206892252">
        <ele>2292.6100000000001</ele>
        <time>2023-07-23T09:08:38Z</time>
      </trkpt>
      <trkpt lat="45.741918375715613" lon="7.908325809985399">
        <ele>2294</ele>
        <time>2023-07-23T09:08:51Z</time>
      </trkpt>
      <trkpt lat="45.741914184764028" lon="7.908475762233138">
        <ele>2294.3499999999999</ele>
        <time>2023-07-23T09:09:05Z</time>
      </trkpt>
      <trkpt lat="45.741899516433477" lon="7.90861607529223">
        <ele>2294.1199999999999</ele>
        <time>2023-07-23T09:09:18Z</time>
      </trkpt>
      <trkpt lat="45.741888787597418" lon="7.908781282603741">
        <ele>2295.5999999999999</ele>
        <time>2023-07-23T09:09:34Z</time>
      </trkpt>
      <trkpt lat="45.741851488128304" lon="7.90890977717936">
        <ele>2295.8299999999999</ele>
        <time>2023-07-23T09:09:48Z</time>
      </trkpt>
      <trkpt lat="45.74180630967021" lon="7.909031063318253">
        <ele>2295.98</ele>
        <time>2023-07-23T09:10:02Z</time>
      </trkpt>
      <trkpt lat="45.741779655218124" lon="7.909182189032435">
        <ele>2298.1799999999998</ele>
        <time>2023-07-23T09:10:17Z</time>
      </trkpt>
      <trkpt lat="45.741772949695587" lon="7.909345049411058">
        <ele>2300.6399999999999</ele>
        <time>2023-07-23T09:10:32Z</time>
      </trkpt>
      <trkpt lat="45.741770938038826" lon="7.909362902864814">
        <ele>2300.8699999999999</ele>
        <time>2023-07-23T09:10:34Z</time>
      </trkpt>
      <trkpt lat="45.741723831743002" lon="7.909512352198362">
        <ele>2302.98</ele>
        <time>2023-07-23T09:10:49Z</time>
      </trkpt>
      <trkpt lat="45.741693070158362" lon="7.909687533974648">
        <ele>2305.77</ele>
        <time>2023-07-23T09:11:05Z</time>
      </trkpt>
      <trkpt lat="45.741639761254191" lon="7.909751906991005">
        <ele>2306.6700000000001</ele>
        <time>2023-07-23T09:11:18Z</time>
      </trkpt>
      <trkpt lat="45.741602294147015" lon="7.909919042140245">
        <ele>2307.1300000000001</ele>
        <time>2023-07-23T09:11:35Z</time>
      </trkpt>
      <trkpt lat="45.741592068225145" lon="7.910068659111857">
        <ele>2309.5300000000002</ele>
        <time>2023-07-23T09:11:49Z</time>
      </trkpt>
      <trkpt lat="45.741557450965047" lon="7.910193298012018">
        <ele>2312</ele>
        <time>2023-07-23T09:12:03Z</time>
      </trkpt>
      <trkpt lat="45.741515541449189" lon="7.910314248874784">
        <ele>2313.0500000000002</ele>
        <time>2023-07-23T09:12:17Z</time>
      </trkpt>
      <trkpt lat="45.74145695194602" lon="7.910451292991638">
        <ele>2315.1500000000001</ele>
        <time>2023-07-23T09:12:32Z</time>
      </trkpt>
      <trkpt lat="45.741424346342683" lon="7.91060283780098">
        <ele>2316.3699999999999</ele>
        <time>2023-07-23T09:12:47Z</time>
      </trkpt>
      <trkpt lat="45.741412695497274" lon="7.910721777006984">
        <ele>2317.46</ele>
        <time>2023-07-23T09:12:59Z</time>
      </trkpt>
      <trkpt lat="45.741388471797109" lon="7.910825544968247">
        <ele>2319.0799999999999</ele>
        <time>2023-07-23T09:13:09Z</time>
      </trkpt>
      <trkpt lat="45.741350585594773" lon="7.910995613783598">
        <ele>2321.9099999999999</ele>
        <time>2023-07-23T09:13:25Z</time>
      </trkpt>
      <trkpt lat="45.741305574774742" lon="7.911123773083091">
        <ele>2323.8200000000002</ele>
        <time>2023-07-23T09:13:38Z</time>
      </trkpt>
      <trkpt lat="45.741254864260554" lon="7.911281855776906">
        <ele>2326.1199999999999</ele>
        <time>2023-07-23T09:13:54Z</time>
      </trkpt>
      <trkpt lat="45.741209015250206" lon="7.911448236554861">
        <ele>2328.5100000000002</ele>
        <time>2023-07-23T09:14:10Z</time>
      </trkpt>
      <trkpt lat="45.741188228130341" lon="7.911578575149179">
        <ele>2329.4099999999999</ele>
        <time>2023-07-23T09:14:25Z</time>
      </trkpt>
      <trkpt lat="45.7411764934659" lon="7.911705728620291">
        <ele>2331.5</ele>
        <time>2023-07-23T09:14:39Z</time>
      </trkpt>
      <trkpt lat="45.741163417696953" lon="7.911803042516112">
        <ele>2333.3200000000002</ele>
        <time>2023-07-23T09:14:53Z</time>
      </trkpt>
      <trkpt lat="45.741141373291612" lon="7.911921059712768">
        <ele>2333.4299999999998</ele>
        <time>2023-07-23T09:15:09Z</time>
      </trkpt>
      <trkpt lat="45.741104828193784" lon="7.912025330588222">
        <ele>2333.3800000000001</ele>
        <time>2023-07-23T09:15:25Z</time>
      </trkpt>
      <trkpt lat="45.741091417148709" lon="7.912132618948817">
        <ele>2337.9699999999998</ele>
        <time>2023-07-23T09:15:39Z</time>
      </trkpt>
      <trkpt lat="45.741084543988109" lon="7.912269160151482">
        <ele>2339.3299999999999</ele>
        <time>2023-07-23T09:15:54Z</time>
      </trkpt>
      <trkpt lat="45.741050932556391" lon="7.912402935326099">
        <ele>2341.1999999999998</ele>
        <time>2023-07-23T09:16:08Z</time>
      </trkpt>
      <trkpt lat="45.74100743047893" lon="7.912557162344456">
        <ele>2344.1700000000001</ele>
        <time>2023-07-23T09:16:25Z</time>
      </trkpt>
      <trkpt lat="45.740973483771086" lon="7.912694709375501">
        <ele>2346.6999999999998</ele>
        <time>2023-07-23T09:16:40Z</time>
      </trkpt>
      <trkpt lat="45.740930065512657" lon="7.912840386852622">
        <ele>2348.0700000000002</ele>
        <time>2023-07-23T09:16:55Z</time>
      </trkpt>
      <trkpt lat="45.740894274786115" lon="7.912987740710378">
        <ele>2348.9499999999998</ele>
        <time>2023-07-23T09:17:08Z</time>
      </trkpt>
      <trkpt lat="45.740815401077271" lon="7.913218745961785">
        <ele>2349.5599999999999</ele>
        <time>2023-07-23T09:17:26Z</time>
      </trkpt>
      <trkpt lat="45.740789165720344" lon="7.913429467007518">
        <ele>2351.4699999999998</ele>
        <time>2023-07-23T09:17:42Z</time>
      </trkpt>
      <trkpt lat="45.740769216790795" lon="7.913633063435555">
        <ele>2352.8600000000001</ele>
        <time>2023-07-23T09:17:58Z</time>
      </trkpt>
      <trkpt lat="45.740788243710995" lon="7.913750996813178">
        <ele>2353.6900000000001</ele>
        <time>2023-07-23T09:18:10Z</time>
      </trkpt>
      <trkpt lat="45.740786902606487" lon="7.913759294897318">
        <ele>2353.6900000000001</ele>
        <time>2023-07-23T09:18:11Z</time>
      </trkpt>
      <trkpt lat="45.740802828222513" lon="7.913883766159415">
        <ele>2355.8699999999999</ele>
        <time>2023-07-23T09:18:22Z</time>
      </trkpt>
      <trkpt lat="45.740818586200476" lon="7.91395777836442">
        <ele>2356.8299999999999</ele>
        <time>2023-07-23T09:18:29Z</time>
      </trkpt>
      <trkpt lat="45.740818083286285" lon="7.914140084758401">
        <ele>2360.0799999999999</ele>
        <time>2023-07-23T09:18:44Z</time>
      </trkpt>
      <trkpt lat="45.74078313075006" lon="7.914313925430179">
        <ele>2360.5300000000002</ele>
        <time>2023-07-23T09:18:59Z</time>
      </trkpt>
      <trkpt lat="45.740756979212165" lon="7.9144302662462">
        <ele>2361.4899999999998</ele>
        <time>2023-07-23T09:19:09Z</time>
      </trkpt>
      <trkpt lat="45.740718338638544" lon="7.914540320634842">
        <ele>2362.0900000000001</ele>
        <time>2023-07-23T09:19:19Z</time>
      </trkpt>
      <trkpt lat="45.740649104118347" lon="7.914750706404448">
        <ele>2363.5300000000002</ele>
        <time>2023-07-23T09:19:36Z</time>
      </trkpt>
      <trkpt lat="45.740642314776778" lon="7.914788676425815">
        <ele>2363.9899999999998</ele>
        <time>2023-07-23T09:19:39Z</time>
      </trkpt>
      <trkpt lat="45.740620857104659" lon="7.914823377504945">
        <ele>2364.0100000000002</ele>
        <time>2023-07-23T09:19:42Z</time>
      </trkpt>
      <trkpt lat="45.740577941760421" lon="7.915097884833813">
        <ele>2365.5300000000002</ele>
        <time>2023-07-23T09:20:00Z</time>
      </trkpt>
      <trkpt lat="45.74053100310266" lon="7.915370799601078">
        <ele>2366.5599999999999</ele>
        <time>2023-07-23T09:20:18Z</time>
      </trkpt>
      <trkpt lat="45.740484902635217" lon="7.915576742962003">
        <ele>2367.6300000000001</ele>
        <time>2023-07-23T09:20:32Z</time>
      </trkpt>
      <trkpt lat="45.740478448569775" lon="7.915615132078528">
        <ele>2367.7199999999998</ele>
        <time>2023-07-23T09:20:35Z</time>
      </trkpt>
      <trkpt lat="45.74045917019248" lon="7.915748991072178">
        <ele>2368.6999999999998</ele>
        <time>2023-07-23T09:20:44Z</time>
      </trkpt>
      <trkpt lat="45.740379458293319" lon="7.916010254994035">
        <ele>2369.73</ele>
        <time>2023-07-23T09:21:03Z</time>
      </trkpt>
      <trkpt lat="45.7403648737818" lon="7.91602517478168">
        <ele>2369.75</ele>
        <time>2023-07-23T09:21:05Z</time>
      </trkpt>
      <trkpt lat="45.740319862961769" lon="7.916029281914234">
        <ele>2370.1999999999998</ele>
        <time>2023-07-23T09:21:10Z</time>
      </trkpt>
      <trkpt lat="45.740285329520702" lon="7.916077477857471">
        <ele>2370.8000000000002</ele>
        <time>2023-07-23T09:21:15Z</time>
      </trkpt>
      <trkpt lat="45.740231098607183" lon="7.916312338784337">
        <ele>2371.3400000000001</ele>
        <time>2023-07-23T09:21:32Z</time>
      </trkpt>
      <trkpt lat="45.740184830501676" lon="7.91634519584477">
        <ele>2370.9299999999998</ele>
        <time>2023-07-23T09:21:48Z</time>
      </trkpt>
      <trkpt lat="45.740173934027553" lon="7.916339999064803">
        <ele>2369.8000000000002</ele>
        <time>2023-07-23T09:22:22Z</time>
      </trkpt>
      <trkpt lat="45.740178963169456" lon="7.91632616892457">
        <ele>2369.8299999999999</ele>
        <time>2023-07-23T09:23:16Z</time>
      </trkpt>
      <trkpt lat="45.740180220454931" lon="7.916329940780997">
        <ele>2370.6999999999998</ele>
        <time>2023-07-23T09:24:09Z</time>
      </trkpt>
      <trkpt lat="45.74018893763423" lon="7.916345112025738">
        <ele>2371.6300000000001</ele>
        <time>2023-07-23T09:24:48Z</time>
      </trkpt>
      <trkpt lat="45.740187931805849" lon="7.916345614939928">
        <ele>2371.6100000000001</ele>
        <time>2023-07-23T09:25:03Z</time>
      </trkpt>
      <trkpt lat="45.740184411406517" lon="7.916361792013049">
        <ele>2371.1300000000001</ele>
        <time>2023-07-23T09:25:08Z</time>
      </trkpt>
      <trkpt lat="45.740182148292661" lon="7.916446700692177">
        <ele>2370.8899999999999</ele>
        <time>2023-07-23T09:25:13Z</time>
      </trkpt>
      <trkpt lat="45.740093048661947" lon="7.916605370119214">
        <ele>2369.3099999999999</ele>
        <time>2023-07-23T09:25:25Z</time>
      </trkpt>
      <trkpt lat="45.740065220743418" lon="7.916650800034404">
        <ele>2368.6399999999999</ele>
        <time>2023-07-23T09:25:29Z</time>
      </trkpt>
      <trkpt lat="45.739968325942755" lon="7.91674685664475">
        <ele>2366.5300000000002</ele>
        <time>2023-07-23T09:25:40Z</time>
      </trkpt>
      <trkpt lat="45.739845782518387" lon="7.916891779750586">
        <ele>2365.8600000000001</ele>
        <time>2023-07-23T09:25:53Z</time>
      </trkpt>
      <trkpt lat="45.739651070907712" lon="7.916976856067777">
        <ele>2364.4699999999998</ele>
        <time>2023-07-23T09:26:10Z</time>
      </trkpt>
      <trkpt lat="45.739478152245283" lon="7.916990015655756">
        <ele>2365.0500000000002</ele>
        <time>2023-07-23T09:26:25Z</time>
      </trkpt>
      <trkpt lat="45.739300372079015" lon="7.917068134993315">
        <ele>2364.6900000000001</ele>
        <time>2023-07-23T09:26:41Z</time>
      </trkpt>
      <trkpt lat="45.739087387919426" lon="7.917120102792978">
        <ele>2362.8200000000002</ele>
        <time>2023-07-23T09:26:59Z</time>
      </trkpt>
      <trkpt lat="45.738936681300402" lon="7.917154049500823">
        <ele>2363.1300000000001</ele>
        <time>2023-07-23T09:27:15Z</time>
      </trkpt>
      <trkpt lat="45.738812210038304" lon="7.91720325127244">
        <ele>2363.1599999999999</ele>
        <time>2023-07-23T09:27:28Z</time>
      </trkpt>
      <trkpt lat="45.738670472055674" lon="7.917354293167591">
        <ele>2362.9699999999998</ele>
        <time>2023-07-23T09:27:44Z</time>
      </trkpt>
      <trkpt lat="45.738590508699417" lon="7.917503574863076">
        <ele>2363.3299999999999</ele>
        <time>2023-07-23T09:27:57Z</time>
      </trkpt>
      <trkpt lat="45.738528817892075" lon="7.917695185169578">
        <ele>2362.3899999999999</ele>
        <time>2023-07-23T09:28:11Z</time>
      </trkpt>
      <trkpt lat="45.738506019115448" lon="7.917736005038023">
        <ele>2362.5</ele>
        <time>2023-07-23T09:28:25Z</time>
      </trkpt>
      <trkpt lat="45.73849000968039" lon="7.917739525437355">
        <ele>2362.2600000000002</ele>
        <time>2023-07-23T09:28:59Z</time>
      </trkpt>
      <trkpt lat="45.738411974161863" lon="7.917796690016985">
        <ele>2363.2600000000002</ele>
        <time>2023-07-23T09:29:09Z</time>
      </trkpt>
      <trkpt lat="45.738309044390917" lon="7.917903391644359">
        <ele>2363.5700000000002</ele>
        <time>2023-07-23T09:29:28Z</time>
      </trkpt>
      <trkpt lat="45.738304769620299" lon="7.917894842103124">
        <ele>2364.0300000000002</ele>
        <time>2023-07-23T09:29:49Z</time>
      </trkpt>
      <trkpt lat="45.738299237564206" lon="7.917887046933174">
        <ele>2363.9299999999998</ele>
        <time>2023-07-23T09:30:17Z</time>
      </trkpt>
      <trkpt lat="45.738291945308447" lon="7.917923340573907">
        <ele>2363.8499999999999</ele>
        <time>2023-07-23T09:30:37Z</time>
      </trkpt>
      <trkpt lat="45.738313151523471" lon="7.917920239269733">
        <ele>2362.9200000000001</ele>
        <time>2023-07-23T09:30:51Z</time>
      </trkpt>
      <trkpt lat="45.738296806812286" lon="7.91792350821197">
        <ele>2361.9299999999998</ele>
        <time>2023-07-23T09:31:12Z</time>
      </trkpt>
      <trkpt lat="45.738298231735826" lon="7.917921077460051">
        <ele>2362</ele>
        <time>2023-07-23T09:31:36Z</time>
      </trkpt>
      <trkpt lat="45.738306781277061" lon="7.917919652536511">
        <ele>2362.3800000000001</ele>
        <time>2023-07-23T09:31:57Z</time>
      </trkpt>
      <trkpt lat="45.738292783498764" lon="7.917917808517814">
        <ele>2360.7399999999998</ele>
        <time>2023-07-23T09:32:24Z</time>
      </trkpt>
      <trkpt lat="45.738321030512452" lon="7.917919149622321">
        <ele>2361.5300000000002</ele>
        <time>2023-07-23T09:32:48Z</time>
      </trkpt>
      <trkpt lat="45.738311307504773" lon="7.917913869023323">
        <ele>2362.0900000000001</ele>
        <time>2023-07-23T09:33:15Z</time>
      </trkpt>
      <trkpt lat="45.738254562020302" lon="7.917884616181254">
        <ele>2360.3099999999999</ele>
        <time>2023-07-23T09:33:32Z</time>
      </trkpt>
      <trkpt lat="45.73820854537189" lon="7.917871121317148">
        <ele>2360.5100000000002</ele>
        <time>2023-07-23T09:33:38Z</time>
      </trkpt>
      <trkpt lat="45.738049289211631" lon="7.917789900675416">
        <ele>2361.79</ele>
        <time>2023-07-23T09:33:54Z</time>
      </trkpt>
      <trkpt lat="45.737921549007297" lon="7.917691916227341">
        <ele>2366.0799999999999</ele>
        <time>2023-07-23T09:34:10Z</time>
      </trkpt>
      <trkpt lat="45.737851560115814" lon="7.917608600109816">
        <ele>2368.6500000000001</ele>
        <time>2023-07-23T09:34:21Z</time>
      </trkpt>
      <trkpt lat="45.737759442999959" lon="7.917517321184278">
        <ele>2370.1999999999998</ele>
        <time>2023-07-23T09:34:33Z</time>
      </trkpt>
      <trkpt lat="45.737716360017657" lon="7.917462000623345">
        <ele>2369.8099999999999</ele>
        <time>2023-07-23T09:34:39Z</time>
      </trkpt>
      <trkpt lat="45.737681742757559" lon="7.917430987581611">
        <ele>2369.8099999999999</ele>
        <time>2023-07-23T09:34:43Z</time>
      </trkpt>
      <trkpt lat="45.737571269273758" lon="7.917367033660412">
        <ele>2370.5100000000002</ele>
        <time>2023-07-23T09:34:57Z</time>
      </trkpt>
      <trkpt lat="45.737463729456067" lon="7.917335769161582">
        <ele>2371.4299999999998</ele>
        <time>2023-07-23T09:35:11Z</time>
      </trkpt>
      <trkpt lat="45.737368846312165" lon="7.917308947071433">
        <ele>2371.5900000000001</ele>
        <time>2023-07-23T09:35:22Z</time>
      </trkpt>
      <trkpt lat="45.737193496897817" lon="7.917217751964927">
        <ele>2371.96</ele>
        <time>2023-07-23T09:35:40Z</time>
      </trkpt>
      <trkpt lat="45.737034408375621" lon="7.917218673974276">
        <ele>2374.5100000000002</ele>
        <time>2023-07-23T09:35:57Z</time>
      </trkpt>
      <trkpt lat="45.736933993175626" lon="7.917235689237714">
        <ele>2375</ele>
        <time>2023-07-23T09:36:07Z</time>
      </trkpt>
      <trkpt lat="45.736906249076128" lon="7.917233174666762">
        <ele>2374.8899999999999</ele>
        <time>2023-07-23T09:36:10Z</time>
      </trkpt>
      <trkpt lat="45.736836846917868" lon="7.917232923209667">
        <ele>2375.1799999999998</ele>
        <time>2023-07-23T09:36:19Z</time>
      </trkpt>
      <trkpt lat="45.736731151118875" lon="7.917192187160254">
        <ele>2376.1199999999999</ele>
        <time>2023-07-23T09:36:34Z</time>
      </trkpt>
      <trkpt lat="45.736670801416039" lon="7.917177602648735">
        <ele>2376.8899999999999</ele>
        <time>2023-07-23T09:36:43Z</time>
      </trkpt>
      <trkpt lat="45.736621934920549" lon="7.917160000652075">
        <ele>2378.21</ele>
        <time>2023-07-23T09:36:49Z</time>
      </trkpt>
      <trkpt lat="45.736573487520218" lon="7.917137369513512">
        <ele>2378.8200000000002</ele>
        <time>2023-07-23T09:36:55Z</time>
      </trkpt>
      <trkpt lat="45.736533086746931" lon="7.917138710618019">
        <ele>2379.6599999999999</ele>
        <time>2023-07-23T09:37:00Z</time>
      </trkpt>
      <trkpt lat="45.736456979066133" lon="7.917157988995314">
        <ele>2382.73</ele>
        <time>2023-07-23T09:37:14Z</time>
      </trkpt>
      <trkpt lat="45.736403502523899" lon="7.917199311777949">
        <ele>2382.5900000000001</ele>
        <time>2023-07-23T09:37:27Z</time>
      </trkpt>
      <trkpt lat="45.736348098143935" lon="7.91725454851985">
        <ele>2383.4499999999998</ele>
        <time>2023-07-23T09:37:40Z</time>
      </trkpt>
      <trkpt lat="45.736271655187011" lon="7.917341385036707">
        <ele>2385.2800000000002</ele>
        <time>2023-07-23T09:37:55Z</time>
      </trkpt>
      <trkpt lat="45.736201917752624" lon="7.917419085279107">
        <ele>2388.0300000000002</ele>
        <time>2023-07-23T09:38:08Z</time>
      </trkpt>
      <trkpt lat="45.736131509765983" lon="7.917488571256399">
        <ele>2390.1799999999998</ele>
        <time>2023-07-23T09:38:20Z</time>
      </trkpt>
      <trkpt lat="45.736055821180344" lon="7.917552525177598">
        <ele>2391.7800000000002</ele>
        <time>2023-07-23T09:38:33Z</time>
      </trkpt>
      <trkpt lat="45.735983401536942" lon="7.917594853788614">
        <ele>2393.6500000000001</ele>
        <time>2023-07-23T09:38:49Z</time>
      </trkpt>
      <trkpt lat="45.735958758741617" lon="7.917610611766577">
        <ele>2393.5599999999999</ele>
        <time>2023-07-23T09:39:49Z</time>
      </trkpt>
      <trkpt lat="45.735920453444123" lon="7.917666099965572">
        <ele>2391.6900000000001</ele>
        <time>2023-07-23T09:40:02Z</time>
      </trkpt>
      <trkpt lat="45.735817775130272" lon="7.917668782174587">
        <ele>2371.0300000000002</ele>
        <time>2023-07-23T09:39:28Z</time>
      </trkpt>
      <trkpt lat="45.735574867576361" lon="7.917865505442023">
        <ele>2393.98</ele>
        <time>2023-07-23T09:40:24Z</time>
      </trkpt>
      <trkpt lat="45.7356021925807" lon="7.917926944792271">
        <ele>2389.0300000000002</ele>
        <time>2023-07-23T09:40:32Z</time>
      </trkpt>
      <trkpt lat="45.735106570646167" lon="7.918427176773548">
        <ele>2365.0100000000002</ele>
        <time>2023-07-23T09:43:41Z</time>
      </trkpt>
      <trkpt lat="45.735054854303598" lon="7.918519293889403">
        <ele>2361.73</ele>
        <time>2023-07-23T09:43:55Z</time>
      </trkpt>
      <trkpt lat="45.73501244187355" lon="7.91854452341795">
        <ele>2360.6199999999999</ele>
        <time>2023-07-23T09:44:06Z</time>
      </trkpt>
      <trkpt lat="45.734987715259194" lon="7.918565897271037">
        <ele>2360.3400000000001</ele>
        <time>2023-07-23T09:44:09Z</time>
      </trkpt>
      <trkpt lat="45.734892077744007" lon="7.918672598898411">
        <ele>2360.1799999999998</ele>
        <time>2023-07-23T09:44:23Z</time>
      </trkpt>
      <trkpt lat="45.734869027510285" lon="7.918683411553502">
        <ele>2360.6100000000001</ele>
        <time>2023-07-23T09:44:26Z</time>
      </trkpt>
      <trkpt lat="45.734822256490588" lon="7.918805787339807">
        <ele>2362.9000000000001</ele>
        <time>2023-07-23T09:44:39Z</time>
      </trkpt>
      <trkpt lat="45.73480767197907" lon="7.91898038238287">
        <ele>2364.5700000000002</ele>
        <time>2023-07-23T09:44:56Z</time>
      </trkpt>
      <trkpt lat="45.734763583168387" lon="7.919085239991546">
        <ele>2364.52</ele>
        <time>2023-07-23T09:45:10Z</time>
      </trkpt>
      <trkpt lat="45.734719997271895" lon="7.919232929125428">
        <ele>2364.1599999999999</ele>
        <time>2023-07-23T09:45:25Z</time>
      </trkpt>
      <trkpt lat="45.734697785228491" lon="7.919353628531098">
        <ele>2363.75</ele>
        <time>2023-07-23T09:45:42Z</time>
      </trkpt>
      <trkpt lat="45.734699629247189" lon="7.919377684593201">
        <ele>2363.7199999999998</ele>
        <time>2023-07-23T09:45:45Z</time>
      </trkpt>
      <trkpt lat="45.734697449952364" lon="7.919408110901713">
        <ele>2363.6900000000001</ele>
        <time>2023-07-23T09:45:48Z</time>
      </trkpt>
      <trkpt lat="45.734664592891932" lon="7.919486230239272">
        <ele>2365</ele>
        <time>2023-07-23T09:45:55Z</time>
      </trkpt>
      <trkpt lat="45.734672890976071" lon="7.919541802257299">
        <ele>2365.6399999999999</ele>
        <time>2023-07-23T09:46:00Z</time>
      </trkpt>
      <trkpt lat="45.734624527394772" lon="7.91970357298851">
        <ele>2366.8600000000001</ele>
        <time>2023-07-23T09:46:13Z</time>
      </trkpt>
      <trkpt lat="45.734620336443186" lon="7.919767275452614">
        <ele>2366.48</ele>
        <time>2023-07-23T09:46:18Z</time>
      </trkpt>
      <trkpt lat="45.734546240419149" lon="7.919858638197184">
        <ele>2367.98</ele>
        <time>2023-07-23T09:46:30Z</time>
      </trkpt>
      <trkpt lat="45.734508857131004" lon="7.919928375631571">
        <ele>2369.1199999999999</ele>
        <time>2023-07-23T09:46:39Z</time>
      </trkpt>
      <trkpt lat="45.734481448307633" lon="7.920031892135739">
        <ele>2369.4099999999999</ele>
        <time>2023-07-23T09:46:49Z</time>
      </trkpt>
      <trkpt lat="45.734428726136684" lon="7.920107580721378">
        <ele>2370.0100000000002</ele>
        <time>2023-07-23T09:46:58Z</time>
      </trkpt>
      <trkpt lat="45.734384637326002" lon="7.920205984264612">
        <ele>2369.6900000000001</ele>
        <time>2023-07-23T09:47:12Z</time>
      </trkpt>
      <trkpt lat="45.734371477738023" lon="7.920288546010852">
        <ele>2366.5100000000002</ele>
        <time>2023-07-23T09:47:23Z</time>
      </trkpt>
      <trkpt lat="45.734395617619157" lon="7.920384518802166">
        <ele>2366.9499999999998</ele>
        <time>2023-07-23T09:47:31Z</time>
      </trkpt>
      <trkpt lat="45.734399221837521" lon="7.920410837978125">
        <ele>2367.3699999999999</ele>
        <time>2023-07-23T09:47:33Z</time>
      </trkpt>
      <trkpt lat="45.734397545456886" lon="7.920469343662262">
        <ele>2368.0500000000002</ele>
        <time>2023-07-23T09:47:38Z</time>
      </trkpt>
      <trkpt lat="45.734388576820493" lon="7.920578559860587">
        <ele>2368.6399999999999</ele>
        <time>2023-07-23T09:47:49Z</time>
      </trkpt>
      <trkpt lat="45.734386397525668" lon="7.920608064159751">
        <ele>2368.5799999999999</ele>
        <time>2023-07-23T09:47:51Z</time>
      </trkpt>
      <trkpt lat="45.734351193532348" lon="7.920775534585118">
        <ele>2368.4699999999998</ele>
        <time>2023-07-23T09:48:06Z</time>
      </trkpt>
      <trkpt lat="45.734306098893285" lon="7.920834543183446">
        <ele>2368.6500000000001</ele>
        <time>2023-07-23T09:48:15Z</time>
      </trkpt>
      <trkpt lat="45.734208952635527" lon="7.920939149335027">
        <ele>2369.2199999999998</ele>
        <time>2023-07-23T09:48:33Z</time>
      </trkpt>
      <trkpt lat="45.734192188829184" lon="7.921034535393119">
        <ele>2370.71</ele>
        <time>2023-07-23T09:48:46Z</time>
      </trkpt>
      <trkpt lat="45.73417735286057" lon="7.921143583953381">
        <ele>2370.5799999999999</ele>
        <time>2023-07-23T09:49:01Z</time>
      </trkpt>
      <trkpt lat="45.734138628467917" lon="7.921193456277251">
        <ele>2371.2600000000002</ele>
        <time>2023-07-23T09:49:16Z</time>
      </trkpt>
      <trkpt lat="45.734073836356401" lon="7.921253638342023">
        <ele>2369.1199999999999</ele>
        <time>2023-07-23T09:49:32Z</time>
      </trkpt>
      <trkpt lat="45.733968308195472" lon="7.921347431838512">
        <ele>2370.1500000000001</ele>
        <time>2023-07-23T09:49:45Z</time>
      </trkpt>
      <trkpt lat="45.7339046895504" lon="7.921421695500612">
        <ele>2372.8400000000001</ele>
        <time>2023-07-23T09:50:00Z</time>
      </trkpt>
      <trkpt lat="45.733832018449903" lon="7.921477518975735">
        <ele>2375</ele>
        <time>2023-07-23T09:50:16Z</time>
      </trkpt>
      <trkpt lat="45.733797065913677" lon="7.921510459855199">
        <ele>2373.75</ele>
        <time>2023-07-23T09:50:29Z</time>
      </trkpt>
      <trkpt lat="45.733755407854915" lon="7.921553626656532">
        <ele>2373.2199999999998</ele>
        <time>2023-07-23T09:50:34Z</time>
      </trkpt>
      <trkpt lat="45.733703440055251" lon="7.921626130118966">
        <ele>2371.4400000000001</ele>
        <time>2023-07-23T09:50:49Z</time>
      </trkpt>
      <trkpt lat="45.733639402315021" lon="7.921640882268548">
        <ele>2367.9299999999998</ele>
        <time>2023-07-23T09:51:03Z</time>
      </trkpt>
      <trkpt lat="45.733606377616525" lon="7.921669883653522">
        <ele>2367.1199999999999</ele>
        <time>2023-07-23T09:51:11Z</time>
      </trkpt>
      <trkpt lat="45.733580226078629" lon="7.921726880595088">
        <ele>2366.73</ele>
        <time>2023-07-23T09:51:19Z</time>
      </trkpt>
      <trkpt lat="45.733516272157431" lon="7.921699052676559">
        <ele>2365.6999999999998</ele>
        <time>2023-07-23T09:51:25Z</time>
      </trkpt>
      <trkpt lat="45.733457934111357" lon="7.921676672995091">
        <ele>2365.29</ele>
        <time>2023-07-23T09:51:31Z</time>
      </trkpt>
      <trkpt lat="45.733382664620876" lon="7.921711457893252">
        <ele>2363.27</ele>
        <time>2023-07-23T09:51:45Z</time>
      </trkpt>
      <trkpt lat="45.733352657407522" lon="7.921771807596088">
        <ele>2362.1199999999999</ele>
        <time>2023-07-23T09:51:56Z</time>
      </trkpt>
      <trkpt lat="45.733295157551765" lon="7.921814806759358">
        <ele>2358.7199999999998</ele>
        <time>2023-07-23T09:52:05Z</time>
      </trkpt>
      <trkpt lat="45.733273196965456" lon="7.921833833679557">
        <ele>2357.5700000000002</ele>
        <time>2023-07-23T09:52:08Z</time>
      </trkpt>
      <trkpt lat="45.733229694887996" lon="7.921921676024795">
        <ele>2355.1300000000001</ele>
        <time>2023-07-23T09:52:19Z</time>
      </trkpt>
      <trkpt lat="45.733185689896345" lon="7.921988479793072">
        <ele>2353.98</ele>
        <time>2023-07-23T09:52:26Z</time>
      </trkpt>
      <trkpt lat="45.733039677143097" lon="7.922089649364352">
        <ele>2350.4699999999998</ele>
        <time>2023-07-23T09:52:42Z</time>
      </trkpt>
      <trkpt lat="45.732939094305038" lon="7.922193920239806">
        <ele>2345.5599999999999</ele>
        <time>2023-07-23T09:52:57Z</time>
      </trkpt>
      <trkpt lat="45.732873799279332" lon="7.922269105911255">
        <ele>2344.23</ele>
        <time>2023-07-23T09:53:05Z</time>
      </trkpt>
      <trkpt lat="45.73285074904561" lon="7.92229475453496">
        <ele>2343.7600000000002</ele>
        <time>2023-07-23T09:53:08Z</time>
      </trkpt>
      <trkpt lat="45.732794506475329" lon="7.922354433685541">
        <ele>2342.8800000000001</ele>
        <time>2023-07-23T09:53:15Z</time>
      </trkpt>
      <trkpt lat="45.732797021046281" lon="7.922383351251483">
        <ele>2342.6599999999999</ele>
        <time>2023-07-23T09:53:17Z</time>
      </trkpt>
      <trkpt lat="45.732743795961142" lon="7.92247069068253">
        <ele>2341.0599999999999</ele>
        <time>2023-07-23T09:53:25Z</time>
      </trkpt>
      <trkpt lat="45.732710771262646" lon="7.922503799200058">
        <ele>2340.79</ele>
        <time>2023-07-23T09:53:29Z</time>
      </trkpt>
      <trkpt lat="45.732601135969162" lon="7.922573536634445">
        <ele>2339.5799999999999</ele>
        <time>2023-07-23T09:53:43Z</time>
      </trkpt>
      <trkpt lat="45.732490411028266" lon="7.922734720632434">
        <ele>2341.54</ele>
        <time>2023-07-23T09:53:59Z</time>
      </trkpt>
      <trkpt lat="45.732461912557483" lon="7.92275995016098">
        <ele>2341</ele>
        <time>2023-07-23T09:54:03Z</time>
      </trkpt>
      <trkpt lat="45.732347080484033" lon="7.922839997336268">
        <ele>2342.1100000000001</ele>
        <time>2023-07-23T09:54:19Z</time>
      </trkpt>
      <trkpt lat="45.732263429090381" lon="7.922951392829418">
        <ele>2344.2600000000002</ele>
        <time>2023-07-23T09:54:31Z</time>
      </trkpt>
      <trkpt lat="45.732218502089381" lon="7.923104111105204">
        <ele>2345.6799999999998</ele>
        <time>2023-07-23T09:54:46Z</time>
      </trkpt>
      <trkpt lat="45.732167707756162" lon="7.923229085281491">
        <ele>2344.6900000000001</ele>
        <time>2023-07-23T09:55:00Z</time>
      </trkpt>
      <trkpt lat="45.732103334739804" lon="7.923359256237745">
        <ele>2342.98</ele>
        <time>2023-07-23T09:55:15Z</time>
      </trkpt>
      <trkpt lat="45.732043236494064" lon="7.923383647575975">
        <ele>2340.9499999999998</ele>
        <time>2023-07-23T09:55:24Z</time>
      </trkpt>
      <trkpt lat="45.731968469917774" lon="7.923474675044417">
        <ele>2339.7600000000002</ele>
        <time>2023-07-23T09:55:36Z</time>
      </trkpt>
      <trkpt lat="45.731911472976208" lon="7.923616915941238">
        <ele>2339.9499999999998</ele>
        <time>2023-07-23T09:55:51Z</time>
      </trkpt>
      <trkpt lat="45.73190619237721" lon="7.92372839525342">
        <ele>2339.9099999999999</ele>
        <time>2023-07-23T09:56:06Z</time>
      </trkpt>
      <trkpt lat="45.731836203485727" lon="7.923844400793314">
        <ele>2340.5700000000002</ele>
        <time>2023-07-23T09:56:20Z</time>
      </trkpt>
      <trkpt lat="45.731818936765194" lon="7.923844652250409">
        <ele>2340.4400000000001</ele>
        <time>2023-07-23T09:56:22Z</time>
      </trkpt>
      <trkpt lat="45.731760011985898" lon="7.923867702484131">
        <ele>2339.52</ele>
        <time>2023-07-23T09:56:29Z</time>
      </trkpt>
      <trkpt lat="45.731695555150509" lon="7.92392922565341">
        <ele>2339.1199999999999</ele>
        <time>2023-07-23T09:56:39Z</time>
      </trkpt>
      <trkpt lat="45.731641994789243" lon="7.924039699137211">
        <ele>2336.9200000000001</ele>
        <time>2023-07-23T09:56:56Z</time>
      </trkpt>
      <trkpt lat="45.731595475226641" lon="7.924078004434705">
        <ele>2333.9400000000001</ele>
        <time>2023-07-23T09:57:11Z</time>
      </trkpt>
      <trkpt lat="45.731563875451684" lon="7.924057217314839">
        <ele>2331.8200000000002</ele>
        <time>2023-07-23T09:57:30Z</time>
      </trkpt>
      <trkpt lat="45.731507213786244" lon="7.924073645845056">
        <ele>2328.6399999999999</ele>
        <time>2023-07-23T09:57:48Z</time>
      </trkpt>
      <trkpt lat="45.731509393081069" lon="7.924078088253737">
        <ele>2327.9099999999999</ele>
        <time>2023-07-23T09:58:10Z</time>
      </trkpt>
      <trkpt lat="45.731433872133493" lon="7.924132570624352">
        <ele>2326.71</ele>
        <time>2023-07-23T09:58:27Z</time>
      </trkpt>
      <trkpt lat="45.731379054486752" lon="7.924172468483448">
        <ele>2323.6700000000001</ele>
        <time>2023-07-23T09:58:37Z</time>
      </trkpt>
      <trkpt lat="45.731351226568222" lon="7.924273554235697">
        <ele>2321.4499999999998</ele>
        <time>2023-07-23T09:58:45Z</time>
      </trkpt>
      <trkpt lat="45.73129934258759" lon="7.924390062689781">
        <ele>2317.5999999999999</ele>
        <time>2023-07-23T09:59:00Z</time>
      </trkpt>
      <trkpt lat="45.731243770569563" lon="7.924393331632018">
        <ele>2315.1199999999999</ele>
        <time>2023-07-23T09:59:14Z</time>
      </trkpt>
      <trkpt lat="45.731192892417312" lon="7.924437504261732">
        <ele>2312.4099999999999</ele>
        <time>2023-07-23T09:59:27Z</time>
      </trkpt>
      <trkpt lat="45.731132291257381" lon="7.924489052966237">
        <ele>2309.4899999999998</ele>
        <time>2023-07-23T09:59:40Z</time>
      </trkpt>
      <trkpt lat="45.731092058122158" lon="7.92452291585505">
        <ele>2308.2600000000002</ele>
        <time>2023-07-23T09:59:47Z</time>
      </trkpt>
      <trkpt lat="45.731071271002293" lon="7.924544541165233">
        <ele>2308.1100000000001</ele>
        <time>2023-07-23T09:59:50Z</time>
      </trkpt>
      <trkpt lat="45.730992062017322" lon="7.924585696309805">
        <ele>2306</ele>
        <time>2023-07-23T10:00:04Z</time>
      </trkpt>
      <trkpt lat="45.730888964608312" lon="7.924687117338181">
        <ele>2302.8600000000001</ele>
        <time>2023-07-23T10:00:19Z</time>
      </trkpt>
      <trkpt lat="45.730837164446712" lon="7.924744617193937">
        <ele>2303.8800000000001</ele>
        <time>2023-07-23T10:00:28Z</time>
      </trkpt>
      <trkpt lat="45.73080874979496" lon="7.924745203927159">
        <ele>2303.6500000000001</ele>
        <time>2023-07-23T10:00:31Z</time>
      </trkpt>
      <trkpt lat="45.730720991268754" lon="7.924784515053034">
        <ele>2302.2800000000002</ele>
        <time>2023-07-23T10:00:40Z</time>
      </trkpt>
      <trkpt lat="45.730660725384951" lon="7.924898592755199">
        <ele>2301.0799999999999</ele>
        <time>2023-07-23T10:00:50Z</time>
      </trkpt>
      <trkpt lat="45.730619402602315" lon="7.924955254420638">
        <ele>2300.8299999999999</ele>
        <time>2023-07-23T10:00:56Z</time>
      </trkpt>
      <trkpt lat="45.730561818927526" lon="7.925011832267046">
        <ele>2300.9899999999998</ele>
        <time>2023-07-23T10:01:03Z</time>
      </trkpt>
      <trkpt lat="45.730502307415009" lon="7.925065979361534">
        <ele>2301.3400000000001</ele>
        <time>2023-07-23T10:01:12Z</time>
      </trkpt>
      <trkpt lat="45.730383954942226" lon="7.925052819773555">
        <ele>2301.8800000000001</ele>
        <time>2023-07-23T10:01:27Z</time>
      </trkpt>
      <trkpt lat="45.730245653539896" lon="7.925101183354855">
        <ele>2302.1599999999999</ele>
        <time>2023-07-23T10:01:44Z</time>
      </trkpt>
      <trkpt lat="45.730226710438728" lon="7.925102356821299">
        <ele>2302.02</ele>
        <time>2023-07-23T10:01:46Z</time>
      </trkpt>
      <trkpt lat="45.730182453989983" lon="7.925200760364533">
        <ele>2301.4699999999998</ele>
        <time>2023-07-23T10:02:02Z</time>
      </trkpt>
      <trkpt lat="45.730186812579632" lon="7.925207549706101">
        <ele>2301.5500000000002</ele>
        <time>2023-07-23T10:02:03Z</time>
      </trkpt>
      <trkpt lat="45.730202738195658" lon="7.925254572182894">
        <ele>2301.4899999999998</ele>
        <time>2023-07-23T10:02:07Z</time>
      </trkpt>
      <trkpt lat="45.730239450931549" lon="7.925378205254674">
        <ele>2300.2399999999998</ele>
        <time>2023-07-23T10:02:20Z</time>
      </trkpt>
      <trkpt lat="45.730241714045405" lon="7.925471747294068">
        <ele>2300.9000000000001</ele>
        <time>2023-07-23T10:02:32Z</time>
      </trkpt>
      <trkpt lat="45.730242216959596" lon="7.925487086176872">
        <ele>2301.2199999999998</ele>
        <time>2023-07-23T10:02:53Z</time>
      </trkpt>
      <trkpt lat="45.730232745409012" lon="7.925580376759172">
        <ele>2303.79</ele>
        <time>2023-07-23T10:03:04Z</time>
      </trkpt>
      <trkpt lat="45.730266524478793" lon="7.925653886049986">
        <ele>2306.1399999999999</ele>
        <time>2023-07-23T10:03:17Z</time>
      </trkpt>
      <trkpt lat="45.730321677401662" lon="7.925688670948148">
        <ele>2309.3499999999999</ele>
        <time>2023-07-23T10:03:34Z</time>
      </trkpt>
      <trkpt lat="45.730347074568272" lon="7.925716917961836">
        <ele>2310.54</ele>
        <time>2023-07-23T10:03:47Z</time>
      </trkpt>
      <trkpt lat="45.730322767049074" lon="7.925777435302734">
        <ele>2312.0799999999999</ele>
        <time>2023-07-23T10:04:01Z</time>
      </trkpt>
      <trkpt lat="45.730300387367606" lon="7.925829654559493">
        <ele>2312.0799999999999</ele>
        <time>2023-07-23T10:04:13Z</time>
      </trkpt>
      <trkpt lat="45.730286305770278" lon="7.925883969292045">
        <ele>2312.48</ele>
        <time>2023-07-23T10:04:28Z</time>
      </trkpt>
      <trkpt lat="45.73027758859098" lon="7.925933003425598">
        <ele>2315.0300000000002</ele>
        <time>2023-07-23T10:04:46Z</time>
      </trkpt>
      <trkpt lat="45.730290077626705" lon="7.925985725596547">
        <ele>2316.9000000000001</ele>
        <time>2023-07-23T10:04:57Z</time>
      </trkpt>
      <trkpt lat="45.7302903290838" lon="7.926012212410569">
        <ele>2318.6500000000001</ele>
        <time>2023-07-23T10:05:12Z</time>
      </trkpt>
      <trkpt lat="45.730276666581631" lon="7.926065688952804">
        <ele>2318.0100000000002</ele>
        <time>2023-07-23T10:05:24Z</time>
      </trkpt>
      <trkpt lat="45.730284713208675" lon="7.926148669794202">
        <ele>2319.3299999999999</ele>
        <time>2023-07-23T10:05:35Z</time>
      </trkpt>
      <trkpt lat="45.730266189202666" lon="7.92616568505764">
        <ele>2320.7800000000002</ele>
        <time>2023-07-23T10:05:52Z</time>
      </trkpt>
      <trkpt lat="45.730269458144903" lon="7.926166942343116">
        <ele>2320.8899999999999</ele>
        <time>2023-07-23T10:05:53Z</time>
      </trkpt>
      <trkpt lat="45.730275576934218" lon="7.926198123022914">
        <ele>2321.54</ele>
        <time>2023-07-23T10:06:08Z</time>
      </trkpt>
      <trkpt lat="45.730276750400662" lon="7.926224274560809">
        <ele>2322.6500000000001</ele>
        <time>2023-07-23T10:06:22Z</time>
      </trkpt>
      <trkpt lat="45.730225704610348" lon="7.926278589293361">
        <ele>2323.0500000000002</ele>
        <time>2023-07-23T10:06:35Z</time>
      </trkpt>
      <trkpt lat="45.730244060978293" lon="7.926230477169156">
        <ele>2325.0500000000002</ele>
        <time>2023-07-23T10:06:52Z</time>
      </trkpt>
      <trkpt lat="45.730228805914521" lon="7.92621061205864">
        <ele>2326.46</ele>
        <time>2023-07-23T10:07:22Z</time>
      </trkpt>
      <trkpt lat="45.730239450931549" lon="7.926195105537772">
        <ele>2326.1700000000001</ele>
        <time>2023-07-23T10:07:35Z</time>
      </trkpt>
      <trkpt lat="45.730260740965605" lon="7.926191249862313">
        <ele>2327.4899999999998</ele>
        <time>2023-07-23T10:07:47Z</time>
      </trkpt>
      <trkpt lat="45.73024632409215" lon="7.92610265314579">
        <ele>2327.8600000000001</ele>
        <time>2023-07-23T10:08:02Z</time>
      </trkpt>
      <trkpt lat="45.730230147019029" lon="7.92603861540556">
        <ele>2326.9200000000001</ele>
        <time>2023-07-23T10:08:15Z</time>
      </trkpt>
      <trkpt lat="45.730229895561934" lon="7.925959574058652">
        <ele>2325.8200000000002</ele>
        <time>2023-07-23T10:08:28Z</time>
      </trkpt>
      <trkpt lat="45.730230482295156" lon="7.925909282639623">
        <ele>2325.2600000000002</ele>
        <time>2023-07-23T10:08:40Z</time>
      </trkpt>
      <trkpt lat="45.730246072635055" lon="7.925904002040625">
        <ele>2326.98</ele>
        <time>2023-07-23T10:08:47Z</time>
      </trkpt>
      <trkpt lat="45.73026929050684" lon="7.925870222970843">
        <ele>2326.5500000000002</ele>
        <time>2023-07-23T10:09:00Z</time>
      </trkpt>
      <trkpt lat="45.7302834559232" lon="7.9258241225034">
        <ele>2325.0799999999999</ele>
        <time>2023-07-23T10:09:15Z</time>
      </trkpt>
      <trkpt lat="45.730284210294485" lon="7.925816243514419">
        <ele>2324.8800000000001</ele>
        <time>2023-07-23T10:09:32Z</time>
      </trkpt>
      <trkpt lat="45.730296866968274" lon="7.92583778500557">
        <ele>2325.0999999999999</ele>
        <time>2023-07-23T10:09:52Z</time>
      </trkpt>
      <trkpt lat="45.730293681845069" lon="7.925894279032946">
        <ele>2327.9299999999998</ele>
        <time>2023-07-23T10:10:06Z</time>
      </trkpt>
      <trkpt lat="45.730290077626705" lon="7.925921604037285">
        <ele>2328.1399999999999</ele>
        <time>2023-07-23T10:10:18Z</time>
      </trkpt>
      <trkpt lat="45.730307847261429" lon="7.925975164398551">
        <ele>2329.6700000000001</ele>
        <time>2023-07-23T10:10:35Z</time>
      </trkpt>
      <trkpt lat="45.730297788977623" lon="7.926008608192205">
        <ele>2327.5</ele>
        <time>2023-07-23T10:10:51Z</time>
      </trkpt>
      <trkpt lat="45.730278175324202" lon="7.926029311493039">
        <ele>2326.29</ele>
        <time>2023-07-23T10:11:05Z</time>
      </trkpt>
      <trkpt lat="45.730285886675119" lon="7.926052110269666">
        <ele>2325.1799999999998</ele>
        <time>2023-07-23T10:11:24Z</time>
      </trkpt>
      <trkpt lat="45.730275325477123" lon="7.926051858812571">
        <ele>2325.3000000000002</ele>
        <time>2023-07-23T10:11:45Z</time>
      </trkpt>
      <trkpt lat="45.730265770107508" lon="7.926059318706393">
        <ele>2325.4200000000001</ele>
        <time>2023-07-23T10:12:09Z</time>
      </trkpt>
      <trkpt lat="45.730253867805004" lon="7.92611681856215">
        <ele>2324.3899999999999</ele>
        <time>2023-07-23T10:12:22Z</time>
      </trkpt>
      <trkpt lat="45.730245485901833" lon="7.926173815503717">
        <ele>2323.6599999999999</ele>
        <time>2023-07-23T10:12:38Z</time>
      </trkpt>
      <trkpt lat="45.730217238888144" lon="7.926203403621912">
        <ele>2323.5700000000002</ele>
        <time>2023-07-23T10:12:53Z</time>
      </trkpt>
      <trkpt lat="45.73020139709115" lon="7.92624045163393">
        <ele>2321.8800000000001</ele>
        <time>2023-07-23T10:13:08Z</time>
      </trkpt>
      <trkpt lat="45.73019502684474" lon="7.926246654242277">
        <ele>2322.4200000000001</ele>
        <time>2023-07-23T10:13:27Z</time>
      </trkpt>
      <trkpt lat="45.730170719325542" lon="7.926250342279673">
        <ele>2321.52</ele>
        <time>2023-07-23T10:13:40Z</time>
      </trkpt>
      <trkpt lat="45.730183543637395" lon="7.926223101094365">
        <ele>2320.9899999999998</ele>
        <time>2023-07-23T10:13:55Z</time>
      </trkpt>
      <trkpt lat="45.730188153684139" lon="7.926218742504716">
        <ele>2321.0999999999999</ele>
        <time>2023-07-23T10:14:13Z</time>
      </trkpt>
      <trkpt lat="45.730185639113188" lon="7.926287725567818">
        <ele>2320.4499999999998</ele>
        <time>2023-07-23T10:14:29Z</time>
      </trkpt>
      <trkpt lat="45.730208605527878" lon="7.926339190453291">
        <ele>2320.9400000000001</ele>
        <time>2023-07-23T10:14:42Z</time>
      </trkpt>
      <trkpt lat="45.730217071250081" lon="7.926357295364142">
        <ele>2320.0700000000002</ele>
        <time>2023-07-23T10:14:59Z</time>
      </trkpt>
      <trkpt lat="45.730199636891484" lon="7.926356457173824">
        <ele>2319.1999999999998</ele>
        <time>2023-07-23T10:15:18Z</time>
      </trkpt>
      <trkpt lat="45.73019209317863" lon="7.926417058333755">
        <ele>2318.8400000000001</ele>
        <time>2023-07-23T10:15:32Z</time>
      </trkpt>
      <trkpt lat="45.730205504223704" lon="7.926503056660295">
        <ele>2321.5799999999999</ele>
        <time>2023-07-23T10:15:47Z</time>
      </trkpt>
      <trkpt lat="45.730201564729214" lon="7.926546223461628">
        <ele>2322.9099999999999</ele>
        <time>2023-07-23T10:16:07Z</time>
      </trkpt>
      <trkpt lat="45.730133252218366" lon="7.926654769107699">
        <ele>2319.75</ele>
        <time>2023-07-23T10:16:22Z</time>
      </trkpt>
      <trkpt lat="45.730078434571624" lon="7.926747975870967">
        <ele>2318.8299999999999</ele>
        <time>2023-07-23T10:16:36Z</time>
      </trkpt>
      <trkpt lat="45.730085643008351" lon="7.926836991682649">
        <ele>2322.0999999999999</ele>
        <time>2023-07-23T10:16:52Z</time>
      </trkpt>
      <trkpt lat="45.730053121224046" lon="7.926887031644583">
        <ele>2322.54</ele>
        <time>2023-07-23T10:17:05Z</time>
      </trkpt>
      <trkpt lat="45.730003248900175" lon="7.926926678046584">
        <ele>2325.0300000000002</ele>
        <time>2023-07-23T10:17:18Z</time>
      </trkpt>
      <trkpt lat="45.729981958866119" lon="7.926974706351757">
        <ele>2325.5500000000002</ele>
        <time>2023-07-23T10:17:31Z</time>
      </trkpt>
      <trkpt lat="45.729969721287489" lon="7.927042515948415">
        <ele>2327.0999999999999</ele>
        <time>2023-07-23T10:17:44Z</time>
      </trkpt>
      <trkpt lat="45.72995999827981" lon="7.927121389657259">
        <ele>2328.8800000000001</ele>
        <time>2023-07-23T10:17:56Z</time>
      </trkpt>
      <trkpt lat="45.729942480102181" lon="7.927210154011846">
        <ele>2331.5</ele>
        <time>2023-07-23T10:18:11Z</time>
      </trkpt>
      <trkpt lat="45.72992286644876" lon="7.927280813455582">
        <ele>2333.48</ele>
        <time>2023-07-23T10:18:21Z</time>
      </trkpt>
      <trkpt lat="45.729934014379978" lon="7.927297912538052">
        <ele>2334.0700000000002</ele>
        <time>2023-07-23T10:18:23Z</time>
      </trkpt>
      <trkpt lat="45.729934852570295" lon="7.927369829267263">
        <ele>2334.7199999999998</ele>
        <time>2023-07-23T10:18:35Z</time>
      </trkpt>
      <trkpt lat="45.729930158704519" lon="7.927373852580786">
        <ele>2334.5700000000002</ele>
        <time>2023-07-23T10:18:55Z</time>
      </trkpt>
      <trkpt lat="45.730000231415033" lon="7.927418863400817">
        <ele>2335.3699999999999</ele>
        <time>2023-07-23T10:19:10Z</time>
      </trkpt>
      <trkpt lat="45.730022024363279" lon="7.927477620542049">
        <ele>2334.9400000000001</ele>
        <time>2023-07-23T10:19:23Z</time>
      </trkpt>
      <trkpt lat="45.730038620531559" lon="7.927511064335704">
        <ele>2335.3499999999999</ele>
        <time>2023-07-23T10:19:39Z</time>
      </trkpt>
      <trkpt lat="45.730065023526549" lon="7.92756806127727">
        <ele>2336.6700000000001</ele>
        <time>2023-07-23T10:19:53Z</time>
      </trkpt>
      <trkpt lat="45.730072567239404" lon="7.927580131217837">
        <ele>2336.6900000000001</ele>
        <time>2023-07-23T10:19:55Z</time>
      </trkpt>
      <trkpt lat="45.73005965910852" lon="7.927669398486614">
        <ele>2338.0599999999999</ele>
        <time>2023-07-23T10:20:08Z</time>
      </trkpt>
      <trkpt lat="45.730061000213027" lon="7.927727904170752">
        <ele>2339.3099999999999</ele>
        <time>2023-07-23T10:20:21Z</time>
      </trkpt>
      <trkpt lat="45.730066867545247" lon="7.927812142297626">
        <ele>2341.8600000000001</ele>
        <time>2023-07-23T10:20:36Z</time>
      </trkpt>
      <trkpt lat="45.73014029301703" lon="7.927852794528008">
        <ele>2345.48</ele>
        <time>2023-07-23T10:20:53Z</time>
      </trkpt>
      <trkpt lat="45.73017306625843" lon="7.927889339625835">
        <ele>2348.1700000000001</ele>
        <time>2023-07-23T10:21:05Z</time>
      </trkpt>
      <trkpt lat="45.730207767337561" lon="7.927945163100958">
        <ele>2352.1799999999998</ele>
        <time>2023-07-23T10:21:20Z</time>
      </trkpt>
      <trkpt lat="45.73018966242671" lon="7.928050020709634">
        <ele>2353.7800000000002</ele>
        <time>2023-07-23T10:21:35Z</time>
      </trkpt>
      <trkpt lat="45.730154123157263" lon="7.928187232464552">
        <ele>2355.52</ele>
        <time>2023-07-23T10:21:55Z</time>
      </trkpt>
      <trkpt lat="45.730144483968616" lon="7.928277589380741">
        <ele>2355.77</ele>
        <time>2023-07-23T10:22:09Z</time>
      </trkpt>
      <trkpt lat="45.730170216411352" lon="7.928369790315628">
        <ele>2357.73</ele>
        <time>2023-07-23T10:22:27Z</time>
      </trkpt>
      <trkpt lat="45.730126379057765" lon="7.928436845541">
        <ele>2360.1199999999999</ele>
        <time>2023-07-23T10:22:42Z</time>
      </trkpt>
      <trkpt lat="45.730091091245413" lon="7.928529884666205">
        <ele>2360.96</ele>
        <time>2023-07-23T10:22:59Z</time>
      </trkpt>
      <trkpt lat="45.730083798989654" lon="7.928608674556017">
        <ele>2362.9000000000001</ele>
        <time>2023-07-23T10:23:18Z</time>
      </trkpt>
      <trkpt lat="45.730099640786648" lon="7.928688721731305">
        <ele>2364.0700000000002</ele>
        <time>2023-07-23T10:23:34Z</time>
      </trkpt>
      <trkpt lat="45.730100981891155" lon="7.928761392831802">
        <ele>2367.27</ele>
        <time>2023-07-23T10:23:46Z</time>
      </trkpt>
      <trkpt lat="45.730087487027049" lon="7.928886199370027">
        <ele>2370.0900000000001</ele>
        <time>2023-07-23T10:24:00Z</time>
      </trkpt>
      <trkpt lat="45.730058485642076" lon="7.928950404748321">
        <ele>2371.7399999999998</ele>
        <time>2023-07-23T10:24:08Z</time>
      </trkpt>
      <trkpt lat="45.730005512014031" lon="7.9290671646595">
        <ele>2372.7199999999998</ele>
        <time>2023-07-23T10:24:21Z</time>
      </trkpt>
      <trkpt lat="45.729936864227057" lon="7.929147630929947">
        <ele>2374.02</ele>
        <time>2023-07-23T10:24:34Z</time>
      </trkpt>
      <trkpt lat="45.729906940832734" lon="7.929188869893551">
        <ele>2375.6300000000001</ele>
        <time>2023-07-23T10:24:48Z</time>
      </trkpt>
      <trkpt lat="45.729914903640747" lon="7.929212171584368">
        <ele>2375.8099999999999</ele>
        <time>2023-07-23T10:25:09Z</time>
      </trkpt>
      <trkpt lat="45.729922028258443" lon="7.929192809388042">
        <ele>2376.0799999999999</ele>
        <time>2023-07-23T10:25:24Z</time>
      </trkpt>
      <trkpt lat="45.72992823086679" lon="7.929229689761996">
        <ele>2378.23</ele>
        <time>2023-07-23T10:25:41Z</time>
      </trkpt>
      <trkpt lat="45.729988915845752" lon="7.929337397217751">
        <ele>2382.6700000000001</ele>
        <time>2023-07-23T10:25:57Z</time>
      </trkpt>
      <trkpt lat="45.730045326054096" lon="7.929460192099214">
        <ele>2386.3200000000002</ele>
        <time>2023-07-23T10:26:15Z</time>
      </trkpt>
      <trkpt lat="45.730071058496833" lon="7.929582232609391">
        <ele>2390.2199999999998</ele>
        <time>2023-07-23T10:26:34Z</time>
      </trkpt>
      <trkpt lat="45.7301055919379" lon="7.929680468514562">
        <ele>2394.0700000000002</ele>
        <time>2023-07-23T10:26:51Z</time>
      </trkpt>
      <trkpt lat="45.730138616636395" lon="7.929730005562306">
        <ele>2395.6300000000001</ele>
        <time>2023-07-23T10:27:04Z</time>
      </trkpt>
      <trkpt lat="45.730162672698498" lon="7.929796390235424">
        <ele>2396.7800000000002</ele>
        <time>2023-07-23T10:27:18Z</time>
      </trkpt>
      <trkpt lat="45.730191171169281" lon="7.929892698302865">
        <ele>2398.1700000000001</ele>
        <time>2023-07-23T10:27:34Z</time>
      </trkpt>
      <trkpt lat="45.730217741802335" lon="7.929979534819722">
        <ele>2401.5700000000002</ele>
        <time>2023-07-23T10:27:51Z</time>
      </trkpt>
      <trkpt lat="45.730224531143904" lon="7.930076764896512">
        <ele>2405.0500000000002</ele>
        <time>2023-07-23T10:28:08Z</time>
      </trkpt>
      <trkpt lat="45.730196870863438" lon="7.930188998579979">
        <ele>2408.0300000000002</ele>
        <time>2023-07-23T10:28:25Z</time>
      </trkpt>
      <trkpt lat="45.730183543637395" lon="7.93027063831687">
        <ele>2410.79</ele>
        <time>2023-07-23T10:28:43Z</time>
      </trkpt>
      <trkpt lat="45.730198128148913" lon="7.930305926129222">
        <ele>2411.8699999999999</ele>
        <time>2023-07-23T10:29:02Z</time>
      </trkpt>
      <trkpt lat="45.730238864198327" lon="7.930356552824378">
        <ele>2414.3899999999999</ele>
        <time>2023-07-23T10:29:17Z</time>
      </trkpt>
      <trkpt lat="45.730330059304833" lon="7.930405084043741">
        <ele>2418.3099999999999</ele>
        <time>2023-07-23T10:29:35Z</time>
      </trkpt>
      <trkpt lat="45.730395773425698" lon="7.930418578907847">
        <ele>2420.52</ele>
        <time>2023-07-23T10:29:49Z</time>
      </trkpt>
      <trkpt lat="45.730453189462423" lon="7.930441042408347">
        <ele>2421.6399999999999</ele>
        <time>2023-07-23T10:30:02Z</time>
      </trkpt>
      <trkpt lat="45.730511443689466" lon="7.930507762357593">
        <ele>2423.6900000000001</ele>
        <time>2023-07-23T10:30:17Z</time>
      </trkpt>
      <trkpt lat="45.730563579127192" lon="7.930593676865101">
        <ele>2425.5799999999999</ele>
        <time>2023-07-23T10:30:34Z</time>
      </trkpt>
      <trkpt lat="45.730606494471431" lon="7.930677914991975">
        <ele>2428.6399999999999</ele>
        <time>2023-07-23T10:30:51Z</time>
      </trkpt>
      <trkpt lat="45.73065628297627" lon="7.9307353310287">
        <ele>2430.6700000000001</ele>
        <time>2023-07-23T10:31:06Z</time>
      </trkpt>
      <trkpt lat="45.730707664042711" lon="7.930796770378947">
        <ele>2432.9699999999998</ele>
        <time>2023-07-23T10:31:21Z</time>
      </trkpt>
      <trkpt lat="45.73075795546174" lon="7.930858545005322">
        <ele>2435.6599999999999</ele>
        <time>2023-07-23T10:31:36Z</time>
      </trkpt>
      <trkpt lat="45.730808665975928" lon="7.93090439401567">
        <ele>2438.6199999999999</ele>
        <time>2023-07-23T10:31:51Z</time>
      </trkpt>
      <trkpt lat="45.730835236608982" lon="7.930938256904483">
        <ele>2439.5999999999999</ele>
        <time>2023-07-23T10:32:08Z</time>
      </trkpt>
      <trkpt lat="45.730847390368581" lon="7.930984692648053">
        <ele>2441.2600000000002</ele>
        <time>2023-07-23T10:32:23Z</time>
      </trkpt>
      <trkpt lat="45.730834398418665" lon="7.931066248565912">
        <ele>2442.5999999999999</ele>
        <time>2023-07-23T10:32:39Z</time>
      </trkpt>
      <trkpt lat="45.730817383155227" lon="7.93115065433085">
        <ele>2443.3200000000002</ele>
        <time>2023-07-23T10:32:53Z</time>
      </trkpt>
      <trkpt lat="45.730763403698802" lon="7.931211171671748">
        <ele>2444.0500000000002</ele>
        <time>2023-07-23T10:33:07Z</time>
      </trkpt>
      <trkpt lat="45.730739766731858" lon="7.931274119764566">
        <ele>2445.6199999999999</ele>
        <time>2023-07-23T10:33:19Z</time>
      </trkpt>
      <trkpt lat="45.730724260210991" lon="7.93132608756423">
        <ele>2446.8899999999999</ele>
        <time>2023-07-23T10:33:34Z</time>
      </trkpt>
      <trkpt lat="45.730728786438704" lon="7.931392304599285">
        <ele>2447.73</ele>
        <time>2023-07-23T10:33:50Z</time>
      </trkpt>
      <trkpt lat="45.730720655992627" lon="7.931448463350534">
        <ele>2448.9499999999998</ele>
        <time>2023-07-23T10:34:04Z</time>
      </trkpt>
      <trkpt lat="45.730714369565248" lon="7.931540915742517">
        <ele>2451.2600000000002</ele>
        <time>2023-07-23T10:34:21Z</time>
      </trkpt>
      <trkpt lat="45.730679584667087" lon="7.931648204103112">
        <ele>2453.8000000000002</ele>
        <time>2023-07-23T10:34:38Z</time>
      </trkpt>
      <trkpt lat="45.730606243014336" lon="7.931675696745515">
        <ele>2454.25</ele>
        <time>2023-07-23T10:34:54Z</time>
      </trkpt>
      <trkpt lat="45.730550419539213" lon="7.931713666766882">
        <ele>2454.8800000000001</ele>
        <time>2023-07-23T10:35:10Z</time>
      </trkpt>
      <trkpt lat="45.730530135333538" lon="7.931768735870719">
        <ele>2456.48</ele>
        <time>2023-07-23T10:35:23Z</time>
      </trkpt>
      <trkpt lat="45.730523010715842" lon="7.931807627901435">
        <ele>2457.5</ele>
        <time>2023-07-23T10:35:39Z</time>
      </trkpt>
      <trkpt lat="45.730529967695475" lon="7.931809471920133">
        <ele>2457.6199999999999</ele>
        <time>2023-07-23T10:36:07Z</time>
      </trkpt>
      <trkpt lat="45.73054438456893" lon="7.931837802752852">
        <ele>2457.6700000000001</ele>
        <time>2023-07-23T10:36:29Z</time>
      </trkpt>
      <trkpt lat="45.730548743158579" lon="7.931868815794587">
        <ele>2458.4699999999998</ele>
        <time>2023-07-23T10:36:47Z</time>
      </trkpt>
      <trkpt lat="45.730554359033704" lon="7.931878203526139">
        <ele>2459.5900000000001</ele>
        <time>2023-07-23T10:37:06Z</time>
      </trkpt>
      <trkpt lat="45.730578331276774" lon="7.931974092498422">
        <ele>2459.5500000000002</ele>
        <time>2023-07-23T10:37:23Z</time>
      </trkpt>
      <trkpt lat="45.730562238022685" lon="7.932044751942158">
        <ele>2461.3099999999999</ele>
        <time>2023-07-23T10:37:42Z</time>
      </trkpt>
      <trkpt lat="45.730525190010667" lon="7.932100323960185">
        <ele>2463.79</ele>
        <time>2023-07-23T10:37:57Z</time>
      </trkpt>
      <trkpt lat="45.730521753430367" lon="7.932177018374205">
        <ele>2467.29</ele>
        <time>2023-07-23T10:38:13Z</time>
      </trkpt>
      <trkpt lat="45.730533907189965" lon="7.93223200365901">
        <ele>2471.8200000000002</ele>
        <time>2023-07-23T10:38:33Z</time>
      </trkpt>
      <trkpt lat="45.730596520006657" lon="7.932294616475701">
        <ele>2474.48</ele>
        <time>2023-07-23T10:38:47Z</time>
      </trkpt>
      <trkpt lat="45.730636166408658" lon="7.932356894016266">
        <ele>2477.2399999999998</ele>
        <time>2023-07-23T10:39:00Z</time>
      </trkpt>
      <trkpt lat="45.730663826689124" lon="7.932420847937465">
        <ele>2479.0300000000002</ele>
        <time>2023-07-23T10:39:13Z</time>
      </trkpt>
      <trkpt lat="45.730688218027353" lon="7.932485556229949">
        <ele>2481.6199999999999</ele>
        <time>2023-07-23T10:39:28Z</time>
      </trkpt>
      <trkpt lat="45.730728702619672" lon="7.932587815448642">
        <ele>2484.0599999999999</ele>
        <time>2023-07-23T10:39:40Z</time>
      </trkpt>
      <trkpt lat="45.730768768116832" lon="7.932679429650307">
        <ele>2485.48</ele>
        <time>2023-07-23T10:39:56Z</time>
      </trkpt>
      <trkpt lat="45.730819646269083" lon="7.93271672911942">
        <ele>2486.7600000000002</ele>
        <time>2023-07-23T10:40:11Z</time>
      </trkpt>
      <trkpt lat="45.730854012072086" lon="7.932786550372839">
        <ele>2487.5999999999999</ele>
        <time>2023-07-23T10:40:27Z</time>
      </trkpt>
      <trkpt lat="45.730876643210649" lon="7.932815384119749">
        <ele>2487.7800000000002</ele>
        <time>2023-07-23T10:40:41Z</time>
      </trkpt>
      <trkpt lat="45.730908745899796" lon="7.932893000543118">
        <ele>2488.3299999999999</ele>
        <time>2023-07-23T10:40:55Z</time>
      </trkpt>
      <trkpt lat="45.730912517756224" lon="7.932936334982514">
        <ele>2489.0799999999999</ele>
        <time>2023-07-23T10:41:10Z</time>
      </trkpt>
      <trkpt lat="45.730921737849712" lon="7.933016801252961">
        <ele>2490.4699999999998</ele>
        <time>2023-07-23T10:41:24Z</time>
      </trkpt>
      <trkpt lat="45.730940345674753" lon="7.933072540909052">
        <ele>2491.3800000000001</ele>
        <time>2023-07-23T10:41:41Z</time>
      </trkpt>
      <trkpt lat="45.730918971821666" lon="7.933063823729754">
        <ele>2492.6599999999999</ele>
        <time>2023-07-23T10:42:04Z</time>
      </trkpt>
      <trkpt lat="45.730912853032351" lon="7.933049574494362">
        <ele>2493.8899999999999</ele>
        <time>2023-07-23T10:42:28Z</time>
      </trkpt>
      <trkpt lat="45.730906315147877" lon="7.933031301945448">
        <ele>2495.6999999999998</ele>
        <time>2023-07-23T10:42:45Z</time>
      </trkpt>
      <trkpt lat="45.730914110317826" lon="7.933020321652293">
        <ele>2496.9699999999998</ele>
        <time>2023-07-23T10:43:01Z</time>
      </trkpt>
      <trkpt lat="45.730929533019662" lon="7.933013532310724">
        <ele>2497.2199999999998</ele>
        <time>2023-07-23T10:43:31Z</time>
      </trkpt>
      <trkpt lat="45.730943363159895" lon="7.933029793202877">
        <ele>2498.4200000000001</ele>
        <time>2023-07-23T10:44:08Z</time>
      </trkpt>
      <trkpt lat="45.730939172208309" lon="7.933018812909722">
        <ele>2499.8099999999999</ele>
        <time>2023-07-23T10:44:41Z</time>
      </trkpt>
      <trkpt lat="45.730936070904136" lon="7.933020740747452">
        <ele>2499.4200000000001</ele>
        <time>2023-07-23T10:45:03Z</time>
      </trkpt>
      <trkpt lat="45.730928778648376" lon="7.933000707998872">
        <ele>2500.0700000000002</ele>
        <time>2023-07-23T10:45:34Z</time>
      </trkpt>
      <trkpt lat="45.730913439765573" lon="7.932971874251962">
        <ele>2500.46</ele>
        <time>2023-07-23T10:45:58Z</time>
      </trkpt>
      <trkpt lat="45.730883181095123" lon="7.932918313890696">
        <ele>2502.2399999999998</ele>
        <time>2023-07-23T10:46:21Z</time>
      </trkpt>
      <trkpt lat="45.730859963223338" lon="7.932886881753802">
        <ele>2503.2199999999998</ele>
        <time>2023-07-23T10:46:47Z</time>
      </trkpt>
      <trkpt lat="45.730859041213989" lon="7.932891575619578">
        <ele>2503.2199999999998</ele>
        <time>2023-07-23T10:47:17Z</time>
      </trkpt>
      <trkpt lat="45.730869099497795" lon="7.932891910895705">
        <ele>2502.8099999999999</ele>
        <time>2023-07-23T10:47:40Z</time>
      </trkpt>
      <trkpt lat="45.730864824727178" lon="7.932805493474007">
        <ele>2501</ele>
        <time>2023-07-23T10:47:58Z</time>
      </trkpt>
      <trkpt lat="45.730822160840034" lon="7.932734917849302">
        <ele>2499.8200000000002</ele>
        <time>2023-07-23T10:48:15Z</time>
      </trkpt>
      <trkpt lat="45.73074571788311" lon="7.932665012776852">
        <ele>2495.73</ele>
        <time>2023-07-23T10:48:29Z</time>
      </trkpt>
      <trkpt lat="45.730682099238038" lon="7.932637268677354">
        <ele>2492.4699999999998</ele>
        <time>2023-07-23T10:48:44Z</time>
      </trkpt>
      <trkpt lat="45.73066215030849" lon="7.932558143511415">
        <ele>2491.71</ele>
        <time>2023-07-23T10:48:58Z</time>
      </trkpt>
      <trkpt lat="45.730652427300811" lon="7.932497961446643">
        <ele>2492.0599999999999</ele>
        <time>2023-07-23T10:49:11Z</time>
      </trkpt>
      <trkpt lat="45.730627533048391" lon="7.932441299781203">
        <ele>2491.3200000000002</ele>
        <time>2023-07-23T10:49:23Z</time>
      </trkpt>
      <trkpt lat="45.730606075376272" lon="7.932438533753157">
        <ele>2491.5900000000001</ele>
        <time>2023-07-23T10:49:42Z</time>
      </trkpt>
      <trkpt lat="45.730588557198644" lon="7.932422021403909">
        <ele>2489.3699999999999</ele>
        <time>2023-07-23T10:50:03Z</time>
      </trkpt>
      <trkpt lat="45.730562657117844" lon="7.932376759126782">
        <ele>2487.9299999999998</ele>
        <time>2023-07-23T10:50:23Z</time>
      </trkpt>
      <trkpt lat="45.730549162253737" lon="7.932324120774865">
        <ele>2486.6500000000001</ele>
        <time>2023-07-23T10:50:46Z</time>
      </trkpt>
      <trkpt lat="45.730549329891801" lon="7.932262346148491">
        <ele>2485.6799999999998</ele>
        <time>2023-07-23T10:51:06Z</time>
      </trkpt>
      <trkpt lat="45.730548491701484" lon="7.932207696139813">
        <ele>2484.71</ele>
        <time>2023-07-23T10:51:22Z</time>
      </trkpt>
      <trkpt lat="45.73053122498095" lon="7.932178359478712">
        <ele>2483.5599999999999</ele>
        <time>2023-07-23T10:51:32Z</time>
      </trkpt>
      <trkpt lat="45.730533907189965" lon="7.932025725021958">
        <ele>2477.3299999999999</ele>
        <time>2023-07-23T10:51:50Z</time>
      </trkpt>
      <trkpt lat="45.73055712506175" lon="7.931930255144835">
        <ele>2472.02</ele>
        <time>2023-07-23T10:52:04Z</time>
      </trkpt>
      <trkpt lat="45.730536673218012" lon="7.931820536032319">
        <ele>2468.6599999999999</ele>
        <time>2023-07-23T10:52:19Z</time>
      </trkpt>
      <trkpt lat="45.730536002665758" lon="7.931683324277401">
        <ele>2464.9699999999998</ele>
        <time>2023-07-23T10:52:35Z</time>
      </trkpt>
      <trkpt lat="45.730591993778944" lon="7.931594476103783">
        <ele>2463</ele>
        <time>2023-07-23T10:52:50Z</time>
      </trkpt>
      <trkpt lat="45.730643626302481" lon="7.931488612666726">
        <ele>2459.5999999999999</ele>
        <time>2023-07-23T10:53:03Z</time>
      </trkpt>
      <trkpt lat="45.730685451999307" lon="7.931407978758216">
        <ele>2457.0599999999999</ele>
        <time>2023-07-23T10:53:17Z</time>
      </trkpt>
      <trkpt lat="45.730683607980609" lon="7.931413594633341">
        <ele>2456.4699999999998</ele>
        <time>2023-07-23T10:53:42Z</time>
      </trkpt>
      <trkpt lat="45.730683356523514" lon="7.931423736736178">
        <ele>2455.9099999999999</ele>
        <time>2023-07-23T10:54:07Z</time>
      </trkpt>
      <trkpt lat="45.73068218305707" lon="7.93142868205905">
        <ele>2455.98</ele>
        <time>2023-07-23T10:54:39Z</time>
      </trkpt>
      <trkpt lat="45.730678578838706" lon="7.931427843868733">
        <ele>2455.6799999999998</ele>
        <time>2023-07-23T10:55:08Z</time>
      </trkpt>
      <trkpt lat="45.730683105066419" lon="7.931422227993608">
        <ele>2455.5599999999999</ele>
        <time>2023-07-23T10:55:33Z</time>
      </trkpt>
      <trkpt lat="45.730676902458072" lon="7.931413175538182">
        <ele>2455.6100000000001</ele>
        <time>2023-07-23T10:55:56Z</time>
      </trkpt>
      <trkpt lat="45.73068805038929" lon="7.931392807513475">
        <ele>2455.9200000000001</ele>
        <time>2023-07-23T10:56:19Z</time>
      </trkpt>
      <trkpt lat="45.730709759518504" lon="7.931294487789273">
        <ele>2453.2800000000002</ele>
        <time>2023-07-23T10:56:32Z</time>
      </trkpt>
      <trkpt lat="45.730737000703812" lon="7.931145876646042">
        <ele>2447.77</ele>
        <time>2023-07-23T10:56:47Z</time>
      </trkpt>
      <trkpt lat="45.730750914663076" lon="7.931057699024677">
        <ele>2444.2199999999998</ele>
        <time>2023-07-23T10:57:00Z</time>
      </trkpt>
      <trkpt lat="45.730737252160907" lon="7.930983686819673">
        <ele>2439.3499999999999</ele>
        <time>2023-07-23T10:57:15Z</time>
      </trkpt>
      <trkpt lat="45.73072275146842" lon="7.930884696543217">
        <ele>2434.9299999999998</ele>
        <time>2023-07-23T10:57:28Z</time>
      </trkpt>
      <trkpt lat="45.730671705678105" lon="7.930794758722186">
        <ele>2431.73</ele>
        <time>2023-07-23T10:57:43Z</time>
      </trkpt>
      <trkpt lat="45.730611775070429" lon="7.93073776178062">
        <ele>2429.5500000000002</ele>
        <time>2023-07-23T10:57:57Z</time>
      </trkpt>
      <trkpt lat="45.730574475601315" lon="7.930679842829704">
        <ele>2428.02</ele>
        <time>2023-07-23T10:58:04Z</time>
      </trkpt>
      <trkpt lat="45.730513455346227" lon="7.930580517277122">
        <ele>2424.3800000000001</ele>
        <time>2023-07-23T10:58:17Z</time>
      </trkpt>
      <trkpt lat="45.73041932657361" lon="7.930487645789981">
        <ele>2420.4099999999999</ele>
        <time>2023-07-23T10:58:33Z</time>
      </trkpt>
      <trkpt lat="45.730282953009009" lon="7.930447664111853">
        <ele>2415.1399999999999</ele>
        <time>2023-07-23T10:58:51Z</time>
      </trkpt>
      <trkpt lat="45.730194943025708" lon="7.930382620543242">
        <ele>2411.3200000000002</ele>
        <time>2023-07-23T10:59:07Z</time>
      </trkpt>
      <trkpt lat="45.730159236118197" lon="7.930277260020375">
        <ele>2408.1599999999999</ele>
        <time>2023-07-23T10:59:20Z</time>
      </trkpt>
      <trkpt lat="45.730197206139565" lon="7.930141473188996">
        <ele>2405.1500000000001</ele>
        <time>2023-07-23T10:59:35Z</time>
      </trkpt>
      <trkpt lat="45.73018723167479" lon="7.930101826786995">
        <ele>2404.1999999999998</ele>
        <time>2023-07-23T10:59:38Z</time>
      </trkpt>
      <trkpt lat="45.730152698233724" lon="7.929977020248771">
        <ele>2398.54</ele>
        <time>2023-07-23T10:59:53Z</time>
      </trkpt>
      <trkpt lat="45.730087822303176" lon="7.929904097691178">
        <ele>2396.73</ele>
        <time>2023-07-23T11:00:05Z</time>
      </trkpt>
      <trkpt lat="45.730069549754262" lon="7.929879035800695">
        <ele>2395.3899999999999</ele>
        <time>2023-07-23T11:00:09Z</time>
      </trkpt>
      <trkpt lat="45.730008445680141" lon="7.92974391952157">
        <ele>2391.8299999999999</ele>
        <time>2023-07-23T11:00:23Z</time>
      </trkpt>
      <trkpt lat="45.729949185624719" lon="7.929604193195701">
        <ele>2386.0100000000002</ele>
        <time>2023-07-23T11:00:39Z</time>
      </trkpt>
      <trkpt lat="45.729945078492165" lon="7.929594805464149">
        <ele>2385.8000000000002</ele>
        <time>2023-07-23T11:00:40Z</time>
      </trkpt>
      <trkpt lat="45.729870060458779" lon="7.929387353360653">
        <ele>2379.9400000000001</ele>
        <time>2023-07-23T11:00:57Z</time>
      </trkpt>
      <trkpt lat="45.729892775416374" lon="7.929288614541292">
        <ele>2377.8200000000002</ele>
        <time>2023-07-23T11:01:06Z</time>
      </trkpt>
      <trkpt lat="45.729900905862451" lon="7.929251147434115">
        <ele>2377.8800000000001</ele>
        <time>2023-07-23T11:01:09Z</time>
      </trkpt>
      <trkpt lat="45.729969888925552" lon="7.929012598469853">
        <ele>2375.1300000000001</ele>
        <time>2023-07-23T11:01:27Z</time>
      </trkpt>
      <trkpt lat="45.730015905573964" lon="7.928829118609428">
        <ele>2373.6700000000001</ele>
        <time>2023-07-23T11:01:43Z</time>
      </trkpt>
      <trkpt lat="45.730022862553596" lon="7.92870850302279">
        <ele>2371.1700000000001</ele>
        <time>2023-07-23T11:01:57Z</time>
      </trkpt>
      <trkpt lat="45.73004113510251" lon="7.92854187078774">
        <ele>2367.75</ele>
        <time>2023-07-23T11:02:16Z</time>
      </trkpt>
      <trkpt lat="45.73008019477129" lon="7.928478000685573">
        <ele>2367.2199999999998</ele>
        <time>2023-07-23T11:02:29Z</time>
      </trkpt>
      <trkpt lat="45.730111040174961" lon="7.928406000137329">
        <ele>2366.73</ele>
        <time>2023-07-23T11:02:46Z</time>
      </trkpt>
      <trkpt lat="45.730149932205677" lon="7.928326958790422">
        <ele>2363.6799999999998</ele>
        <time>2023-07-23T11:03:01Z</time>
      </trkpt>
      <trkpt lat="45.730145992711186" lon="7.928284797817469">
        <ele>2360.7399999999998</ele>
        <time>2023-07-23T11:03:19Z</time>
      </trkpt>
      <trkpt lat="45.730147249996662" lon="7.928213886916637">
        <ele>2358.79</ele>
        <time>2023-07-23T11:03:32Z</time>
      </trkpt>
      <trkpt lat="45.730167031288147" lon="7.928064772859216">
        <ele>2355.1399999999999</ele>
        <time>2023-07-23T11:03:47Z</time>
      </trkpt>
      <trkpt lat="45.730203911662102" lon="7.927974248304963">
        <ele>2352.8400000000001</ele>
        <time>2023-07-23T11:04:02Z</time>
      </trkpt>
      <trkpt lat="45.730178598314524" lon="7.927932757884264">
        <ele>2351.9699999999998</ele>
        <time>2023-07-23T11:04:21Z</time>
      </trkpt>
      <trkpt lat="45.730140209197998" lon="7.927909623831511">
        <ele>2350.7199999999998</ele>
        <time>2023-07-23T11:04:36Z</time>
      </trkpt>
      <trkpt lat="45.73004356585443" lon="7.927852710708976">
        <ele>2348.71</ele>
        <time>2023-07-23T11:04:52Z</time>
      </trkpt>
      <trkpt lat="45.729976678267121" lon="7.927775597199798">
        <ele>2346.0100000000002</ele>
        <time>2023-07-23T11:05:07Z</time>
      </trkpt>
      <trkpt lat="45.729955052956939" lon="7.927743410691619">
        <ele>2344.98</ele>
        <time>2023-07-23T11:05:18Z</time>
      </trkpt>
      <trkpt lat="45.729900319129229" lon="7.927673757076263">
        <ele>2342.9499999999998</ele>
        <time>2023-07-23T11:05:31Z</time>
      </trkpt>
      <trkpt lat="45.729857906699181" lon="7.927579712122679">
        <ele>2337.7199999999998</ele>
        <time>2023-07-23T11:05:46Z</time>
      </trkpt>
      <trkpt lat="45.729805687442422" lon="7.927541909739375">
        <ele>2333.8699999999999</ele>
        <time>2023-07-23T11:05:57Z</time>
      </trkpt>
      <trkpt lat="45.729788839817047" lon="7.927497988566756">
        <ele>2332.4499999999998</ele>
        <time>2023-07-23T11:06:12Z</time>
      </trkpt>
      <trkpt lat="45.729755396023393" lon="7.927443087100983">
        <ele>2331.0900000000001</ele>
        <time>2023-07-23T11:06:20Z</time>
      </trkpt>
      <trkpt lat="45.729681719094515" lon="7.927376367151737">
        <ele>2329.8000000000002</ele>
        <time>2023-07-23T11:06:33Z</time>
      </trkpt>
      <trkpt lat="45.729586584493518" lon="7.927375361323357">
        <ele>2330.1799999999998</ele>
        <time>2023-07-23T11:06:45Z</time>
      </trkpt>
      <trkpt lat="45.72958423756063" lon="7.927362034097314">
        <ele>2330.1300000000001</ele>
        <time>2023-07-23T11:06:46Z</time>
      </trkpt>
      <trkpt lat="45.729536544531584" lon="7.927322471514344">
        <ele>2330.9899999999998</ele>
        <time>2023-07-23T11:06:54Z</time>
      </trkpt>
      <trkpt lat="45.729506369680166" lon="7.927292296662927">
        <ele>2331.29</ele>
        <time>2023-07-23T11:07:10Z</time>
      </trkpt>
      <trkpt lat="45.729538388550282" lon="7.927294727414846">
        <ele>2331.6999999999998</ele>
        <time>2023-07-23T11:07:27Z</time>
      </trkpt>
      <trkpt lat="45.729523217305541" lon="7.927256254479289">
        <ele>2331.4000000000001</ele>
        <time>2023-07-23T11:07:47Z</time>
      </trkpt>
      <trkpt lat="45.729564037173986" lon="7.92716296389699">
        <ele>2330.3000000000002</ele>
        <time>2023-07-23T11:08:02Z</time>
      </trkpt>
      <trkpt lat="45.729550374671817" lon="7.927129687741399">
        <ele>2330.4899999999998</ele>
        <time>2023-07-23T11:08:19Z</time>
      </trkpt>
      <trkpt lat="45.729556158185005" lon="7.927115522325039">
        <ele>2332.3099999999999</ele>
        <time>2023-07-23T11:08:49Z</time>
      </trkpt>
      <trkpt lat="45.729560684412718" lon="7.927120719105005">
        <ele>2332.8000000000002</ele>
        <time>2023-07-23T11:09:11Z</time>
      </trkpt>
      <trkpt lat="45.729571497067809" lon="7.927116276696324">
        <ele>2332.23</ele>
        <time>2023-07-23T11:09:39Z</time>
      </trkpt>
      <trkpt lat="45.729574849829078" lon="7.927115773782134">
        <ele>2331.96</ele>
        <time>2023-07-23T11:10:04Z</time>
      </trkpt>
      <trkpt lat="45.72957644239068" lon="7.927111415192485">
        <ele>2330.52</ele>
        <time>2023-07-23T11:10:26Z</time>
      </trkpt>
      <trkpt lat="45.729585494846106" lon="7.92711652815342">
        <ele>2331.8800000000001</ele>
        <time>2023-07-23T11:11:01Z</time>
      </trkpt>
      <trkpt lat="45.729584908112884" lon="7.927129101008177">
        <ele>2332.1399999999999</ele>
        <time>2023-07-23T11:11:30Z</time>
      </trkpt>
      <trkpt lat="45.729580298066139" lon="7.927107810974121">
        <ele>2333.5599999999999</ele>
        <time>2023-07-23T11:11:58Z</time>
      </trkpt>
      <trkpt lat="45.729569485411048" lon="7.927108146250248">
        <ele>2333.4000000000001</ele>
        <time>2023-07-23T11:12:18Z</time>
      </trkpt>
      <trkpt lat="45.729567473754287" lon="7.927107056602836">
        <ele>2333.98</ele>
        <time>2023-07-23T11:12:50Z</time>
      </trkpt>
      <trkpt lat="45.729569485411048" lon="7.927112588658929">
        <ele>2333.5599999999999</ele>
        <time>2023-07-23T11:13:33Z</time>
      </trkpt>
      <trkpt lat="45.729564372450113" lon="7.927112001925707">
        <ele>2333.6100000000001</ele>
        <time>2023-07-23T11:14:18Z</time>
      </trkpt>
      <trkpt lat="45.729568311944604" lon="7.92710529640317">
        <ele>2333.96</ele>
        <time>2023-07-23T11:14:54Z</time>
      </trkpt>
      <trkpt lat="45.729568479582667" lon="7.927101776003838">
        <ele>2333.54</ele>
        <time>2023-07-23T11:15:22Z</time>
      </trkpt>
      <trkpt lat="45.729578118771315" lon="7.927096746861935">
        <ele>2333.4299999999998</ele>
        <time>2023-07-23T11:15:59Z</time>
      </trkpt>
      <trkpt lat="45.729579459875822" lon="7.92710529640317">
        <ele>2332.96</ele>
        <time>2023-07-23T11:16:29Z</time>
      </trkpt>
      <trkpt lat="45.729577280580997" lon="7.927106469869614">
        <ele>2332.73</ele>
        <time>2023-07-23T11:16:55Z</time>
      </trkpt>
      <trkpt lat="45.729575352743268" lon="7.927117953076959">
        <ele>2332.0100000000002</ele>
        <time>2023-07-23T11:17:16Z</time>
      </trkpt>
      <trkpt lat="45.729576526209712" lon="7.927102446556091">
        <ele>2333.4400000000001</ele>
        <time>2023-07-23T11:18:00Z</time>
      </trkpt>
      <trkpt lat="45.729582142084837" lon="7.927090460434556">
        <ele>2333.9099999999999</ele>
        <time>2023-07-23T11:18:53Z</time>
      </trkpt>
      <trkpt lat="45.729568311944604" lon="7.92709699831903">
        <ele>2333.6199999999999</ele>
        <time>2023-07-23T11:19:22Z</time>
      </trkpt>
      <trkpt lat="45.729571497067809" lon="7.927101189270616">
        <ele>2333.9299999999998</ele>
        <time>2023-07-23T11:19:58Z</time>
      </trkpt>
      <trkpt lat="45.729578454047441" lon="7.92710236273706">
        <ele>2334.3200000000002</ele>
        <time>2023-07-23T11:20:50Z</time>
      </trkpt>
      <trkpt lat="45.729574263095856" lon="7.92710236273706">
        <ele>2333.75</ele>
        <time>2023-07-23T11:21:14Z</time>
      </trkpt>
      <trkpt lat="45.729564875364304" lon="7.927098926156759">
        <ele>2333.3600000000001</ele>
        <time>2023-07-23T11:21:42Z</time>
      </trkpt>
      <trkpt lat="45.729568479582667" lon="7.927096830680966">
        <ele>2332.98</ele>
        <time>2023-07-23T11:22:09Z</time>
      </trkpt>
      <trkpt lat="45.729567473754287" lon="7.927100015804172">
        <ele>2332.9400000000001</ele>
        <time>2023-07-23T11:22:40Z</time>
      </trkpt>
      <trkpt lat="45.729565713554621" lon="7.927117114886642">
        <ele>2332.0799999999999</ele>
        <time>2023-07-23T11:23:19Z</time>
      </trkpt>
      <trkpt lat="45.729569066315889" lon="7.92711652815342">
        <ele>2331.7399999999998</ele>
        <time>2023-07-23T11:23:51Z</time>
      </trkpt>
      <trkpt lat="45.729567473754287" lon="7.927105464041233">
        <ele>2331.6900000000001</ele>
        <time>2023-07-23T11:24:22Z</time>
      </trkpt>
      <trkpt lat="45.729570407420397" lon="7.927092052996159">
        <ele>2332.29</ele>
        <time>2023-07-23T11:25:02Z</time>
      </trkpt>
      <trkpt lat="45.729588679969311" lon="7.927077384665608">
        <ele>2332.1900000000001</ele>
        <time>2023-07-23T11:25:23Z</time>
      </trkpt>
      <trkpt lat="45.72958524338901" lon="7.926990631967783">
        <ele>2329.2199999999998</ele>
        <time>2023-07-23T11:25:38Z</time>
      </trkpt>
      <trkpt lat="45.729570155963302" lon="7.926955008879304">
        <ele>2328.25</ele>
        <time>2023-07-23T11:25:42Z</time>
      </trkpt>
      <trkpt lat="45.729546854272485" lon="7.926878901198506">
        <ele>2327.3800000000001</ele>
        <time>2023-07-23T11:25:48Z</time>
      </trkpt>
      <trkpt lat="45.729523468762636" lon="7.92672953568399">
        <ele>2325.6500000000001</ele>
        <time>2023-07-23T11:26:00Z</time>
      </trkpt>
      <trkpt lat="45.729409977793694" lon="7.926618224009872">
        <ele>2323.5599999999999</ele>
        <time>2023-07-23T11:26:17Z</time>
      </trkpt>
      <trkpt lat="45.729402601718903" lon="7.926474893465638">
        <ele>2321.0900000000001</ele>
        <time>2023-07-23T11:26:30Z</time>
      </trkpt>
      <trkpt lat="45.729368403553963" lon="7.926317397505045">
        <ele>2317</ele>
        <time>2023-07-23T11:26:46Z</time>
      </trkpt>
      <trkpt lat="45.729401679709554" lon="7.926256628707051">
        <ele>2317.5700000000002</ele>
        <time>2023-07-23T11:27:01Z</time>
      </trkpt>
      <trkpt lat="45.729415426030755" lon="7.926215808838606">
        <ele>2317.8400000000001</ele>
        <time>2023-07-23T11:27:06Z</time>
      </trkpt>
      <trkpt lat="45.729488013312221" lon="7.926136516034603">
        <ele>2316.9499999999998</ele>
        <time>2023-07-23T11:27:15Z</time>
      </trkpt>
      <trkpt lat="45.729582225903869" lon="7.926048254594207">
        <ele>2315.5100000000002</ele>
        <time>2023-07-23T11:27:31Z</time>
      </trkpt>
      <trkpt lat="45.729591194540262" lon="7.926046494394541">
        <ele>2315.4899999999998</ele>
        <time>2023-07-23T11:27:32Z</time>
      </trkpt>
      <trkpt lat="45.729685574769974" lon="7.925990000367165">
        <ele>2315.3299999999999</ele>
        <time>2023-07-23T11:27:46Z</time>
      </trkpt>
      <trkpt lat="45.729729244485497" lon="7.925859410315752">
        <ele>2311.0799999999999</ele>
        <time>2023-07-23T11:28:01Z</time>
      </trkpt>
      <trkpt lat="45.729722790420055" lon="7.925808448344469">
        <ele>2309.0500000000002</ele>
        <time>2023-07-23T11:28:07Z</time>
      </trkpt>
      <trkpt lat="45.729729495942593" lon="7.925700908526778">
        <ele>2306.04</ele>
        <time>2023-07-23T11:28:18Z</time>
      </trkpt>
      <trkpt lat="45.72976847179234" lon="7.925651706755161">
        <ele>2305.3499999999999</ele>
        <time>2023-07-23T11:28:24Z</time>
      </trkpt>
      <trkpt lat="45.729800490662456" lon="7.925611305981875">
        <ele>2304.2399999999998</ele>
        <time>2023-07-23T11:28:29Z</time>
      </trkpt>
      <trkpt lat="45.729890763759613" lon="7.92544350028038">
        <ele>2303.0900000000001</ele>
        <time>2023-07-23T11:28:45Z</time>
      </trkpt>
      <trkpt lat="45.729989837855101" lon="7.925444673746824">
        <ele>2302.75</ele>
        <time>2023-07-23T11:28:59Z</time>
      </trkpt>
      <trkpt lat="45.73005186393857" lon="7.925335289910436">
        <ele>2301.8800000000001</ele>
        <time>2023-07-23T11:29:13Z</time>
      </trkpt>
      <trkpt lat="45.730102490633726" lon="7.925238395109773">
        <ele>2304.6300000000001</ele>
        <time>2023-07-23T11:29:28Z</time>
      </trkpt>
      <trkpt lat="45.730188572779298" lon="7.925123814493418">
        <ele>2308.4000000000001</ele>
        <time>2023-07-23T11:29:44Z</time>
      </trkpt>
      <trkpt lat="45.730282366275787" lon="7.925089364871383">
        <ele>2311.27</ele>
        <time>2023-07-23T11:29:59Z</time>
      </trkpt>
      <trkpt lat="45.73028638958931" lon="7.925081234425306">
        <ele>2311.1300000000001</ele>
        <time>2023-07-23T11:30:00Z</time>
      </trkpt>
      <trkpt lat="45.730330059304833" lon="7.925055334344506">
        <ele>2311.5900000000001</ele>
        <time>2023-07-23T11:30:05Z</time>
      </trkpt>
      <trkpt lat="45.730354199185967" lon="7.925068745389581">
        <ele>2312.1900000000001</ele>
        <time>2023-07-23T11:30:08Z</time>
      </trkpt>
      <trkpt lat="45.730475066229701" lon="7.925076121464372">
        <ele>2312.6999999999998</ele>
        <time>2023-07-23T11:30:22Z</time>
      </trkpt>
      <trkpt lat="45.730498200282454" lon="7.925079977139831">
        <ele>2312.4899999999998</ele>
        <time>2023-07-23T11:30:25Z</time>
      </trkpt>
      <trkpt lat="45.730633903294802" lon="7.924953829497099">
        <ele>2312.73</ele>
        <time>2023-07-23T11:30:42Z</time>
      </trkpt>
      <trkpt lat="45.730644799768925" lon="7.924938071519136">
        <ele>2312.73</ele>
        <time>2023-07-23T11:30:44Z</time>
      </trkpt>
      <trkpt lat="45.730731803923845" lon="7.924824496731162">
        <ele>2314.25</ele>
        <time>2023-07-23T11:30:58Z</time>
      </trkpt>
      <trkpt lat="45.730766756460071" lon="7.924821898341179">
        <ele>2314.5999999999999</ele>
        <time>2023-07-23T11:31:02Z</time>
      </trkpt>
      <trkpt lat="45.730849150568247" lon="7.924762889742851">
        <ele>2313.8099999999999</ele>
        <time>2023-07-23T11:31:15Z</time>
      </trkpt>
      <trkpt lat="45.730938166379929" lon="7.924690889194608">
        <ele>2313.8699999999999</ele>
        <time>2023-07-23T11:31:29Z</time>
      </trkpt>
      <trkpt lat="45.730994995683432" lon="7.924646632745862">
        <ele>2316.5300000000002</ele>
        <time>2023-07-23T11:31:44Z</time>
      </trkpt>
      <trkpt lat="45.731046795845032" lon="7.924597011879087">
        <ele>2318.1599999999999</ele>
        <time>2023-07-23T11:31:54Z</time>
      </trkpt>
      <trkpt lat="45.731126759201288" lon="7.924535740166903">
        <ele>2320.2800000000002</ele>
        <time>2023-07-23T11:32:12Z</time>
      </trkpt>
      <trkpt lat="45.731171099469066" lon="7.924449741840363">
        <ele>2321.9299999999998</ele>
        <time>2023-07-23T11:32:29Z</time>
      </trkpt>
      <trkpt lat="45.731232622638345" lon="7.924409760162234">
        <ele>2324.0999999999999</ele>
        <time>2023-07-23T11:32:42Z</time>
      </trkpt>
      <trkpt lat="45.731273274868727" lon="7.924449574202299">
        <ele>2326.6199999999999</ele>
        <time>2023-07-23T11:32:58Z</time>
      </trkpt>
      <trkpt lat="45.731312921270728" lon="7.924383524805307">
        <ele>2328.02</ele>
        <time>2023-07-23T11:33:14Z</time>
      </trkpt>
      <trkpt lat="45.731350220739841" lon="7.924264166504145">
        <ele>2329.4400000000001</ele>
        <time>2023-07-23T11:33:28Z</time>
      </trkpt>
      <trkpt lat="45.731389531865716" lon="7.924194261431694">
        <ele>2331.77</ele>
        <time>2023-07-23T11:33:41Z</time>
      </trkpt>
      <trkpt lat="45.731482738628983" lon="7.924155704677105">
        <ele>2334.5700000000002</ele>
        <time>2023-07-23T11:33:58Z</time>
      </trkpt>
      <trkpt lat="45.731531269848347" lon="7.924126787111163">
        <ele>2337.5300000000002</ele>
        <time>2023-07-23T11:34:15Z</time>
      </trkpt>
      <trkpt lat="45.731567563489079" lon="7.924149082973599">
        <ele>2339.9099999999999</ele>
        <time>2023-07-23T11:34:33Z</time>
      </trkpt>
      <trkpt lat="45.731608467176557" lon="7.924097953364253">
        <ele>2341.29</ele>
        <time>2023-07-23T11:34:49Z</time>
      </trkpt>
      <trkpt lat="45.731609640643001" lon="7.924103066325188">
        <ele>2342.4299999999998</ele>
        <time>2023-07-23T11:35:12Z</time>
      </trkpt>
      <trkpt lat="45.731653645634651" lon="7.924029054120183">
        <ele>2343.52</ele>
        <time>2023-07-23T11:35:29Z</time>
      </trkpt>
      <trkpt lat="45.731712486594915" lon="7.923926711082459">
        <ele>2345.6300000000001</ele>
        <time>2023-07-23T11:35:39Z</time>
      </trkpt>
      <trkpt lat="45.731836706399918" lon="7.923859152942896">
        <ele>2347.5700000000002</ele>
        <time>2023-07-23T11:35:53Z</time>
      </trkpt>
      <trkpt lat="45.731886075809598" lon="7.923736358061433">
        <ele>2347.8600000000001</ele>
        <time>2023-07-23T11:36:07Z</time>
      </trkpt>
      <trkpt lat="45.731912646442652" lon="7.92366242967546">
        <ele>2348.5100000000002</ele>
        <time>2023-07-23T11:36:13Z</time>
      </trkpt>
      <trkpt lat="45.731929913163185" lon="7.923650108277798">
        <ele>2348.8600000000001</ele>
        <time>2023-07-23T11:36:15Z</time>
      </trkpt>
      <trkpt lat="45.732000740244985" lon="7.923489511013031">
        <ele>2349.3200000000002</ele>
        <time>2023-07-23T11:36:30Z</time>
      </trkpt>
      <trkpt lat="45.732068633660674" lon="7.923413990065455">
        <ele>2350.23</ele>
        <time>2023-07-23T11:36:43Z</time>
      </trkpt>
      <trkpt lat="45.732107190415263" lon="7.923371577635407">
        <ele>2351.77</ele>
        <time>2023-07-23T11:36:53Z</time>
      </trkpt>
      <trkpt lat="45.732118925079703" lon="7.923343330621719">
        <ele>2352.1199999999999</ele>
        <time>2023-07-23T11:36:56Z</time>
      </trkpt>
      <trkpt lat="45.732175670564175" lon="7.923231180757284">
        <ele>2353.7199999999998</ele>
        <time>2023-07-23T11:37:12Z</time>
      </trkpt>
      <trkpt lat="45.732176844030619" lon="7.923172926530242">
        <ele>2353.4699999999998</ele>
        <time>2023-07-23T11:37:18Z</time>
      </trkpt>
      <trkpt lat="45.732210958376527" lon="7.923037558794022">
        <ele>2351.9699999999998</ele>
        <time>2023-07-23T11:37:30Z</time>
      </trkpt>
      <trkpt lat="45.732273906469345" lon="7.922947369515896">
        <ele>2351.9000000000001</ele>
        <time>2023-07-23T11:37:43Z</time>
      </trkpt>
      <trkpt lat="45.732281366363168" lon="7.922929264605045">
        <ele>2352.1599999999999</ele>
        <time>2023-07-23T11:37:52Z</time>
      </trkpt>
      <trkpt lat="45.732308272272348" lon="7.922910405322909">
        <ele>2352.0599999999999</ele>
        <time>2023-07-23T11:37:55Z</time>
      </trkpt>
      <trkpt lat="45.732367532327771" lon="7.922844775021076">
        <ele>2351.4000000000001</ele>
        <time>2023-07-23T11:38:04Z</time>
      </trkpt>
      <trkpt lat="45.732446992769837" lon="7.922795908525586">
        <ele>2351.5700000000002</ele>
        <time>2023-07-23T11:38:14Z</time>
      </trkpt>
      <trkpt lat="45.732591161504388" lon="7.922665737569332">
        <ele>2352.3600000000001</ele>
        <time>2023-07-23T11:38:31Z</time>
      </trkpt>
      <trkpt lat="45.732703981921077" lon="7.922546463087201">
        <ele>2352.6700000000001</ele>
        <time>2023-07-23T11:38:46Z</time>
      </trkpt>
      <trkpt lat="45.732770031318069" lon="7.922447137534618">
        <ele>2353.5100000000002</ele>
        <time>2023-07-23T11:39:01Z</time>
      </trkpt>
      <trkpt lat="45.732818730175495" lon="7.922367257997394">
        <ele>2354.3600000000001</ele>
        <time>2023-07-23T11:39:10Z</time>
      </trkpt>
      <trkpt lat="45.732876565307379" lon="7.922288803383708">
        <ele>2354.6900000000001</ele>
        <time>2023-07-23T11:39:20Z</time>
      </trkpt>
      <trkpt lat="45.732956025749445" lon="7.922195512801409">
        <ele>2357.1500000000001</ele>
        <time>2023-07-23T11:39:36Z</time>
      </trkpt>
      <trkpt lat="45.733029199764132" lon="7.922124685719609">
        <ele>2360.3600000000001</ele>
        <time>2023-07-23T11:39:50Z</time>
      </trkpt>
      <trkpt lat="45.733082676306367" lon="7.922095516696572">
        <ele>2361.1599999999999</ele>
        <time>2023-07-23T11:40:07Z</time>
      </trkpt>
      <trkpt lat="45.733082257211208" lon="7.922097444534302">
        <ele>2361.5799999999999</ele>
        <time>2023-07-23T11:40:36Z</time>
      </trkpt>
      <trkpt lat="45.73316540569067" lon="7.922012535855174">
        <ele>2363.3699999999999</ele>
        <time>2023-07-23T11:40:50Z</time>
      </trkpt>
      <trkpt lat="45.733238328248262" lon="7.921911366283894">
        <ele>2365.2399999999998</ele>
        <time>2023-07-23T11:41:05Z</time>
      </trkpt>
      <trkpt lat="45.73329976759851" lon="7.921854872256517">
        <ele>2367.8099999999999</ele>
        <time>2023-07-23T11:41:18Z</time>
      </trkpt>
      <trkpt lat="45.733351819217205" lon="7.921794019639492">
        <ele>2371.5599999999999</ele>
        <time>2023-07-23T11:41:34Z</time>
      </trkpt>
      <trkpt lat="45.73340923525393" lon="7.921712463721633">
        <ele>2373.8400000000001</ele>
        <time>2023-07-23T11:41:49Z</time>
      </trkpt>
      <trkpt lat="45.733481738716364" lon="7.921731825917959">
        <ele>2375.4499999999998</ele>
        <time>2023-07-23T11:42:04Z</time>
      </trkpt>
      <trkpt lat="45.733568575233221" lon="7.921742890030146">
        <ele>2375.79</ele>
        <time>2023-07-23T11:42:18Z</time>
      </trkpt>
      <trkpt lat="45.733645185828209" lon="7.921697879210115">
        <ele>2377.9099999999999</ele>
        <time>2023-07-23T11:42:31Z</time>
      </trkpt>
      <trkpt lat="45.73370679281652" lon="7.921643480658531">
        <ele>2381.0799999999999</ele>
        <time>2023-07-23T11:42:46Z</time>
      </trkpt>
      <trkpt lat="45.733758006244898" lon="7.921584639698267">
        <ele>2381.54</ele>
        <time>2023-07-23T11:42:54Z</time>
      </trkpt>
      <trkpt lat="45.733832940459251" lon="7.921515237540007">
        <ele>2381.79</ele>
        <time>2023-07-23T11:43:10Z</time>
      </trkpt>
      <trkpt lat="45.733863953500986" lon="7.921487912535667">
        <ele>2381.1999999999998</ele>
        <time>2023-07-23T11:43:15Z</time>
      </trkpt>
      <trkpt lat="45.733939222991467" lon="7.921430915594101">
        <ele>2379.1199999999999</ele>
        <time>2023-07-23T11:43:27Z</time>
      </trkpt>
      <trkpt lat="45.733962189406157" lon="7.921385234221816">
        <ele>2377.5999999999999</ele>
        <time>2023-07-23T11:43:33Z</time>
      </trkpt>
      <trkpt lat="45.734032932668924" lon="7.921339217573404">
        <ele>2376.6100000000001</ele>
        <time>2023-07-23T11:43:41Z</time>
      </trkpt>
      <trkpt lat="45.734093198552728" lon="7.921269228681922">
        <ele>2376.9200000000001</ele>
        <time>2023-07-23T11:43:54Z</time>
      </trkpt>
      <trkpt lat="45.734138293191791" lon="7.921226816251874">
        <ele>2377.0799999999999</ele>
        <time>2023-07-23T11:44:01Z</time>
      </trkpt>
      <trkpt lat="45.734166288748384" lon="7.921155570074916">
        <ele>2377.3200000000002</ele>
        <time>2023-07-23T11:44:07Z</time>
      </trkpt>
      <trkpt lat="45.734170395880938" lon="7.921054819598794">
        <ele>2375.4899999999998</ele>
        <time>2023-07-23T11:44:18Z</time>
      </trkpt>
      <trkpt lat="45.73418858461082" lon="7.920960942283273">
        <ele>2373.98</ele>
        <time>2023-07-23T11:44:25Z</time>
      </trkpt>
      <trkpt lat="45.734290424734354" lon="7.920867651700974">
        <ele>2374.0900000000001</ele>
        <time>2023-07-23T11:44:40Z</time>
      </trkpt>
      <trkpt lat="45.734327808022499" lon="7.920814845710993">
        <ele>2374.79</ele>
        <time>2023-07-23T11:44:50Z</time>
      </trkpt>
      <trkpt lat="45.734343230724335" lon="7.920779641717672">
        <ele>2374.8400000000001</ele>
        <time>2023-07-23T11:44:53Z</time>
      </trkpt>
      <trkpt lat="45.734357479959726" lon="7.920731948688626">
        <ele>2375.3400000000001</ele>
        <time>2023-07-23T11:44:57Z</time>
      </trkpt>
      <trkpt lat="45.734359407797456" lon="7.920615524053574">
        <ele>2375.1900000000001</ele>
        <time>2023-07-23T11:45:09Z</time>
      </trkpt>
      <trkpt lat="45.73435764759779" lon="7.92060655541718">
        <ele>2374.8800000000001</ele>
        <time>2023-07-23T11:45:10Z</time>
      </trkpt>
      <trkpt lat="45.734357815235853" lon="7.920505637302995">
        <ele>2374.1199999999999</ele>
        <time>2023-07-23T11:45:18Z</time>
      </trkpt>
      <trkpt lat="45.734326969832182" lon="7.920341435819864">
        <ele>2373.9499999999998</ele>
        <time>2023-07-23T11:45:34Z</time>
      </trkpt>
      <trkpt lat="45.734348092228174" lon="7.920272788032889">
        <ele>2374.8600000000001</ele>
        <time>2023-07-23T11:45:48Z</time>
      </trkpt>
      <trkpt lat="45.734367035329342" lon="7.920211683958769">
        <ele>2374.9299999999998</ele>
        <time>2023-07-23T11:45:54Z</time>
      </trkpt>
      <trkpt lat="45.734426379203796" lon="7.920136414468288">
        <ele>2374.8400000000001</ele>
        <time>2023-07-23T11:46:04Z</time>
      </trkpt>
      <trkpt lat="45.734521681442857" lon="7.91997229680419">
        <ele>2373.5700000000002</ele>
        <time>2023-07-23T11:46:22Z</time>
      </trkpt>
      <trkpt lat="45.734547413885593" lon="7.919918484985828">
        <ele>2372.6399999999999</ele>
        <time>2023-07-23T11:46:29Z</time>
      </trkpt>
      <trkpt lat="45.734576163813472" lon="7.919846065342426">
        <ele>2371.98</ele>
        <time>2023-07-23T11:46:35Z</time>
      </trkpt>
      <trkpt lat="45.734622431918979" lon="7.919736681506038">
        <ele>2371.5599999999999</ele>
        <time>2023-07-23T11:46:44Z</time>
      </trkpt>
      <trkpt lat="45.734664844349027" lon="7.919587064534426">
        <ele>2369.4099999999999</ele>
        <time>2023-07-23T11:47:00Z</time>
      </trkpt>
      <trkpt lat="45.734656630083919" lon="7.919512130320072">
        <ele>2368.5300000000002</ele>
        <time>2023-07-23T11:47:08Z</time>
      </trkpt>
      <trkpt lat="45.734680267050862" lon="7.919358490034938">
        <ele>2368.75</ele>
        <time>2023-07-23T11:47:22Z</time>
      </trkpt>
      <trkpt lat="45.734686469659209" lon="7.919308114796877">
        <ele>2368.9400000000001</ele>
        <time>2023-07-23T11:47:27Z</time>
      </trkpt>
      <trkpt lat="45.734692420810461" lon="7.919243574142456">
        <ele>2369.3400000000001</ele>
        <time>2023-07-23T11:47:32Z</time>
      </trkpt>
      <trkpt lat="45.73471681214869" lon="7.919171992689371">
        <ele>2369.8299999999999</ele>
        <time>2023-07-23T11:47:38Z</time>
      </trkpt>
      <trkpt lat="45.734730223193765" lon="7.919134190306068">
        <ele>2369.9000000000001</ele>
        <time>2023-07-23T11:47:41Z</time>
      </trkpt>
      <trkpt lat="45.734753776341677" lon="7.919087754562497">
        <ele>2370.2600000000002</ele>
        <time>2023-07-23T11:47:46Z</time>
      </trkpt>
      <trkpt lat="45.734761487692595" lon="7.919004270806909">
        <ele>2371.1100000000001</ele>
        <time>2023-07-23T11:47:53Z</time>
      </trkpt>
      <trkpt lat="45.734749250113964" lon="7.918927073478699">
        <ele>2372.0999999999999</ele>
        <time>2023-07-23T11:48:01Z</time>
      </trkpt>
      <trkpt lat="45.734785543754697" lon="7.918801261112094">
        <ele>2372.21</ele>
        <time>2023-07-23T11:48:13Z</time>
      </trkpt>
      <trkpt lat="45.734876738861203" lon="7.91866865940392">
        <ele>2370.0100000000002</ele>
        <time>2023-07-23T11:48:30Z</time>
      </trkpt>
      <trkpt lat="45.734889144077897" lon="7.918650386855006">
        <ele>2370.0100000000002</ele>
        <time>2023-07-23T11:48:32Z</time>
      </trkpt>
      <trkpt lat="45.734981931746006" lon="7.9185626283288">
        <ele>2370.25</ele>
        <time>2023-07-23T11:48:48Z</time>
      </trkpt>
      <trkpt lat="45.735054686665535" lon="7.91848685592413">
        <ele>2370.5599999999999</ele>
        <time>2023-07-23T11:49:04Z</time>
      </trkpt>
      <trkpt lat="45.735096680000424" lon="7.918445952236652">
        <ele>2373.1300000000001</ele>
        <time>2023-07-23T11:49:16Z</time>
      </trkpt>
      <trkpt lat="45.735118389129639" lon="7.918432205915451">
        <ele>2374.75</ele>
        <time>2023-07-23T11:49:33Z</time>
      </trkpt>
      <trkpt lat="45.735202124342322" lon="7.918377052992582">
        <ele>2376.3200000000002</ele>
        <time>2023-07-23T11:49:48Z</time>
      </trkpt>
      <trkpt lat="45.73527772910893" lon="7.918349895626307">
        <ele>2376.75</ele>
        <time>2023-07-23T11:50:01Z</time>
      </trkpt>
      <trkpt lat="45.735302790999413" lon="7.91832173243165">
        <ele>2377.9200000000001</ele>
        <time>2023-07-23T11:50:10Z</time>
      </trkpt>
      <trkpt lat="45.735329948365688" lon="7.918288120999932">
        <ele>2378.0300000000002</ele>
        <time>2023-07-23T11:50:14Z</time>
      </trkpt>
      <trkpt lat="45.735381161794066" lon="7.91820589452982">
        <ele>2378.3899999999999</ele>
        <time>2023-07-23T11:50:24Z</time>
      </trkpt>
      <trkpt lat="45.735472189262509" lon="7.918115453794599">
        <ele>2378.9499999999998</ele>
        <time>2023-07-23T11:50:39Z</time>
      </trkpt>
      <trkpt lat="45.735504291951656" lon="7.918033562600613">
        <ele>2379.1399999999999</ele>
        <time>2023-07-23T11:50:47Z</time>
      </trkpt>
      <trkpt lat="45.735562797635794" lon="7.917956868186593">
        <ele>2380.9299999999998</ele>
        <time>2023-07-23T11:51:03Z</time>
      </trkpt>
      <trkpt lat="45.73561342433095" lon="7.917859135195613">
        <ele>2382.9699999999998</ele>
        <time>2023-07-23T11:51:18Z</time>
      </trkpt>
      <trkpt lat="45.735679725185037" lon="7.9177734721452">
        <ele>2385.6100000000001</ele>
        <time>2023-07-23T11:51:33Z</time>
      </trkpt>
      <trkpt lat="45.735732782632113" lon="7.917742794379592">
        <ele>2389.1300000000001</ele>
        <time>2023-07-23T11:51:51Z</time>
      </trkpt>
      <trkpt lat="45.735764717683196" lon="7.917738184332848">
        <ele>2391.2600000000002</ele>
        <time>2023-07-23T11:52:08Z</time>
      </trkpt>
      <trkpt lat="45.735800676047802" lon="7.917700633406639">
        <ele>2393.3800000000001</ele>
        <time>2023-07-23T11:52:24Z</time>
      </trkpt>
      <trkpt lat="45.735882315784693" lon="7.917674817144871">
        <ele>2396.29</ele>
        <time>2023-07-23T11:52:40Z</time>
      </trkpt>
      <trkpt lat="45.735958339646459" lon="7.9176474083215">
        <ele>2399.8800000000001</ele>
        <time>2023-07-23T11:53:36Z</time>
      </trkpt>
      <trkpt lat="45.735957166180015" lon="7.917641708627343">
        <ele>2399.29</ele>
        <time>2023-07-23T11:56:27Z</time>
      </trkpt>
      <trkpt lat="45.736038386821747" lon="7.917608935385943">
        <ele>2398.1599999999999</ele>
        <time>2023-07-23T11:56:44Z</time>
      </trkpt>
      <trkpt lat="45.736052384600043" lon="7.917587477713823">
        <ele>2395.3499999999999</ele>
        <time>2023-07-23T12:29:22Z</time>
      </trkpt>
      <trkpt lat="45.736103178933263" lon="7.917534420266748">
        <ele>2395.75</ele>
        <time>2023-07-23T12:29:37Z</time>
      </trkpt>
      <trkpt lat="45.736187919974327" lon="7.917456720024347">
        <ele>2395.6700000000001</ele>
        <time>2023-07-23T12:29:52Z</time>
      </trkpt>
      <trkpt lat="45.736263273283839" lon="7.917344821617007">
        <ele>2392.6500000000001</ele>
        <time>2023-07-23T12:30:10Z</time>
      </trkpt>
      <trkpt lat="45.736304512247443" lon="7.917294697836042">
        <ele>2391.0100000000002</ele>
        <time>2023-07-23T12:30:17Z</time>
      </trkpt>
      <trkpt lat="45.736387744545937" lon="7.917184475809336">
        <ele>2386.6799999999998</ele>
        <time>2023-07-23T12:30:33Z</time>
      </trkpt>
      <trkpt lat="45.736401407048106" lon="7.917178943753243">
        <ele>2386.3699999999999</ele>
        <time>2023-07-23T12:30:35Z</time>
      </trkpt>
      <trkpt lat="45.736439879983664" lon="7.917193444445729">
        <ele>2386.1399999999999</ele>
        <time>2023-07-23T12:30:51Z</time>
      </trkpt>
      <trkpt lat="45.736424876376987" lon="7.917180955410004">
        <ele>2383.3499999999999</ele>
        <time>2023-07-23T12:31:31Z</time>
      </trkpt>
      <trkpt lat="45.736473323777318" lon="7.917144242674112">
        <ele>2382.71</ele>
        <time>2023-07-23T12:31:39Z</time>
      </trkpt>
      <trkpt lat="45.736624617129564" lon="7.917182799428701">
        <ele>2382.8800000000001</ele>
        <time>2023-07-23T12:31:54Z</time>
      </trkpt>
      <trkpt lat="45.736775323748589" lon="7.917221942916513">
        <ele>2381.3600000000001</ele>
        <time>2023-07-23T12:32:10Z</time>
      </trkpt>
      <trkpt lat="45.736802062019706" lon="7.917236443608999">
        <ele>2381.1900000000001</ele>
        <time>2023-07-23T12:32:13Z</time>
      </trkpt>
      <trkpt lat="45.736964922398329" lon="7.917203586548567">
        <ele>2379.71</ele>
        <time>2023-07-23T12:32:29Z</time>
      </trkpt>
      <trkpt lat="45.736977076157928" lon="7.917196042835712">
        <ele>2379.5999999999999</ele>
        <time>2023-07-23T12:32:32Z</time>
      </trkpt>
      <trkpt lat="45.737030049785972" lon="7.917178692296147">
        <ele>2379.0900000000001</ele>
        <time>2023-07-23T12:32:37Z</time>
      </trkpt>
      <trkpt lat="45.737240184098482" lon="7.917249519377947">
        <ele>2378.6599999999999</ele>
        <time>2023-07-23T12:32:56Z</time>
      </trkpt>
      <trkpt lat="45.73744922876358" lon="7.917341804131866">
        <ele>2378.02</ele>
        <time>2023-07-23T12:33:16Z</time>
      </trkpt>
      <trkpt lat="45.737558277323842" lon="7.917367536574602">
        <ele>2376.75</ele>
        <time>2023-07-23T12:33:26Z</time>
      </trkpt>
      <trkpt lat="45.737611753866076" lon="7.917399052530527">
        <ele>2375.9499999999998</ele>
        <time>2023-07-23T12:33:31Z</time>
      </trkpt>
      <trkpt lat="45.73772038333118" lon="7.917488571256399">
        <ele>2375.5</ele>
        <time>2023-07-23T12:33:42Z</time>
      </trkpt>
      <trkpt lat="45.737853236496449" lon="7.917644642293453">
        <ele>2373.96</ele>
        <time>2023-07-23T12:33:59Z</time>
      </trkpt>
      <trkpt lat="45.738021461293101" lon="7.917798366397619">
        <ele>2370.96</ele>
        <time>2023-07-23T12:34:17Z</time>
      </trkpt>
      <trkpt lat="45.738210054114461" lon="7.917894003912807">
        <ele>2370.5599999999999</ele>
        <time>2023-07-23T12:34:35Z</time>
      </trkpt>
      <trkpt lat="45.738265961408615" lon="7.917925352230668">
        <ele>2370.3499999999999</ele>
        <time>2023-07-23T12:34:43Z</time>
      </trkpt>
      <trkpt lat="45.738283479586244" lon="7.917896183207631">
        <ele>2370.1399999999999</ele>
        <time>2023-07-23T12:34:47Z</time>
      </trkpt>
      <trkpt lat="45.738410968333483" lon="7.917795432731509">
        <ele>2369.1599999999999</ele>
        <time>2023-07-23T12:35:04Z</time>
      </trkpt>
      <trkpt lat="45.738418931141496" lon="7.917790235951543">
        <ele>2369.1199999999999</ele>
        <time>2023-07-23T12:35:06Z</time>
      </trkpt>
      <trkpt lat="45.738491518422961" lon="7.917728461325169">
        <ele>2368.2800000000002</ele>
        <time>2023-07-23T12:35:14Z</time>
      </trkpt>
      <trkpt lat="45.738514736294746" lon="7.917674481868744">
        <ele>2367.6799999999998</ele>
        <time>2023-07-23T12:35:29Z</time>
      </trkpt>
      <trkpt lat="45.738517083227634" lon="7.917662663385272">
        <ele>2367.4400000000001</ele>
        <time>2023-07-23T12:35:36Z</time>
      </trkpt>
      <trkpt lat="45.73854667134583" lon="7.917569121345878">
        <ele>2367.6599999999999</ele>
        <time>2023-07-23T12:35:44Z</time>
      </trkpt>
      <trkpt lat="45.738666197285056" lon="7.917349180206657">
        <ele>2368.5500000000002</ele>
        <time>2023-07-23T12:36:03Z</time>
      </trkpt>
      <trkpt lat="45.738852778449655" lon="7.917175507172942">
        <ele>2367.29</ele>
        <time>2023-07-23T12:36:23Z</time>
      </trkpt>
      <trkpt lat="45.738873481750488" lon="7.917174585163593">
        <ele>2367.1900000000001</ele>
        <time>2023-07-23T12:36:25Z</time>
      </trkpt>
      <trkpt lat="45.739081101492047" lon="7.917109290137887">
        <ele>2366.2600000000002</ele>
        <time>2023-07-23T12:36:44Z</time>
      </trkpt>
      <trkpt lat="45.739277238026261" lon="7.91706352494657">
        <ele>2367.6399999999999</ele>
        <time>2023-07-23T12:37:03Z</time>
      </trkpt>
      <trkpt lat="45.739459795877337" lon="7.916990183293819">
        <ele>2368.4400000000001</ele>
        <time>2023-07-23T12:37:20Z</time>
      </trkpt>
      <trkpt lat="45.739659536629915" lon="7.916970150545239">
        <ele>2368.0700000000002</ele>
        <time>2023-07-23T12:37:38Z</time>
      </trkpt>
      <trkpt lat="45.739791970700026" lon="7.916906196624041">
        <ele>2369.5599999999999</ele>
        <time>2023-07-23T12:37:52Z</time>
      </trkpt>
      <trkpt lat="45.739885177463293" lon="7.916820030659437">
        <ele>2369.8299999999999</ele>
        <time>2023-07-23T12:38:02Z</time>
      </trkpt>
      <trkpt lat="45.740004619583488" lon="7.91667066514492">
        <ele>2370.4699999999998</ele>
        <time>2023-07-23T12:38:18Z</time>
      </trkpt>
      <trkpt lat="45.740108052268624" lon="7.916557257995009">
        <ele>2369.9699999999998</ele>
        <time>2023-07-23T12:38:33Z</time>
      </trkpt>
      <trkpt lat="45.740120792761445" lon="7.916532028466463">
        <ele>2369.8499999999999</ele>
        <time>2023-07-23T12:38:35Z</time>
      </trkpt>
      <trkpt lat="45.740160690620542" lon="7.916465476155281">
        <ele>2371.5799999999999</ele>
        <time>2023-07-23T12:38:43Z</time>
      </trkpt>
      <trkpt lat="45.740166306495667" lon="7.916436977684498">
        <ele>2372.1900000000001</ele>
        <time>2023-07-23T12:38:46Z</time>
      </trkpt>
      <trkpt lat="45.740190194919705" lon="7.91636573150754">
        <ele>2373.4200000000001</ele>
        <time>2023-07-23T12:38:53Z</time>
      </trkpt>
      <trkpt lat="45.740221375599504" lon="7.916258359327912">
        <ele>2374.46</ele>
        <time>2023-07-23T12:39:01Z</time>
      </trkpt>
      <trkpt lat="45.740234702825546" lon="7.916171858087182">
        <ele>2375.4499999999998</ele>
        <time>2023-07-23T12:39:07Z</time>
      </trkpt>
      <trkpt lat="45.740264123305678" lon="7.916105054318905">
        <ele>2375.0799999999999</ele>
        <time>2023-07-23T12:39:12Z</time>
      </trkpt>
      <trkpt lat="45.74034433811903" lon="7.915925178676844">
        <ele>2374.04</ele>
        <time>2023-07-23T12:39:27Z</time>
      </trkpt>
      <trkpt lat="45.740365628153086" lon="7.915898021310568">
        <ele>2373.7399999999998</ele>
        <time>2023-07-23T12:39:30Z</time>
      </trkpt>
      <trkpt lat="45.740375015884638" lon="7.915862398222089">
        <ele>2373.3600000000001</ele>
        <time>2023-07-23T12:39:33Z</time>
      </trkpt>
      <trkpt lat="45.74040443636477" lon="7.915776735171676">
        <ele>2372.0599999999999</ele>
        <time>2023-07-23T12:39:42Z</time>
      </trkpt>
      <trkpt lat="45.740425977855921" lon="7.915728874504566">
        <ele>2371.2800000000002</ele>
        <time>2023-07-23T12:39:46Z</time>
      </trkpt>
      <trkpt lat="45.740457745268941" lon="7.915676990523934">
        <ele>2370.4899999999998</ele>
        <time>2023-07-23T12:39:51Z</time>
      </trkpt>
      <trkpt lat="45.740491691976786" lon="7.915524775162339">
        <ele>2368.9899999999998</ele>
        <time>2023-07-23T12:40:02Z</time>
      </trkpt>
      <trkpt lat="45.740510299801826" lon="7.915489235892892">
        <ele>2368.6700000000001</ele>
        <time>2023-07-23T12:40:05Z</time>
      </trkpt>
      <trkpt lat="45.740524549037218" lon="7.915403572842479">
        <ele>2367.8200000000002</ele>
        <time>2023-07-23T12:40:11Z</time>
      </trkpt>
      <trkpt lat="45.740548018366098" lon="7.915352191776037">
        <ele>2367.3200000000002</ele>
        <time>2023-07-23T12:40:15Z</time>
      </trkpt>
      <trkpt lat="45.740551957860589" lon="7.915323693305254">
        <ele>2367.3499999999999</ele>
        <time>2023-07-23T12:40:17Z</time>
      </trkpt>
      <trkpt lat="45.740589592605829" lon="7.915148595348001">
        <ele>2366.7800000000002</ele>
        <time>2023-07-23T12:40:29Z</time>
      </trkpt>
      <trkpt lat="45.740592861548066" lon="7.915023537352681">
        <ele>2366.4099999999999</ele>
        <time>2023-07-23T12:40:37Z</time>
      </trkpt>
      <trkpt lat="45.740665784105659" lon="7.91485439054668">
        <ele>2365.4699999999998</ele>
        <time>2023-07-23T12:40:49Z</time>
      </trkpt>
      <trkpt lat="45.740679698064923" lon="7.914830837398768">
        <ele>2365.6599999999999</ele>
        <time>2023-07-23T12:40:51Z</time>
      </trkpt>
      <trkpt lat="45.740730408579111" lon="7.914568316191435">
        <ele>2363.8400000000001</ele>
        <time>2023-07-23T12:41:08Z</time>
      </trkpt>
      <trkpt lat="45.740740466862917" lon="7.914515174925327">
        <ele>2363.4899999999998</ele>
        <time>2023-07-23T12:41:12Z</time>
      </trkpt>
      <trkpt lat="45.740757314488292" lon="7.91449430398643">
        <ele>2363.1399999999999</ele>
        <time>2023-07-23T12:41:14Z</time>
      </trkpt>
      <trkpt lat="45.740774078294635" lon="7.914435882121325">
        <ele>2362.5</ele>
        <time>2023-07-23T12:41:18Z</time>
      </trkpt>
      <trkpt lat="45.740785812959075" lon="7.914407970383763">
        <ele>2362.3400000000001</ele>
        <time>2023-07-23T12:41:20Z</time>
      </trkpt>
      <trkpt lat="45.740809114649892" lon="7.914260113611817">
        <ele>2362</ele>
        <time>2023-07-23T12:41:30Z</time>
      </trkpt>
      <trkpt lat="45.740828895941377" lon="7.914196075871587">
        <ele>2361.3099999999999</ele>
        <time>2023-07-23T12:41:35Z</time>
      </trkpt>
      <trkpt lat="45.740825459361076" lon="7.914155004546046">
        <ele>2360.3400000000001</ele>
        <time>2023-07-23T12:41:38Z</time>
      </trkpt>
      <trkpt lat="45.740827973932028" lon="7.914060959592462">
        <ele>2359.0700000000002</ele>
        <time>2023-07-23T12:41:44Z</time>
      </trkpt>
      <trkpt lat="45.740790423005819" lon="7.913827104493976">
        <ele>2354.5300000000002</ele>
        <time>2023-07-23T12:42:00Z</time>
      </trkpt>
      <trkpt lat="45.740765612572432" lon="7.913616467267275">
        <ele>2351.5</ele>
        <time>2023-07-23T12:42:13Z</time>
      </trkpt>
      <trkpt lat="45.740787237882614" lon="7.913380097597837">
        <ele>2349.8499999999999</ele>
        <time>2023-07-23T12:42:26Z</time>
      </trkpt>
      <trkpt lat="45.740801235660911" lon="7.913310863077641">
        <ele>2349.3299999999999</ele>
        <time>2023-07-23T12:42:30Z</time>
      </trkpt>
      <trkpt lat="45.740817915648222" lon="7.913245568051934">
        <ele>2349.3800000000001</ele>
        <time>2023-07-23T12:42:34Z</time>
      </trkpt>
      <trkpt lat="45.740854041650891" lon="7.913152193650603">
        <ele>2349.2199999999998</ele>
        <time>2023-07-23T12:42:40Z</time>
      </trkpt>
      <trkpt lat="45.740896370261908" lon="7.91302889585495">
        <ele>2349.3800000000001</ele>
        <time>2023-07-23T12:42:48Z</time>
      </trkpt>
      <trkpt lat="45.740965353325009" lon="7.912832843139768">
        <ele>2347.0500000000002</ele>
        <time>2023-07-23T12:43:01Z</time>
      </trkpt>
      <trkpt lat="45.740967113524675" lon="7.912818007171154">
        <ele>2346.8699999999999</ele>
        <time>2023-07-23T12:43:02Z</time>
      </trkpt>
      <trkpt lat="45.740975076332688" lon="7.912792693823576">
        <ele>2346.6799999999998</ele>
        <time>2023-07-23T12:43:04Z</time>
      </trkpt>
      <trkpt lat="45.741037856787443" lon="7.912607034668326">
        <ele>2345.5700000000002</ele>
        <time>2023-07-23T12:43:18Z</time>
      </trkpt>
      <trkpt lat="45.74105286039412" lon="7.912495890632272">
        <ele>2344.1900000000001</ele>
        <time>2023-07-23T12:43:26Z</time>
      </trkpt>
      <trkpt lat="45.741079347208142" lon="7.912390613928437">
        <ele>2341.9499999999998</ele>
        <time>2023-07-23T12:43:34Z</time>
      </trkpt>
      <trkpt lat="45.74108605273068" lon="7.912305369973183">
        <ele>2340.4000000000001</ele>
        <time>2023-07-23T12:43:40Z</time>
      </trkpt>
      <trkpt lat="45.741086974740028" lon="7.912259856238961">
        <ele>2339.6700000000001</ele>
        <time>2023-07-23T12:43:43Z</time>
      </trkpt>
      <trkpt lat="45.741109689697623" lon="7.912107892334461">
        <ele>2337.54</ele>
        <time>2023-07-23T12:43:53Z</time>
      </trkpt>
      <trkpt lat="45.7411437202245" lon="7.911981241777539">
        <ele>2335.5999999999999</ele>
        <time>2023-07-23T12:44:02Z</time>
      </trkpt>
      <trkpt lat="45.741154868155718" lon="7.911921227350831">
        <ele>2334.5700000000002</ele>
        <time>2023-07-23T12:44:06Z</time>
      </trkpt>
      <trkpt lat="45.741153862327337" lon="7.91188845410943">
        <ele>2334.0900000000001</ele>
        <time>2023-07-23T12:44:08Z</time>
      </trkpt>
      <trkpt lat="45.74117498472333" lon="7.911839755252004">
        <ele>2333.1300000000001</ele>
        <time>2023-07-23T12:44:12Z</time>
      </trkpt>
      <trkpt lat="45.741180684417486" lon="7.911767503246665">
        <ele>2331.5100000000002</ele>
        <time>2023-07-23T12:44:17Z</time>
      </trkpt>
      <trkpt lat="45.741192251443863" lon="7.911717463284731">
        <ele>2331.1399999999999</ele>
        <time>2023-07-23T12:44:20Z</time>
      </trkpt>
      <trkpt lat="45.741184204816818" lon="7.911674045026302">
        <ele>2330.6300000000001</ele>
        <time>2023-07-23T12:44:23Z</time>
      </trkpt>
      <trkpt lat="45.741197029128671" lon="7.911647893488407">
        <ele>2330.3400000000001</ele>
        <time>2023-07-23T12:44:25Z</time>
      </trkpt>
      <trkpt lat="45.74123558588326" lon="7.911446057260037">
        <ele>2327.6399999999999</ele>
        <time>2023-07-23T12:44:38Z</time>
      </trkpt>
      <trkpt lat="45.741273891180754" lon="7.911266935989261">
        <ele>2326.0900000000001</ele>
        <time>2023-07-23T12:44:49Z</time>
      </trkpt>
      <trkpt lat="45.74128151871264" lon="7.911233073100448">
        <ele>2325.5100000000002</ele>
        <time>2023-07-23T12:44:51Z</time>
      </trkpt>
      <trkpt lat="45.741281770169735" lon="7.911203065887094">
        <ele>2325.04</ele>
        <time>2023-07-23T12:44:53Z</time>
      </trkpt>
      <trkpt lat="45.741315465420485" lon="7.911126036196947">
        <ele>2324.1199999999999</ele>
        <time>2023-07-23T12:44:59Z</time>
      </trkpt>
      <trkpt lat="45.741321500390768" lon="7.911060824990273">
        <ele>2323.5999999999999</ele>
        <time>2023-07-23T12:45:03Z</time>
      </trkpt>
      <trkpt lat="45.741381011903286" lon="7.910857731476426">
        <ele>2320.6500000000001</ele>
        <time>2023-07-23T12:45:16Z</time>
      </trkpt>
      <trkpt lat="45.741399368271232" lon="7.910795956850052">
        <ele>2319.4299999999998</ele>
        <time>2023-07-23T12:45:20Z</time>
      </trkpt>
      <trkpt lat="45.741430129855871" lon="7.910611387342215">
        <ele>2316.6799999999998</ele>
        <time>2023-07-23T12:45:32Z</time>
      </trkpt>
      <trkpt lat="45.741467345505953" lon="7.910457495599985">
        <ele>2314.8099999999999</ele>
        <time>2023-07-23T12:45:43Z</time>
      </trkpt>
      <trkpt lat="45.741526857018471" lon="7.91033998131752">
        <ele>2312.8200000000002</ele>
        <time>2023-07-23T12:45:52Z</time>
      </trkpt>
      <trkpt lat="45.741560636088252" lon="7.910232860594988">
        <ele>2311.1399999999999</ele>
        <time>2023-07-23T12:45:59Z</time>
      </trkpt>
      <trkpt lat="45.741607742384076" lon="7.910064132884145">
        <ele>2308.5599999999999</ele>
        <time>2023-07-23T12:46:11Z</time>
      </trkpt>
      <trkpt lat="45.741609670221806" lon="7.909959862008691">
        <ele>2307.2800000000002</ele>
        <time>2023-07-23T12:46:17Z</time>
      </trkpt>
      <trkpt lat="45.741606652736664" lon="7.909926753491163">
        <ele>2306.9099999999999</ele>
        <time>2023-07-23T12:46:19Z</time>
      </trkpt>
      <trkpt lat="45.741624254733324" lon="7.909851148724556">
        <ele>2306.0900000000001</ele>
        <time>2023-07-23T12:46:24Z</time>
      </trkpt>
      <trkpt lat="45.74164847843349" lon="7.909822063520551">
        <ele>2305.77</ele>
        <time>2023-07-23T12:46:27Z</time>
      </trkpt>
      <trkpt lat="45.741707235574722" lon="7.909740256145597">
        <ele>2303.1999999999998</ele>
        <time>2023-07-23T12:46:34Z</time>
      </trkpt>
      <trkpt lat="45.741718132048845" lon="7.909636236727238">
        <ele>2302</ele>
        <time>2023-07-23T12:46:40Z</time>
      </trkpt>
      <trkpt lat="45.74172131717205" lon="7.909590555354953">
        <ele>2301.5900000000001</ele>
        <time>2023-07-23T12:46:43Z</time>
      </trkpt>
      <trkpt lat="45.741750150918961" lon="7.909533474594355">
        <ele>2300.9499999999998</ele>
        <time>2023-07-23T12:46:47Z</time>
      </trkpt>
      <trkpt lat="45.741788959130645" lon="7.909393077716231">
        <ele>2299.4400000000001</ele>
        <time>2023-07-23T12:46:56Z</time>
      </trkpt>
      <trkpt lat="45.741783594712615" lon="7.909298948943615">
        <ele>2298.9499999999998</ele>
        <time>2023-07-23T12:47:01Z</time>
      </trkpt>
      <trkpt lat="45.741778649389744" lon="7.909260476008058">
        <ele>2298.6900000000001</ele>
        <time>2023-07-23T12:47:03Z</time>
      </trkpt>
      <trkpt lat="45.741821732372046" lon="7.909092921763659">
        <ele>2296.3299999999999</ele>
        <time>2023-07-23T12:47:13Z</time>
      </trkpt>
      <trkpt lat="45.741892643272877" lon="7.908908016979694">
        <ele>2294.3899999999999</ele>
        <time>2023-07-23T12:47:25Z</time>
      </trkpt>
      <trkpt lat="45.741899181157351" lon="7.908838028088212">
        <ele>2293.6500000000001</ele>
        <time>2023-07-23T12:47:29Z</time>
      </trkpt>
      <trkpt lat="45.741918375715613" lon="7.908644154667854">
        <ele>2291.5700000000002</ele>
        <time>2023-07-23T12:47:43Z</time>
      </trkpt>
      <trkpt lat="45.741916950792074" lon="7.908629653975368">
        <ele>2291.3899999999999</ele>
        <time>2023-07-23T12:47:44Z</time>
      </trkpt>
      <trkpt lat="45.741924829781055" lon="7.908513816073537">
        <ele>2290.0500000000002</ele>
        <time>2023-07-23T12:47:51Z</time>
      </trkpt>
      <trkpt lat="45.741915525868535" lon="7.908377191051841">
        <ele>2289.1799999999998</ele>
        <time>2023-07-23T12:48:00Z</time>
      </trkpt>
      <trkpt lat="45.74192357249558" lon="7.908243583515286">
        <ele>2288.0700000000002</ele>
        <time>2023-07-23T12:48:09Z</time>
      </trkpt>
      <trkpt lat="45.741915525868535" lon="7.908173510804772">
        <ele>2287.6300000000001</ele>
        <time>2023-07-23T12:48:13Z</time>
      </trkpt>
      <trkpt lat="45.741894654929638" lon="7.907942421734333">
        <ele>2287.1300000000001</ele>
        <time>2023-07-23T12:48:27Z</time>
      </trkpt>
      <trkpt lat="45.741900773718953" lon="7.907761875540018">
        <ele>2285.6300000000001</ele>
        <time>2023-07-23T12:48:39Z</time>
      </trkpt>
      <trkpt lat="45.74189574457705" lon="7.907701106742024">
        <ele>2285.3899999999999</ele>
        <time>2023-07-23T12:48:43Z</time>
      </trkpt>
      <trkpt lat="45.741871353238821" lon="7.907599434256554">
        <ele>2284.5700000000002</ele>
        <time>2023-07-23T12:48:52Z</time>
      </trkpt>
      <trkpt lat="45.741826510056853" lon="7.907442525029182">
        <ele>2282.8299999999999</ele>
        <time>2023-07-23T12:49:04Z</time>
      </trkpt>
      <trkpt lat="45.741819804534316" lon="7.907371865585446">
        <ele>2282.98</ele>
        <time>2023-07-23T12:49:08Z</time>
      </trkpt>
      <trkpt lat="45.741758281365037" lon="7.907149996608496">
        <ele>2282.79</ele>
        <time>2023-07-23T12:49:21Z</time>
      </trkpt>
      <trkpt lat="45.741751743480563" lon="7.907100794836879">
        <ele>2282.4200000000001</ele>
        <time>2023-07-23T12:49:24Z</time>
      </trkpt>
      <trkpt lat="45.741718551144004" lon="7.906970959156752">
        <ele>2281.75</ele>
        <time>2023-07-23T12:49:33Z</time>
      </trkpt>
      <trkpt lat="45.74171151034534" lon="7.906928462907672">
        <ele>2281.7800000000002</ele>
        <time>2023-07-23T12:49:36Z</time>
      </trkpt>
      <trkpt lat="45.741689633578062" lon="7.906877836212516">
        <ele>2281.6700000000001</ele>
        <time>2023-07-23T12:49:47Z</time>
      </trkpt>
      <trkpt lat="45.741673121228814" lon="7.906839195638895">
        <ele>2281.1700000000001</ele>
        <time>2023-07-23T12:49:50Z</time>
      </trkpt>
      <trkpt lat="45.74165971018374" lon="7.906590588390827">
        <ele>2276.9899999999998</ele>
        <time>2023-07-23T12:50:05Z</time>
      </trkpt>
      <trkpt lat="45.741662140935659" lon="7.906496794894338">
        <ele>2275.8600000000001</ele>
        <time>2023-07-23T12:50:11Z</time>
      </trkpt>
      <trkpt lat="45.741663817316294" lon="7.906412808224559">
        <ele>2274.4499999999998</ele>
        <time>2023-07-23T12:50:16Z</time>
      </trkpt>
      <trkpt lat="45.741670271381736" lon="7.906381795182824">
        <ele>2273.8699999999999</ele>
        <time>2023-07-23T12:50:18Z</time>
      </trkpt>
      <trkpt lat="45.741659877821803" lon="7.906190855428577">
        <ele>2272.1199999999999</ele>
        <time>2023-07-23T12:50:29Z</time>
      </trkpt>
      <trkpt lat="45.741668343544006" lon="7.906145257875323">
        <ele>2271.3000000000002</ele>
        <time>2023-07-23T12:50:32Z</time>
      </trkpt>
      <trkpt lat="45.741648226976395" lon="7.905997820198536">
        <ele>2269.5900000000001</ele>
        <time>2023-07-23T12:50:42Z</time>
      </trkpt>
      <trkpt lat="45.741640599444509" lon="7.905967310070992">
        <ele>2268.79</ele>
        <time>2023-07-23T12:50:44Z</time>
      </trkpt>
      <trkpt lat="45.741644287481904" lon="7.905928753316402">
        <ele>2266.75</ele>
        <time>2023-07-23T12:50:47Z</time>
      </trkpt>
      <trkpt lat="45.741660632193089" lon="7.905738651752472">
        <ele>2262.6900000000001</ele>
        <time>2023-07-23T12:50:58Z</time>
      </trkpt>
      <trkpt lat="45.741664990782738" lon="7.905653575435281">
        <ele>2262.6500000000001</ele>
        <time>2023-07-23T12:51:03Z</time>
      </trkpt>
      <trkpt lat="45.741668427363038" lon="7.905536815524101">
        <ele>2262.77</ele>
        <time>2023-07-23T12:51:11Z</time>
      </trkpt>
      <trkpt lat="45.74167680926621" lon="7.905464060604572">
        <ele>2263.3099999999999</ele>
        <time>2023-07-23T12:51:17Z</time>
      </trkpt>
      <trkpt lat="45.741683430969715" lon="7.905404297634959">
        <ele>2262.9400000000001</ele>
        <time>2023-07-23T12:51:22Z</time>
      </trkpt>
      <trkpt lat="45.741661554202437" lon="7.905365824699402">
        <ele>2262.6199999999999</ele>
        <time>2023-07-23T12:51:25Z</time>
      </trkpt>
      <trkpt lat="45.741676641628146" lon="7.905298266559839">
        <ele>2261.7800000000002</ele>
        <time>2023-07-23T12:51:30Z</time>
      </trkpt>
      <trkpt lat="45.741701871156693" lon="7.905214196071029">
        <ele>2259.54</ele>
        <time>2023-07-23T12:51:37Z</time>
      </trkpt>
      <trkpt lat="45.741688460111618" lon="7.905180081725121">
        <ele>2258.1799999999998</ele>
        <time>2023-07-23T12:51:40Z</time>
      </trkpt>
      <trkpt lat="45.741693070158362" lon="7.905074721202254">
        <ele>2256.3699999999999</ele>
        <time>2023-07-23T12:51:49Z</time>
      </trkpt>
      <trkpt lat="45.741686699911952" lon="7.905049994587898">
        <ele>2256.2399999999998</ele>
        <time>2023-07-23T12:51:51Z</time>
      </trkpt>
      <trkpt lat="45.741728525608778" lon="7.904929127544165">
        <ele>2255.02</ele>
        <time>2023-07-23T12:52:03Z</time>
      </trkpt>
      <trkpt lat="45.74172031134367" lon="7.904818654060364">
        <ele>2253.9499999999998</ele>
        <time>2023-07-23T12:52:11Z</time>
      </trkpt>
      <trkpt lat="45.741760795935988" lon="7.904745396226645">
        <ele>2253.3200000000002</ele>
        <time>2023-07-23T12:52:16Z</time>
      </trkpt>
      <trkpt lat="45.741822235286236" lon="7.904630480334163">
        <ele>2251.25</ele>
        <time>2023-07-23T12:52:32Z</time>
      </trkpt>
      <trkpt lat="45.741819972172379" lon="7.904635928571224">
        <ele>2250.9499999999998</ele>
        <time>2023-07-23T12:52:47Z</time>
      </trkpt>
      <trkpt lat="45.741815278306603" lon="7.904637940227985">
        <ele>2250.5500000000002</ele>
        <time>2023-07-23T12:53:03Z</time>
      </trkpt>
      <trkpt lat="45.74181460775435" lon="7.904638191685081">
        <ele>2250.21</ele>
        <time>2023-07-23T12:53:19Z</time>
      </trkpt>
      <trkpt lat="45.741812260821462" lon="7.904643220826984">
        <ele>2250.0300000000002</ele>
        <time>2023-07-23T12:53:38Z</time>
      </trkpt>
      <trkpt lat="45.741824833676219" lon="7.90458831936121">
        <ele>2250</ele>
        <time>2023-07-23T12:53:56Z</time>
      </trkpt>
      <trkpt lat="45.741833969950676" lon="7.904586223885417">
        <ele>2249.8600000000001</ele>
        <time>2023-07-23T12:53:59Z</time>
      </trkpt>
      <trkpt lat="45.741848303005099" lon="7.904546409845352">
        <ele>2249.6100000000001</ele>
        <time>2023-07-23T12:54:03Z</time>
      </trkpt>
      <trkpt lat="45.741887027397752" lon="7.904416574165225">
        <ele>2248.3699999999999</ele>
        <time>2023-07-23T12:54:12Z</time>
      </trkpt>
      <trkpt lat="45.741944443434477" lon="7.904262263327837">
        <ele>2243.5300000000002</ele>
        <time>2023-07-23T12:54:27Z</time>
      </trkpt>
      <trkpt lat="45.741980485618114" lon="7.904223036020994">
        <ele>2241.8000000000002</ele>
        <time>2023-07-23T12:54:33Z</time>
      </trkpt>
      <trkpt lat="45.74211903847754" lon="7.904048357158899">
        <ele>2240.0300000000002</ele>
        <time>2023-07-23T12:54:51Z</time>
      </trkpt>
      <trkpt lat="45.742230601608753" lon="7.903861356899142">
        <ele>2239.0599999999999</ele>
        <time>2023-07-23T12:55:05Z</time>
      </trkpt>
      <trkpt lat="45.742285251617432" lon="7.903738897293806">
        <ele>2237.9699999999998</ele>
        <time>2023-07-23T12:55:22Z</time>
      </trkpt>
      <trkpt lat="45.742287850007415" lon="7.903730096295476">
        <ele>2237.73</ele>
        <time>2023-07-23T12:55:42Z</time>
      </trkpt>
      <trkpt lat="45.742331771180034" lon="7.903643427416682">
        <ele>2237.04</ele>
        <time>2023-07-23T12:55:55Z</time>
      </trkpt>
      <trkpt lat="45.742345685139298" lon="7.903583664447069">
        <ele>2236.5700000000002</ele>
        <time>2023-07-23T12:56:01Z</time>
      </trkpt>
      <trkpt lat="45.742443753406405" lon="7.903395155444741">
        <ele>2234.3400000000001</ele>
        <time>2023-07-23T12:56:16Z</time>
      </trkpt>
      <trkpt lat="45.742555232718587" lon="7.903177728876472">
        <ele>2232.1700000000001</ele>
        <time>2023-07-23T12:56:36Z</time>
      </trkpt>
      <trkpt lat="45.742579959332943" lon="7.903101118281484">
        <ele>2231.5900000000001</ele>
        <time>2023-07-23T12:56:42Z</time>
      </trkpt>
      <trkpt lat="45.742630921304226" lon="7.902988465502858">
        <ele>2230.73</ele>
        <time>2023-07-23T12:56:51Z</time>
      </trkpt>
      <trkpt lat="45.742649612948298" lon="7.902955189347267">
        <ele>2230.4499999999998</ele>
        <time>2023-07-23T12:56:54Z</time>
      </trkpt>
      <trkpt lat="45.74266579002142" lon="7.902916297316551">
        <ele>2230.0599999999999</ele>
        <time>2023-07-23T12:56:58Z</time>
      </trkpt>
      <trkpt lat="45.742688924074173" lon="7.902776738628745">
        <ele>2229.6900000000001</ele>
        <time>2023-07-23T12:57:08Z</time>
      </trkpt>
      <trkpt lat="45.742736449465156" lon="7.90266266092658">
        <ele>2229.0700000000002</ele>
        <time>2023-07-23T12:57:20Z</time>
      </trkpt>
      <trkpt lat="45.742822531610727" lon="7.902512792497873">
        <ele>2228.7600000000002</ele>
        <time>2023-07-23T12:57:34Z</time>
      </trkpt>
      <trkpt lat="45.742933005094528" lon="7.902338448911905">
        <ele>2228.2199999999998</ele>
        <time>2023-07-23T12:57:49Z</time>
      </trkpt>
      <trkpt lat="45.742957312613726" lon="7.902292935177684">
        <ele>2228.0900000000001</ele>
        <time>2023-07-23T12:57:53Z</time>
      </trkpt>
      <trkpt lat="45.743055297061801" lon="7.902169469743967">
        <ele>2227.5799999999999</ele>
        <time>2023-07-23T12:58:04Z</time>
      </trkpt>
      <trkpt lat="45.743117155507207" lon="7.902096211910248">
        <ele>2226.79</ele>
        <time>2023-07-23T12:58:13Z</time>
      </trkpt>
      <trkpt lat="45.743151186034083" lon="7.902055392041802">
        <ele>2226.3899999999999</ele>
        <time>2023-07-23T12:58:17Z</time>
      </trkpt>
      <trkpt lat="45.743304323405027" lon="7.901935111731291">
        <ele>2226.5900000000001</ele>
        <time>2023-07-23T12:58:33Z</time>
      </trkpt>
      <trkpt lat="45.743441786617041" lon="7.901821788400412">
        <ele>2226.0700000000002</ele>
        <time>2023-07-23T12:58:48Z</time>
      </trkpt>
      <trkpt lat="45.743469782173634" lon="7.901770994067192">
        <ele>2224.98</ele>
        <time>2023-07-23T12:58:52Z</time>
      </trkpt>
      <trkpt lat="45.743505740538239" lon="7.901728581637144">
        <ele>2224.7199999999998</ele>
        <time>2023-07-23T12:58:56Z</time>
      </trkpt>
      <trkpt lat="45.743548655882478" lon="7.901656497269869">
        <ele>2224.3499999999999</ele>
        <time>2023-07-23T12:59:04Z</time>
      </trkpt>
      <trkpt lat="45.743668433278799" lon="7.901650546118617">
        <ele>2223.9299999999998</ele>
        <time>2023-07-23T12:59:18Z</time>
      </trkpt>
      <trkpt lat="45.743711767718196" lon="7.901603523641825">
        <ele>2222.9699999999998</ele>
        <time>2023-07-23T12:59:34Z</time>
      </trkpt>
      <trkpt lat="45.743763064965606" lon="7.901509562507272">
        <ele>2221.3800000000001</ele>
        <time>2023-07-23T12:59:49Z</time>
      </trkpt>
      <trkpt lat="45.743838585913181" lon="7.90154904127121">
        <ele>2220.0300000000002</ele>
        <time>2023-07-23T13:00:03Z</time>
      </trkpt>
      <trkpt lat="45.74394310824573" lon="7.901509311050177">
        <ele>2218.1399999999999</ele>
        <time>2023-07-23T13:00:17Z</time>
      </trkpt>
      <trkpt lat="45.743975210934877" lon="7.901439238339663">
        <ele>2217.02</ele>
        <time>2023-07-23T13:00:25Z</time>
      </trkpt>
      <trkpt lat="45.744102196767926" lon="7.901433287188411">
        <ele>2213.7800000000002</ele>
        <time>2023-07-23T13:00:42Z</time>
      </trkpt>
      <trkpt lat="45.744165480136871" lon="7.901333207264543">
        <ele>2211.2800000000002</ele>
        <time>2023-07-23T13:00:55Z</time>
      </trkpt>
      <trkpt lat="45.744247371330857" lon="7.901258440688252">
        <ele>2208.4899999999998</ele>
        <time>2023-07-23T13:01:10Z</time>
      </trkpt>
      <trkpt lat="45.744336051866412" lon="7.901167329400778">
        <ele>2206.2399999999998</ele>
        <time>2023-07-23T13:01:26Z</time>
      </trkpt>
      <trkpt lat="45.744408471509814" lon="7.901075631380081">
        <ele>2203.6900000000001</ele>
        <time>2023-07-23T13:01:42Z</time>
      </trkpt>
      <trkpt lat="45.744466977193952" lon="7.900980077683926">
        <ele>2200.5799999999999</ele>
        <time>2023-07-23T13:01:57Z</time>
      </trkpt>
      <trkpt lat="45.744535038247705" lon="7.90089868940413">
        <ele>2198.0300000000002</ele>
        <time>2023-07-23T13:02:09Z</time>
      </trkpt>
      <trkpt lat="45.74455238878727" lon="7.900884859263897">
        <ele>2197.4699999999998</ele>
        <time>2023-07-23T13:02:11Z</time>
      </trkpt>
      <trkpt lat="45.744601422920823" lon="7.900816630572081">
        <ele>2195.5599999999999</ele>
        <time>2023-07-23T13:02:20Z</time>
      </trkpt>
      <trkpt lat="45.744646936655045" lon="7.900689644739032">
        <ele>2192.5700000000002</ele>
        <time>2023-07-23T13:02:35Z</time>
      </trkpt>
      <trkpt lat="45.744653223082423" lon="7.900632983073592">
        <ele>2190.3400000000001</ele>
        <time>2023-07-23T13:02:48Z</time>
      </trkpt>
      <trkpt lat="45.744640398770571" lon="7.90056400001049">
        <ele>2189.02</ele>
        <time>2023-07-23T13:02:55Z</time>
      </trkpt>
      <trkpt lat="45.744716338813305" lon="7.900401474907994">
        <ele>2185.4400000000001</ele>
        <time>2023-07-23T13:03:11Z</time>
      </trkpt>
      <trkpt lat="45.744751542806625" lon="7.900279350578785">
        <ele>2182.2199999999998</ele>
        <time>2023-07-23T13:03:25Z</time>
      </trkpt>
      <trkpt lat="45.744818933308125" lon="7.900119004771113">
        <ele>2179.3800000000001</ele>
        <time>2023-07-23T13:03:41Z</time>
      </trkpt>
      <trkpt lat="45.744832176715136" lon="7.900016829371452">
        <ele>2176.6900000000001</ele>
        <time>2023-07-23T13:03:52Z</time>
      </trkpt>
      <trkpt lat="45.744841564446688" lon="7.899963017553091">
        <ele>2176.3099999999999</ele>
        <time>2023-07-23T13:03:56Z</time>
      </trkpt>
      <trkpt lat="45.744841145351529" lon="7.899867380037904">
        <ele>2174.3400000000001</ele>
        <time>2023-07-23T13:04:04Z</time>
      </trkpt>
      <trkpt lat="45.744852712377906" lon="7.899815496057272">
        <ele>2173.3499999999999</ele>
        <time>2023-07-23T13:04:09Z</time>
      </trkpt>
      <trkpt lat="45.744837122038007" lon="7.8996776137501">
        <ele>2169.6900000000001</ele>
        <time>2023-07-23T13:04:23Z</time>
      </trkpt>
      <trkpt lat="45.744811557233334" lon="7.899555154144764">
        <ele>2165.8200000000002</ele>
        <time>2023-07-23T13:04:37Z</time>
      </trkpt>
      <trkpt lat="45.744789931923151" lon="7.899510394781828">
        <ele>2165.4699999999998</ele>
        <time>2023-07-23T13:04:42Z</time>
      </trkpt>
      <trkpt lat="45.744777107611299" lon="7.899417439475656">
        <ele>2163.6199999999999</ele>
        <time>2023-07-23T13:04:52Z</time>
      </trkpt>
      <trkpt lat="45.744774676859379" lon="7.899390114471316">
        <ele>2163.2199999999998</ele>
        <time>2023-07-23T13:04:54Z</time>
      </trkpt>
      <trkpt lat="45.744800660759211" lon="7.899243095889688">
        <ele>2160.73</ele>
        <time>2023-07-23T13:05:08Z</time>
      </trkpt>
      <trkpt lat="45.744822537526488" lon="7.899186769500375">
        <ele>2159.6300000000001</ele>
        <time>2023-07-23T13:05:14Z</time>
      </trkpt>
      <trkpt lat="45.744846761226654" lon="7.899132622405887">
        <ele>2158.6799999999998</ele>
        <time>2023-07-23T13:05:19Z</time>
      </trkpt>
      <trkpt lat="45.744856987148523" lon="7.89909515529871">
        <ele>2157.9400000000001</ele>
        <time>2023-07-23T13:05:22Z</time>
      </trkpt>
      <trkpt lat="45.744871152564883" lon="7.898992393165827">
        <ele>2157.0799999999999</ele>
        <time>2023-07-23T13:05:29Z</time>
      </trkpt>
      <trkpt lat="45.744883557781577" lon="7.898967415094376">
        <ele>2156.6399999999999</ele>
        <time>2023-07-23T13:05:31Z</time>
      </trkpt>
      <trkpt lat="45.744901243597269" lon="7.89882349781692">
        <ele>2154.5900000000001</ele>
        <time>2023-07-23T13:05:44Z</time>
      </trkpt>
      <trkpt lat="45.744935860857368" lon="7.898669270798564">
        <ele>2151.6799999999998</ele>
        <time>2023-07-23T13:05:58Z</time>
      </trkpt>
      <trkpt lat="45.744936279952526" lon="7.898642951622605">
        <ele>2151.27</ele>
        <time>2023-07-23T13:06:00Z</time>
      </trkpt>
      <trkpt lat="45.74493208900094" lon="7.898540357127786">
        <ele>2149.2199999999998</ele>
        <time>2023-07-23T13:06:12Z</time>
      </trkpt>
      <trkpt lat="45.744924545288086" lon="7.898497693240643">
        <ele>2148.8400000000001</ele>
        <time>2023-07-23T13:06:15Z</time>
      </trkpt>
      <trkpt lat="45.744914906099439" lon="7.898428374901414">
        <ele>2148.4099999999999</ele>
        <time>2023-07-23T13:06:21Z</time>
      </trkpt>
      <trkpt lat="45.744905602186918" lon="7.898350674659014">
        <ele>2147.3000000000002</ele>
        <time>2023-07-23T13:06:28Z</time>
      </trkpt>
      <trkpt lat="45.744893616065383" lon="7.898325193673372">
        <ele>2146.9499999999998</ele>
        <time>2023-07-23T13:06:30Z</time>
      </trkpt>
      <trkpt lat="45.744864111766219" lon="7.898273393511772">
        <ele>2146.4899999999998</ele>
        <time>2023-07-23T13:06:35Z</time>
      </trkpt>
      <trkpt lat="45.744851622730494" lon="7.898094691336155">
        <ele>2145.25</ele>
        <time>2023-07-23T13:06:50Z</time>
      </trkpt>
      <trkpt lat="45.744858328253031" lon="7.898053703829646">
        <ele>2144.3899999999999</ele>
        <time>2023-07-23T13:06:54Z</time>
      </trkpt>
      <trkpt lat="45.744860423728824" lon="7.898026630282402">
        <ele>2144.0900000000001</ele>
        <time>2023-07-23T13:06:56Z</time>
      </trkpt>
      <trkpt lat="45.744855143129826" lon="7.897962676361203">
        <ele>2142.4699999999998</ele>
        <time>2023-07-23T13:07:02Z</time>
      </trkpt>
      <trkpt lat="45.744834020733833" lon="7.897924706339836">
        <ele>2141.9499999999998</ele>
        <time>2023-07-23T13:07:05Z</time>
      </trkpt>
      <trkpt lat="45.744888167828321" lon="7.897718092426658">
        <ele>2139.3299999999999</ele>
        <time>2023-07-23T13:07:20Z</time>
      </trkpt>
      <trkpt lat="45.744908452033997" lon="7.89766545407474">
        <ele>2138.4899999999998</ele>
        <time>2023-07-23T13:07:24Z</time>
      </trkpt>
      <trkpt lat="45.744953714311123" lon="7.897596890106797">
        <ele>2137.8800000000001</ele>
        <time>2023-07-23T13:07:30Z</time>
      </trkpt>
      <trkpt lat="45.745052704587579" lon="7.897433107718825">
        <ele>2136.6999999999998</ele>
        <time>2023-07-23T13:07:44Z</time>
      </trkpt>
      <trkpt lat="45.745157729834318" lon="7.897204197943211">
        <ele>2133.1900000000001</ele>
        <time>2023-07-23T13:08:01Z</time>
      </trkpt>
      <trkpt lat="45.745229227468371" lon="7.897024322301149">
        <ele>2130.3099999999999</ele>
        <time>2023-07-23T13:08:14Z</time>
      </trkpt>
      <trkpt lat="45.745230903849006" lon="7.897010240703821">
        <ele>2129.96</ele>
        <time>2023-07-23T13:08:15Z</time>
      </trkpt>
      <trkpt lat="45.745255462825298" lon="7.896830113604665">
        <ele>2127.7600000000002</ele>
        <time>2023-07-23T13:08:28Z</time>
      </trkpt>
      <trkpt lat="45.745285721495748" lon="7.896721819415689">
        <ele>2127.3699999999999</ele>
        <time>2023-07-23T13:08:36Z</time>
      </trkpt>
      <trkpt lat="45.7453244458884" lon="7.896579578518868">
        <ele>2124.04</ele>
        <time>2023-07-23T13:08:48Z</time>
      </trkpt>
      <trkpt lat="45.745351854711771" lon="7.896455442532897">
        <ele>2123.4299999999998</ele>
        <time>2023-07-23T13:08:56Z</time>
      </trkpt>
      <trkpt lat="45.745352525264025" lon="7.896218486130238">
        <ele>2121.3400000000001</ele>
        <time>2023-07-23T13:09:12Z</time>
      </trkpt>
      <trkpt lat="45.745347579941154" lon="7.896201554685831">
        <ele>2121.1100000000001</ele>
        <time>2023-07-23T13:09:14Z</time>
      </trkpt>
      <trkpt lat="45.745280105620623" lon="7.896094769239426">
        <ele>2120.77</ele>
        <time>2023-07-23T13:09:27Z</time>
      </trkpt>
      <trkpt lat="45.745274573564529" lon="7.896008100360632">
        <ele>2118.77</ele>
        <time>2023-07-23T13:09:35Z</time>
      </trkpt>
      <trkpt lat="45.745262335985899" lon="7.895899470895529">
        <ele>2115.1900000000001</ele>
        <time>2023-07-23T13:09:48Z</time>
      </trkpt>
      <trkpt lat="45.745261246338487" lon="7.89587214589119">
        <ele>2114.6700000000001</ele>
        <time>2023-07-23T13:09:50Z</time>
      </trkpt>
      <trkpt lat="45.745257474482059" lon="7.895810203626752">
        <ele>2113.5500000000002</ele>
        <time>2023-07-23T13:09:55Z</time>
      </trkpt>
      <trkpt lat="45.745250936597586" lon="7.895701993256807">
        <ele>2111.8299999999999</ele>
        <time>2023-07-23T13:10:04Z</time>
      </trkpt>
      <trkpt lat="45.745186563581228" lon="7.895618844777346">
        <ele>2111.1799999999998</ele>
        <time>2023-07-23T13:10:13Z</time>
      </trkpt>
      <trkpt lat="45.745156807824969" lon="7.89549982175231">
        <ele>2109.7399999999998</ele>
        <time>2023-07-23T13:10:22Z</time>
      </trkpt>
      <trkpt lat="45.745159070938826" lon="7.895381050184369">
        <ele>2106.98</ele>
        <time>2023-07-23T13:10:34Z</time>
      </trkpt>
      <trkpt lat="45.745174158364534" lon="7.895232439041138">
        <ele>2104.6100000000001</ele>
        <time>2023-07-23T13:10:46Z</time>
      </trkpt>
      <trkpt lat="45.745177930220962" lon="7.895185416564345">
        <ele>2104</ele>
        <time>2023-07-23T13:10:49Z</time>
      </trkpt>
      <trkpt lat="45.745176924392581" lon="7.895120708271861">
        <ele>2103.1900000000001</ele>
        <time>2023-07-23T13:10:53Z</time>
      </trkpt>
      <trkpt lat="45.745182121172547" lon="7.895040493458509">
        <ele>2102.4499999999998</ele>
        <time>2023-07-23T13:10:58Z</time>
      </trkpt>
      <trkpt lat="45.745174661278725" lon="7.894979473203421">
        <ele>2102.0799999999999</ele>
        <time>2023-07-23T13:11:02Z</time>
      </trkpt>
      <trkpt lat="45.745189916342497" lon="7.89475467056036">
        <ele>2099.8400000000001</ele>
        <time>2023-07-23T13:11:16Z</time>
      </trkpt>
      <trkpt lat="45.74518907815218" lon="7.894721478223801">
        <ele>2099.8200000000002</ele>
        <time>2023-07-23T13:11:18Z</time>
      </trkpt>
      <trkpt lat="45.745201231911778" lon="7.894662721082568">
        <ele>2099.3600000000001</ele>
        <time>2023-07-23T13:11:22Z</time>
      </trkpt>
      <trkpt lat="45.745205674320459" lon="7.894594743847847">
        <ele>2099.02</ele>
        <time>2023-07-23T13:11:26Z</time>
      </trkpt>
      <trkpt lat="45.745205674320459" lon="7.89449910633266">
        <ele>2097.6300000000001</ele>
        <time>2023-07-23T13:11:33Z</time>
      </trkpt>
      <trkpt lat="45.74523501098156" lon="7.89437647908926">
        <ele>2095.4899999999998</ele>
        <time>2023-07-23T13:11:43Z</time>
      </trkpt>
      <trkpt lat="45.74524724856019" lon="7.894347896799445">
        <ele>2094.75</ele>
        <time>2023-07-23T13:11:46Z</time>
      </trkpt>
      <trkpt lat="45.745246158912778" lon="7.894324595108628">
        <ele>2094.1500000000001</ele>
        <time>2023-07-23T13:11:48Z</time>
      </trkpt>
      <trkpt lat="45.74525797739625" lon="7.89429584518075">
        <ele>2093.1100000000001</ele>
        <time>2023-07-23T13:11:51Z</time>
      </trkpt>
      <trkpt lat="45.745240710675716" lon="7.894181935116649">
        <ele>2091.6900000000001</ele>
        <time>2023-07-23T13:11:58Z</time>
      </trkpt>
      <trkpt lat="45.745241632685065" lon="7.894151005893946">
        <ele>2091.5799999999999</ele>
        <time>2023-07-23T13:12:00Z</time>
      </trkpt>
      <trkpt lat="45.745222270488739" lon="7.894059140235186">
        <ele>2091.6199999999999</ele>
        <time>2023-07-23T13:12:06Z</time>
      </trkpt>
      <trkpt lat="45.745215564966202" lon="7.893963921815157">
        <ele>2090.6900000000001</ele>
        <time>2023-07-23T13:12:13Z</time>
      </trkpt>
      <trkpt lat="45.745259821414948" lon="7.893893094733357">
        <ele>2089.9200000000001</ele>
        <time>2023-07-23T13:12:21Z</time>
      </trkpt>
      <trkpt lat="45.745273232460022" lon="7.893869122490287">
        <ele>2089.9000000000001</ele>
        <time>2023-07-23T13:12:23Z</time>
      </trkpt>
      <trkpt lat="45.745343053713441" lon="7.893682206049562">
        <ele>2089.8899999999999</ele>
        <time>2023-07-23T13:12:37Z</time>
      </trkpt>
      <trkpt lat="45.745354536920786" lon="7.89359319023788">
        <ele>2089.0900000000001</ele>
        <time>2023-07-23T13:12:43Z</time>
      </trkpt>
      <trkpt lat="45.745376581326127" lon="7.893469808623195">
        <ele>2089.3099999999999</ele>
        <time>2023-07-23T13:12:52Z</time>
      </trkpt>
      <trkpt lat="45.745503315702081" lon="7.893354222178459">
        <ele>2088.3600000000001</ele>
        <time>2023-07-23T13:13:07Z</time>
      </trkpt>
      <trkpt lat="45.745634911581874" lon="7.893295884132385">
        <ele>2086.5799999999999</ele>
        <time>2023-07-23T13:13:19Z</time>
      </trkpt>
      <trkpt lat="45.745723508298397" lon="7.893240815028548">
        <ele>2082.4000000000001</ele>
        <time>2023-07-23T13:13:32Z</time>
      </trkpt>
      <trkpt lat="45.745767597109079" lon="7.893234360963106">
        <ele>2082.25</ele>
        <time>2023-07-23T13:13:46Z</time>
      </trkpt>
      <trkpt lat="45.745862144976854" lon="7.893245508894324">
        <ele>2079.3800000000001</ele>
        <time>2023-07-23T13:14:02Z</time>
      </trkpt>
      <trkpt lat="45.745887290686369" lon="7.893179375678301">
        <ele>2076.9400000000001</ele>
        <time>2023-07-23T13:14:09Z</time>
      </trkpt>
      <trkpt lat="45.745934313163161" lon="7.893143082037568">
        <ele>2075.96</ele>
        <time>2023-07-23T13:14:16Z</time>
      </trkpt>
      <trkpt lat="45.74602609500289" lon="7.893198318779469">
        <ele>2071.25</ele>
        <time>2023-07-23T13:14:30Z</time>
      </trkpt>
      <trkpt lat="45.746100274845958" lon="7.893193457275629">
        <ele>2071.3000000000002</ele>
        <time>2023-07-23T13:14:41Z</time>
      </trkpt>
      <trkpt lat="45.746139418333769" lon="7.893280796706677">
        <ele>2069.7600000000002</ele>
        <time>2023-07-23T13:14:55Z</time>
      </trkpt>
      <trkpt lat="45.746154170483351" lon="7.89324383251369">
        <ele>2069.04</ele>
        <time>2023-07-23T13:14:59Z</time>
      </trkpt>
      <trkpt lat="45.746180154383183" lon="7.893163030967116">
        <ele>2067.7800000000002</ele>
        <time>2023-07-23T13:15:08Z</time>
      </trkpt>
      <trkpt lat="45.746223907917738" lon="7.893062615767121">
        <ele>2065.3299999999999</ele>
        <time>2023-07-23T13:15:21Z</time>
      </trkpt>
      <trkpt lat="45.746233044192195" lon="7.893005954101682">
        <ele>2064.5</ele>
        <time>2023-07-23T13:15:26Z</time>
      </trkpt>
      <trkpt lat="45.746238240972161" lon="7.892878632992506">
        <ele>2062.8800000000001</ele>
        <time>2023-07-23T13:15:36Z</time>
      </trkpt>
      <trkpt lat="45.746259782463312" lon="7.8928202111274">
        <ele>2059.8499999999999</ele>
        <time>2023-07-23T13:15:44Z</time>
      </trkpt>
      <trkpt lat="45.746295992285013" lon="7.89278157055378">
        <ele>2058.6900000000001</ele>
        <time>2023-07-23T13:15:49Z</time>
      </trkpt>
      <trkpt lat="45.746359275653958" lon="7.89262717589736">
        <ele>2056.3000000000002</ele>
        <time>2023-07-23T13:16:04Z</time>
      </trkpt>
      <trkpt lat="45.74637645855546" lon="7.89258954115212">
        <ele>2055.8400000000001</ele>
        <time>2023-07-23T13:16:07Z</time>
      </trkpt>
      <trkpt lat="45.746414931491017" lon="7.892376054078341">
        <ele>2054.5900000000001</ele>
        <time>2023-07-23T13:16:23Z</time>
      </trkpt>
      <trkpt lat="45.746410069987178" lon="7.892360966652632">
        <ele>2054.5500000000002</ele>
        <time>2023-07-23T13:16:24Z</time>
      </trkpt>
      <trkpt lat="45.746410069987178" lon="7.892313860356808">
        <ele>2054.9200000000001</ele>
        <time>2023-07-23T13:16:27Z</time>
      </trkpt>
      <trkpt lat="45.746400011703372" lon="7.892277482897043">
        <ele>2054.9099999999999</ele>
        <time>2023-07-23T13:16:30Z</time>
      </trkpt>
      <trkpt lat="45.746388444676995" lon="7.892168937250972">
        <ele>2055.4499999999998</ele>
        <time>2023-07-23T13:16:37Z</time>
      </trkpt>
      <trkpt lat="45.746381320059299" lon="7.892118478193879">
        <ele>2055.9899999999998</ele>
        <time>2023-07-23T13:16:41Z</time>
      </trkpt>
      <trkpt lat="45.746407471597195" lon="7.892062570899725">
        <ele>2057</ele>
        <time>2023-07-23T13:16:46Z</time>
      </trkpt>
      <trkpt lat="45.746395401656628" lon="7.89192846044898">
        <ele>2056.4400000000001</ele>
        <time>2023-07-23T13:16:56Z</time>
      </trkpt>
      <trkpt lat="45.746372016146779" lon="7.89186199195683">
        <ele>2056.4299999999998</ele>
        <time>2023-07-23T13:17:11Z</time>
      </trkpt>
      <trkpt lat="45.746395401656628" lon="7.891824441030622">
        <ele>2056.3600000000001</ele>
        <time>2023-07-23T13:17:23Z</time>
      </trkpt>
      <trkpt lat="45.746383834630251" lon="7.891806336119771">
        <ele>2057.52</ele>
        <time>2023-07-23T13:17:36Z</time>
      </trkpt>
      <trkpt lat="45.746380649507046" lon="7.891797870397568">
        <ele>2058.3000000000002</ele>
        <time>2023-07-23T13:17:45Z</time>
      </trkpt>
      <trkpt lat="45.74637989513576" lon="7.891798624768853">
        <ele>2058.4099999999999</ele>
        <time>2023-07-23T13:17:54Z</time>
      </trkpt>
      <trkpt lat="45.746385175734758" lon="7.891801139339805">
        <ele>2058.6999999999998</ele>
        <time>2023-07-23T13:18:04Z</time>
      </trkpt>
      <trkpt lat="45.746405208483338" lon="7.891803402453661">
        <ele>2057.98</ele>
        <time>2023-07-23T13:18:19Z</time>
      </trkpt>
      <trkpt lat="45.746412836015224" lon="7.891804911196232">
        <ele>2057.3299999999999</ele>
        <time>2023-07-23T13:18:32Z</time>
      </trkpt>
      <trkpt lat="45.74642582796514" lon="7.891825446859002">
        <ele>2057.96</ele>
        <time>2023-07-23T13:18:43Z</time>
      </trkpt>
      <trkpt lat="45.746411746367812" lon="7.891811784356833">
        <ele>2058.0100000000002</ele>
        <time>2023-07-23T13:18:53Z</time>
      </trkpt>
      <trkpt lat="45.746409399434924" lon="7.891828631982207">
        <ele>2061.3299999999999</ele>
        <time>2023-07-23T13:19:15Z</time>
      </trkpt>
      <trkpt lat="45.746414931491017" lon="7.89183558896184">
        <ele>2062.9400000000001</ele>
        <time>2023-07-23T13:19:31Z</time>
      </trkpt>
      <trkpt lat="45.746421050280333" lon="7.89184489287436">
        <ele>2063.8600000000001</ele>
        <time>2023-07-23T13:19:45Z</time>
      </trkpt>
      <trkpt lat="45.746416272595525" lon="7.891835840418935">
        <ele>2065.3400000000001</ele>
        <time>2023-07-23T13:20:11Z</time>
      </trkpt>
      <trkpt lat="45.746422139927745" lon="7.891843467950821">
        <ele>2067.46</ele>
        <time>2023-07-23T13:20:29Z</time>
      </trkpt>
      <trkpt lat="45.746423229575157" lon="7.891854867339134">
        <ele>2068.7800000000002</ele>
        <time>2023-07-23T13:20:41Z</time>
      </trkpt>
      <trkpt lat="45.746411075815558" lon="7.891836427152157">
        <ele>2069.25</ele>
        <time>2023-07-23T13:20:51Z</time>
      </trkpt>
      <trkpt lat="45.746408309787512" lon="7.89181555621326">
        <ele>2066.25</ele>
        <time>2023-07-23T13:21:03Z</time>
      </trkpt>
      <trkpt lat="45.746395485475659" lon="7.891808263957501">
        <ele>2067.9299999999998</ele>
        <time>2023-07-23T13:21:16Z</time>
      </trkpt>
      <trkpt lat="45.746398586779833" lon="7.891819998621941">
        <ele>2070.6700000000001</ele>
        <time>2023-07-23T13:21:28Z</time>
      </trkpt>
      <trkpt lat="45.746397329494357" lon="7.891820417717099">
        <ele>2068.5100000000002</ele>
        <time>2023-07-23T13:21:48Z</time>
      </trkpt>
      <trkpt lat="45.746399592608213" lon="7.891821255907416">
        <ele>2065.6799999999998</ele>
        <time>2023-07-23T13:21:57Z</time>
      </trkpt>
      <trkpt lat="45.746402693912387" lon="7.891828799620271">
        <ele>2066.8299999999999</ele>
        <time>2023-07-23T13:22:14Z</time>
      </trkpt>
      <trkpt lat="45.7464072201401" lon="7.891835840418935">
        <ele>2065.8299999999999</ele>
        <time>2023-07-23T13:22:38Z</time>
      </trkpt>
      <trkpt lat="45.746406801044941" lon="7.891832403838635">
        <ele>2066.25</ele>
        <time>2023-07-23T13:23:03Z</time>
      </trkpt>
      <trkpt lat="45.746409650892019" lon="7.891835840418935">
        <ele>2067.1500000000001</ele>
        <time>2023-07-23T13:23:30Z</time>
      </trkpt>
      <trkpt lat="45.746409399434924" lon="7.891831649467349">
        <ele>2067.5599999999999</ele>
        <time>2023-07-23T13:23:54Z</time>
      </trkpt>
      <trkpt lat="45.746408393606544" lon="7.891827374696732">
        <ele>2067.6700000000001</ele>
        <time>2023-07-23T13:24:17Z</time>
      </trkpt>
      <trkpt lat="45.746412081643939" lon="7.891830727458">
        <ele>2067.7800000000002</ele>
        <time>2023-07-23T13:24:39Z</time>
      </trkpt>
      <trkpt lat="45.746424151584506" lon="7.89183609187603">
        <ele>2067.71</ele>
        <time>2023-07-23T13:25:01Z</time>
      </trkpt>
      <trkpt lat="45.746429851278663" lon="7.891837600618601">
        <ele>2068.1100000000001</ele>
        <time>2023-07-23T13:25:23Z</time>
      </trkpt>
      <trkpt lat="45.746432114392519" lon="7.89183902554214">
        <ele>2068.5300000000002</ele>
        <time>2023-07-23T13:25:43Z</time>
      </trkpt>
      <trkpt lat="45.74643462896347" lon="7.891838438808918">
        <ele>2068.9400000000001</ele>
        <time>2023-07-23T13:26:03Z</time>
      </trkpt>
      <trkpt lat="45.746435886248946" lon="7.891840282827616">
        <ele>2069.0799999999999</ele>
        <time>2023-07-23T13:26:21Z</time>
      </trkpt>
      <trkpt lat="45.746435299515724" lon="7.891842797398567">
        <ele>2069.4000000000001</ele>
        <time>2023-07-23T13:26:43Z</time>
      </trkpt>
      <trkpt lat="45.746439741924405" lon="7.891846150159836">
        <ele>2069.5799999999999</ele>
        <time>2023-07-23T13:26:59Z</time>
      </trkpt>
      <trkpt lat="45.746444268152118" lon="7.891848413273692">
        <ele>2069.8099999999999</ele>
        <time>2023-07-23T13:27:20Z</time>
      </trkpt>
      <trkpt lat="45.746447453275323" lon="7.891843970865011">
        <ele>2069.8400000000001</ele>
        <time>2023-07-23T13:27:36Z</time>
      </trkpt>
      <trkpt lat="45.746444016695023" lon="7.89183902554214">
        <ele>2069.77</ele>
        <time>2023-07-23T13:27:53Z</time>
      </trkpt>
      <trkpt lat="45.746447704732418" lon="7.891834415495396">
        <ele>2069.8800000000001</ele>
        <time>2023-07-23T13:28:10Z</time>
      </trkpt>
      <trkpt lat="45.746453739702702" lon="7.89183659479022">
        <ele>2070.1599999999999</ele>
        <time>2023-07-23T13:28:31Z</time>
      </trkpt>
      <trkpt lat="45.746431276202202" lon="7.891831733286381">
        <ele>2069.6599999999999</ele>
        <time>2023-07-23T13:28:49Z</time>
      </trkpt>
      <trkpt lat="45.746420882642269" lon="7.891834415495396">
        <ele>2069.2600000000002</ele>
        <time>2023-07-23T13:29:06Z</time>
      </trkpt>
      <trkpt lat="45.7464072201401" lon="7.891832320019603">
        <ele>2069.2399999999998</ele>
        <time>2023-07-23T13:29:26Z</time>
      </trkpt>
      <trkpt lat="45.746402107179165" lon="7.891832822933793">
        <ele>2068.77</ele>
        <time>2023-07-23T13:29:43Z</time>
      </trkpt>
      <trkpt lat="45.746398670598865" lon="7.891829051077366">
        <ele>2068.8099999999999</ele>
        <time>2023-07-23T13:30:03Z</time>
      </trkpt>
      <trkpt lat="45.746408393606544" lon="7.891829134896398">
        <ele>2069.1399999999999</ele>
        <time>2023-07-23T13:30:24Z</time>
      </trkpt>
      <trkpt lat="45.746418116614223" lon="7.891819579526782">
        <ele>2069.2199999999998</ele>
        <time>2023-07-23T13:30:43Z</time>
      </trkpt>
      <trkpt lat="45.746424235403538" lon="7.891811616718769">
        <ele>2069.6900000000001</ele>
        <time>2023-07-23T13:31:00Z</time>
      </trkpt>
      <trkpt lat="45.74643018655479" lon="7.891806168481708">
        <ele>2069.8200000000002</ele>
        <time>2023-07-23T13:31:17Z</time>
      </trkpt>
      <trkpt lat="45.74643119238317" lon="7.891818908974528">
        <ele>2069.1100000000001</ele>
        <time>2023-07-23T13:31:38Z</time>
      </trkpt>
      <trkpt lat="45.746426666155457" lon="7.89182779379189">
        <ele>2068.0999999999999</ele>
        <time>2023-07-23T13:32:00Z</time>
      </trkpt>
      <trkpt lat="45.746428342536092" lon="7.891830895096064">
        <ele>2067.6700000000001</ele>
        <time>2023-07-23T13:32:23Z</time>
      </trkpt>
      <trkpt lat="45.746427588164806" lon="7.891830476000905">
        <ele>2067.5900000000001</ele>
        <time>2023-07-23T13:32:48Z</time>
      </trkpt>
      <trkpt lat="45.746428929269314" lon="7.891836259514093">
        <ele>2067.3000000000002</ele>
        <time>2023-07-23T13:33:06Z</time>
      </trkpt>
      <trkpt lat="45.746427671983838" lon="7.891838271170855">
        <ele>2067.3699999999999</ele>
        <time>2023-07-23T13:33:26Z</time>
      </trkpt>
      <trkpt lat="45.746418535709381" lon="7.891829218715429">
        <ele>2067.0100000000002</ele>
        <time>2023-07-23T13:33:49Z</time>
      </trkpt>
      <trkpt lat="45.746420212090015" lon="7.891827039420605">
        <ele>2066.6100000000001</ele>
        <time>2023-07-23T13:34:10Z</time>
      </trkpt>
      <trkpt lat="45.746413758024573" lon="7.89183366112411">
        <ele>2068.5300000000002</ele>
        <time>2023-07-23T13:35:00Z</time>
      </trkpt>
      <trkpt lat="45.746417697519064" lon="7.891829973086715">
        <ele>2068.9499999999998</ele>
        <time>2023-07-23T13:35:50Z</time>
      </trkpt>
      <trkpt lat="45.746419709175825" lon="7.891833242028952">
        <ele>2069.6599999999999</ele>
        <time>2023-07-23T13:36:33Z</time>
      </trkpt>
      <trkpt lat="45.746420044451952" lon="7.891833744943142">
        <ele>2070.0100000000002</ele>
        <time>2023-07-23T13:37:20Z</time>
      </trkpt>
      <trkpt lat="45.746422056108713" lon="7.89182829670608">
        <ele>2070.46</ele>
        <time>2023-07-23T13:38:07Z</time>
      </trkpt>
      <trkpt lat="45.746418703347445" lon="7.891835924237967">
        <ele>2070.9099999999999</ele>
        <time>2023-07-23T13:38:58Z</time>
      </trkpt>
      <trkpt lat="45.746415769681334" lon="7.891831649467349">
        <ele>2071.3699999999999</ele>
        <time>2023-07-23T13:39:42Z</time>
      </trkpt>
      <trkpt lat="45.746421720832586" lon="7.891825530678034">
        <ele>2071.1999999999998</ele>
        <time>2023-07-23T13:40:33Z</time>
      </trkpt>
      <trkpt lat="45.746419373899698" lon="7.89183022454381">
        <ele>2071.7199999999998</ele>
        <time>2023-07-23T13:41:19Z</time>
      </trkpt>
      <trkpt lat="45.746416943147779" lon="7.8918272908777">
        <ele>2071.9299999999998</ele>
        <time>2023-07-23T13:42:07Z</time>
      </trkpt>
      <trkpt lat="45.74641308747232" lon="7.891818573698402">
        <ele>2071.5900000000001</ele>
        <time>2023-07-23T13:42:56Z</time>
      </trkpt>
      <trkpt lat="45.746426582336426" lon="7.891855034977198">
        <ele>2070.3600000000001</ele>
        <time>2023-07-23T13:43:30Z</time>
      </trkpt>
      <trkpt lat="45.746420966461301" lon="7.891846569254994">
        <ele>2070.21</ele>
        <time>2023-07-23T13:44:03Z</time>
      </trkpt>
      <trkpt lat="45.746424067765474" lon="7.891840199008584">
        <ele>2070.27</ele>
        <time>2023-07-23T13:44:36Z</time>
      </trkpt>
      <trkpt lat="45.74641459621489" lon="7.891846233978868">
        <ele>2070.4899999999998</ele>
        <time>2023-07-23T13:45:20Z</time>
      </trkpt>
      <trkpt lat="45.746419038623571" lon="7.891838354989886">
        <ele>2070.6300000000001</ele>
        <time>2023-07-23T13:46:01Z</time>
      </trkpt>
      <trkpt lat="45.74642482213676" lon="7.891832487657666">
        <ele>2070.5300000000002</ele>
        <time>2023-07-23T13:46:39Z</time>
      </trkpt>
      <trkpt lat="45.746418284252286" lon="7.891831398010254">
        <ele>2070.9299999999998</ele>
        <time>2023-07-23T13:47:19Z</time>
      </trkpt>
      <trkpt lat="45.746411494910717" lon="7.89183265529573">
        <ele>2071.0900000000001</ele>
        <time>2023-07-23T13:47:50Z</time>
      </trkpt>
      <trkpt lat="45.746415350586176" lon="7.891835421323776">
        <ele>2071.5999999999999</ele>
        <time>2023-07-23T13:48:23Z</time>
      </trkpt>
      <trkpt lat="45.746404454112053" lon="7.891835002228618">
        <ele>2071.3299999999999</ele>
        <time>2023-07-23T13:48:57Z</time>
      </trkpt>
      <trkpt lat="45.746400430798531" lon="7.891835421323776">
        <ele>2070.4499999999998</ele>
        <time>2023-07-23T13:49:18Z</time>
      </trkpt>
      <trkpt lat="45.746399676427245" lon="7.891834583133459">
        <ele>2069.8400000000001</ele>
        <time>2023-07-23T13:49:39Z</time>
      </trkpt>
      <trkpt lat="45.746385427191854" lon="7.891843384131789">
        <ele>2069.9699999999998</ele>
        <time>2023-07-23T13:49:58Z</time>
      </trkpt>
      <trkpt lat="45.746398251503706" lon="7.891876744106412">
        <ele>2069.8600000000001</ele>
        <time>2023-07-23T13:50:20Z</time>
      </trkpt>
      <trkpt lat="45.746463127434254" lon="7.891815304756165">
        <ele>2067.9299999999998</ele>
        <time>2023-07-23T13:50:35Z</time>
      </trkpt>
      <trkpt lat="45.746524315327406" lon="7.891776328906417">
        <ele>2065.71</ele>
        <time>2023-07-23T13:50:42Z</time>
      </trkpt>
      <trkpt lat="45.746672842651606" lon="7.891579857096076">
        <ele>2062.1799999999998</ele>
        <time>2023-07-23T13:50:59Z</time>
      </trkpt>
      <trkpt lat="45.746816257014871" lon="7.891441388055682">
        <ele>2067.98</ele>
        <time>2023-07-23T13:51:14Z</time>
      </trkpt>
      <trkpt lat="45.746837798506021" lon="7.891401909291744">
        <ele>2068.5500000000002</ele>
        <time>2023-07-23T13:51:17Z</time>
      </trkpt>
      <trkpt lat="45.746884318068624" lon="7.891239300370216">
        <ele>2072.8699999999999</ele>
        <time>2023-07-23T13:51:29Z</time>
      </trkpt>
      <trkpt lat="45.746896974742413" lon="7.891172664240003">
        <ele>2071.2600000000002</ele>
        <time>2023-07-23T13:51:39Z</time>
      </trkpt>
      <trkpt lat="45.746908122673631" lon="7.89123703725636">
        <ele>2071.2800000000002</ele>
        <time>2023-07-23T13:51:42Z</time>
      </trkpt>
      <trkpt lat="45.746969897300005" lon="7.891298225149512">
        <ele>2074.0900000000001</ele>
        <time>2023-07-23T13:51:49Z</time>
      </trkpt>
      <trkpt lat="45.747124291956425" lon="7.891140896826983">
        <ele>2069.4499999999998</ele>
        <time>2023-07-23T13:52:07Z</time>
      </trkpt>
      <trkpt lat="45.747169805690646" lon="7.891040481626988">
        <ele>2068.3200000000002</ele>
        <time>2023-07-23T13:52:15Z</time>
      </trkpt>
      <trkpt lat="45.747217917814851" lon="7.890882147476077">
        <ele>2065.0599999999999</ele>
        <time>2023-07-23T13:52:30Z</time>
      </trkpt>
      <trkpt lat="45.747315566986799" lon="7.89074937812984">
        <ele>2058.8000000000002</ele>
        <time>2023-07-23T13:52:46Z</time>
      </trkpt>
      <trkpt lat="45.747411036863923" lon="7.890633372589946">
        <ele>2053.23</ele>
        <time>2023-07-23T13:53:01Z</time>
      </trkpt>
      <trkpt lat="45.747462417930365" lon="7.890539579093456">
        <ele>2051.21</ele>
        <time>2023-07-23T13:53:14Z</time>
      </trkpt>
      <trkpt lat="45.747502986341715" lon="7.890509571880102">
        <ele>2050.4499999999998</ele>
        <time>2023-07-23T13:53:21Z</time>
      </trkpt>
      <trkpt lat="45.747553529217839" lon="7.890492891892791">
        <ele>2049.3000000000002</ele>
        <time>2023-07-23T13:53:26Z</time>
      </trkpt>
      <trkpt lat="45.747677749022841" lon="7.890558522194624">
        <ele>2048.6999999999998</ele>
        <time>2023-07-23T13:53:41Z</time>
      </trkpt>
      <trkpt lat="45.747758969664574" lon="7.890408569946885">
        <ele>2046.9000000000001</ele>
        <time>2023-07-23T13:53:54Z</time>
      </trkpt>
      <trkpt lat="45.747784031555057" lon="7.890172870829701">
        <ele>2042.1400000000001</ele>
        <time>2023-07-23T13:54:09Z</time>
      </trkpt>
      <trkpt lat="45.747776068747044" lon="7.889978997409344">
        <ele>2040.3399999999999</ele>
        <time>2023-07-23T13:54:23Z</time>
      </trkpt>
      <trkpt lat="45.74771823361516" lon="7.889805072918534">
        <ele>2039.01</ele>
        <time>2023-07-23T13:54:36Z</time>
      </trkpt>
      <trkpt lat="45.74770356528461" lon="7.889733323827386">
        <ele>2039.3199999999999</ele>
        <time>2023-07-23T13:54:41Z</time>
      </trkpt>
      <trkpt lat="45.747740278020501" lon="7.889615977182984">
        <ele>2039.1900000000001</ele>
        <time>2023-07-23T13:54:48Z</time>
      </trkpt>
      <trkpt lat="45.747771793976426" lon="7.889371225610375">
        <ele>2037.74</ele>
        <time>2023-07-23T13:55:03Z</time>
      </trkpt>
      <trkpt lat="45.747796352952719" lon="7.889215741306543">
        <ele>2039.0999999999999</ele>
        <time>2023-07-23T13:55:15Z</time>
      </trkpt>
      <trkpt lat="45.747933061793447" lon="7.888964954763651">
        <ele>2040.03</ele>
        <time>2023-07-23T13:55:33Z</time>
      </trkpt>
      <trkpt lat="45.747954519465566" lon="7.888900330290198">
        <ele>2039.6500000000001</ele>
        <time>2023-07-23T13:55:37Z</time>
      </trkpt>
      <trkpt lat="45.748014785349369" lon="7.888856492936611">
        <ele>2039.54</ele>
        <time>2023-07-23T13:55:43Z</time>
      </trkpt>
      <trkpt lat="45.748069183900952" lon="7.888693464919925">
        <ele>2039.54</ele>
        <time>2023-07-23T13:55:54Z</time>
      </trkpt>
      <trkpt lat="45.74814579449594" lon="7.888631522655487">
        <ele>2037.28</ele>
        <time>2023-07-23T13:56:03Z</time>
      </trkpt>
      <trkpt lat="45.748172784224153" lon="7.888562707230449">
        <ele>2036.3099999999999</ele>
        <time>2023-07-23T13:56:08Z</time>
      </trkpt>
      <trkpt lat="45.748164067044854" lon="7.888491544872522">
        <ele>2036.0699999999999</ele>
        <time>2023-07-23T13:56:13Z</time>
      </trkpt>
      <trkpt lat="45.748062646016479" lon="7.888290798291564">
        <ele>2031.8099999999999</ele>
        <time>2023-07-23T13:56:28Z</time>
      </trkpt>
      <trkpt lat="45.74798746034503" lon="7.888109413906932">
        <ele>2029.26</ele>
        <time>2023-07-23T13:56:42Z</time>
      </trkpt>
      <trkpt lat="45.747908083721995" lon="7.888055937364698">
        <ele>2029.8699999999999</ele>
        <time>2023-07-23T13:56:50Z</time>
      </trkpt>
      <trkpt lat="45.747889811173081" lon="7.888053674250841">
        <ele>2030.0599999999999</ele>
        <time>2023-07-23T13:56:51Z</time>
      </trkpt>
      <trkpt lat="45.747874053195119" lon="7.888045459985733">
        <ele>2030.4200000000001</ele>
        <time>2023-07-23T13:56:52Z</time>
      </trkpt>
      <trkpt lat="45.74786776676774" lon="7.888023164123297">
        <ele>2029.5999999999999</ele>
        <time>2023-07-23T13:56:54Z</time>
      </trkpt>
      <trkpt lat="45.747867515310645" lon="7.888009417802095">
        <ele>2029.3199999999999</ele>
        <time>2023-07-23T13:56:55Z</time>
      </trkpt>
      <trkpt lat="45.747910849750042" lon="7.887809341773391">
        <ele>2025.8599999999999</ele>
        <time>2023-07-23T13:57:10Z</time>
      </trkpt>
      <trkpt lat="45.747987795621157" lon="7.887693587690592">
        <ele>2023.8800000000001</ele>
        <time>2023-07-23T13:57:20Z</time>
      </trkpt>
      <trkpt lat="45.747989472001791" lon="7.88767690770328">
        <ele>2023.8599999999999</ele>
        <time>2023-07-23T13:57:21Z</time>
      </trkpt>
      <trkpt lat="45.748016042634845" lon="7.887604488059878">
        <ele>2022.5</ele>
        <time>2023-07-23T13:57:28Z</time>
      </trkpt>
      <trkpt lat="45.748025430366397" lon="7.887569619342685">
        <ele>2021.6400000000001</ele>
        <time>2023-07-23T13:57:31Z</time>
      </trkpt>
      <trkpt lat="45.748028950765729" lon="7.887538522481918">
        <ele>2021.1199999999999</ele>
        <time>2023-07-23T13:57:33Z</time>
      </trkpt>
      <trkpt lat="45.748036662116647" lon="7.887524105608463">
        <ele>2021.0699999999999</ele>
        <time>2023-07-23T13:57:34Z</time>
      </trkpt>
      <trkpt lat="45.748132467269897" lon="7.887338530272245">
        <ele>2019.8599999999999</ele>
        <time>2023-07-23T13:57:49Z</time>
      </trkpt>
      <trkpt lat="45.748128024861217" lon="7.887316904962063">
        <ele>2019.3900000000001</ele>
        <time>2023-07-23T13:57:51Z</time>
      </trkpt>
      <trkpt lat="45.748119642958045" lon="7.887304918840528">
        <ele>2019.1199999999999</ele>
        <time>2023-07-23T13:57:52Z</time>
      </trkpt>
      <trkpt lat="45.748114613816142" lon="7.88729184307158">
        <ele>2018.8199999999999</ele>
        <time>2023-07-23T13:57:53Z</time>
      </trkpt>
      <trkpt lat="45.748113188892603" lon="7.887277761474252">
        <ele>2018.5599999999999</ele>
        <time>2023-07-23T13:57:54Z</time>
      </trkpt>
      <trkpt lat="45.748107405379415" lon="7.887255046516657">
        <ele>2017.97</ele>
        <time>2023-07-23T13:57:56Z</time>
      </trkpt>
      <trkpt lat="45.748101286590099" lon="7.887239875271916">
        <ele>2017.8199999999999</ele>
        <time>2023-07-23T13:57:57Z</time>
      </trkpt>
      <trkpt lat="45.748099023476243" lon="7.887223027646542">
        <ele>2017.52</ele>
        <time>2023-07-23T13:57:58Z</time>
      </trkpt>
      <trkpt lat="45.748098352923989" lon="7.887205760926008">
        <ele>2017.26</ele>
        <time>2023-07-23T13:57:59Z</time>
      </trkpt>
      <trkpt lat="45.74809935875237" lon="7.887188829481602">
        <ele>2017.03</ele>
        <time>2023-07-23T13:58:00Z</time>
      </trkpt>
      <trkpt lat="45.748107405379415" lon="7.887148847803474">
        <ele>2016.6099999999999</ele>
        <time>2023-07-23T13:58:03Z</time>
      </trkpt>
      <trkpt lat="45.748111261054873" lon="7.887133089825511">
        <ele>2016.4200000000001</ele>
        <time>2023-07-23T13:58:04Z</time>
      </trkpt>
      <trkpt lat="45.748115116730332" lon="7.887117834761739">
        <ele>2016.1800000000001</ele>
        <time>2023-07-23T13:58:05Z</time>
      </trkpt>
      <trkpt lat="45.748116709291935" lon="7.887100400403142">
        <ele>2015.95</ele>
        <time>2023-07-23T13:58:06Z</time>
      </trkpt>
      <trkpt lat="45.748117212206125" lon="7.887068297713995">
        <ele>2015.6400000000001</ele>
        <time>2023-07-23T13:58:08Z</time>
      </trkpt>
      <trkpt lat="45.748116374015808" lon="7.887051198631525">
        <ele>2015.46</ele>
        <time>2023-07-23T13:58:09Z</time>
      </trkpt>
      <trkpt lat="45.748115284368396" lon="7.887033596634865">
        <ele>2015.3</ele>
        <time>2023-07-23T13:58:10Z</time>
      </trkpt>
      <trkpt lat="45.748110674321651" lon="7.887017000466585">
        <ele>2015.05</ele>
        <time>2023-07-23T13:58:11Z</time>
      </trkpt>
      <trkpt lat="45.748102040961385" lon="7.887000823393464">
        <ele>2014.77</ele>
        <time>2023-07-23T13:58:12Z</time>
      </trkpt>
      <trkpt lat="45.748096508905292" lon="7.886984646320343">
        <ele>2014.6099999999999</ele>
        <time>2023-07-23T13:58:13Z</time>
      </trkpt>
      <trkpt lat="45.748095167800784" lon="7.886968888342381">
        <ele>2014.3399999999999</ele>
        <time>2023-07-23T13:58:14Z</time>
      </trkpt>
      <trkpt lat="45.748103130608797" lon="7.886868389323354">
        <ele>2012.3499999999999</ele>
        <time>2023-07-23T13:58:21Z</time>
      </trkpt>
      <trkpt lat="45.748099694028497" lon="7.886792030185461">
        <ele>2009.73</ele>
        <time>2023-07-23T13:58:27Z</time>
      </trkpt>
      <trkpt lat="45.74809743091464" lon="7.886774092912674">
        <ele>2009.6800000000001</ele>
        <time>2023-07-23T13:58:28Z</time>
      </trkpt>
      <trkpt lat="45.748096760362387" lon="7.886756155639887">
        <ele>2009.53</ele>
        <time>2023-07-23T13:58:29Z</time>
      </trkpt>
      <trkpt lat="45.74809935875237" lon="7.886702595278621">
        <ele>2008.45</ele>
        <time>2023-07-23T13:58:33Z</time>
      </trkpt>
      <trkpt lat="45.748106399551034" lon="7.88668449036777">
        <ele>2008.1400000000001</ele>
        <time>2023-07-23T13:58:34Z</time>
      </trkpt>
      <trkpt lat="45.748115116730332" lon="7.886665882542729">
        <ele>2007.8599999999999</ele>
        <time>2023-07-23T13:58:35Z</time>
      </trkpt>
      <trkpt lat="45.74812039732933" lon="7.886644341051579">
        <ele>2007.5999999999999</ele>
        <time>2023-07-23T13:58:36Z</time>
      </trkpt>
      <trkpt lat="45.748122073709965" lon="7.886623805388808">
        <ele>2007.3900000000001</ele>
        <time>2023-07-23T13:58:37Z</time>
      </trkpt>
      <trkpt lat="45.748125677928329" lon="7.886604610830545">
        <ele>2007.6500000000001</ele>
        <time>2023-07-23T13:58:38Z</time>
      </trkpt>
      <trkpt lat="45.748131209984422" lon="7.886588349938393">
        <ele>2007.78</ele>
        <time>2023-07-23T13:58:39Z</time>
      </trkpt>
      <trkpt lat="45.74818049557507" lon="7.886373940855265">
        <ele>2008.48</ele>
        <time>2023-07-23T13:58:53Z</time>
      </trkpt>
      <trkpt lat="45.748201785609126" lon="7.886282913386822">
        <ele>2006.0699999999999</ele>
        <time>2023-07-23T13:59:04Z</time>
      </trkpt>
      <trkpt lat="45.748195666819811" lon="7.886267155408859">
        <ele>2005.79</ele>
        <time>2023-07-23T13:59:05Z</time>
      </trkpt>
      <trkpt lat="45.748184602707624" lon="7.886249972507358">
        <ele>2005.51</ele>
        <time>2023-07-23T13:59:06Z</time>
      </trkpt>
      <trkpt lat="45.748176220804453" lon="7.886231699958444">
        <ele>2005.1700000000001</ele>
        <time>2023-07-23T13:59:07Z</time>
      </trkpt>
      <trkpt lat="45.748173790052533" lon="7.886212924495339">
        <ele>2004.78</ele>
        <time>2023-07-23T13:59:08Z</time>
      </trkpt>
      <trkpt lat="45.748174879699945" lon="7.886193310841918">
        <ele>2004.48</ele>
        <time>2023-07-23T13:59:09Z</time>
      </trkpt>
      <trkpt lat="45.748174460604787" lon="7.886175708845258">
        <ele>2004.1700000000001</ele>
        <time>2023-07-23T13:59:10Z</time>
      </trkpt>
      <trkpt lat="45.748169766739011" lon="7.886114688590169">
        <ele>2003.5899999999999</ele>
        <time>2023-07-23T13:59:13Z</time>
      </trkpt>
      <trkpt lat="45.748177981004119" lon="7.886062720790505">
        <ele>2003.02</ele>
        <time>2023-07-23T13:59:16Z</time>
      </trkpt>
      <trkpt lat="45.748178064823151" lon="7.886044196784496">
        <ele>2002.6400000000001</ele>
        <time>2023-07-23T13:59:17Z</time>
      </trkpt>
      <trkpt lat="45.748183010146022" lon="7.886026091873646">
        <ele>2002.71</ele>
        <time>2023-07-23T13:59:18Z</time>
      </trkpt>
      <trkpt lat="45.748188542202115" lon="7.886008573696017">
        <ele>2002.5799999999999</ele>
        <time>2023-07-23T13:59:19Z</time>
      </trkpt>
      <trkpt lat="45.748193236067891" lon="7.885991558432579">
        <ele>2002.45</ele>
        <time>2023-07-23T13:59:20Z</time>
      </trkpt>
      <trkpt lat="45.748210670426488" lon="7.885891729965806">
        <ele>2001.4200000000001</ele>
        <time>2023-07-23T13:59:26Z</time>
      </trkpt>
      <trkpt lat="45.748209245502949" lon="7.885817550122738">
        <ele>2000.04</ele>
        <time>2023-07-23T13:59:31Z</time>
      </trkpt>
      <trkpt lat="45.748218130320311" lon="7.88574387319386">
        <ele>1998.6199999999999</ele>
        <time>2023-07-23T13:59:36Z</time>
      </trkpt>
      <trkpt lat="45.748266326263547" lon="7.885563997551799">
        <ele>1994.03</ele>
        <time>2023-07-23T13:59:50Z</time>
      </trkpt>
      <trkpt lat="45.748337488621473" lon="7.885379595682025">
        <ele>1991.0699999999999</ele>
        <time>2023-07-23T14:00:03Z</time>
      </trkpt>
      <trkpt lat="45.748340338468552" lon="7.885362580418587">
        <ele>1990.79</ele>
        <time>2023-07-23T14:00:04Z</time>
      </trkpt>
      <trkpt lat="45.74834369122982" lon="7.885306756943464">
        <ele>1989.74</ele>
        <time>2023-07-23T14:00:09Z</time>
      </trkpt>
      <trkpt lat="45.748347211629152" lon="7.885290496051312">
        <ele>1989.49</ele>
        <time>2023-07-23T14:00:10Z</time>
      </trkpt>
      <trkpt lat="45.748356347903609" lon="7.885257555171847">
        <ele>1988.96</ele>
        <time>2023-07-23T14:00:12Z</time>
      </trkpt>
      <trkpt lat="45.748360706493258" lon="7.885238528251648">
        <ele>1988.74</ele>
        <time>2023-07-23T14:00:13Z</time>
      </trkpt>
      <trkpt lat="45.748363304883242" lon="7.885220255702734">
        <ele>1988.72</ele>
        <time>2023-07-23T14:00:14Z</time>
      </trkpt>
      <trkpt lat="45.748349810019135" lon="7.885104501619935">
        <ele>1987.0799999999999</ele>
        <time>2023-07-23T14:00:23Z</time>
      </trkpt>
      <trkpt lat="45.748344361782074" lon="7.885048510506749">
        <ele>1986.1600000000001</ele>
        <time>2023-07-23T14:00:26Z</time>
      </trkpt>
      <trkpt lat="45.748372273519635" lon="7.884720275178552">
        <ele>1987.04</ele>
        <time>2023-07-23T14:00:43Z</time>
      </trkpt>
      <trkpt lat="45.748422062024474" lon="7.884513745084405">
        <ele>1987.4400000000001</ele>
        <time>2023-07-23T14:00:57Z</time>
      </trkpt>
      <trkpt lat="45.748424576595426" lon="7.884497903287411">
        <ele>1987.29</ele>
        <time>2023-07-23T14:00:58Z</time>
      </trkpt>
      <trkpt lat="45.748456176370382" lon="7.884399583563209">
        <ele>1986.5599999999999</ele>
        <time>2023-07-23T14:01:06Z</time>
      </trkpt>
      <trkpt lat="45.748467911034822" lon="7.884354321286082">
        <ele>1986.05</ele>
        <time>2023-07-23T14:01:09Z</time>
      </trkpt>
      <trkpt lat="45.748467408120632" lon="7.884337725117803">
        <ele>1985.72</ele>
        <time>2023-07-23T14:01:10Z</time>
      </trkpt>
      <trkpt lat="45.748472353443503" lon="7.884322134777904">
        <ele>1985.47</ele>
        <time>2023-07-23T14:01:11Z</time>
      </trkpt>
      <trkpt lat="45.748477634042501" lon="7.884308053180575">
        <ele>1985.3399999999999</ele>
        <time>2023-07-23T14:01:12Z</time>
      </trkpt>
      <trkpt lat="45.748481322079897" lon="7.884291205555201">
        <ele>1985.3499999999999</ele>
        <time>2023-07-23T14:01:13Z</time>
      </trkpt>
      <trkpt lat="45.74848735705018" lon="7.884273938834667">
        <ele>1985.4200000000001</ele>
        <time>2023-07-23T14:01:14Z</time>
      </trkpt>
      <trkpt lat="45.74849221855402" lon="7.884258851408958">
        <ele>1985.45</ele>
        <time>2023-07-23T14:01:15Z</time>
      </trkpt>
      <trkpt lat="45.748497666791081" lon="7.884241584688425">
        <ele>1985.54</ele>
        <time>2023-07-23T14:01:16Z</time>
      </trkpt>
      <trkpt lat="45.748502612113953" lon="7.884224317967892">
        <ele>1985.5699999999999</ele>
        <time>2023-07-23T14:01:17Z</time>
      </trkpt>
      <trkpt lat="45.748518537729979" lon="7.884073276072741">
        <ele>1984.47</ele>
        <time>2023-07-23T14:01:29Z</time>
      </trkpt>
      <trkpt lat="45.74854695238173" lon="7.883918210864067">
        <ele>1988.29</ele>
        <time>2023-07-23T14:01:41Z</time>
      </trkpt>
      <trkpt lat="45.748555166646838" lon="7.883904045447707">
        <ele>1989.0999999999999</ele>
        <time>2023-07-23T14:01:42Z</time>
      </trkpt>
      <trkpt lat="45.74856162071228" lon="7.883884431794286">
        <ele>1989.9300000000001</ele>
        <time>2023-07-23T14:01:43Z</time>
      </trkpt>
      <trkpt lat="45.748568493872881" lon="7.883867165073752">
        <ele>1990.1099999999999</ele>
        <time>2023-07-23T14:01:44Z</time>
      </trkpt>
      <trkpt lat="45.748575367033482" lon="7.883852329105139">
        <ele>1990.47</ele>
        <time>2023-07-23T14:01:45Z</time>
      </trkpt>
      <trkpt lat="45.748675866052508" lon="7.883644541725516">
        <ele>1988.76</ele>
        <time>2023-07-23T14:02:02Z</time>
      </trkpt>
      <trkpt lat="45.748766558244824" lon="7.883521830663085">
        <ele>1985.3399999999999</ele>
        <time>2023-07-23T14:02:16Z</time>
      </trkpt>
      <trkpt lat="45.748844342306256" lon="7.88334472104907">
        <ele>1982.28</ele>
        <time>2023-07-23T14:02:32Z</time>
      </trkpt>
      <trkpt lat="45.748873259872198" lon="7.883235588669777">
        <ele>1979.45</ele>
        <time>2023-07-23T14:02:42Z</time>
      </trkpt>
      <trkpt lat="45.748869739472866" lon="7.883221255615354">
        <ele>1979.0999999999999</ele>
        <time>2023-07-23T14:02:43Z</time>
      </trkpt>
      <trkpt lat="45.748868566006422" lon="7.883205497637391">
        <ele>1979.02</ele>
        <time>2023-07-23T14:02:44Z</time>
      </trkpt>
      <trkpt lat="45.748870577663183" lon="7.883190577849746">
        <ele>1978.8099999999999</ele>
        <time>2023-07-23T14:02:45Z</time>
      </trkpt>
      <trkpt lat="45.748875858262181" lon="7.883139699697495">
        <ele>1977.4100000000001</ele>
        <time>2023-07-23T14:02:49Z</time>
      </trkpt>
      <trkpt lat="45.748843504115939" lon="7.882937528192997">
        <ele>1973.5799999999999</ele>
        <time>2023-07-23T14:03:04Z</time>
      </trkpt>
      <trkpt lat="45.748837385326624" lon="7.882773326709867">
        <ele>1969.77</ele>
        <time>2023-07-23T14:03:19Z</time>
      </trkpt>
      <trkpt lat="45.748831685632467" lon="7.882567048072815">
        <ele>1966.3900000000001</ele>
        <time>2023-07-23T14:03:35Z</time>
      </trkpt>
      <trkpt lat="45.748853478580713" lon="7.882434781640768">
        <ele>1966.0899999999999</ele>
        <time>2023-07-23T14:03:44Z</time>
      </trkpt>
      <trkpt lat="45.748853562399745" lon="7.882419023662806">
        <ele>1966.02</ele>
        <time>2023-07-23T14:03:45Z</time>
      </trkpt>
      <trkpt lat="45.748856076970696" lon="7.882403349503875">
        <ele>1965.9300000000001</ele>
        <time>2023-07-23T14:03:46Z</time>
      </trkpt>
      <trkpt lat="45.748860854655504" lon="7.882390189915896">
        <ele>1965.8399999999999</ele>
        <time>2023-07-23T14:03:47Z</time>
      </trkpt>
      <trkpt lat="45.748864207416773" lon="7.88237527012825">
        <ele>1965.79</ele>
        <time>2023-07-23T14:03:48Z</time>
      </trkpt>
      <trkpt lat="45.748863369226456" lon="7.882359763607383">
        <ele>1965.72</ele>
        <time>2023-07-23T14:03:49Z</time>
      </trkpt>
      <trkpt lat="45.748862279579043" lon="7.882343251258135">
        <ele>1965.6700000000001</ele>
        <time>2023-07-23T14:03:50Z</time>
      </trkpt>
      <trkpt lat="45.748862195760012" lon="7.882326822727919">
        <ele>1965.51</ele>
        <time>2023-07-23T14:03:51Z</time>
      </trkpt>
      <trkpt lat="45.748864375054836" lon="7.882310226559639">
        <ele>1965.5999999999999</ele>
        <time>2023-07-23T14:03:52Z</time>
      </trkpt>
      <trkpt lat="45.748866386711597" lon="7.882295306771994">
        <ele>1965.6099999999999</ele>
        <time>2023-07-23T14:03:53Z</time>
      </trkpt>
      <trkpt lat="45.748869320377707" lon="7.88227996788919">
        <ele>1965.75</ele>
        <time>2023-07-23T14:03:54Z</time>
      </trkpt>
      <trkpt lat="45.748875271528959" lon="7.882179720327258">
        <ele>1966.95</ele>
        <time>2023-07-23T14:04:02Z</time>
      </trkpt>
      <trkpt lat="45.748876193538308" lon="7.882163627073169">
        <ele>1967.0699999999999</ele>
        <time>2023-07-23T14:04:03Z</time>
      </trkpt>
      <trkpt lat="45.748848617076874" lon="7.88199313916266">
        <ele>1965.4400000000001</ele>
        <time>2023-07-23T14:04:18Z</time>
      </trkpt>
      <trkpt lat="45.74883621186018" lon="7.881958102807403">
        <ele>1964.5799999999999</ele>
        <time>2023-07-23T14:04:22Z</time>
      </trkpt>
      <trkpt lat="45.748827075585723" lon="7.881949972361326">
        <ele>1964.3299999999999</ele>
        <time>2023-07-23T14:04:23Z</time>
      </trkpt>
      <trkpt lat="45.748808886855841" lon="7.881930274888873">
        <ele>1963.5899999999999</ele>
        <time>2023-07-23T14:04:26Z</time>
      </trkpt>
      <trkpt lat="45.748801007866859" lon="7.881921138614416">
        <ele>1963.3800000000001</ele>
        <time>2023-07-23T14:04:27Z</time>
      </trkpt>
      <trkpt lat="45.748784495517612" lon="7.881902446970344">
        <ele>1962.72</ele>
        <time>2023-07-23T14:04:30Z</time>
      </trkpt>
      <trkpt lat="45.748753398656845" lon="7.881846874952316">
        <ele>1960.3399999999999</ele>
        <time>2023-07-23T14:04:38Z</time>
      </trkpt>
      <trkpt lat="45.74875608086586" lon="7.881805971264839">
        <ele>1959.0699999999999</ele>
        <time>2023-07-23T14:04:45Z</time>
      </trkpt>
      <trkpt lat="45.748786423355341" lon="7.881614109501243">
        <ele>1958.48</ele>
        <time>2023-07-23T14:04:59Z</time>
      </trkpt>
      <trkpt lat="45.748793296515942" lon="7.881558956578374">
        <ele>1958.53</ele>
        <time>2023-07-23T14:05:04Z</time>
      </trkpt>
      <trkpt lat="45.748808719217777" lon="7.881515370681882">
        <ele>1958.1300000000001</ele>
        <time>2023-07-23T14:05:07Z</time>
      </trkpt>
      <trkpt lat="45.748820872977376" lon="7.881445549428463">
        <ele>1957.3800000000001</ele>
        <time>2023-07-23T14:05:14Z</time>
      </trkpt>
      <trkpt lat="45.748821878805757" lon="7.88138042204082">
        <ele>1957.1800000000001</ele>
        <time>2023-07-23T14:05:18Z</time>
      </trkpt>
      <trkpt lat="45.748817771673203" lon="7.881319653242827">
        <ele>1956.77</ele>
        <time>2023-07-23T14:05:22Z</time>
      </trkpt>
      <trkpt lat="45.748848365619779" lon="7.881120499223471">
        <ele>1951.97</ele>
        <time>2023-07-23T14:05:37Z</time>
      </trkpt>
      <trkpt lat="45.748873678967357" lon="7.880992507562041">
        <ele>1949.6600000000001</ele>
        <time>2023-07-23T14:05:51Z</time>
      </trkpt>
      <trkpt lat="45.748848533257842" lon="7.880892930552363">
        <ele>1946.77</ele>
        <time>2023-07-23T14:06:04Z</time>
      </trkpt>
      <trkpt lat="45.748874768614769" lon="7.880763011053205">
        <ele>1944.5699999999999</ele>
        <time>2023-07-23T14:06:14Z</time>
      </trkpt>
      <trkpt lat="45.748863788321614" lon="7.88056536577642">
        <ele>1941.26</ele>
        <time>2023-07-23T14:06:28Z</time>
      </trkpt>
      <trkpt lat="45.748832188546658" lon="7.880481043830514">
        <ele>1940.22</ele>
        <time>2023-07-23T14:06:35Z</time>
      </trkpt>
      <trkpt lat="45.748828668147326" lon="7.880432931706309">
        <ele>1939.6800000000001</ele>
        <time>2023-07-23T14:06:38Z</time>
      </trkpt>
      <trkpt lat="45.748867643997073" lon="7.880141492933035">
        <ele>1940.6500000000001</ele>
        <time>2023-07-23T14:06:57Z</time>
      </trkpt>
      <trkpt lat="45.748867727816105" lon="7.880015848204494">
        <ele>1940.8299999999999</ele>
        <time>2023-07-23T14:07:04Z</time>
      </trkpt>
      <trkpt lat="45.74882741086185" lon="7.879740837961435">
        <ele>1940.1600000000001</ele>
        <time>2023-07-23T14:07:21Z</time>
      </trkpt>
      <trkpt lat="45.748822214081883" lon="7.879698425531387">
        <ele>1940.0599999999999</ele>
        <time>2023-07-23T14:07:24Z</time>
      </trkpt>
      <trkpt lat="45.748848114162683" lon="7.879420816898346">
        <ele>1934.73</ele>
        <time>2023-07-23T14:07:42Z</time>
      </trkpt>
      <trkpt lat="45.748842163011432" lon="7.879155781120062">
        <ele>1933</ele>
        <time>2023-07-23T14:07:58Z</time>
      </trkpt>
      <trkpt lat="45.748847275972366" lon="7.879137843847275">
        <ele>1933.8800000000001</ele>
        <time>2023-07-23T14:08:01Z</time>
      </trkpt>
      <trkpt lat="45.748882899060845" lon="7.879077326506376">
        <ele>1934.6700000000001</ele>
        <time>2023-07-23T14:08:06Z</time>
      </trkpt>
      <trkpt lat="45.748965376988053" lon="7.878906754776835">
        <ele>1933.25</ele>
        <time>2023-07-23T14:08:20Z</time>
      </trkpt>
      <trkpt lat="45.748972753062844" lon="7.87878530099988">
        <ele>1932.6400000000001</ele>
        <time>2023-07-23T14:08:27Z</time>
      </trkpt>
      <trkpt lat="45.749030252918601" lon="7.878480786457658">
        <ele>1929.9300000000001</ele>
        <time>2023-07-23T14:08:44Z</time>
      </trkpt>
      <trkpt lat="45.749019524082541" lon="7.878280207514763">
        <ele>1926.8399999999999</ele>
        <time>2023-07-23T14:08:56Z</time>
      </trkpt>
      <trkpt lat="45.749010723084211" lon="7.878008633852005">
        <ele>1922.78</ele>
        <time>2023-07-23T14:09:12Z</time>
      </trkpt>
      <trkpt lat="45.749006699770689" lon="7.877825740724802">
        <ele>1919.9100000000001</ele>
        <time>2023-07-23T14:09:24Z</time>
      </trkpt>
      <trkpt lat="45.748992701992393" lon="7.877604542300105">
        <ele>1916.1600000000001</ele>
        <time>2023-07-23T14:09:38Z</time>
      </trkpt>
      <trkpt lat="45.74895104393363" lon="7.877422906458378">
        <ele>1913.3599999999999</ele>
        <time>2023-07-23T14:09:51Z</time>
      </trkpt>
      <trkpt lat="45.74891148135066" lon="7.877236409112811">
        <ele>1911.78</ele>
        <time>2023-07-23T14:10:04Z</time>
      </trkpt>
      <trkpt lat="45.74895883910358" lon="7.877055192366242">
        <ele>1909.23</ele>
        <time>2023-07-23T14:10:16Z</time>
      </trkpt>
      <trkpt lat="45.749019356444478" lon="7.876792922616005">
        <ele>1908.96</ele>
        <time>2023-07-23T14:10:32Z</time>
      </trkpt>
      <trkpt lat="45.749045424163342" lon="7.876718994230032">
        <ele>1907.53</ele>
        <time>2023-07-23T14:10:38Z</time>
      </trkpt>
      <trkpt lat="45.749058332294226" lon="7.876642467454076">
        <ele>1906.6099999999999</ele>
        <time>2023-07-23T14:10:43Z</time>
      </trkpt>
      <trkpt lat="45.749160507693887" lon="7.876419341191649">
        <ele>1905.5599999999999</ele>
        <time>2023-07-23T14:10:59Z</time>
      </trkpt>
      <trkpt lat="45.749298390001059" lon="7.87633191794157">
        <ele>1904.3699999999999</ele>
        <time>2023-07-23T14:11:15Z</time>
      </trkpt>
      <trkpt lat="45.749319344758987" lon="7.87631331011653">
        <ele>1904.5999999999999</ele>
        <time>2023-07-23T14:11:20Z</time>
      </trkpt>
      <trkpt lat="45.749344155192375" lon="7.876287326216698">
        <ele>1904.6400000000001</ele>
        <time>2023-07-23T14:11:23Z</time>
      </trkpt>
      <trkpt lat="45.749476756900549" lon="7.87610569037497">
        <ele>1902.6400000000001</ele>
        <time>2023-07-23T14:11:40Z</time>
      </trkpt>
      <trkpt lat="45.749570969492197" lon="7.875902848318219">
        <ele>1903.5999999999999</ele>
        <time>2023-07-23T14:11:54Z</time>
      </trkpt>
      <trkpt lat="45.749670211225748" lon="7.87571475841105">
        <ele>1903.6700000000001</ele>
        <time>2023-07-23T14:12:08Z</time>
      </trkpt>
      <trkpt lat="45.749807339161634" lon="7.875514682382345">
        <ele>1903.8199999999999</ele>
        <time>2023-07-23T14:12:24Z</time>
      </trkpt>
      <trkpt lat="45.749814715236425" lon="7.875508144497871">
        <ele>1903.8900000000001</ele>
        <time>2023-07-23T14:12:25Z</time>
      </trkpt>
      <trkpt lat="45.749833323061466" lon="7.875524321570993">
        <ele>1903.52</ele>
        <time>2023-07-23T14:12:27Z</time>
      </trkpt>
      <trkpt lat="45.749859809875488" lon="7.875602692365646">
        <ele>1903.5</ele>
        <time>2023-07-23T14:12:32Z</time>
      </trkpt>
      <trkpt lat="45.749966008588672" lon="7.875424241647124">
        <ele>1904.29</ele>
        <time>2023-07-23T14:12:46Z</time>
      </trkpt>
      <trkpt lat="45.75000305660069" lon="7.875367915257812">
        <ele>1904.48</ele>
        <time>2023-07-23T14:12:52Z</time>
      </trkpt>
      <trkpt lat="45.750102130696177" lon="7.87517923861742">
        <ele>1905.5799999999999</ele>
        <time>2023-07-23T14:13:07Z</time>
      </trkpt>
      <trkpt lat="45.75011545792222" lon="7.875142777338624">
        <ele>1905.8199999999999</ele>
        <time>2023-07-23T14:13:09Z</time>
      </trkpt>
      <trkpt lat="45.750273708254099" lon="7.874949490651488">
        <ele>1906.5</ele>
        <time>2023-07-23T14:13:27Z</time>
      </trkpt>
      <trkpt lat="45.750326430425048" lon="7.874878915026784">
        <ele>1906.8499999999999</ele>
        <time>2023-07-23T14:13:33Z</time>
      </trkpt>
      <trkpt lat="45.750408237800002" lon="7.874686801806092">
        <ele>1906.4400000000001</ele>
        <time>2023-07-23T14:13:47Z</time>
      </trkpt>
      <trkpt lat="45.75046724639833" lon="7.874578591436148">
        <ele>1907.01</ele>
        <time>2023-07-23T14:13:54Z</time>
      </trkpt>
      <trkpt lat="45.750555843114853" lon="7.874388070777059">
        <ele>1908.6800000000001</ele>
        <time>2023-07-23T14:14:09Z</time>
      </trkpt>
      <trkpt lat="45.750569840893149" lon="7.8742097876966">
        <ele>1909.9300000000001</ele>
        <time>2023-07-23T14:14:25Z</time>
      </trkpt>
      <trkpt lat="45.750559028238058" lon="7.873954055830836">
        <ele>1912.9200000000001</ele>
        <time>2023-07-23T14:14:41Z</time>
      </trkpt>
      <trkpt lat="45.75061921030283" lon="7.873775437474251">
        <ele>1916.0999999999999</ele>
        <time>2023-07-23T14:14:53Z</time>
      </trkpt>
      <trkpt lat="45.750625664368272" lon="7.873720033094287">
        <ele>1918.1400000000001</ele>
        <time>2023-07-23T14:14:57Z</time>
      </trkpt>
      <trkpt lat="45.750655336305499" lon="7.873673681169748">
        <ele>1919.76</ele>
        <time>2023-07-23T14:15:01Z</time>
      </trkpt>
      <trkpt lat="45.750651229172945" lon="7.873603524640203">
        <ele>1922.3800000000001</ele>
        <time>2023-07-23T14:15:05Z</time>
      </trkpt>
      <trkpt lat="45.750684672966599" lon="7.873527081683278">
        <ele>1922.6099999999999</ele>
        <time>2023-07-23T14:15:14Z</time>
      </trkpt>
      <trkpt lat="45.750797493383288" lon="7.873386265709996">
        <ele>1920.5999999999999</ele>
        <time>2023-07-23T14:15:29Z</time>
      </trkpt>
      <trkpt lat="45.750878043472767" lon="7.873296663165093">
        <ele>1918.97</ele>
        <time>2023-07-23T14:15:39Z</time>
      </trkpt>
      <trkpt lat="45.751006621867418" lon="7.873174706473947">
        <ele>1918.8800000000001</ele>
        <time>2023-07-23T14:15:54Z</time>
      </trkpt>
      <trkpt lat="45.751044508069754" lon="7.873037662357092">
        <ele>1919.3599999999999</ele>
        <time>2023-07-23T14:16:04Z</time>
      </trkpt>
      <trkpt lat="45.751063115894794" lon="7.872824259102345">
        <ele>1919.3099999999999</ele>
        <time>2023-07-23T14:16:19Z</time>
      </trkpt>
      <trkpt lat="45.751054482534528" lon="7.872692411765456">
        <ele>1918.55</ele>
        <time>2023-07-23T14:16:28Z</time>
      </trkpt>
      <trkpt lat="45.751042077317834" lon="7.872649328783155">
        <ele>1918.4200000000001</ele>
        <time>2023-07-23T14:16:32Z</time>
      </trkpt>
      <trkpt lat="45.751033779233694" lon="7.872591745108366">
        <ele>1918.74</ele>
        <time>2023-07-23T14:16:36Z</time>
      </trkpt>
      <trkpt lat="45.751029420644045" lon="7.872550589963794">
        <ele>1918.97</ele>
        <time>2023-07-23T14:16:39Z</time>
      </trkpt>
      <trkpt lat="45.751100666821003" lon="7.872347915545106">
        <ele>1921.3</ele>
        <time>2023-07-23T14:16:53Z</time>
      </trkpt>
      <trkpt lat="45.751079628244042" lon="7.872213302180171">
        <ele>1922.1500000000001</ele>
        <time>2023-07-23T14:17:08Z</time>
      </trkpt>
      <trkpt lat="45.751071162521839" lon="7.872098721563816">
        <ele>1922.8299999999999</ele>
        <time>2023-07-23T14:17:18Z</time>
      </trkpt>
      <trkpt lat="45.751063618808985" lon="7.871885569766164">
        <ele>1921.4300000000001</ele>
        <time>2023-07-23T14:17:34Z</time>
      </trkpt>
      <trkpt lat="45.751121873036027" lon="7.87168599665165">
        <ele>1917.9400000000001</ele>
        <time>2023-07-23T14:17:51Z</time>
      </trkpt>
      <trkpt lat="45.75117283500731" lon="7.871481645852327">
        <ele>1918.8499999999999</ele>
        <time>2023-07-23T14:18:08Z</time>
      </trkpt>
      <trkpt lat="45.751162944361567" lon="7.871297327801585">
        <ele>1913.8199999999999</ele>
        <time>2023-07-23T14:18:24Z</time>
      </trkpt>
      <trkpt lat="45.751168644055724" lon="7.871094066649675">
        <ele>1909.78</ele>
        <time>2023-07-23T14:18:38Z</time>
      </trkpt>
      <trkpt lat="45.751209715381265" lon="7.870875634253025">
        <ele>1906.48</ele>
        <time>2023-07-23T14:18:54Z</time>
      </trkpt>
      <trkpt lat="45.751296048983932" lon="7.870687795802951">
        <ele>1903.5599999999999</ele>
        <time>2023-07-23T14:19:11Z</time>
      </trkpt>
      <trkpt lat="45.751358242705464" lon="7.8705660905689">
        <ele>1903.7</ele>
        <time>2023-07-23T14:19:23Z</time>
      </trkpt>
      <trkpt lat="45.75149922631681" lon="7.870429130271077">
        <ele>1896.6099999999999</ele>
        <time>2023-07-23T14:19:40Z</time>
      </trkpt>
      <trkpt lat="45.751603581011295" lon="7.870363416150212">
        <ele>1898.8099999999999</ele>
        <time>2023-07-23T14:19:52Z</time>
      </trkpt>
      <trkpt lat="45.751707600429654" lon="7.870272304862738">
        <ele>1898</ele>
        <time>2023-07-23T14:20:07Z</time>
      </trkpt>
      <trkpt lat="45.751736350357533" lon="7.870146073400974">
        <ele>1896.23</ele>
        <time>2023-07-23T14:20:19Z</time>
      </trkpt>
      <trkpt lat="45.751746911555529" lon="7.870086813345552">
        <ele>1897.3800000000001</ele>
        <time>2023-07-23T14:20:23Z</time>
      </trkpt>
      <trkpt lat="45.751783791929483" lon="7.870033672079444">
        <ele>1901.53</ele>
        <time>2023-07-23T14:20:29Z</time>
      </trkpt>
      <trkpt lat="45.751799717545509" lon="7.870029648765922">
        <ele>1902.5699999999999</ele>
        <time>2023-07-23T14:20:31Z</time>
      </trkpt>
      <trkpt lat="45.751862749457359" lon="7.870038449764252">
        <ele>1907.96</ele>
        <time>2023-07-23T14:20:44Z</time>
      </trkpt>
      <trkpt lat="45.751871634274721" lon="7.870021434500814">
        <ele>1909.3</ele>
        <time>2023-07-23T14:20:46Z</time>
      </trkpt>
      <trkpt lat="45.751896947622299" lon="7.869945410639048">
        <ele>1911.3900000000001</ele>
        <time>2023-07-23T14:20:51Z</time>
      </trkpt>
      <trkpt lat="45.751945395022631" lon="7.869801074266434">
        <ele>1915.01</ele>
        <time>2023-07-23T14:20:58Z</time>
      </trkpt>
      <trkpt lat="45.752018988132477" lon="7.869626060128212">
        <ele>1917</ele>
        <time>2023-07-23T14:21:08Z</time>
      </trkpt>
      <trkpt lat="45.752141950652003" lon="7.869463618844748">
        <ele>1916.3399999999999</ele>
        <time>2023-07-23T14:21:22Z</time>
      </trkpt>
      <trkpt lat="45.75225024484098" lon="7.869335794821382">
        <ele>1914.5599999999999</ele>
        <time>2023-07-23T14:21:34Z</time>
      </trkpt>
      <trkpt lat="45.752360466867685" lon="7.869222555309534">
        <ele>1912.6900000000001</ele>
        <time>2023-07-23T14:21:45Z</time>
      </trkpt>
      <trkpt lat="45.752405393868685" lon="7.869153907522559">
        <ele>1911.45</ele>
        <time>2023-07-23T14:21:51Z</time>
      </trkpt>
      <trkpt lat="45.752429869025946" lon="7.869074195623398">
        <ele>1910.03</ele>
        <time>2023-07-23T14:21:56Z</time>
      </trkpt>
      <trkpt lat="45.752516202628613" lon="7.86885634995997">
        <ele>1907.6700000000001</ele>
        <time>2023-07-23T14:22:12Z</time>
      </trkpt>
      <trkpt lat="45.752535397186875" lon="7.868698518723249">
        <ele>1906.0799999999999</ele>
        <time>2023-07-23T14:22:25Z</time>
      </trkpt>
      <trkpt lat="45.752538833767176" lon="7.868652166798711">
        <ele>1906.23</ele>
        <time>2023-07-23T14:22:28Z</time>
      </trkpt>
      <trkpt lat="45.752532882615924" lon="7.868586201220751">
        <ele>1906.8599999999999</ele>
        <time>2023-07-23T14:22:32Z</time>
      </trkpt>
      <trkpt lat="45.752506563439965" lon="7.868397021666169">
        <ele>1906.26</ele>
        <time>2023-07-23T14:22:47Z</time>
      </trkpt>
      <trkpt lat="45.752451745793223" lon="7.868293924257159">
        <ele>1903.24</ele>
        <time>2023-07-23T14:23:00Z</time>
      </trkpt>
      <trkpt lat="45.752433137968183" lon="7.868254613131285">
        <ele>1902.1600000000001</ele>
        <time>2023-07-23T14:23:04Z</time>
      </trkpt>
      <trkpt lat="45.752393156290054" lon="7.868193425238133">
        <ele>1901.51</ele>
        <time>2023-07-23T14:23:11Z</time>
      </trkpt>
      <trkpt lat="45.752364071086049" lon="7.868130058050156">
        <ele>1900.1900000000001</ele>
        <time>2023-07-23T14:23:16Z</time>
      </trkpt>
      <trkpt lat="45.752355940639973" lon="7.868102146312594">
        <ele>1900.03</ele>
        <time>2023-07-23T14:23:18Z</time>
      </trkpt>
      <trkpt lat="45.752345463261008" lon="7.868081359192729">
        <ele>1899.74</ele>
        <time>2023-07-23T14:23:20Z</time>
      </trkpt>
      <trkpt lat="45.752342026680708" lon="7.868038360029459">
        <ele>1899.72</ele>
        <time>2023-07-23T14:23:23Z</time>
      </trkpt>
      <trkpt lat="45.752284610643983" lon="7.867852533236146">
        <ele>1897.45</ele>
        <time>2023-07-23T14:23:38Z</time>
      </trkpt>
      <trkpt lat="45.752231134101748" lon="7.867680871859193">
        <ele>1894.8900000000001</ele>
        <time>2023-07-23T14:23:53Z</time>
      </trkpt>
      <trkpt lat="45.752228451892734" lon="7.867673328146339">
        <ele>1894.5699999999999</ele>
        <time>2023-07-23T14:23:54Z</time>
      </trkpt>
      <trkpt lat="45.752233983948827" lon="7.86757324822247">
        <ele>1893.5899999999999</ele>
        <time>2023-07-23T14:24:01Z</time>
      </trkpt>
      <trkpt lat="45.752243790775537" lon="7.867551119998097">
        <ele>1893.0999999999999</ele>
        <time>2023-07-23T14:24:03Z</time>
      </trkpt>
      <trkpt lat="45.752214537933469" lon="7.867485741153359">
        <ele>1891.1300000000001</ele>
        <time>2023-07-23T14:24:11Z</time>
      </trkpt>
      <trkpt lat="45.752176316455007" lon="7.867471491917968">
        <ele>1889.75</ele>
        <time>2023-07-23T14:24:16Z</time>
      </trkpt>
      <trkpt lat="45.752159552648664" lon="7.867430672049522">
        <ele>1888.5999999999999</ele>
        <time>2023-07-23T14:24:20Z</time>
      </trkpt>
      <trkpt lat="45.752154523506761" lon="7.867383230477572">
        <ele>1887.99</ele>
        <time>2023-07-23T14:24:24Z</time>
      </trkpt>
      <trkpt lat="45.75211294926703" lon="7.867303686216474">
        <ele>1887.54</ele>
        <time>2023-07-23T14:24:31Z</time>
      </trkpt>
      <trkpt lat="45.752106243744493" lon="7.86727367900312">
        <ele>1887.4100000000001</ele>
        <time>2023-07-23T14:24:33Z</time>
      </trkpt>
      <trkpt lat="45.752087384462357" lon="7.867214335128665">
        <ele>1886.96</ele>
        <time>2023-07-23T14:24:37Z</time>
      </trkpt>
      <trkpt lat="45.7520592212677" lon="7.867061533033848">
        <ele>1885.21</ele>
        <time>2023-07-23T14:24:48Z</time>
      </trkpt>
      <trkpt lat="45.751949083060026" lon="7.866889284923673">
        <ele>1882.6900000000001</ele>
        <time>2023-07-23T14:25:04Z</time>
      </trkpt>
      <trkpt lat="45.751882782205939" lon="7.866771770641208">
        <ele>1880.6099999999999</ele>
        <time>2023-07-23T14:25:17Z</time>
      </trkpt>
      <trkpt lat="45.751848248764873" lon="7.86669566296041">
        <ele>1878.55</ele>
        <time>2023-07-23T14:25:26Z</time>
      </trkpt>
      <trkpt lat="45.751824695616961" lon="7.866604719310999">
        <ele>1875.8800000000001</ele>
        <time>2023-07-23T14:25:37Z</time>
      </trkpt>
      <trkpt lat="45.751828551292419" lon="7.866451246663928">
        <ele>1873.6800000000001</ele>
        <time>2023-07-23T14:25:49Z</time>
      </trkpt>
      <trkpt lat="45.751781025901437" lon="7.866275645792484">
        <ele>1871.4200000000001</ele>
        <time>2023-07-23T14:26:04Z</time>
      </trkpt>
      <trkpt lat="45.751749174669385" lon="7.866130555048585">
        <ele>1868.6099999999999</ele>
        <time>2023-07-23T14:26:19Z</time>
      </trkpt>
      <trkpt lat="45.751656806096435" lon="7.866115299984813">
        <ele>1862.8399999999999</ele>
        <time>2023-07-23T14:26:35Z</time>
      </trkpt>
      <trkpt lat="45.751637443900108" lon="7.866109097376466">
        <ele>1861.1900000000001</ele>
        <time>2023-07-23T14:26:37Z</time>
      </trkpt>
      <trkpt lat="45.751535939052701" lon="7.866034079343081">
        <ele>1845.98</ele>
        <time>2023-07-23T14:26:52Z</time>
      </trkpt>
      <trkpt lat="45.751618919894099" lon="7.865876918658614">
        <ele>1846.1099999999999</ele>
        <time>2023-07-23T14:27:05Z</time>
      </trkpt>
      <trkpt lat="45.751697206869721" lon="7.865626635029912">
        <ele>1846.25</ele>
        <time>2023-07-23T14:27:22Z</time>
      </trkpt>
      <trkpt lat="45.751733584329486" lon="7.865360928699374">
        <ele>1845.6800000000001</ele>
        <time>2023-07-23T14:27:42Z</time>
      </trkpt>
      <trkpt lat="45.7517259567976" lon="7.865325808525085">
        <ele>1845.3199999999999</ele>
        <time>2023-07-23T14:27:45Z</time>
      </trkpt>
      <trkpt lat="45.75167465955019" lon="7.865137802436948">
        <ele>1844.3199999999999</ele>
        <time>2023-07-23T14:28:01Z</time>
      </trkpt>
      <trkpt lat="45.751655967906117" lon="7.864984665066004">
        <ele>1844.6900000000001</ele>
        <time>2023-07-23T14:28:14Z</time>
      </trkpt>
      <trkpt lat="45.751644736155868" lon="7.865018108859658">
        <ele>1838.9000000000001</ele>
        <time>2023-07-23T14:28:16Z</time>
      </trkpt>
      <trkpt lat="45.751617746427655" lon="7.865022802725434">
        <ele>1837.1400000000001</ele>
        <time>2023-07-23T14:28:22Z</time>
      </trkpt>
      <trkpt lat="45.751600982621312" lon="7.865011654794216">
        <ele>1838.01</ele>
        <time>2023-07-23T14:28:49Z</time>
      </trkpt>
      <trkpt lat="45.751561252400279" lon="7.865026826038957">
        <ele>1838.55</ele>
        <time>2023-07-23T14:29:09Z</time>
      </trkpt>
      <trkpt lat="45.751519175246358" lon="7.865016767755151">
        <ele>1839.6500000000001</ele>
        <time>2023-07-23T14:29:14Z</time>
      </trkpt>
      <trkpt lat="45.751511631533504" lon="7.865005116909742">
        <ele>1839.78</ele>
        <time>2023-07-23T14:29:15Z</time>
      </trkpt>
      <trkpt lat="45.751506183296442" lon="7.864991957321763">
        <ele>1839.95</ele>
        <time>2023-07-23T14:29:16Z</time>
      </trkpt>
      <trkpt lat="45.751496125012636" lon="7.864685514941812">
        <ele>1840.28</ele>
        <time>2023-07-23T14:29:34Z</time>
      </trkpt>
      <trkpt lat="45.751514649018645" lon="7.864572359248996">
        <ele>1840.9100000000001</ele>
        <time>2023-07-23T14:29:42Z</time>
      </trkpt>
      <trkpt lat="45.751520432531834" lon="7.864550482481718">
        <ele>1840.6199999999999</ele>
        <time>2023-07-23T14:29:43Z</time>
      </trkpt>
      <trkpt lat="45.7515221927315" lon="7.86453003063798">
        <ele>1840.6700000000001</ele>
        <time>2023-07-23T14:29:44Z</time>
      </trkpt>
      <trkpt lat="45.751522108912468" lon="7.864511087536812">
        <ele>1840.5999999999999</ele>
        <time>2023-07-23T14:29:45Z</time>
      </trkpt>
      <trkpt lat="45.751521773636341" lon="7.864493653178215">
        <ele>1840.53</ele>
        <time>2023-07-23T14:29:46Z</time>
      </trkpt>
      <trkpt lat="45.751524539664388" lon="7.864448558539152">
        <ele>1841.9200000000001</ele>
        <time>2023-07-23T14:29:48Z</time>
      </trkpt>
      <trkpt lat="45.751527724787593" lon="7.864427184686065">
        <ele>1842.3</ele>
        <time>2023-07-23T14:29:49Z</time>
      </trkpt>
      <trkpt lat="45.751529904082417" lon="7.864273628219962">
        <ele>1842.1500000000001</ele>
        <time>2023-07-23T14:29:58Z</time>
      </trkpt>
      <trkpt lat="45.751529317349195" lon="7.864255271852016">
        <ele>1842.1800000000001</ele>
        <time>2023-07-23T14:29:59Z</time>
      </trkpt>
      <trkpt lat="45.751529568806291" lon="7.863963078707457">
        <ele>1842.3</ele>
        <time>2023-07-23T14:30:17Z</time>
      </trkpt>
      <trkpt lat="45.751531245186925" lon="7.863847073167563">
        <ele>1842.5899999999999</ele>
        <time>2023-07-23T14:30:23Z</time>
      </trkpt>
      <trkpt lat="45.751533759757876" lon="7.863825783133507">
        <ele>1842.6900000000001</ele>
        <time>2023-07-23T14:30:24Z</time>
      </trkpt>
      <trkpt lat="45.751533508300781" lon="7.863806840032339">
        <ele>1842.78</ele>
        <time>2023-07-23T14:30:25Z</time>
      </trkpt>
      <trkpt lat="45.75153342448175" lon="7.863787980750203">
        <ele>1842.8099999999999</ele>
        <time>2023-07-23T14:30:26Z</time>
      </trkpt>
      <trkpt lat="45.751532586291432" lon="7.863770462572575">
        <ele>1842.8499999999999</ele>
        <time>2023-07-23T14:30:27Z</time>
      </trkpt>
      <trkpt lat="45.751551948487759" lon="7.863538283854723">
        <ele>1841.22</ele>
        <time>2023-07-23T14:30:41Z</time>
      </trkpt>
      <trkpt lat="45.751551697030663" lon="7.863522190600634">
        <ele>1841.1300000000001</ele>
        <time>2023-07-23T14:30:42Z</time>
      </trkpt>
      <trkpt lat="45.7515549659729" lon="7.863503415137529">
        <ele>1841.26</ele>
        <time>2023-07-23T14:30:43Z</time>
      </trkpt>
      <trkpt lat="45.751557564362884" lon="7.863482125103474">
        <ele>1841.4400000000001</ele>
        <time>2023-07-23T14:30:44Z</time>
      </trkpt>
      <trkpt lat="45.751558570191264" lon="7.863463517278433">
        <ele>1841.55</ele>
        <time>2023-07-23T14:30:45Z</time>
      </trkpt>
      <trkpt lat="45.751557145267725" lon="7.863447340205312">
        <ele>1841.6900000000001</ele>
        <time>2023-07-23T14:30:46Z</time>
      </trkpt>
      <trkpt lat="45.751555636525154" lon="7.863432252779603">
        <ele>1841.76</ele>
        <time>2023-07-23T14:30:47Z</time>
      </trkpt>
      <trkpt lat="45.751556642353535" lon="7.863417584449053">
        <ele>1841.8399999999999</ele>
        <time>2023-07-23T14:30:48Z</time>
      </trkpt>
      <trkpt lat="45.751560162752867" lon="7.863369807600975">
        <ele>1842.0599999999999</ele>
        <time>2023-07-23T14:30:51Z</time>
      </trkpt>
      <trkpt lat="45.751558821648359" lon="7.863354301080108">
        <ele>1842.1400000000001</ele>
        <time>2023-07-23T14:30:52Z</time>
      </trkpt>
      <trkpt lat="45.751561587676406" lon="7.86333829164505">
        <ele>1842.1400000000001</ele>
        <time>2023-07-23T14:30:53Z</time>
      </trkpt>
      <trkpt lat="45.751565862447023" lon="7.863321946933866">
        <ele>1842.21</ele>
        <time>2023-07-23T14:30:54Z</time>
      </trkpt>
      <trkpt lat="45.751569466665387" lon="7.863304931670427">
        <ele>1842.24</ele>
        <time>2023-07-23T14:30:55Z</time>
      </trkpt>
      <trkpt lat="45.751569047570229" lon="7.863286742940545">
        <ele>1842.3499999999999</ele>
        <time>2023-07-23T14:30:56Z</time>
      </trkpt>
      <trkpt lat="45.751568796113133" lon="7.863269140943885">
        <ele>1842.4100000000001</ele>
        <time>2023-07-23T14:30:57Z</time>
      </trkpt>
      <trkpt lat="45.751576758921146" lon="7.863243073225021">
        <ele>1841.79</ele>
        <time>2023-07-23T14:30:59Z</time>
      </trkpt>
      <trkpt lat="45.75160525739193" lon="7.863079039379954">
        <ele>1838.73</ele>
        <time>2023-07-23T14:31:11Z</time>
      </trkpt>
      <trkpt lat="45.751583464443684" lon="7.862989604473114">
        <ele>1838.3</ele>
        <time>2023-07-23T14:31:17Z</time>
      </trkpt>
      <trkpt lat="45.751553624868393" lon="7.862909808754921">
        <ele>1838.24</ele>
        <time>2023-07-23T14:31:31Z</time>
      </trkpt>
      <trkpt lat="45.751543063670397" lon="7.862901678308845">
        <ele>1838.02</ele>
        <time>2023-07-23T14:31:33Z</time>
      </trkpt>
      <trkpt lat="45.751504842191935" lon="7.862847363576293">
        <ele>1838.02</ele>
        <time>2023-07-23T14:31:45Z</time>
      </trkpt>
      <trkpt lat="45.751451952382922" lon="7.862726161256433">
        <ele>1835.75</ele>
        <time>2023-07-23T14:32:00Z</time>
      </trkpt>
      <trkpt lat="45.751403421163559" lon="7.862589284777641">
        <ele>1832.1099999999999</ele>
        <time>2023-07-23T14:32:14Z</time>
      </trkpt>
      <trkpt lat="45.751348100602627" lon="7.862450312823057">
        <ele>1833.3099999999999</ele>
        <time>2023-07-23T14:32:27Z</time>
      </trkpt>
      <trkpt lat="45.751218181103468" lon="7.86231804639101">
        <ele>1834.4400000000001</ele>
        <time>2023-07-23T14:32:40Z</time>
      </trkpt>
      <trkpt lat="45.751075772568583" lon="7.862149989232421">
        <ele>1836.02</ele>
        <time>2023-07-23T14:32:56Z</time>
      </trkpt>
      <trkpt lat="45.751051465049386" lon="7.862139847129583">
        <ele>1836.3399999999999</ele>
        <time>2023-07-23T14:32:59Z</time>
      </trkpt>
      <trkpt lat="45.751043418422341" lon="7.862131632864475">
        <ele>1836.52</ele>
        <time>2023-07-23T14:33:00Z</time>
      </trkpt>
      <trkpt lat="45.751039898023009" lon="7.862120568752289">
        <ele>1836.6600000000001</ele>
        <time>2023-07-23T14:33:01Z</time>
      </trkpt>
      <trkpt lat="45.750974016264081" lon="7.86209081299603">
        <ele>1839.49</ele>
        <time>2023-07-23T14:33:13Z</time>
      </trkpt>
      <trkpt lat="45.750905284658074" lon="7.862061141058803">
        <ele>1841.23</ele>
        <time>2023-07-23T14:33:22Z</time>
      </trkpt>
      <trkpt lat="45.750898998230696" lon="7.862052088603377">
        <ele>1841.4400000000001</ele>
        <time>2023-07-23T14:33:23Z</time>
      </trkpt>
      <trkpt lat="45.750818783417344" lon="7.861985787749291">
        <ele>1840.3199999999999</ele>
        <time>2023-07-23T14:33:35Z</time>
      </trkpt>
      <trkpt lat="45.750791793689132" lon="7.861984865739942">
        <ele>1839.9200000000001</ele>
        <time>2023-07-23T14:33:38Z</time>
      </trkpt>
      <trkpt lat="45.750743681564927" lon="7.861999785527587">
        <ele>1838.6600000000001</ele>
        <time>2023-07-23T14:33:51Z</time>
      </trkpt>
      <trkpt lat="45.750674782320857" lon="7.861939771100879">
        <ele>1835.22</ele>
        <time>2023-07-23T14:34:09Z</time>
      </trkpt>
      <trkpt lat="45.75061627663672" lon="7.861848156899214">
        <ele>1830.5799999999999</ele>
        <time>2023-07-23T14:34:25Z</time>
      </trkpt>
      <trkpt lat="45.750574786216021" lon="7.861756961792707">
        <ele>1824.8399999999999</ele>
        <time>2023-07-23T14:34:38Z</time>
      </trkpt>
      <trkpt lat="45.750551484525204" lon="7.861703485250473">
        <ele>1823.55</ele>
        <time>2023-07-23T14:34:43Z</time>
      </trkpt>
      <trkpt lat="45.750494236126542" lon="7.861596615985036">
        <ele>1819.9100000000001</ele>
        <time>2023-07-23T14:34:58Z</time>
      </trkpt>
      <trkpt lat="45.750476298853755" lon="7.861539032310247">
        <ele>1818.76</ele>
        <time>2023-07-23T14:35:04Z</time>
      </trkpt>
      <trkpt lat="45.75042718090117" lon="7.861446412280202">
        <ele>1816.5699999999999</ele>
        <time>2023-07-23T14:35:18Z</time>
      </trkpt>
      <trkpt lat="45.750418966636062" lon="7.861416321247816">
        <ele>1815.78</ele>
        <time>2023-07-23T14:35:21Z</time>
      </trkpt>
      <trkpt lat="45.750376051291823" lon="7.861333256587386">
        <ele>1813.7</ele>
        <time>2023-07-23T14:35:34Z</time>
      </trkpt>
      <trkpt lat="45.750330956652761" lon="7.861216580495238">
        <ele>1810.8699999999999</ele>
        <time>2023-07-23T14:35:48Z</time>
      </trkpt>
      <trkpt lat="45.750353503972292" lon="7.86109353415668">
        <ele>1808.3299999999999</ele>
        <time>2023-07-23T14:36:04Z</time>
      </trkpt>
      <trkpt lat="45.750341517850757" lon="7.861046427860856">
        <ele>1807.6600000000001</ele>
        <time>2023-07-23T14:36:07Z</time>
      </trkpt>
      <trkpt lat="45.750337410718203" lon="7.861033771187067">
        <ele>1807.21</ele>
        <time>2023-07-23T14:36:08Z</time>
      </trkpt>
      <trkpt lat="45.750287370756269" lon="7.860912820324302">
        <ele>1805.1099999999999</ele>
        <time>2023-07-23T14:36:22Z</time>
      </trkpt>
      <trkpt lat="45.750259291380644" lon="7.860827492550015">
        <ele>1801.95</ele>
        <time>2023-07-23T14:36:35Z</time>
      </trkpt>
      <trkpt lat="45.750224338844419" lon="7.860803017392755">
        <ele>1800.72</ele>
        <time>2023-07-23T14:36:40Z</time>
      </trkpt>
      <trkpt lat="45.750198690220714" lon="7.860751803964376">
        <ele>1799.51</ele>
        <time>2023-07-23T14:36:46Z</time>
      </trkpt>
      <trkpt lat="45.750148063525558" lon="7.860615681856871">
        <ele>1796.77</ele>
        <time>2023-07-23T14:37:00Z</time>
      </trkpt>
      <trkpt lat="45.750093413516879" lon="7.860546950250864">
        <ele>1793.4000000000001</ele>
        <time>2023-07-23T14:37:14Z</time>
      </trkpt>
      <trkpt lat="45.750062232837081" lon="7.860458102077246">
        <ele>1792.3299999999999</ele>
        <time>2023-07-23T14:37:23Z</time>
      </trkpt>
      <trkpt lat="45.750054018571973" lon="7.860430609434843">
        <ele>1792</ele>
        <time>2023-07-23T14:37:25Z</time>
      </trkpt>
      <trkpt lat="45.750030968338251" lon="7.860375791788101">
        <ele>1791.0699999999999</ele>
        <time>2023-07-23T14:37:29Z</time>
      </trkpt>
      <trkpt lat="45.750011270865798" lon="7.860317034646869">
        <ele>1789.3199999999999</ele>
        <time>2023-07-23T14:37:34Z</time>
      </trkpt>
      <trkpt lat="45.750011103227735" lon="7.860301109030843">
        <ele>1788.8699999999999</ele>
        <time>2023-07-23T14:37:35Z</time>
      </trkpt>
      <trkpt lat="45.750016216188669" lon="7.860285434871912">
        <ele>1788.46</ele>
        <time>2023-07-23T14:37:36Z</time>
      </trkpt>
      <trkpt lat="45.75002258643508" lon="7.860213099047542">
        <ele>1786.53</ele>
        <time>2023-07-23T14:37:41Z</time>
      </trkpt>
      <trkpt lat="45.750018982216716" lon="7.860198179259896">
        <ele>1786.1600000000001</ele>
        <time>2023-07-23T14:37:42Z</time>
      </trkpt>
      <trkpt lat="45.749955950304866" lon="7.860084101557732">
        <ele>1784.25</ele>
        <time>2023-07-23T14:37:54Z</time>
      </trkpt>
      <trkpt lat="45.749903814867139" lon="7.86001218482852">
        <ele>1780.9300000000001</ele>
        <time>2023-07-23T14:38:08Z</time>
      </trkpt>
      <trkpt lat="45.749902222305536" lon="7.85993741825223">
        <ele>1778.8</ele>
        <time>2023-07-23T14:38:18Z</time>
      </trkpt>
      <trkpt lat="45.749847739934921" lon="7.859869943931699">
        <ele>1776.02</ele>
        <time>2023-07-23T14:38:31Z</time>
      </trkpt>
      <trkpt lat="45.749880345538259" lon="7.859768522903323">
        <ele>1773.76</ele>
        <time>2023-07-23T14:38:44Z</time>
      </trkpt>
      <trkpt lat="45.749869365245104" lon="7.859744885936379">
        <ele>1773.28</ele>
        <time>2023-07-23T14:38:46Z</time>
      </trkpt>
      <trkpt lat="45.749846063554287" lon="7.859727200120688">
        <ele>1772.5599999999999</ele>
        <time>2023-07-23T14:38:49Z</time>
      </trkpt>
      <trkpt lat="45.749836508184671" lon="7.859721668064594">
        <ele>1772.3399999999999</ele>
        <time>2023-07-23T14:38:50Z</time>
      </trkpt>
      <trkpt lat="45.749826785176992" lon="7.859714040532708">
        <ele>1772.0799999999999</ele>
        <time>2023-07-23T14:38:51Z</time>
      </trkpt>
      <trkpt lat="45.749816978350282" lon="7.859706161543727">
        <ele>1771.8199999999999</ele>
        <time>2023-07-23T14:38:52Z</time>
      </trkpt>
      <trkpt lat="45.749798286706209" lon="7.85969945602119">
        <ele>1771.28</ele>
        <time>2023-07-23T14:38:54Z</time>
      </trkpt>
      <trkpt lat="45.749704744666815" lon="7.85964329726994">
        <ele>1766.9000000000001</ele>
        <time>2023-07-23T14:39:08Z</time>
      </trkpt>
      <trkpt lat="45.749655961990356" lon="7.859635166823864">
        <ele>1765.52</ele>
        <time>2023-07-23T14:39:14Z</time>
      </trkpt>
      <trkpt lat="45.749551272019744" lon="7.859698031097651">
        <ele>1762.3199999999999</ele>
        <time>2023-07-23T14:39:27Z</time>
      </trkpt>
      <trkpt lat="45.749554121866822" lon="7.859627371653915">
        <ele>1757.4000000000001</ele>
        <time>2023-07-23T14:39:45Z</time>
      </trkpt>
      <trkpt lat="45.74947290122509" lon="7.859482783824205">
        <ele>1753.53</ele>
        <time>2023-07-23T14:40:05Z</time>
      </trkpt>
      <trkpt lat="45.749458484351635" lon="7.859480939805508">
        <ele>1753.3599999999999</ele>
        <time>2023-07-23T14:40:06Z</time>
      </trkpt>
      <trkpt lat="45.749445492401719" lon="7.859476497396827">
        <ele>1753.25</ele>
        <time>2023-07-23T14:40:07Z</time>
      </trkpt>
      <trkpt lat="45.74943576939404" lon="7.859470965340734">
        <ele>1753.2</ele>
        <time>2023-07-23T14:40:08Z</time>
      </trkpt>
      <trkpt lat="45.74935027398169" lon="7.859382871538401">
        <ele>1749.9200000000001</ele>
        <time>2023-07-23T14:40:22Z</time>
      </trkpt>
      <trkpt lat="45.749226389452815" lon="7.859416818246245">
        <ele>1745.8599999999999</ele>
        <time>2023-07-23T14:40:42Z</time>
      </trkpt>
      <trkpt lat="45.749090686440468" lon="7.859411034733057">
        <ele>1742.01</ele>
        <time>2023-07-23T14:41:00Z</time>
      </trkpt>
      <trkpt lat="45.748998820781708" lon="7.859387816861272">
        <ele>1739.0799999999999</ele>
        <time>2023-07-23T14:41:17Z</time>
      </trkpt>
      <trkpt lat="45.748903267085552" lon="7.859406592324376">
        <ele>1735.7</ele>
        <time>2023-07-23T14:41:35Z</time>
      </trkpt>
      <trkpt lat="45.748865799978375" lon="7.859516311436892">
        <ele>1732.54</ele>
        <time>2023-07-23T14:41:53Z</time>
      </trkpt>
      <trkpt lat="45.748798074200749" lon="7.859477838501334">
        <ele>1732</ele>
        <time>2023-07-23T14:42:14Z</time>
      </trkpt>
      <trkpt lat="45.748738059774041" lon="7.859519496560097">
        <ele>1731.75</ele>
        <time>2023-07-23T14:42:26Z</time>
      </trkpt>
      <trkpt lat="45.748711656779051" lon="7.859426373615861">
        <ele>1730.98</ele>
        <time>2023-07-23T14:42:39Z</time>
      </trkpt>
      <trkpt lat="45.7487125787884" lon="7.859412292018533">
        <ele>1730.8499999999999</ele>
        <time>2023-07-23T14:42:57Z</time>
      </trkpt>
      <trkpt lat="45.748751554638147" lon="7.859431738033891">
        <ele>1730.1199999999999</ele>
        <time>2023-07-23T14:43:25Z</time>
      </trkpt>
      <trkpt lat="45.748780388385057" lon="7.859390079975128">
        <ele>1729.03</ele>
        <time>2023-07-23T14:43:51Z</time>
      </trkpt>
      <trkpt lat="45.74873655103147" lon="7.859386391937733">
        <ele>1729.4200000000001</ele>
        <time>2023-07-23T14:44:14Z</time>
      </trkpt>
      <trkpt lat="45.748734036460519" lon="7.859375746920705">
        <ele>1729.6099999999999</ele>
        <time>2023-07-23T14:44:40Z</time>
      </trkpt>
      <trkpt lat="45.748720122501254" lon="7.859379267320037">
        <ele>1729.71</ele>
        <time>2023-07-23T14:45:04Z</time>
      </trkpt>
      <trkpt lat="45.748728420585394" lon="7.859382955357432">
        <ele>1729.9200000000001</ele>
        <time>2023-07-23T14:45:33Z</time>
      </trkpt>
      <trkpt lat="45.748736383393407" lon="7.859369209036231">
        <ele>1730.23</ele>
        <time>2023-07-23T14:45:57Z</time>
      </trkpt>
      <trkpt lat="45.748707633465528" lon="7.859385553747416">
        <ele>1730.46</ele>
        <time>2023-07-23T14:46:20Z</time>
      </trkpt>
      <trkpt lat="45.748628424480557" lon="7.859499882906675">
        <ele>1729.3099999999999</ele>
        <time>2023-07-23T14:46:38Z</time>
      </trkpt>
      <trkpt lat="45.748606212437153" lon="7.859457889571786">
        <ele>1728.3900000000001</ele>
        <time>2023-07-23T14:46:51Z</time>
      </trkpt>
      <trkpt lat="45.74855332262814" lon="7.85950792953372">
        <ele>1725.28</ele>
        <time>2023-07-23T14:47:04Z</time>
      </trkpt>
      <trkpt lat="45.74849858880043" lon="7.859486471861601">
        <ele>1722.0599999999999</ele>
        <time>2023-07-23T14:47:17Z</time>
      </trkpt>
      <trkpt lat="45.748442094773054" lon="7.859482197090983">
        <ele>1720.7</ele>
        <time>2023-07-23T14:47:28Z</time>
      </trkpt>
      <trkpt lat="45.748473275452852" lon="7.859400724992156">
        <ele>1719.99</ele>
        <time>2023-07-23T14:47:35Z</time>
      </trkpt>
      <trkpt lat="45.7484829146415" lon="7.859389828518033">
        <ele>1719.9100000000001</ele>
        <time>2023-07-23T14:47:36Z</time>
      </trkpt>
      <trkpt lat="45.748509233817458" lon="7.859284216538072">
        <ele>1716.1800000000001</ele>
        <time>2023-07-23T14:47:51Z</time>
      </trkpt>
      <trkpt lat="45.748415943235159" lon="7.859270805492997">
        <ele>1715.3599999999999</ele>
        <time>2023-07-23T14:48:04Z</time>
      </trkpt>
      <trkpt lat="45.748366406187415" lon="7.859329394996166">
        <ele>1714.3299999999999</ele>
        <time>2023-07-23T14:48:12Z</time>
      </trkpt>
      <trkpt lat="45.748358946293592" lon="7.859341548755765">
        <ele>1714.28</ele>
        <time>2023-07-23T14:48:13Z</time>
      </trkpt>
      <trkpt lat="45.748349893838167" lon="7.859355881810188">
        <ele>1714.1700000000001</ele>
        <time>2023-07-23T14:48:14Z</time>
      </trkpt>
      <trkpt lat="45.748279904946685" lon="7.859449004754424">
        <ele>1713.0899999999999</ele>
        <time>2023-07-23T14:48:30Z</time>
      </trkpt>
      <trkpt lat="45.748213436454535" lon="7.859400222077966">
        <ele>1711.28</ele>
        <time>2023-07-23T14:48:45Z</time>
      </trkpt>
      <trkpt lat="45.74812282808125" lon="7.859337693080306">
        <ele>1708.5699999999999</ele>
        <time>2023-07-23T14:49:04Z</time>
      </trkpt>
      <trkpt lat="45.74800992384553" lon="7.859387984499335">
        <ele>1705.47</ele>
        <time>2023-07-23T14:49:24Z</time>
      </trkpt>
      <trkpt lat="45.747879836708307" lon="7.859446741640568">
        <ele>1697.8</ele>
        <time>2023-07-23T14:49:41Z</time>
      </trkpt>
      <trkpt lat="45.747816804796457" lon="7.859370801597834">
        <ele>1691.52</ele>
        <time>2023-07-23T14:49:58Z</time>
      </trkpt>
      <trkpt lat="45.747718987986445" lon="7.859411034733057">
        <ele>1689.02</ele>
        <time>2023-07-23T14:50:19Z</time>
      </trkpt>
      <trkpt lat="45.747649753466249" lon="7.859396785497665">
        <ele>1684.5</ele>
        <time>2023-07-23T14:50:37Z</time>
      </trkpt>
      <trkpt lat="45.747583033517003" lon="7.859348841011524">
        <ele>1679.96</ele>
        <time>2023-07-23T14:50:53Z</time>
      </trkpt>
      <trkpt lat="45.747561072930694" lon="7.859316235408187">
        <ele>1678.9300000000001</ele>
        <time>2023-07-23T14:51:00Z</time>
      </trkpt>
      <trkpt lat="45.747549422085285" lon="7.859315564855933">
        <ele>1678.3599999999999</ele>
        <time>2023-07-23T14:51:01Z</time>
      </trkpt>
      <trkpt lat="45.747537352144718" lon="7.859314391389489">
        <ele>1677.8900000000001</ele>
        <time>2023-07-23T14:51:02Z</time>
      </trkpt>
      <trkpt lat="45.747521845623851" lon="7.859292849898338">
        <ele>1674.6500000000001</ele>
        <time>2023-07-23T14:51:17Z</time>
      </trkpt>
      <trkpt lat="45.747461495921016" lon="7.859255885705352">
        <ele>1673.5999999999999</ele>
        <time>2023-07-23T14:51:24Z</time>
      </trkpt>
      <trkpt lat="45.747415227815509" lon="7.859252030029893">
        <ele>1671.55</ele>
        <time>2023-07-23T14:51:29Z</time>
      </trkpt>
      <trkpt lat="45.747301988303661" lon="7.859224872663617">
        <ele>1665.3399999999999</ele>
        <time>2023-07-23T14:51:44Z</time>
      </trkpt>
      <trkpt lat="45.747233675792813" lon="7.859164020046592">
        <ele>1660.1400000000001</ele>
        <time>2023-07-23T14:52:00Z</time>
      </trkpt>
      <trkpt lat="45.747211128473282" lon="7.859176592901349">
        <ele>1660.1700000000001</ele>
        <time>2023-07-23T14:52:21Z</time>
      </trkpt>
      <trkpt lat="45.747173577547073" lon="7.859160080552101">
        <ele>1660.0899999999999</ele>
        <time>2023-07-23T14:52:42Z</time>
      </trkpt>
      <trkpt lat="45.747113060206175" lon="7.859104676172137">
        <ele>1657.8800000000001</ele>
        <time>2023-07-23T14:52:58Z</time>
      </trkpt>
      <trkpt lat="45.747049693018198" lon="7.8589978069067">
        <ele>1653.4200000000001</ele>
        <time>2023-07-23T14:53:16Z</time>
      </trkpt>
      <trkpt lat="45.746995378285646" lon="7.858883058652282">
        <ele>1649.1800000000001</ele>
        <time>2023-07-23T14:53:36Z</time>
      </trkpt>
      <trkpt lat="45.74693058617413" lon="7.858799239620566">
        <ele>1643.98</ele>
        <time>2023-07-23T14:53:57Z</time>
      </trkpt>
      <trkpt lat="45.746881552040577" lon="7.858686754480004">
        <ele>1640.0999999999999</ele>
        <time>2023-07-23T14:54:15Z</time>
      </trkpt>
      <trkpt lat="45.746811311691999" lon="7.858617184683681">
        <ele>1638.0899999999999</ele>
        <time>2023-07-23T14:54:26Z</time>
      </trkpt>
      <trkpt lat="45.746802007779479" lon="7.858612406998873">
        <ele>1637.8699999999999</ele>
        <time>2023-07-23T14:54:27Z</time>
      </trkpt>
      <trkpt lat="45.746665466576815" lon="7.858514087274671">
        <ele>1632.3</ele>
        <time>2023-07-23T14:54:49Z</time>
      </trkpt>
      <trkpt lat="45.746562369167805" lon="7.858394477516413">
        <ele>1627.5799999999999</ele>
        <time>2023-07-23T14:55:11Z</time>
      </trkpt>
      <trkpt lat="45.746492547914386" lon="7.858313843607903">
        <ele>1624.3800000000001</ele>
        <time>2023-07-23T14:55:30Z</time>
      </trkpt>
      <trkpt lat="45.746384002268314" lon="7.858238238841295">
        <ele>1620.6900000000001</ele>
        <time>2023-07-23T14:55:50Z</time>
      </trkpt>
      <trkpt lat="45.746311079710722" lon="7.858117874711752">
        <ele>1617.72</ele>
        <time>2023-07-23T14:56:09Z</time>
      </trkpt>
      <trkpt lat="45.746244192123413" lon="7.857975633814931">
        <ele>1614.03</ele>
        <time>2023-07-23T14:56:28Z</time>
      </trkpt>
      <trkpt lat="45.746238408610225" lon="7.857828196138144">
        <ele>1609.8800000000001</ele>
        <time>2023-07-23T14:56:46Z</time>
      </trkpt>
      <trkpt lat="45.74615215882659" lon="7.857749490067363">
        <ele>1605.8299999999999</ele>
        <time>2023-07-23T14:57:03Z</time>
      </trkpt>
      <trkpt lat="45.746071524918079" lon="7.857624599710107">
        <ele>1601.55</ele>
        <time>2023-07-23T14:57:22Z</time>
      </trkpt>
      <trkpt lat="45.746008325368166" lon="7.85752066411078">
        <ele>1597.6800000000001</ele>
        <time>2023-07-23T14:57:40Z</time>
      </trkpt>
      <trkpt lat="45.745915453881025" lon="7.857446232810617">
        <ele>1593.6400000000001</ele>
        <time>2023-07-23T14:57:58Z</time>
      </trkpt>
      <trkpt lat="45.745818726718426" lon="7.85733743570745">
        <ele>1588.21</ele>
        <time>2023-07-23T14:58:18Z</time>
      </trkpt>
      <trkpt lat="45.745700793340802" lon="7.857267614454031">
        <ele>1584.0899999999999</ele>
        <time>2023-07-23T14:58:40Z</time>
      </trkpt>
      <trkpt lat="45.74566014111042" lon="7.857230063527823">
        <ele>1581.3699999999999</ele>
        <time>2023-07-23T14:58:59Z</time>
      </trkpt>
      <trkpt lat="45.745589733123779" lon="7.857085894793272">
        <ele>1579.3099999999999</ele>
        <time>2023-07-23T14:59:17Z</time>
      </trkpt>
      <trkpt lat="45.74548713862896" lon="7.857002830132842">
        <ele>1576.1900000000001</ele>
        <time>2023-07-23T14:59:37Z</time>
      </trkpt>
      <trkpt lat="45.745450761169195" lon="7.85692404024303">
        <ele>1573.1800000000001</ele>
        <time>2023-07-23T14:59:53Z</time>
      </trkpt>
      <trkpt lat="45.745530053973198" lon="7.856802754104137">
        <ele>1569.52</ele>
        <time>2023-07-23T15:00:13Z</time>
      </trkpt>
      <trkpt lat="45.745494598522782" lon="7.856702674180269">
        <ele>1565.6099999999999</ele>
        <time>2023-07-23T15:00:29Z</time>
      </trkpt>
      <trkpt lat="45.745461406186223" lon="7.856598906219006">
        <ele>1560.0599999999999</ele>
        <time>2023-07-23T15:00:44Z</time>
      </trkpt>
      <trkpt lat="45.745580261573195" lon="7.856536377221346">
        <ele>1553.9400000000001</ele>
        <time>2023-07-23T15:01:03Z</time>
      </trkpt>
      <trkpt lat="45.74573784135282" lon="7.856518523767591">
        <ele>1547.9400000000001</ele>
        <time>2023-07-23T15:01:25Z</time>
      </trkpt>
      <trkpt lat="45.745736164972186" lon="7.856434788554907">
        <ele>1545.0999999999999</ele>
        <time>2023-07-23T15:01:40Z</time>
      </trkpt>
      <trkpt lat="45.745741864666343" lon="7.856441074982286">
        <ele>1544.99</ele>
        <time>2023-07-23T15:01:55Z</time>
      </trkpt>
      <trkpt lat="45.745743624866009" lon="7.85644275136292">
        <ele>1545.29</ele>
        <time>2023-07-23T15:02:18Z</time>
      </trkpt>
      <trkpt lat="45.745802968740463" lon="7.856441913172603">
        <ele>1546.26</ele>
        <time>2023-07-23T15:02:34Z</time>
      </trkpt>
      <trkpt lat="45.745870359241962" lon="7.856458509340882">
        <ele>1543.05</ele>
        <time>2023-07-23T15:02:42Z</time>
      </trkpt>
      <trkpt lat="45.745944622904062" lon="7.856472004204989">
        <ele>1537.4100000000001</ele>
        <time>2023-07-23T15:02:54Z</time>
      </trkpt>
      <trkpt lat="45.746050905436277" lon="7.856393465772271">
        <ele>1535</ele>
        <time>2023-07-23T15:03:11Z</time>
      </trkpt>
      <trkpt lat="45.746055850759149" lon="7.856387346982956">
        <ele>1536.2</ele>
        <time>2023-07-23T15:03:27Z</time>
      </trkpt>
      <trkpt lat="45.746085019782186" lon="7.85632548853755">
        <ele>1536.6900000000001</ele>
        <time>2023-07-23T15:03:40Z</time>
      </trkpt>
      <trkpt lat="45.746108992025256" lon="7.856197915971279">
        <ele>1535.74</ele>
        <time>2023-07-23T15:03:57Z</time>
      </trkpt>
      <trkpt lat="45.7460618019104" lon="7.856094902381301">
        <ele>1534.5899999999999</ele>
        <time>2023-07-23T15:04:16Z</time>
      </trkpt>
      <trkpt lat="45.746030285954475" lon="7.856041174381971">
        <ele>1534.52</ele>
        <time>2023-07-23T15:04:22Z</time>
      </trkpt>
      <trkpt lat="45.746021484956145" lon="7.856032121926546">
        <ele>1534.55</ele>
        <time>2023-07-23T15:04:23Z</time>
      </trkpt>
      <trkpt lat="45.746013186872005" lon="7.856018040329218">
        <ele>1534.52</ele>
        <time>2023-07-23T15:04:24Z</time>
      </trkpt>
      <trkpt lat="45.745981419458985" lon="7.856006138026714">
        <ele>1534.3699999999999</ele>
        <time>2023-07-23T15:04:26Z</time>
      </trkpt>
      <trkpt lat="45.745966918766499" lon="7.85599809139967">
        <ele>1534.28</ele>
        <time>2023-07-23T15:04:27Z</time>
      </trkpt>
      <trkpt lat="45.745954010635614" lon="7.855816371738911">
        <ele>1532.29</ele>
        <time>2023-07-23T15:04:44Z</time>
      </trkpt>
      <trkpt lat="45.745983431115746" lon="7.855727272108197">
        <ele>1531.72</ele>
        <time>2023-07-23T15:04:51Z</time>
      </trkpt>
      <trkpt lat="45.745987789705396" lon="7.855682848021388">
        <ele>1531.5799999999999</ele>
        <time>2023-07-23T15:04:54Z</time>
      </trkpt>
      <trkpt lat="45.746053252369165" lon="7.855452010408044">
        <ele>1530.4100000000001</ele>
        <time>2023-07-23T15:05:12Z</time>
      </trkpt>
      <trkpt lat="45.746067501604557" lon="7.855410855263472">
        <ele>1529.76</ele>
        <time>2023-07-23T15:05:16Z</time>
      </trkpt>
      <trkpt lat="45.746072782203555" lon="7.855394091457129">
        <ele>1529.55</ele>
        <time>2023-07-23T15:05:17Z</time>
      </trkpt>
      <trkpt lat="45.746079487726092" lon="7.855379087850452">
        <ele>1529.3199999999999</ele>
        <time>2023-07-23T15:05:18Z</time>
      </trkpt>
      <trkpt lat="45.746113266795874" lon="7.855338267982006">
        <ele>1528.22</ele>
        <time>2023-07-23T15:05:23Z</time>
      </trkpt>
      <trkpt lat="45.74622692540288" lon="7.855227459222078">
        <ele>1523.8800000000001</ele>
        <time>2023-07-23T15:05:44Z</time>
      </trkpt>
      <trkpt lat="45.746284760534763" lon="7.855093767866492">
        <ele>1519.3699999999999</ele>
        <time>2023-07-23T15:06:07Z</time>
      </trkpt>
      <trkpt lat="45.746393809095025" lon="7.854951526969671">
        <ele>1515.8900000000001</ele>
        <time>2023-07-23T15:06:30Z</time>
      </trkpt>
      <trkpt lat="45.746507551521063" lon="7.854733681306243">
        <ele>1511.48</ele>
        <time>2023-07-23T15:06:54Z</time>
      </trkpt>
      <trkpt lat="45.746512748301029" lon="7.854521116241813">
        <ele>1507.55</ele>
        <time>2023-07-23T15:07:16Z</time>
      </trkpt>
      <trkpt lat="45.746555496007204" lon="7.854367475956678">
        <ele>1505.96</ele>
        <time>2023-07-23T15:07:28Z</time>
      </trkpt>
      <trkpt lat="45.746644763275981" lon="7.854225151240826">
        <ele>1505.0999999999999</ele>
        <time>2023-07-23T15:07:49Z</time>
      </trkpt>
      <trkpt lat="45.746693881228566" lon="7.854116186499596">
        <ele>1502.4400000000001</ele>
        <time>2023-07-23T15:08:09Z</time>
      </trkpt>
      <trkpt lat="45.746805109083652" lon="7.854054579511285">
        <ele>1501.96</ele>
        <time>2023-07-23T15:08:26Z</time>
      </trkpt>
      <trkpt lat="45.746867135167122" lon="7.853889791294932">
        <ele>1500.8800000000001</ele>
        <time>2023-07-23T15:08:45Z</time>
      </trkpt>
      <trkpt lat="45.746923545375466" lon="7.853773199021816">
        <ele>1500.03</ele>
        <time>2023-07-23T15:09:00Z</time>
      </trkpt>
      <trkpt lat="45.747020272538066" lon="7.853709999471903">
        <ele>1497.22</ele>
        <time>2023-07-23T15:09:17Z</time>
      </trkpt>
      <trkpt lat="45.747115826234221" lon="7.853597346693277">
        <ele>1493.1900000000001</ele>
        <time>2023-07-23T15:09:35Z</time>
      </trkpt>
      <trkpt lat="45.747152622789145" lon="7.853513360023499">
        <ele>1489.77</ele>
        <time>2023-07-23T15:09:48Z</time>
      </trkpt>
      <trkpt lat="45.747272400185466" lon="7.853389475494623">
        <ele>1484.71</ele>
        <time>2023-07-23T15:10:08Z</time>
      </trkpt>
      <trkpt lat="45.747383879497647" lon="7.853238517418504">
        <ele>1478.3499999999999</ele>
        <time>2023-07-23T15:10:28Z</time>
      </trkpt>
      <trkpt lat="45.747392093762755" lon="7.853121925145388">
        <ele>1475.1600000000001</ele>
        <time>2023-07-23T15:10:48Z</time>
      </trkpt>
      <trkpt lat="45.7474035769701" lon="7.853000974282622">
        <ele>1471.76</ele>
        <time>2023-07-23T15:11:07Z</time>
      </trkpt>
      <trkpt lat="45.747456718236208" lon="7.85283325240016">
        <ele>1467.4000000000001</ele>
        <time>2023-07-23T15:11:26Z</time>
      </trkpt>
      <trkpt lat="45.747485300526023" lon="7.852757647633553">
        <ele>1465.8900000000001</ele>
        <time>2023-07-23T15:11:32Z</time>
      </trkpt>
      <trkpt lat="45.747604575008154" lon="7.852597218006849">
        <ele>1460.77</ele>
        <time>2023-07-23T15:11:53Z</time>
      </trkpt>
      <trkpt lat="45.747715467587113" lon="7.85251758992672">
        <ele>1456.4300000000001</ele>
        <time>2023-07-23T15:12:12Z</time>
      </trkpt>
      <trkpt lat="45.747752012684941" lon="7.852342491969466">
        <ele>1451.6900000000001</ele>
        <time>2023-07-23T15:12:35Z</time>
      </trkpt>
      <trkpt lat="45.747819235548377" lon="7.852215003222227">
        <ele>1449.0799999999999</ele>
        <time>2023-07-23T15:12:46Z</time>
      </trkpt>
      <trkpt lat="45.747882351279259" lon="7.852148283272982">
        <ele>1447.3299999999999</ele>
        <time>2023-07-23T15:13:00Z</time>
      </trkpt>
      <trkpt lat="45.747938174754381" lon="7.851995900273323">
        <ele>1444.3199999999999</ele>
        <time>2023-07-23T15:13:19Z</time>
      </trkpt>
      <trkpt lat="45.747989136725664" lon="7.85192096605897">
        <ele>1441.8499999999999</ele>
        <time>2023-07-23T15:13:35Z</time>
      </trkpt>
      <trkpt lat="45.748036913573742" lon="7.85173337906599">
        <ele>1438.3399999999999</ele>
        <time>2023-07-23T15:13:56Z</time>
      </trkpt>
      <trkpt lat="45.748073626309633" lon="7.851688368245959">
        <ele>1436.9300000000001</ele>
        <time>2023-07-23T15:14:02Z</time>
      </trkpt>
      <trkpt lat="45.748107070103288" lon="7.851642854511738">
        <ele>1434.6700000000001</ele>
        <time>2023-07-23T15:14:09Z</time>
      </trkpt>
      <trkpt lat="45.74812333099544" lon="7.851626509800553">
        <ele>1434.0799999999999</ele>
        <time>2023-07-23T15:14:11Z</time>
      </trkpt>
      <trkpt lat="45.748185021802783" lon="7.851535147055984">
        <ele>1430.47</ele>
        <time>2023-07-23T15:14:26Z</time>
      </trkpt>
      <trkpt lat="45.748226260766387" lon="7.851419728249311">
        <ele>1426.0699999999999</ele>
        <time>2023-07-23T15:14:44Z</time>
      </trkpt>
      <trkpt lat="45.748309660702944" lon="7.851275810971856">
        <ele>1420.3299999999999</ele>
        <time>2023-07-23T15:15:03Z</time>
      </trkpt>
      <trkpt lat="45.748418206349015" lon="7.851113956421614">
        <ele>1413.9400000000001</ele>
        <time>2023-07-23T15:15:25Z</time>
      </trkpt>
      <trkpt lat="45.748510072007775" lon="7.850938523188233">
        <ele>1409.8699999999999</ele>
        <time>2023-07-23T15:15:46Z</time>
      </trkpt>
      <trkpt lat="45.748523399233818" lon="7.850792007520795">
        <ele>1407.29</ele>
        <time>2023-07-23T15:16:05Z</time>
      </trkpt>
      <trkpt lat="45.748575534671545" lon="7.850602827966213">
        <ele>1406.05</ele>
        <time>2023-07-23T15:16:26Z</time>
      </trkpt>
      <trkpt lat="45.748611157760024" lon="7.850531749427319">
        <ele>1404.5899999999999</ele>
        <time>2023-07-23T15:16:33Z</time>
      </trkpt>
      <trkpt lat="45.748626915737987" lon="7.850504172965884">
        <ele>1403.8499999999999</ele>
        <time>2023-07-23T15:16:36Z</time>
      </trkpt>
      <trkpt lat="45.748726911842823" lon="7.850406691431999">
        <ele>1398.4400000000001</ele>
        <time>2023-07-23T15:16:53Z</time>
      </trkpt>
      <trkpt lat="45.748836966231465" lon="7.850190186873078">
        <ele>1390.97</ele>
        <time>2023-07-23T15:17:16Z</time>
      </trkpt>
      <trkpt lat="45.748890610411763" lon="7.84991123713553">
        <ele>1383.1800000000001</ele>
        <time>2023-07-23T15:17:40Z</time>
      </trkpt>
      <trkpt lat="45.74900628067553" lon="7.849686518311501">
        <ele>1377.22</ele>
        <time>2023-07-23T15:18:03Z</time>
      </trkpt>
      <trkpt lat="45.749074257910252" lon="7.849468002095819">
        <ele>1370.3</ele>
        <time>2023-07-23T15:18:28Z</time>
      </trkpt>
      <trkpt lat="45.749164531007409" lon="7.849188214167953">
        <ele>1364.51</ele>
        <time>2023-07-23T15:18:50Z</time>
      </trkpt>
      <trkpt lat="45.749265616759658" lon="7.848974978551269">
        <ele>1359.9000000000001</ele>
        <time>2023-07-23T15:19:10Z</time>
      </trkpt>
      <trkpt lat="45.749354381114244" lon="7.848766436800361">
        <ele>1355.24</ele>
        <time>2023-07-23T15:19:31Z</time>
      </trkpt>
      <trkpt lat="45.749384136870503" lon="7.848637690767646">
        <ele>1351.6300000000001</ele>
        <time>2023-07-23T15:19:45Z</time>
      </trkpt>
      <trkpt lat="45.749422442167997" lon="7.848400734364986">
        <ele>1346.8299999999999</ele>
        <time>2023-07-23T15:20:02Z</time>
      </trkpt>
      <trkpt lat="45.749516654759645" lon="7.84819521009922">
        <ele>1342.49</ele>
        <time>2023-07-23T15:20:24Z</time>
      </trkpt>
      <trkpt lat="45.749556804075837" lon="7.848133351653814">
        <ele>1341.8599999999999</ele>
        <time>2023-07-23T15:20:30Z</time>
      </trkpt>
      <trkpt lat="45.749606173485518" lon="7.847981723025441">
        <ele>1340.75</ele>
        <time>2023-07-23T15:20:44Z</time>
      </trkpt>
      <trkpt lat="45.749463848769665" lon="7.847740575671196">
        <ele>1337.5699999999999</ele>
        <time>2023-07-23T15:21:09Z</time>
      </trkpt>
      <trkpt lat="45.749471811577678" lon="7.847596574574709">
        <ele>1339.26</ele>
        <time>2023-07-23T15:21:19Z</time>
      </trkpt>
      <trkpt lat="45.749611956998706" lon="7.847369844093919">
        <ele>1344.49</ele>
        <time>2023-07-23T15:21:35Z</time>
      </trkpt>
      <trkpt lat="45.749686891213059" lon="7.84716515801847">
        <ele>1348.46</ele>
        <time>2023-07-23T15:21:51Z</time>
      </trkpt>
      <trkpt lat="45.749679179862142" lon="7.847134731709957">
        <ele>1349.6199999999999</ele>
        <time>2023-07-23T15:22:13Z</time>
      </trkpt>
      <trkpt lat="45.749655794352293" lon="7.847119895741344">
        <ele>1350.1600000000001</ele>
        <time>2023-07-23T15:22:28Z</time>
      </trkpt>
      <trkpt lat="45.749663002789021" lon="7.84712458960712">
        <ele>1350.5999999999999</ele>
        <time>2023-07-23T15:22:46Z</time>
      </trkpt>
      <trkpt lat="45.749670881778002" lon="7.847088798880577">
        <ele>1350.76</ele>
        <time>2023-07-23T15:23:02Z</time>
      </trkpt>
      <trkpt lat="45.749689154326916" lon="7.84703029319644">
        <ele>1350.5899999999999</ele>
        <time>2023-07-23T15:23:18Z</time>
      </trkpt>
      <trkpt lat="45.74974162504077" lon="7.846850752830505">
        <ele>1349.0799999999999</ele>
        <time>2023-07-23T15:23:36Z</time>
      </trkpt>
      <trkpt lat="45.749818570911884" lon="7.846714714542031">
        <ele>1347.27</ele>
        <time>2023-07-23T15:23:50Z</time>
      </trkpt>
      <trkpt lat="45.749798789620399" lon="7.846509190276265">
        <ele>1345.3</ele>
        <time>2023-07-23T15:24:09Z</time>
      </trkpt>
      <trkpt lat="45.749764842912555" lon="7.846490247175098">
        <ele>1345.0599999999999</ele>
        <time>2023-07-23T15:24:12Z</time>
      </trkpt>
      <trkpt lat="45.749661913141608" lon="7.846386227756739">
        <ele>1342.3699999999999</ele>
        <time>2023-07-23T15:24:27Z</time>
      </trkpt>
      <trkpt lat="45.749636935070157" lon="7.846247088164091">
        <ele>1340.8299999999999</ele>
        <time>2023-07-23T15:24:40Z</time>
      </trkpt>
      <trkpt lat="45.749546494334936" lon="7.846124628558755">
        <ele>1340.4300000000001</ele>
        <time>2023-07-23T15:24:54Z</time>
      </trkpt>
      <trkpt lat="45.749538028612733" lon="7.846116246655583">
        <ele>1340.3</ele>
        <time>2023-07-23T15:24:55Z</time>
      </trkpt>
      <trkpt lat="45.749457059428096" lon="7.845949279144406">
        <ele>1337.9100000000001</ele>
        <time>2023-07-23T15:25:12Z</time>
      </trkpt>
      <trkpt lat="45.749456640332937" lon="7.845807541161776">
        <ele>1335.8599999999999</ele>
        <time>2023-07-23T15:25:30Z</time>
      </trkpt>
      <trkpt lat="45.74938639998436" lon="7.845668150112033">
        <ele>1330.7</ele>
        <time>2023-07-23T15:25:51Z</time>
      </trkpt>
      <trkpt lat="45.749352872371674" lon="7.845561364665628">
        <ele>1328.6300000000001</ele>
        <time>2023-07-23T15:26:07Z</time>
      </trkpt>
      <trkpt lat="45.749410623684525" lon="7.845472600311041">
        <ele>1328.8199999999999</ele>
        <time>2023-07-23T15:26:22Z</time>
      </trkpt>
      <trkpt lat="45.749488659203053" lon="7.845398169010878">
        <ele>1328.24</ele>
        <time>2023-07-23T15:26:31Z</time>
      </trkpt>
      <trkpt lat="45.749656464904547" lon="7.84523606300354">
        <ele>1325.5</ele>
        <time>2023-07-23T15:26:51Z</time>
      </trkpt>
      <trkpt lat="45.74970306828618" lon="7.845187615603209">
        <ele>1324.5</ele>
        <time>2023-07-23T15:26:58Z</time>
      </trkpt>
      <trkpt lat="45.749818235635757" lon="7.845054594799876">
        <ele>1320.6500000000001</ele>
        <time>2023-07-23T15:27:13Z</time>
      </trkpt>
      <trkpt lat="45.749880848452449" lon="7.844978235661984">
        <ele>1318.29</ele>
        <time>2023-07-23T15:27:24Z</time>
      </trkpt>
      <trkpt lat="45.749893002212048" lon="7.844957113265991">
        <ele>1317.8499999999999</ele>
        <time>2023-07-23T15:27:26Z</time>
      </trkpt>
      <trkpt lat="45.749915298074484" lon="7.844883017241955">
        <ele>1316.77</ele>
        <time>2023-07-23T15:27:32Z</time>
      </trkpt>
      <trkpt lat="45.749843213707209" lon="7.844630973413587">
        <ele>1314.4000000000001</ele>
        <time>2023-07-23T15:27:50Z</time>
      </trkpt>
      <trkpt lat="45.749732321128249" lon="7.844346826896071">
        <ele>1312.72</ele>
        <time>2023-07-23T15:28:08Z</time>
      </trkpt>
      <trkpt lat="45.749666523188353" lon="7.844133758917451">
        <ele>1312.71</ele>
        <time>2023-07-23T15:28:22Z</time>
      </trkpt>
      <trkpt lat="45.749622015282512" lon="7.844017837196589">
        <ele>1313.5599999999999</ele>
        <time>2023-07-23T15:28:38Z</time>
      </trkpt>
      <trkpt lat="45.749617572873831" lon="7.844005851075053">
        <ele>1313.8299999999999</ele>
        <time>2023-07-23T15:28:50Z</time>
      </trkpt>
      <trkpt lat="45.749507686123252" lon="7.843952877447009">
        <ele>1312.99</ele>
        <time>2023-07-23T15:29:01Z</time>
      </trkpt>
      <trkpt lat="45.749362679198384" lon="7.843952206894755">
        <ele>1311.73</ele>
        <time>2023-07-23T15:29:14Z</time>
      </trkpt>
      <trkpt lat="45.749144749715924" lon="7.844019345939159">
        <ele>1310.05</ele>
        <time>2023-07-23T15:29:33Z</time>
      </trkpt>
      <trkpt lat="45.749002676457167" lon="7.844028985127807">
        <ele>1308.3399999999999</ele>
        <time>2023-07-23T15:29:49Z</time>
      </trkpt>
      <trkpt lat="45.749000832438469" lon="7.843961594626308">
        <ele>1308.4200000000001</ele>
        <time>2023-07-23T15:30:02Z</time>
      </trkpt>
      <trkpt lat="45.748961437493563" lon="7.843817342072725">
        <ele>1309.0999999999999</ele>
        <time>2023-07-23T15:30:18Z</time>
      </trkpt>
      <trkpt lat="45.748966382816434" lon="7.843794040381908">
        <ele>1309.6600000000001</ele>
        <time>2023-07-23T15:30:38Z</time>
      </trkpt>
    </trkseg>
  </trk>

</gpx>